<?xml version="1.0" encoding="UTF-8" standalone="no" ?>
<gpx xmlns="http://www.topografix.com/GPX/1/1" xmlns:xsi="http://www.w3.org/2001/XMLSchema-instance" xsi:schemaLocation="http://www.topografix.com/GPX/1/1 http://www.topografix.com/GPX/1/1/gpx.xsd" version="1.1" creator="VisuGPX - https://www.visugpx.com">
  <metadata>
    <name>Le Suquet Pelasque baisse Cangelard Lantosque</name>
    <desc><![CDATA[Jolie sortie à la matinée avec la fraicheur...belle descente sur Lantosque des anciennes Transvésubiennes.
Il faut que je retrouve la variante de la Trans 2017 de la Baisse de Cangelard dirtect sur Pélasque supérieur puis le petit pont de pierre du Suquet.]]></desc>
  </metadata>
  <trk>
    <name><![CDATA[Lantosque Cyclisme]]></name>
    <trkseg>
      <trkpt lat="43.9429" lon="7.28303">
        <ele>347.20001220703</ele>
        <time>2020-06-30T06:59:06.000Z</time>
      </trkpt>
      <trkpt lat="43.94289" lon="7.283">
        <ele>347</ele>
        <time>2020-06-30T06:59:13.000Z</time>
      </trkpt>
      <trkpt lat="43.94291" lon="7.28302">
        <ele>347</ele>
        <time>2020-06-30T06:59:17.000Z</time>
      </trkpt>
      <trkpt lat="43.94292" lon="7.28301">
        <ele>347.60000610352</ele>
        <time>2020-06-30T06:59:24.000Z</time>
      </trkpt>
      <trkpt lat="43.94297" lon="7.28302">
        <ele>347.20001220703</ele>
        <time>2020-06-30T06:59:29.000Z</time>
      </trkpt>
      <trkpt lat="43.94302" lon="7.28298">
        <ele>347.20001220703</ele>
        <time>2020-06-30T06:59:33.000Z</time>
      </trkpt>
      <trkpt lat="43.94304" lon="7.28295">
        <ele>347.20001220703</ele>
        <time>2020-06-30T06:59:35.000Z</time>
      </trkpt>
      <trkpt lat="43.94311" lon="7.28291">
        <ele>347.39999389648</ele>
        <time>2020-06-30T06:59:40.000Z</time>
      </trkpt>
      <trkpt lat="43.94316" lon="7.28291">
        <ele>347.39999389648</ele>
        <time>2020-06-30T06:59:42.000Z</time>
      </trkpt>
      <trkpt lat="43.94326" lon="7.28293">
        <ele>347.60000610352</ele>
        <time>2020-06-30T06:59:46.000Z</time>
      </trkpt>
      <trkpt lat="43.94339" lon="7.28283">
        <ele>348.20001220703</ele>
        <time>2020-06-30T06:59:52.000Z</time>
      </trkpt>
      <trkpt lat="43.9434" lon="7.28279">
        <ele>348.20001220703</ele>
        <time>2020-06-30T06:59:53.000Z</time>
      </trkpt>
      <trkpt lat="43.94339" lon="7.28276">
        <ele>348.39999389648</ele>
        <time>2020-06-30T06:59:54.000Z</time>
      </trkpt>
      <trkpt lat="43.94337" lon="7.28269">
        <ele>348.60000610352</ele>
        <time>2020-06-30T06:59:56.000Z</time>
      </trkpt>
      <trkpt lat="43.94335" lon="7.28263">
        <ele>348.79998779297</ele>
        <time>2020-06-30T06:59:58.000Z</time>
      </trkpt>
      <trkpt lat="43.9433" lon="7.28255">
        <ele>349.39999389648</ele>
        <time>2020-06-30T07:00:01.000Z</time>
      </trkpt>
      <trkpt lat="43.94327" lon="7.2825">
        <ele>349.79998779297</ele>
        <time>2020-06-30T07:00:03.000Z</time>
      </trkpt>
      <trkpt lat="43.94323" lon="7.2824">
        <ele>350.39999389648</ele>
        <time>2020-06-30T07:00:06.000Z</time>
      </trkpt>
      <trkpt lat="43.94319" lon="7.28228">
        <ele>351</ele>
        <time>2020-06-30T07:00:10.000Z</time>
      </trkpt>
      <trkpt lat="43.94317" lon="7.28215">
        <ele>351.39999389648</ele>
        <time>2020-06-30T07:00:14.000Z</time>
      </trkpt>
      <trkpt lat="43.94317" lon="7.28204">
        <ele>352</ele>
        <time>2020-06-30T07:00:17.000Z</time>
      </trkpt>
      <trkpt lat="43.94319" lon="7.28191">
        <ele>352.60000610352</ele>
        <time>2020-06-30T07:00:21.000Z</time>
      </trkpt>
      <trkpt lat="43.94321" lon="7.28182">
        <ele>353</ele>
        <time>2020-06-30T07:00:24.000Z</time>
      </trkpt>
      <trkpt lat="43.94323" lon="7.28165">
        <ele>353.60000610352</ele>
        <time>2020-06-30T07:00:29.000Z</time>
      </trkpt>
      <trkpt lat="43.94325" lon="7.28156">
        <ele>354.20001220703</ele>
        <time>2020-06-30T07:00:32.000Z</time>
      </trkpt>
      <trkpt lat="43.94328" lon="7.28147">
        <ele>354.79998779297</ele>
        <time>2020-06-30T07:00:36.000Z</time>
      </trkpt>
      <trkpt lat="43.94329" lon="7.28139">
        <ele>355</ele>
        <time>2020-06-30T07:00:39.000Z</time>
      </trkpt>
      <trkpt lat="43.94331" lon="7.2813">
        <ele>355.39999389648</ele>
        <time>2020-06-30T07:00:42.000Z</time>
      </trkpt>
      <trkpt lat="43.94332" lon="7.28125">
        <ele>355.79998779297</ele>
        <time>2020-06-30T07:00:44.000Z</time>
      </trkpt>
      <trkpt lat="43.94333" lon="7.28114">
        <ele>356.20001220703</ele>
        <time>2020-06-30T07:00:48.000Z</time>
      </trkpt>
      <trkpt lat="43.94333" lon="7.28108">
        <ele>356.39999389648</ele>
        <time>2020-06-30T07:00:50.000Z</time>
      </trkpt>
      <trkpt lat="43.94334" lon="7.28097">
        <ele>356.79998779297</ele>
        <time>2020-06-30T07:00:54.000Z</time>
      </trkpt>
      <trkpt lat="43.94335" lon="7.28087">
        <ele>357.20001220703</ele>
        <time>2020-06-30T07:00:57.000Z</time>
      </trkpt>
      <trkpt lat="43.94337" lon="7.28074">
        <ele>358</ele>
        <time>2020-06-30T07:01:02.000Z</time>
      </trkpt>
      <trkpt lat="43.94336" lon="7.28072">
        <ele>358</ele>
        <time>2020-06-30T07:01:03.000Z</time>
      </trkpt>
      <trkpt lat="43.94339" lon="7.28055">
        <ele>359</ele>
        <time>2020-06-30T07:01:09.000Z</time>
      </trkpt>
      <trkpt lat="43.94342" lon="7.28035">
        <ele>359.60000610352</ele>
        <time>2020-06-30T07:01:16.000Z</time>
      </trkpt>
      <trkpt lat="43.94344" lon="7.28029">
        <ele>360</ele>
        <time>2020-06-30T07:01:18.000Z</time>
      </trkpt>
      <trkpt lat="43.94348" lon="7.28018">
        <ele>360.39999389648</ele>
        <time>2020-06-30T07:01:22.000Z</time>
      </trkpt>
      <trkpt lat="43.94358" lon="7.27992">
        <ele>360.79998779297</ele>
        <time>2020-06-30T07:01:31.000Z</time>
      </trkpt>
      <trkpt lat="43.9436" lon="7.27989">
        <ele>361</ele>
        <time>2020-06-30T07:01:32.000Z</time>
      </trkpt>
      <trkpt lat="43.94367" lon="7.2797">
        <ele>362</ele>
        <time>2020-06-30T07:01:39.000Z</time>
      </trkpt>
      <trkpt lat="43.94373" lon="7.27958">
        <ele>362.79998779297</ele>
        <time>2020-06-30T07:01:44.000Z</time>
      </trkpt>
      <trkpt lat="43.94376" lon="7.27954">
        <ele>363.20001220703</ele>
        <time>2020-06-30T07:01:46.000Z</time>
      </trkpt>
      <trkpt lat="43.94385" lon="7.27943">
        <ele>364</ele>
        <time>2020-06-30T07:01:52.000Z</time>
      </trkpt>
      <trkpt lat="43.94388" lon="7.27939">
        <ele>364.20001220703</ele>
        <time>2020-06-30T07:01:54.000Z</time>
      </trkpt>
      <trkpt lat="43.94397" lon="7.27926">
        <ele>365.39999389648</ele>
        <time>2020-06-30T07:02:00.000Z</time>
      </trkpt>
      <trkpt lat="43.944" lon="7.27921">
        <ele>365.79998779297</ele>
        <time>2020-06-30T07:02:03.000Z</time>
      </trkpt>
      <trkpt lat="43.94402" lon="7.27917">
        <ele>366</ele>
        <time>2020-06-30T07:02:05.000Z</time>
      </trkpt>
      <trkpt lat="43.94406" lon="7.27915">
        <ele>366.39999389648</ele>
        <time>2020-06-30T07:02:07.000Z</time>
      </trkpt>
      <trkpt lat="43.94411" lon="7.27908">
        <ele>366.79998779297</ele>
        <time>2020-06-30T07:02:11.000Z</time>
      </trkpt>
      <trkpt lat="43.94421" lon="7.27892">
        <ele>367</ele>
        <time>2020-06-30T07:02:18.000Z</time>
      </trkpt>
      <trkpt lat="43.94425" lon="7.27883">
        <ele>367.39999389648</ele>
        <time>2020-06-30T07:02:22.000Z</time>
      </trkpt>
      <trkpt lat="43.94428" lon="7.27875">
        <ele>367.79998779297</ele>
        <time>2020-06-30T07:02:25.000Z</time>
      </trkpt>
      <trkpt lat="43.94432" lon="7.27863">
        <ele>368.60000610352</ele>
        <time>2020-06-30T07:02:30.000Z</time>
      </trkpt>
      <trkpt lat="43.94434" lon="7.27858">
        <ele>369</ele>
        <time>2020-06-30T07:02:32.000Z</time>
      </trkpt>
      <trkpt lat="43.9444" lon="7.27844">
        <ele>369.60000610352</ele>
        <time>2020-06-30T07:02:38.000Z</time>
      </trkpt>
      <trkpt lat="43.94441" lon="7.27841">
        <ele>369.79998779297</ele>
        <time>2020-06-30T07:02:39.000Z</time>
      </trkpt>
      <trkpt lat="43.94449" lon="7.27829">
        <ele>370.60000610352</ele>
        <time>2020-06-30T07:02:45.000Z</time>
      </trkpt>
      <trkpt lat="43.94452" lon="7.27825">
        <ele>371.20001220703</ele>
        <time>2020-06-30T07:02:47.000Z</time>
      </trkpt>
      <trkpt lat="43.94459" lon="7.27815">
        <ele>371.79998779297</ele>
        <time>2020-06-30T07:02:52.000Z</time>
      </trkpt>
      <trkpt lat="43.94464" lon="7.27806">
        <ele>372.20001220703</ele>
        <time>2020-06-30T07:02:56.000Z</time>
      </trkpt>
      <trkpt lat="43.9447" lon="7.27794">
        <ele>372.79998779297</ele>
        <time>2020-06-30T07:03:01.000Z</time>
      </trkpt>
      <trkpt lat="43.94476" lon="7.27783">
        <ele>373.60000610352</ele>
        <time>2020-06-30T07:03:06.000Z</time>
      </trkpt>
      <trkpt lat="43.9448" lon="7.27777">
        <ele>373.79998779297</ele>
        <time>2020-06-30T07:03:09.000Z</time>
      </trkpt>
      <trkpt lat="43.94488" lon="7.27765">
        <ele>374.60000610352</ele>
        <time>2020-06-30T07:03:15.000Z</time>
      </trkpt>
      <trkpt lat="43.94492" lon="7.27757">
        <ele>375</ele>
        <time>2020-06-30T07:03:18.000Z</time>
      </trkpt>
      <trkpt lat="43.945" lon="7.27744">
        <ele>375.79998779297</ele>
        <time>2020-06-30T07:03:24.000Z</time>
      </trkpt>
      <trkpt lat="43.94503" lon="7.27739">
        <ele>376.20001220703</ele>
        <time>2020-06-30T07:03:26.000Z</time>
      </trkpt>
      <trkpt lat="43.94509" lon="7.27729">
        <ele>376.39999389648</ele>
        <time>2020-06-30T07:03:30.000Z</time>
      </trkpt>
      <trkpt lat="43.94511" lon="7.27725">
        <ele>376.79998779297</ele>
        <time>2020-06-30T07:03:32.000Z</time>
      </trkpt>
      <trkpt lat="43.94516" lon="7.27719">
        <ele>377.20001220703</ele>
        <time>2020-06-30T07:03:35.000Z</time>
      </trkpt>
      <trkpt lat="43.94519" lon="7.27716">
        <ele>377.60000610352</ele>
        <time>2020-06-30T07:03:37.000Z</time>
      </trkpt>
      <trkpt lat="43.94527" lon="7.27709">
        <ele>378.39999389648</ele>
        <time>2020-06-30T07:03:42.000Z</time>
      </trkpt>
      <trkpt lat="43.94533" lon="7.27704">
        <ele>378.79998779297</ele>
        <time>2020-06-30T07:03:45.000Z</time>
      </trkpt>
      <trkpt lat="43.94547" lon="7.27695">
        <ele>379.39999389648</ele>
        <time>2020-06-30T07:03:52.000Z</time>
      </trkpt>
      <trkpt lat="43.94552" lon="7.27689">
        <ele>379.60000610352</ele>
        <time>2020-06-30T07:03:55.000Z</time>
      </trkpt>
      <trkpt lat="43.94561" lon="7.27681">
        <ele>380.39999389648</ele>
        <time>2020-06-30T07:04:00.000Z</time>
      </trkpt>
      <trkpt lat="43.94568" lon="7.27675">
        <ele>381</ele>
        <time>2020-06-30T07:04:04.000Z</time>
      </trkpt>
      <trkpt lat="43.94573" lon="7.2767">
        <ele>381.60000610352</ele>
        <time>2020-06-30T07:04:07.000Z</time>
      </trkpt>
      <trkpt lat="43.94579" lon="7.27662">
        <ele>382.20001220703</ele>
        <time>2020-06-30T07:04:11.000Z</time>
      </trkpt>
      <trkpt lat="43.94583" lon="7.27656">
        <ele>382.60000610352</ele>
        <time>2020-06-30T07:04:14.000Z</time>
      </trkpt>
      <trkpt lat="43.94591" lon="7.27647">
        <ele>383.39999389648</ele>
        <time>2020-06-30T07:04:19.000Z</time>
      </trkpt>
      <trkpt lat="43.94593" lon="7.27646">
        <ele>383.60000610352</ele>
        <time>2020-06-30T07:04:20.000Z</time>
      </trkpt>
      <trkpt lat="43.94607" lon="7.27632">
        <ele>384.60000610352</ele>
        <time>2020-06-30T07:04:29.000Z</time>
      </trkpt>
      <trkpt lat="43.94619" lon="7.27616">
        <ele>385.60000610352</ele>
        <time>2020-06-30T07:04:37.000Z</time>
      </trkpt>
      <trkpt lat="43.94621" lon="7.27614">
        <ele>385.79998779297</ele>
        <time>2020-06-30T07:04:38.000Z</time>
      </trkpt>
      <trkpt lat="43.94627" lon="7.27602">
        <ele>386.60000610352</ele>
        <time>2020-06-30T07:04:44.000Z</time>
      </trkpt>
      <trkpt lat="43.94629" lon="7.27597">
        <ele>386.79998779297</ele>
        <time>2020-06-30T07:04:46.000Z</time>
      </trkpt>
      <trkpt lat="43.94635" lon="7.27586">
        <ele>387.60000610352</ele>
        <time>2020-06-30T07:04:51.000Z</time>
      </trkpt>
      <trkpt lat="43.94638" lon="7.27582">
        <ele>387.79998779297</ele>
        <time>2020-06-30T07:04:53.000Z</time>
      </trkpt>
      <trkpt lat="43.94645" lon="7.27567">
        <ele>388.60000610352</ele>
        <time>2020-06-30T07:04:59.000Z</time>
      </trkpt>
      <trkpt lat="43.94651" lon="7.2756">
        <ele>389</ele>
        <time>2020-06-30T07:05:02.000Z</time>
      </trkpt>
      <trkpt lat="43.94655" lon="7.27552">
        <ele>389.20001220703</ele>
        <time>2020-06-30T07:05:05.000Z</time>
      </trkpt>
      <trkpt lat="43.9466" lon="7.27537">
        <ele>390.20001220703</ele>
        <time>2020-06-30T07:05:11.000Z</time>
      </trkpt>
      <trkpt lat="43.94661" lon="7.27531">
        <ele>390.39999389648</ele>
        <time>2020-06-30T07:05:13.000Z</time>
      </trkpt>
      <trkpt lat="43.94663" lon="7.27519">
        <ele>391.20001220703</ele>
        <time>2020-06-30T07:05:17.000Z</time>
      </trkpt>
      <trkpt lat="43.94666" lon="7.27503">
        <ele>391.79998779297</ele>
        <time>2020-06-30T07:05:22.000Z</time>
      </trkpt>
      <trkpt lat="43.94667" lon="7.27495">
        <ele>392.20001220703</ele>
        <time>2020-06-30T07:05:25.000Z</time>
      </trkpt>
      <trkpt lat="43.94667" lon="7.2748">
        <ele>393</ele>
        <time>2020-06-30T07:05:30.000Z</time>
      </trkpt>
      <trkpt lat="43.94666" lon="7.27474">
        <ele>393.20001220703</ele>
        <time>2020-06-30T07:05:32.000Z</time>
      </trkpt>
      <trkpt lat="43.94661" lon="7.2746">
        <ele>393.79998779297</ele>
        <time>2020-06-30T07:05:37.000Z</time>
      </trkpt>
      <trkpt lat="43.94656" lon="7.27445">
        <ele>394.20001220703</ele>
        <time>2020-06-30T07:05:42.000Z</time>
      </trkpt>
      <trkpt lat="43.94652" lon="7.27433">
        <ele>394.60000610352</ele>
        <time>2020-06-30T07:05:46.000Z</time>
      </trkpt>
      <trkpt lat="43.94656" lon="7.27417">
        <ele>395.20001220703</ele>
        <time>2020-06-30T07:05:51.000Z</time>
      </trkpt>
      <trkpt lat="43.94658" lon="7.27415">
        <ele>395.39999389648</ele>
        <time>2020-06-30T07:05:52.000Z</time>
      </trkpt>
      <trkpt lat="43.94665" lon="7.27412">
        <ele>395.79998779297</ele>
        <time>2020-06-30T07:05:55.000Z</time>
      </trkpt>
      <trkpt lat="43.94673" lon="7.27409">
        <ele>396.39999389648</ele>
        <time>2020-06-30T07:05:59.000Z</time>
      </trkpt>
      <trkpt lat="43.94677" lon="7.27409">
        <ele>396.79998779297</ele>
        <time>2020-06-30T07:06:01.000Z</time>
      </trkpt>
      <trkpt lat="43.94684" lon="7.2741">
        <ele>397.39999389648</ele>
        <time>2020-06-30T07:06:04.000Z</time>
      </trkpt>
      <trkpt lat="43.94696" lon="7.27415">
        <ele>398.20001220703</ele>
        <time>2020-06-30T07:06:10.000Z</time>
      </trkpt>
      <trkpt lat="43.94699" lon="7.27419">
        <ele>398.60000610352</ele>
        <time>2020-06-30T07:06:12.000Z</time>
      </trkpt>
      <trkpt lat="43.94708" lon="7.2743">
        <ele>399.20001220703</ele>
        <time>2020-06-30T07:06:17.000Z</time>
      </trkpt>
      <trkpt lat="43.9471" lon="7.27438">
        <ele>399.60000610352</ele>
        <time>2020-06-30T07:06:20.000Z</time>
      </trkpt>
      <trkpt lat="43.94711" lon="7.27444">
        <ele>400</ele>
        <time>2020-06-30T07:06:22.000Z</time>
      </trkpt>
      <trkpt lat="43.94714" lon="7.27457">
        <ele>400.79998779297</ele>
        <time>2020-06-30T07:06:27.000Z</time>
      </trkpt>
      <trkpt lat="43.94715" lon="7.27459">
        <ele>401</ele>
        <time>2020-06-30T07:06:28.000Z</time>
      </trkpt>
      <trkpt lat="43.94714" lon="7.2747">
        <ele>401.79998779297</ele>
        <time>2020-06-30T07:06:32.000Z</time>
      </trkpt>
      <trkpt lat="43.94714" lon="7.27473">
        <ele>402</ele>
        <time>2020-06-30T07:06:33.000Z</time>
      </trkpt>
      <trkpt lat="43.94712" lon="7.27487">
        <ele>402.79998779297</ele>
        <time>2020-06-30T07:06:38.000Z</time>
      </trkpt>
      <trkpt lat="43.9471" lon="7.27493">
        <ele>403.20001220703</ele>
        <time>2020-06-30T07:06:40.000Z</time>
      </trkpt>
      <trkpt lat="43.9471" lon="7.27502">
        <ele>403.79998779297</ele>
        <time>2020-06-30T07:06:44.000Z</time>
      </trkpt>
      <trkpt lat="43.94709" lon="7.27507">
        <ele>404.20001220703</ele>
        <time>2020-06-30T07:06:46.000Z</time>
      </trkpt>
      <trkpt lat="43.94705" lon="7.27517">
        <ele>405</ele>
        <time>2020-06-30T07:06:50.000Z</time>
      </trkpt>
      <trkpt lat="43.94701" lon="7.27526">
        <ele>405.20001220703</ele>
        <time>2020-06-30T07:06:54.000Z</time>
      </trkpt>
      <trkpt lat="43.94697" lon="7.27536">
        <ele>406</ele>
        <time>2020-06-30T07:06:58.000Z</time>
      </trkpt>
      <trkpt lat="43.94694" lon="7.27544">
        <ele>406.60000610352</ele>
        <time>2020-06-30T07:07:02.000Z</time>
      </trkpt>
      <trkpt lat="43.9469" lon="7.27551">
        <ele>407</ele>
        <time>2020-06-30T07:07:05.000Z</time>
      </trkpt>
      <trkpt lat="43.94686" lon="7.27559">
        <ele>407.60000610352</ele>
        <time>2020-06-30T07:07:09.000Z</time>
      </trkpt>
      <trkpt lat="43.94683" lon="7.27564">
        <ele>408</ele>
        <time>2020-06-30T07:07:11.000Z</time>
      </trkpt>
      <trkpt lat="43.94678" lon="7.27572">
        <ele>408.60000610352</ele>
        <time>2020-06-30T07:07:15.000Z</time>
      </trkpt>
      <trkpt lat="43.94677" lon="7.27576">
        <ele>409</ele>
        <time>2020-06-30T07:07:17.000Z</time>
      </trkpt>
      <trkpt lat="43.94673" lon="7.27583">
        <ele>409.60000610352</ele>
        <time>2020-06-30T07:07:20.000Z</time>
      </trkpt>
      <trkpt lat="43.9467" lon="7.27592">
        <ele>410.20001220703</ele>
        <time>2020-06-30T07:07:24.000Z</time>
      </trkpt>
      <trkpt lat="43.94667" lon="7.276">
        <ele>410.60000610352</ele>
        <time>2020-06-30T07:07:27.000Z</time>
      </trkpt>
      <trkpt lat="43.94665" lon="7.27609">
        <ele>411.20001220703</ele>
        <time>2020-06-30T07:07:31.000Z</time>
      </trkpt>
      <trkpt lat="43.94664" lon="7.27614">
        <ele>411.60000610352</ele>
        <time>2020-06-30T07:07:33.000Z</time>
      </trkpt>
      <trkpt lat="43.9466" lon="7.27625">
        <ele>412.20001220703</ele>
        <time>2020-06-30T07:07:38.000Z</time>
      </trkpt>
      <trkpt lat="43.94658" lon="7.2763">
        <ele>412.60000610352</ele>
        <time>2020-06-30T07:07:40.000Z</time>
      </trkpt>
      <trkpt lat="43.94654" lon="7.27639">
        <ele>413.39999389648</ele>
        <time>2020-06-30T07:07:45.000Z</time>
      </trkpt>
      <trkpt lat="43.94648" lon="7.2765">
        <ele>414.20001220703</ele>
        <time>2020-06-30T07:07:50.000Z</time>
      </trkpt>
      <trkpt lat="43.94647" lon="7.27652">
        <ele>414.39999389648</ele>
        <time>2020-06-30T07:07:51.000Z</time>
      </trkpt>
      <trkpt lat="43.9464" lon="7.27666">
        <ele>415.39999389648</ele>
        <time>2020-06-30T07:07:57.000Z</time>
      </trkpt>
      <trkpt lat="43.94639" lon="7.27669">
        <ele>415.39999389648</ele>
        <time>2020-06-30T07:07:58.000Z</time>
      </trkpt>
      <trkpt lat="43.94635" lon="7.27678">
        <ele>416.20001220703</ele>
        <time>2020-06-30T07:08:03.000Z</time>
      </trkpt>
      <trkpt lat="43.94634" lon="7.2768">
        <ele>416.39999389648</ele>
        <time>2020-06-30T07:08:04.000Z</time>
      </trkpt>
      <trkpt lat="43.94633" lon="7.27681">
        <ele>416.60000610352</ele>
        <time>2020-06-30T07:08:05.000Z</time>
      </trkpt>
      <trkpt lat="43.94631" lon="7.27685">
        <ele>416.79998779297</ele>
        <time>2020-06-30T07:08:07.000Z</time>
      </trkpt>
      <trkpt lat="43.94624" lon="7.27694">
        <ele>417.60000610352</ele>
        <time>2020-06-30T07:08:12.000Z</time>
      </trkpt>
      <trkpt lat="43.94617" lon="7.27707">
        <ele>418.39999389648</ele>
        <time>2020-06-30T07:08:18.000Z</time>
      </trkpt>
      <trkpt lat="43.94614" lon="7.2771">
        <ele>418.79998779297</ele>
        <time>2020-06-30T07:08:20.000Z</time>
      </trkpt>
      <trkpt lat="43.9461" lon="7.27714">
        <ele>419</ele>
        <time>2020-06-30T07:08:22.000Z</time>
      </trkpt>
      <trkpt lat="43.94602" lon="7.2772">
        <ele>420</ele>
        <time>2020-06-30T07:08:27.000Z</time>
      </trkpt>
      <trkpt lat="43.94598" lon="7.27725">
        <ele>420.39999389648</ele>
        <time>2020-06-30T07:08:30.000Z</time>
      </trkpt>
      <trkpt lat="43.94591" lon="7.27733">
        <ele>421</ele>
        <time>2020-06-30T07:08:34.000Z</time>
      </trkpt>
      <trkpt lat="43.94585" lon="7.27739">
        <ele>421.39999389648</ele>
        <time>2020-06-30T07:08:38.000Z</time>
      </trkpt>
      <trkpt lat="43.94579" lon="7.27746">
        <ele>422</ele>
        <time>2020-06-30T07:08:42.000Z</time>
      </trkpt>
      <trkpt lat="43.94575" lon="7.27751">
        <ele>422.60000610352</ele>
        <time>2020-06-30T07:08:45.000Z</time>
      </trkpt>
      <trkpt lat="43.9457" lon="7.27757">
        <ele>423.20001220703</ele>
        <time>2020-06-30T07:08:49.000Z</time>
      </trkpt>
      <trkpt lat="43.94568" lon="7.27759">
        <ele>423.20001220703</ele>
        <time>2020-06-30T07:08:50.000Z</time>
      </trkpt>
      <trkpt lat="43.94561" lon="7.2777">
        <ele>424.20001220703</ele>
        <time>2020-06-30T07:08:56.000Z</time>
      </trkpt>
      <trkpt lat="43.94554" lon="7.27782">
        <ele>425</ele>
        <time>2020-06-30T07:09:01.000Z</time>
      </trkpt>
      <trkpt lat="43.94551" lon="7.27788">
        <ele>425.39999389648</ele>
        <time>2020-06-30T07:09:04.000Z</time>
      </trkpt>
      <trkpt lat="43.94548" lon="7.27796">
        <ele>425.79998779297</ele>
        <time>2020-06-30T07:09:07.000Z</time>
      </trkpt>
      <trkpt lat="43.94546" lon="7.27805">
        <ele>426.39999389648</ele>
        <time>2020-06-30T07:09:11.000Z</time>
      </trkpt>
      <trkpt lat="43.94547" lon="7.27808">
        <ele>426.39999389648</ele>
        <time>2020-06-30T07:09:12.000Z</time>
      </trkpt>
      <trkpt lat="43.94546" lon="7.2781">
        <ele>426.60000610352</ele>
        <time>2020-06-30T07:09:13.000Z</time>
      </trkpt>
      <trkpt lat="43.94545" lon="7.27823">
        <ele>427.39999389648</ele>
        <time>2020-06-30T07:09:18.000Z</time>
      </trkpt>
      <trkpt lat="43.94544" lon="7.27825">
        <ele>427.60000610352</ele>
        <time>2020-06-30T07:09:19.000Z</time>
      </trkpt>
      <trkpt lat="43.9454" lon="7.27841">
        <ele>428.39999389648</ele>
        <time>2020-06-30T07:09:25.000Z</time>
      </trkpt>
      <trkpt lat="43.94539" lon="7.27843">
        <ele>428.60000610352</ele>
        <time>2020-06-30T07:09:26.000Z</time>
      </trkpt>
      <trkpt lat="43.94536" lon="7.27849">
        <ele>429</ele>
        <time>2020-06-30T07:09:29.000Z</time>
      </trkpt>
      <trkpt lat="43.94532" lon="7.2786">
        <ele>429.60000610352</ele>
        <time>2020-06-30T07:09:33.000Z</time>
      </trkpt>
      <trkpt lat="43.94527" lon="7.2787">
        <ele>430.39999389648</ele>
        <time>2020-06-30T07:09:37.000Z</time>
      </trkpt>
      <trkpt lat="43.94524" lon="7.27878">
        <ele>430.79998779297</ele>
        <time>2020-06-30T07:09:40.000Z</time>
      </trkpt>
      <trkpt lat="43.94522" lon="7.27885">
        <ele>431.39999389648</ele>
        <time>2020-06-30T07:09:43.000Z</time>
      </trkpt>
      <trkpt lat="43.94521" lon="7.27894">
        <ele>432</ele>
        <time>2020-06-30T07:09:46.000Z</time>
      </trkpt>
      <trkpt lat="43.94519" lon="7.27902">
        <ele>432.39999389648</ele>
        <time>2020-06-30T07:09:49.000Z</time>
      </trkpt>
      <trkpt lat="43.94517" lon="7.27915">
        <ele>433.20001220703</ele>
        <time>2020-06-30T07:09:54.000Z</time>
      </trkpt>
      <trkpt lat="43.94516" lon="7.27919">
        <ele>433.20001220703</ele>
        <time>2020-06-30T07:09:55.000Z</time>
      </trkpt>
      <trkpt lat="43.94513" lon="7.27933">
        <ele>434.20001220703</ele>
        <time>2020-06-30T07:10:00.000Z</time>
      </trkpt>
      <trkpt lat="43.94511" lon="7.27938">
        <ele>434.39999389648</ele>
        <time>2020-06-30T07:10:02.000Z</time>
      </trkpt>
      <trkpt lat="43.9451" lon="7.27947">
        <ele>435</ele>
        <time>2020-06-30T07:10:06.000Z</time>
      </trkpt>
      <trkpt lat="43.9451" lon="7.27949">
        <ele>435.20001220703</ele>
        <time>2020-06-30T07:10:07.000Z</time>
      </trkpt>
      <trkpt lat="43.94506" lon="7.27961">
        <ele>435.79998779297</ele>
        <time>2020-06-30T07:10:11.000Z</time>
      </trkpt>
      <trkpt lat="43.94505" lon="7.27966">
        <ele>436.20001220703</ele>
        <time>2020-06-30T07:10:13.000Z</time>
      </trkpt>
      <trkpt lat="43.94504" lon="7.27974">
        <ele>436.60000610352</ele>
        <time>2020-06-30T07:10:16.000Z</time>
      </trkpt>
      <trkpt lat="43.94503" lon="7.27984">
        <ele>437.39999389648</ele>
        <time>2020-06-30T07:10:20.000Z</time>
      </trkpt>
      <trkpt lat="43.94503" lon="7.27989">
        <ele>437.39999389648</ele>
        <time>2020-06-30T07:10:22.000Z</time>
      </trkpt>
      <trkpt lat="43.94502" lon="7.27993">
        <ele>437.60000610352</ele>
        <time>2020-06-30T07:10:24.000Z</time>
      </trkpt>
      <trkpt lat="43.945" lon="7.28001">
        <ele>437.60000610352</ele>
        <time>2020-06-30T07:10:27.000Z</time>
      </trkpt>
      <trkpt lat="43.94499" lon="7.28011">
        <ele>438.60000610352</ele>
        <time>2020-06-30T07:10:31.000Z</time>
      </trkpt>
      <trkpt lat="43.94499" lon="7.28016">
        <ele>438.79998779297</ele>
        <time>2020-06-30T07:10:33.000Z</time>
      </trkpt>
      <trkpt lat="43.94498" lon="7.2803">
        <ele>439.60000610352</ele>
        <time>2020-06-30T07:10:38.000Z</time>
      </trkpt>
      <trkpt lat="43.945" lon="7.28042">
        <ele>440.39999389648</ele>
        <time>2020-06-30T07:10:42.000Z</time>
      </trkpt>
      <trkpt lat="43.945" lon="7.28047">
        <ele>440.79998779297</ele>
        <time>2020-06-30T07:10:44.000Z</time>
      </trkpt>
      <trkpt lat="43.94503" lon="7.28057">
        <ele>441.39999389648</ele>
        <time>2020-06-30T07:10:48.000Z</time>
      </trkpt>
      <trkpt lat="43.94507" lon="7.28064">
        <ele>441.79998779297</ele>
        <time>2020-06-30T07:10:51.000Z</time>
      </trkpt>
      <trkpt lat="43.94512" lon="7.28073">
        <ele>442.79998779297</ele>
        <time>2020-06-30T07:10:55.000Z</time>
      </trkpt>
      <trkpt lat="43.94513" lon="7.28075">
        <ele>442.79998779297</ele>
        <time>2020-06-30T07:10:56.000Z</time>
      </trkpt>
      <trkpt lat="43.94522" lon="7.28086">
        <ele>443.60000610352</ele>
        <time>2020-06-30T07:11:02.000Z</time>
      </trkpt>
      <trkpt lat="43.94525" lon="7.28089">
        <ele>443.79998779297</ele>
        <time>2020-06-30T07:11:04.000Z</time>
      </trkpt>
      <trkpt lat="43.94535" lon="7.281">
        <ele>444.79998779297</ele>
        <time>2020-06-30T07:11:10.000Z</time>
      </trkpt>
      <trkpt lat="43.94536" lon="7.28102">
        <ele>445</ele>
        <time>2020-06-30T07:11:11.000Z</time>
      </trkpt>
      <trkpt lat="43.94548" lon="7.28112">
        <ele>446</ele>
        <time>2020-06-30T07:11:18.000Z</time>
      </trkpt>
      <trkpt lat="43.94549" lon="7.28114">
        <ele>446.20001220703</ele>
        <time>2020-06-30T07:11:19.000Z</time>
      </trkpt>
      <trkpt lat="43.9456" lon="7.28121">
        <ele>447.20001220703</ele>
        <time>2020-06-30T07:11:25.000Z</time>
      </trkpt>
      <trkpt lat="43.94572" lon="7.28131">
        <ele>448.20001220703</ele>
        <time>2020-06-30T07:11:32.000Z</time>
      </trkpt>
      <trkpt lat="43.94574" lon="7.28132">
        <ele>448.39999389648</ele>
        <time>2020-06-30T07:11:33.000Z</time>
      </trkpt>
      <trkpt lat="43.94588" lon="7.28135">
        <ele>449.39999389648</ele>
        <time>2020-06-30T07:11:40.000Z</time>
      </trkpt>
      <trkpt lat="43.94598" lon="7.28133">
        <ele>450.39999389648</ele>
        <time>2020-06-30T07:11:45.000Z</time>
      </trkpt>
      <trkpt lat="43.94602" lon="7.2813">
        <ele>450.79998779297</ele>
        <time>2020-06-30T07:11:47.000Z</time>
      </trkpt>
      <trkpt lat="43.94609" lon="7.28125">
        <ele>451.39999389648</ele>
        <time>2020-06-30T07:11:51.000Z</time>
      </trkpt>
      <trkpt lat="43.94615" lon="7.28118">
        <ele>452</ele>
        <time>2020-06-30T07:11:55.000Z</time>
      </trkpt>
      <trkpt lat="43.9462" lon="7.28112">
        <ele>452.60000610352</ele>
        <time>2020-06-30T07:11:58.000Z</time>
      </trkpt>
      <trkpt lat="43.94628" lon="7.28105">
        <ele>453.60000610352</ele>
        <time>2020-06-30T07:12:03.000Z</time>
      </trkpt>
      <trkpt lat="43.9463" lon="7.28104">
        <ele>453.79998779297</ele>
        <time>2020-06-30T07:12:04.000Z</time>
      </trkpt>
      <trkpt lat="43.94641" lon="7.28092">
        <ele>454.79998779297</ele>
        <time>2020-06-30T07:12:11.000Z</time>
      </trkpt>
      <trkpt lat="43.94643" lon="7.28091">
        <ele>455</ele>
        <time>2020-06-30T07:12:12.000Z</time>
      </trkpt>
      <trkpt lat="43.94652" lon="7.28085">
        <ele>455.79998779297</ele>
        <time>2020-06-30T07:12:17.000Z</time>
      </trkpt>
      <trkpt lat="43.94655" lon="7.28082">
        <ele>456</ele>
        <time>2020-06-30T07:12:19.000Z</time>
      </trkpt>
      <trkpt lat="43.94664" lon="7.2807">
        <ele>457</ele>
        <time>2020-06-30T07:12:25.000Z</time>
      </trkpt>
      <trkpt lat="43.94666" lon="7.28068">
        <ele>457</ele>
        <time>2020-06-30T07:12:26.000Z</time>
      </trkpt>
      <trkpt lat="43.94679" lon="7.28053">
        <ele>458.20001220703</ele>
        <time>2020-06-30T07:12:34.000Z</time>
      </trkpt>
      <trkpt lat="43.9469" lon="7.28044">
        <ele>459.20001220703</ele>
        <time>2020-06-30T07:12:40.000Z</time>
      </trkpt>
      <trkpt lat="43.94694" lon="7.28042">
        <ele>459.60000610352</ele>
        <time>2020-06-30T07:12:42.000Z</time>
      </trkpt>
      <trkpt lat="43.94702" lon="7.28039">
        <ele>460.20001220703</ele>
        <time>2020-06-30T07:12:46.000Z</time>
      </trkpt>
      <trkpt lat="43.94712" lon="7.28036">
        <ele>461.20001220703</ele>
        <time>2020-06-30T07:12:51.000Z</time>
      </trkpt>
      <trkpt lat="43.94714" lon="7.28035">
        <ele>461.39999389648</ele>
        <time>2020-06-30T07:12:52.000Z</time>
      </trkpt>
      <trkpt lat="43.94727" lon="7.28034">
        <ele>462.39999389648</ele>
        <time>2020-06-30T07:12:58.000Z</time>
      </trkpt>
      <trkpt lat="43.94728" lon="7.28033">
        <ele>462.60000610352</ele>
        <time>2020-06-30T07:12:59.000Z</time>
      </trkpt>
      <trkpt lat="43.94741" lon="7.2803">
        <ele>463.60000610352</ele>
        <time>2020-06-30T07:13:05.000Z</time>
      </trkpt>
      <trkpt lat="43.94747" lon="7.2803">
        <ele>464</ele>
        <time>2020-06-30T07:13:08.000Z</time>
      </trkpt>
      <trkpt lat="43.94758" lon="7.28035">
        <ele>464.60000610352</ele>
        <time>2020-06-30T07:13:13.000Z</time>
      </trkpt>
      <trkpt lat="43.9476" lon="7.28037">
        <ele>464.79998779297</ele>
        <time>2020-06-30T07:13:14.000Z</time>
      </trkpt>
      <trkpt lat="43.94768" lon="7.28053">
        <ele>465.60000610352</ele>
        <time>2020-06-30T07:13:20.000Z</time>
      </trkpt>
      <trkpt lat="43.94771" lon="7.28073">
        <ele>466.79998779297</ele>
        <time>2020-06-30T07:13:27.000Z</time>
      </trkpt>
      <trkpt lat="43.94774" lon="7.28089">
        <ele>468</ele>
        <time>2020-06-30T07:13:33.000Z</time>
      </trkpt>
      <trkpt lat="43.94774" lon="7.28092">
        <ele>468.20001220703</ele>
        <time>2020-06-30T07:13:34.000Z</time>
      </trkpt>
      <trkpt lat="43.94776" lon="7.28106">
        <ele>469</ele>
        <time>2020-06-30T07:13:39.000Z</time>
      </trkpt>
      <trkpt lat="43.94779" lon="7.28123">
        <ele>470</ele>
        <time>2020-06-30T07:13:45.000Z</time>
      </trkpt>
      <trkpt lat="43.94779" lon="7.28126">
        <ele>470</ele>
        <time>2020-06-30T07:13:46.000Z</time>
      </trkpt>
      <trkpt lat="43.94785" lon="7.28144">
        <ele>471</ele>
        <time>2020-06-30T07:13:53.000Z</time>
      </trkpt>
      <trkpt lat="43.94785" lon="7.28147">
        <ele>471.20001220703</ele>
        <time>2020-06-30T07:13:54.000Z</time>
      </trkpt>
      <trkpt lat="43.94791" lon="7.28166">
        <ele>472.20001220703</ele>
        <time>2020-06-30T07:14:01.000Z</time>
      </trkpt>
      <trkpt lat="43.94792" lon="7.28169">
        <ele>472.39999389648</ele>
        <time>2020-06-30T07:14:02.000Z</time>
      </trkpt>
      <trkpt lat="43.94796" lon="7.28186">
        <ele>473.39999389648</ele>
        <time>2020-06-30T07:14:08.000Z</time>
      </trkpt>
      <trkpt lat="43.94797" lon="7.28191">
        <ele>473.60000610352</ele>
        <time>2020-06-30T07:14:10.000Z</time>
      </trkpt>
      <trkpt lat="43.94805" lon="7.28205">
        <ele>474.39999389648</ele>
        <time>2020-06-30T07:14:16.000Z</time>
      </trkpt>
      <trkpt lat="43.94807" lon="7.28206">
        <ele>474.60000610352</ele>
        <time>2020-06-30T07:14:17.000Z</time>
      </trkpt>
      <trkpt lat="43.94817" lon="7.28217">
        <ele>475.60000610352</ele>
        <time>2020-06-30T07:14:23.000Z</time>
      </trkpt>
      <trkpt lat="43.94819" lon="7.28219">
        <ele>475.60000610352</ele>
        <time>2020-06-30T07:14:24.000Z</time>
      </trkpt>
      <trkpt lat="43.94829" lon="7.28228">
        <ele>476.60000610352</ele>
        <time>2020-06-30T07:14:30.000Z</time>
      </trkpt>
      <trkpt lat="43.94831" lon="7.2823">
        <ele>476.79998779297</ele>
        <time>2020-06-30T07:14:31.000Z</time>
      </trkpt>
      <trkpt lat="43.94842" lon="7.28239">
        <ele>477.79998779297</ele>
        <time>2020-06-30T07:14:37.000Z</time>
      </trkpt>
      <trkpt lat="43.94846" lon="7.28243">
        <ele>478.20001220703</ele>
        <time>2020-06-30T07:14:39.000Z</time>
      </trkpt>
      <trkpt lat="43.94855" lon="7.28253">
        <ele>478.79998779297</ele>
        <time>2020-06-30T07:14:44.000Z</time>
      </trkpt>
      <trkpt lat="43.94859" lon="7.28261">
        <ele>479.20001220703</ele>
        <time>2020-06-30T07:14:47.000Z</time>
      </trkpt>
      <trkpt lat="43.94866" lon="7.28276">
        <ele>480</ele>
        <time>2020-06-30T07:14:52.000Z</time>
      </trkpt>
      <trkpt lat="43.9487" lon="7.28285">
        <ele>480.20001220703</ele>
        <time>2020-06-30T07:14:55.000Z</time>
      </trkpt>
      <trkpt lat="43.94878" lon="7.28296">
        <ele>481</ele>
        <time>2020-06-30T07:15:00.000Z</time>
      </trkpt>
      <trkpt lat="43.94883" lon="7.28298">
        <ele>481.20001220703</ele>
        <time>2020-06-30T07:15:02.000Z</time>
      </trkpt>
      <trkpt lat="43.94889" lon="7.28292">
        <ele>481.79998779297</ele>
        <time>2020-06-30T07:15:06.000Z</time>
      </trkpt>
      <trkpt lat="43.94889" lon="7.28287">
        <ele>482</ele>
        <time>2020-06-30T07:15:08.000Z</time>
      </trkpt>
      <trkpt lat="43.94888" lon="7.28281">
        <ele>482.20001220703</ele>
        <time>2020-06-30T07:15:10.000Z</time>
      </trkpt>
      <trkpt lat="43.94887" lon="7.28278">
        <ele>482.39999389648</ele>
        <time>2020-06-30T07:15:11.000Z</time>
      </trkpt>
      <trkpt lat="43.94881" lon="7.28268">
        <ele>482.79998779297</ele>
        <time>2020-06-30T07:15:15.000Z</time>
      </trkpt>
      <trkpt lat="43.94879" lon="7.28265">
        <ele>483</ele>
        <time>2020-06-30T07:15:16.000Z</time>
      </trkpt>
      <trkpt lat="43.94877" lon="7.2826">
        <ele>483</ele>
        <time>2020-06-30T07:15:18.000Z</time>
      </trkpt>
      <trkpt lat="43.94875" lon="7.28257">
        <ele>483.20001220703</ele>
        <time>2020-06-30T07:15:19.000Z</time>
      </trkpt>
      <trkpt lat="43.9487" lon="7.28246">
        <ele>483.60000610352</ele>
        <time>2020-06-30T07:15:23.000Z</time>
      </trkpt>
      <trkpt lat="43.94864" lon="7.28232">
        <ele>484.20001220703</ele>
        <time>2020-06-30T07:15:28.000Z</time>
      </trkpt>
      <trkpt lat="43.94856" lon="7.28214">
        <ele>485.20001220703</ele>
        <time>2020-06-30T07:15:35.000Z</time>
      </trkpt>
      <trkpt lat="43.94854" lon="7.28211">
        <ele>485.39999389648</ele>
        <time>2020-06-30T07:15:36.000Z</time>
      </trkpt>
      <trkpt lat="43.94848" lon="7.28198">
        <ele>486.20001220703</ele>
        <time>2020-06-30T07:15:41.000Z</time>
      </trkpt>
      <trkpt lat="43.94845" lon="7.28192">
        <ele>486.60000610352</ele>
        <time>2020-06-30T07:15:43.000Z</time>
      </trkpt>
      <trkpt lat="43.94842" lon="7.28177">
        <ele>487.39999389648</ele>
        <time>2020-06-30T07:15:48.000Z</time>
      </trkpt>
      <trkpt lat="43.94841" lon="7.28171">
        <ele>487.79998779297</ele>
        <time>2020-06-30T07:15:50.000Z</time>
      </trkpt>
      <trkpt lat="43.94841" lon="7.28161">
        <ele>488.60000610352</ele>
        <time>2020-06-30T07:15:53.000Z</time>
      </trkpt>
      <trkpt lat="43.94839" lon="7.28146">
        <ele>489.20001220703</ele>
        <time>2020-06-30T07:15:58.000Z</time>
      </trkpt>
      <trkpt lat="43.94839" lon="7.2814">
        <ele>489.60000610352</ele>
        <time>2020-06-30T07:16:00.000Z</time>
      </trkpt>
      <trkpt lat="43.94838" lon="7.28122">
        <ele>490.60000610352</ele>
        <time>2020-06-30T07:16:06.000Z</time>
      </trkpt>
      <trkpt lat="43.94837" lon="7.28105">
        <ele>491.79998779297</ele>
        <time>2020-06-30T07:16:12.000Z</time>
      </trkpt>
      <trkpt lat="43.94836" lon="7.28093">
        <ele>492.39999389648</ele>
        <time>2020-06-30T07:16:16.000Z</time>
      </trkpt>
      <trkpt lat="43.94836" lon="7.28084">
        <ele>492.79998779297</ele>
        <time>2020-06-30T07:16:19.000Z</time>
      </trkpt>
      <trkpt lat="43.94836" lon="7.28069">
        <ele>493.60000610352</ele>
        <time>2020-06-30T07:16:24.000Z</time>
      </trkpt>
      <trkpt lat="43.94836" lon="7.28066">
        <ele>493.79998779297</ele>
        <time>2020-06-30T07:16:25.000Z</time>
      </trkpt>
      <trkpt lat="43.94839" lon="7.28049">
        <ele>495</ele>
        <time>2020-06-30T07:16:31.000Z</time>
      </trkpt>
      <trkpt lat="43.9484" lon="7.28046">
        <ele>495</ele>
        <time>2020-06-30T07:16:32.000Z</time>
      </trkpt>
      <trkpt lat="43.94844" lon="7.28035">
        <ele>496</ele>
        <time>2020-06-30T07:16:37.000Z</time>
      </trkpt>
      <trkpt lat="43.94847" lon="7.2803">
        <ele>496.60000610352</ele>
        <time>2020-06-30T07:16:40.000Z</time>
      </trkpt>
      <trkpt lat="43.9485" lon="7.28023">
        <ele>497</ele>
        <time>2020-06-30T07:16:43.000Z</time>
      </trkpt>
      <trkpt lat="43.94854" lon="7.28012">
        <ele>498</ele>
        <time>2020-06-30T07:16:48.000Z</time>
      </trkpt>
      <trkpt lat="43.94855" lon="7.2801">
        <ele>498</ele>
        <time>2020-06-30T07:16:49.000Z</time>
      </trkpt>
      <trkpt lat="43.94862" lon="7.27994">
        <ele>499.20001220703</ele>
        <time>2020-06-30T07:16:55.000Z</time>
      </trkpt>
      <trkpt lat="43.94865" lon="7.27989">
        <ele>499.60000610352</ele>
        <time>2020-06-30T07:16:57.000Z</time>
      </trkpt>
      <trkpt lat="43.94873" lon="7.2798">
        <ele>500.39999389648</ele>
        <time>2020-06-30T07:17:02.000Z</time>
      </trkpt>
      <trkpt lat="43.94879" lon="7.27972">
        <ele>501</ele>
        <time>2020-06-30T07:17:06.000Z</time>
      </trkpt>
      <trkpt lat="43.9488" lon="7.27967">
        <ele>501.20001220703</ele>
        <time>2020-06-30T07:17:08.000Z</time>
      </trkpt>
      <trkpt lat="43.94883" lon="7.27963">
        <ele>501.39999389648</ele>
        <time>2020-06-30T07:17:10.000Z</time>
      </trkpt>
      <trkpt lat="43.94884" lon="7.27961">
        <ele>501.60000610352</ele>
        <time>2020-06-30T07:17:11.000Z</time>
      </trkpt>
      <trkpt lat="43.94888" lon="7.27951">
        <ele>502.39999389648</ele>
        <time>2020-06-30T07:17:15.000Z</time>
      </trkpt>
      <trkpt lat="43.94888" lon="7.27948">
        <ele>502.60000610352</ele>
        <time>2020-06-30T07:17:16.000Z</time>
      </trkpt>
      <trkpt lat="43.94889" lon="7.27939">
        <ele>503.20001220703</ele>
        <time>2020-06-30T07:17:19.000Z</time>
      </trkpt>
      <trkpt lat="43.9489" lon="7.27934">
        <ele>503.60000610352</ele>
        <time>2020-06-30T07:17:21.000Z</time>
      </trkpt>
      <trkpt lat="43.94892" lon="7.27916">
        <ele>504.60000610352</ele>
        <time>2020-06-30T07:17:27.000Z</time>
      </trkpt>
      <trkpt lat="43.94895" lon="7.27893">
        <ele>505.60000610352</ele>
        <time>2020-06-30T07:17:35.000Z</time>
      </trkpt>
      <trkpt lat="43.94898" lon="7.27885">
        <ele>506.20001220703</ele>
        <time>2020-06-30T07:17:38.000Z</time>
      </trkpt>
      <trkpt lat="43.94899" lon="7.27876">
        <ele>506.79998779297</ele>
        <time>2020-06-30T07:17:41.000Z</time>
      </trkpt>
      <trkpt lat="43.94904" lon="7.27857">
        <ele>507.79998779297</ele>
        <time>2020-06-30T07:17:48.000Z</time>
      </trkpt>
      <trkpt lat="43.94904" lon="7.27854">
        <ele>507.79998779297</ele>
        <time>2020-06-30T07:17:49.000Z</time>
      </trkpt>
      <trkpt lat="43.94909" lon="7.27834">
        <ele>508.79998779297</ele>
        <time>2020-06-30T07:17:56.000Z</time>
      </trkpt>
      <trkpt lat="43.94911" lon="7.27829">
        <ele>509.20001220703</ele>
        <time>2020-06-30T07:17:58.000Z</time>
      </trkpt>
      <trkpt lat="43.94914" lon="7.27821">
        <ele>509.79998779297</ele>
        <time>2020-06-30T07:18:01.000Z</time>
      </trkpt>
      <trkpt lat="43.94917" lon="7.2781">
        <ele>511</ele>
        <time>2020-06-30T07:18:06.000Z</time>
      </trkpt>
      <trkpt lat="43.94919" lon="7.27805">
        <ele>511.39999389648</ele>
        <time>2020-06-30T07:18:08.000Z</time>
      </trkpt>
      <trkpt lat="43.94923" lon="7.27799">
        <ele>511.79998779297</ele>
        <time>2020-06-30T07:18:11.000Z</time>
      </trkpt>
      <trkpt lat="43.94925" lon="7.27797">
        <ele>512</ele>
        <time>2020-06-30T07:18:12.000Z</time>
      </trkpt>
      <trkpt lat="43.94937" lon="7.27781">
        <ele>513</ele>
        <time>2020-06-30T07:18:20.000Z</time>
      </trkpt>
      <trkpt lat="43.94939" lon="7.2778">
        <ele>513.20001220703</ele>
        <time>2020-06-30T07:18:21.000Z</time>
      </trkpt>
      <trkpt lat="43.9495" lon="7.27772">
        <ele>514.20001220703</ele>
        <time>2020-06-30T07:18:27.000Z</time>
      </trkpt>
      <trkpt lat="43.94959" lon="7.27766">
        <ele>515.40002441406</ele>
        <time>2020-06-30T07:18:32.000Z</time>
      </trkpt>
      <trkpt lat="43.94966" lon="7.27761">
        <ele>516</ele>
        <time>2020-06-30T07:18:36.000Z</time>
      </trkpt>
      <trkpt lat="43.94972" lon="7.27758">
        <ele>516.40002441406</ele>
        <time>2020-06-30T07:18:39.000Z</time>
      </trkpt>
      <trkpt lat="43.94985" lon="7.27751">
        <ele>517.40002441406</ele>
        <time>2020-06-30T07:18:46.000Z</time>
      </trkpt>
      <trkpt lat="43.94989" lon="7.27749">
        <ele>517.79998779297</ele>
        <time>2020-06-30T07:18:48.000Z</time>
      </trkpt>
      <trkpt lat="43.95" lon="7.27746">
        <ele>518.59997558594</ele>
        <time>2020-06-30T07:18:53.000Z</time>
      </trkpt>
      <trkpt lat="43.95008" lon="7.27746">
        <ele>519.20001220703</ele>
        <time>2020-06-30T07:18:57.000Z</time>
      </trkpt>
      <trkpt lat="43.95012" lon="7.27747">
        <ele>519.59997558594</ele>
        <time>2020-06-30T07:18:59.000Z</time>
      </trkpt>
      <trkpt lat="43.95027" lon="7.2775">
        <ele>520.79998779297</ele>
        <time>2020-06-30T07:19:06.000Z</time>
      </trkpt>
      <trkpt lat="43.95029" lon="7.27751">
        <ele>521</ele>
        <time>2020-06-30T07:19:07.000Z</time>
      </trkpt>
      <trkpt lat="43.95041" lon="7.27753">
        <ele>521.79998779297</ele>
        <time>2020-06-30T07:19:13.000Z</time>
      </trkpt>
      <trkpt lat="43.95045" lon="7.27752">
        <ele>522.20001220703</ele>
        <time>2020-06-30T07:19:15.000Z</time>
      </trkpt>
      <trkpt lat="43.95055" lon="7.27747">
        <ele>523</ele>
        <time>2020-06-30T07:19:20.000Z</time>
      </trkpt>
      <trkpt lat="43.95061" lon="7.27741">
        <ele>523.79998779297</ele>
        <time>2020-06-30T07:19:24.000Z</time>
      </trkpt>
      <trkpt lat="43.95065" lon="7.27738">
        <ele>524</ele>
        <time>2020-06-30T07:19:26.000Z</time>
      </trkpt>
      <trkpt lat="43.95074" lon="7.27726">
        <ele>525.20001220703</ele>
        <time>2020-06-30T07:19:32.000Z</time>
      </trkpt>
      <trkpt lat="43.95078" lon="7.27721">
        <ele>525.59997558594</ele>
        <time>2020-06-30T07:19:35.000Z</time>
      </trkpt>
      <trkpt lat="43.95082" lon="7.27715">
        <ele>526.20001220703</ele>
        <time>2020-06-30T07:19:38.000Z</time>
      </trkpt>
      <trkpt lat="43.95088" lon="7.27708">
        <ele>527</ele>
        <time>2020-06-30T07:19:42.000Z</time>
      </trkpt>
      <trkpt lat="43.9509" lon="7.27704">
        <ele>527.20001220703</ele>
        <time>2020-06-30T07:19:44.000Z</time>
      </trkpt>
      <trkpt lat="43.95095" lon="7.27689">
        <ele>528.40002441406</ele>
        <time>2020-06-30T07:19:50.000Z</time>
      </trkpt>
      <trkpt lat="43.95098" lon="7.27672">
        <ele>529.40002441406</ele>
        <time>2020-06-30T07:19:56.000Z</time>
      </trkpt>
      <trkpt lat="43.95101" lon="7.27659">
        <ele>530.40002441406</ele>
        <time>2020-06-30T07:20:01.000Z</time>
      </trkpt>
      <trkpt lat="43.95101" lon="7.27656">
        <ele>530.59997558594</ele>
        <time>2020-06-30T07:20:02.000Z</time>
      </trkpt>
      <trkpt lat="43.95104" lon="7.27636">
        <ele>531.59997558594</ele>
        <time>2020-06-30T07:20:09.000Z</time>
      </trkpt>
      <trkpt lat="43.95106" lon="7.27622">
        <ele>532.40002441406</ele>
        <time>2020-06-30T07:20:14.000Z</time>
      </trkpt>
      <trkpt lat="43.95107" lon="7.27616">
        <ele>532.79998779297</ele>
        <time>2020-06-30T07:20:16.000Z</time>
      </trkpt>
      <trkpt lat="43.95109" lon="7.27602">
        <ele>533.59997558594</ele>
        <time>2020-06-30T07:20:21.000Z</time>
      </trkpt>
      <trkpt lat="43.95109" lon="7.27597">
        <ele>534</ele>
        <time>2020-06-30T07:20:23.000Z</time>
      </trkpt>
      <trkpt lat="43.95113" lon="7.27582">
        <ele>535</ele>
        <time>2020-06-30T07:20:29.000Z</time>
      </trkpt>
      <trkpt lat="43.9512" lon="7.27564">
        <ele>536</ele>
        <time>2020-06-30T07:20:36.000Z</time>
      </trkpt>
      <trkpt lat="43.95121" lon="7.27561">
        <ele>536.20001220703</ele>
        <time>2020-06-30T07:20:37.000Z</time>
      </trkpt>
      <trkpt lat="43.95127" lon="7.27546">
        <ele>537.20001220703</ele>
        <time>2020-06-30T07:20:43.000Z</time>
      </trkpt>
      <trkpt lat="43.9513" lon="7.27538">
        <ele>537.59997558594</ele>
        <time>2020-06-30T07:20:46.000Z</time>
      </trkpt>
      <trkpt lat="43.95137" lon="7.27526">
        <ele>538.20001220703</ele>
        <time>2020-06-30T07:20:51.000Z</time>
      </trkpt>
      <trkpt lat="43.95144" lon="7.27512">
        <ele>539.40002441406</ele>
        <time>2020-06-30T07:20:57.000Z</time>
      </trkpt>
      <trkpt lat="43.9515" lon="7.27497">
        <ele>540.40002441406</ele>
        <time>2020-06-30T07:21:03.000Z</time>
      </trkpt>
      <trkpt lat="43.95151" lon="7.27494">
        <ele>540.59997558594</ele>
        <time>2020-06-30T07:21:04.000Z</time>
      </trkpt>
      <trkpt lat="43.95156" lon="7.27481">
        <ele>541.59997558594</ele>
        <time>2020-06-30T07:21:09.000Z</time>
      </trkpt>
      <trkpt lat="43.95159" lon="7.27474">
        <ele>542.20001220703</ele>
        <time>2020-06-30T07:21:12.000Z</time>
      </trkpt>
      <trkpt lat="43.95163" lon="7.27465">
        <ele>542.79998779297</ele>
        <time>2020-06-30T07:21:15.000Z</time>
      </trkpt>
      <trkpt lat="43.95168" lon="7.2746">
        <ele>543.40002441406</ele>
        <time>2020-06-30T07:21:18.000Z</time>
      </trkpt>
      <trkpt lat="43.95175" lon="7.27458">
        <ele>543.79998779297</ele>
        <time>2020-06-30T07:21:21.000Z</time>
      </trkpt>
      <trkpt lat="43.95182" lon="7.27459">
        <ele>544.20001220703</ele>
        <time>2020-06-30T07:21:24.000Z</time>
      </trkpt>
      <trkpt lat="43.95194" lon="7.27463">
        <ele>545</ele>
        <time>2020-06-30T07:21:30.000Z</time>
      </trkpt>
      <trkpt lat="43.95198" lon="7.27465">
        <ele>545.20001220703</ele>
        <time>2020-06-30T07:21:32.000Z</time>
      </trkpt>
      <trkpt lat="43.9521" lon="7.27472">
        <ele>546.20001220703</ele>
        <time>2020-06-30T07:21:38.000Z</time>
      </trkpt>
      <trkpt lat="43.95216" lon="7.27474">
        <ele>546.59997558594</ele>
        <time>2020-06-30T07:21:41.000Z</time>
      </trkpt>
      <trkpt lat="43.95222" lon="7.27475">
        <ele>547.20001220703</ele>
        <time>2020-06-30T07:21:44.000Z</time>
      </trkpt>
      <trkpt lat="43.95232" lon="7.27475">
        <ele>548</ele>
        <time>2020-06-30T07:21:49.000Z</time>
      </trkpt>
      <trkpt lat="43.95236" lon="7.27476">
        <ele>548.40002441406</ele>
        <time>2020-06-30T07:21:51.000Z</time>
      </trkpt>
      <trkpt lat="43.95251" lon="7.27476">
        <ele>549.40002441406</ele>
        <time>2020-06-30T07:21:58.000Z</time>
      </trkpt>
      <trkpt lat="43.95266" lon="7.27481">
        <ele>550.40002441406</ele>
        <time>2020-06-30T07:22:05.000Z</time>
      </trkpt>
      <trkpt lat="43.95268" lon="7.27482">
        <ele>550.59997558594</ele>
        <time>2020-06-30T07:22:06.000Z</time>
      </trkpt>
      <trkpt lat="43.95282" lon="7.2749">
        <ele>551.79998779297</ele>
        <time>2020-06-30T07:22:13.000Z</time>
      </trkpt>
      <trkpt lat="43.95294" lon="7.27495">
        <ele>553</ele>
        <time>2020-06-30T07:22:19.000Z</time>
      </trkpt>
      <trkpt lat="43.95296" lon="7.27495">
        <ele>553</ele>
        <time>2020-06-30T07:22:20.000Z</time>
      </trkpt>
      <trkpt lat="43.95306" lon="7.27498">
        <ele>554</ele>
        <time>2020-06-30T07:22:25.000Z</time>
      </trkpt>
      <trkpt lat="43.95311" lon="7.27498">
        <ele>554.20001220703</ele>
        <time>2020-06-30T07:22:27.000Z</time>
      </trkpt>
      <trkpt lat="43.95319" lon="7.27501">
        <ele>555</ele>
        <time>2020-06-30T07:22:31.000Z</time>
      </trkpt>
      <trkpt lat="43.95329" lon="7.27506">
        <ele>556</ele>
        <time>2020-06-30T07:22:36.000Z</time>
      </trkpt>
      <trkpt lat="43.95331" lon="7.27508">
        <ele>556.20001220703</ele>
        <time>2020-06-30T07:22:37.000Z</time>
      </trkpt>
      <trkpt lat="43.95343" lon="7.27517">
        <ele>557.20001220703</ele>
        <time>2020-06-30T07:22:43.000Z</time>
      </trkpt>
      <trkpt lat="43.95345" lon="7.27518">
        <ele>557.40002441406</ele>
        <time>2020-06-30T07:22:44.000Z</time>
      </trkpt>
      <trkpt lat="43.95356" lon="7.27523">
        <ele>558.20001220703</ele>
        <time>2020-06-30T07:22:49.000Z</time>
      </trkpt>
      <trkpt lat="43.95358" lon="7.27524">
        <ele>558.40002441406</ele>
        <time>2020-06-30T07:22:50.000Z</time>
      </trkpt>
      <trkpt lat="43.95369" lon="7.27532">
        <ele>559.40002441406</ele>
        <time>2020-06-30T07:22:56.000Z</time>
      </trkpt>
      <trkpt lat="43.95371" lon="7.27533">
        <ele>559.59997558594</ele>
        <time>2020-06-30T07:22:57.000Z</time>
      </trkpt>
      <trkpt lat="43.95394" lon="7.2754">
        <ele>560.20001220703</ele>
        <time>2020-06-30T07:23:06.000Z</time>
      </trkpt>
      <trkpt lat="43.95402" lon="7.2754">
        <ele>560.40002441406</ele>
        <time>2020-06-30T07:23:09.000Z</time>
      </trkpt>
      <trkpt lat="43.95414" lon="7.27539">
        <ele>560.59997558594</ele>
        <time>2020-06-30T07:23:13.000Z</time>
      </trkpt>
      <trkpt lat="43.9543" lon="7.27537">
        <ele>561</ele>
        <time>2020-06-30T07:23:19.000Z</time>
      </trkpt>
      <trkpt lat="43.95439" lon="7.27532">
        <ele>561.59997558594</ele>
        <time>2020-06-30T07:23:23.000Z</time>
      </trkpt>
      <trkpt lat="43.95444" lon="7.27529">
        <ele>561.79998779297</ele>
        <time>2020-06-30T07:23:25.000Z</time>
      </trkpt>
      <trkpt lat="43.95453" lon="7.27522">
        <ele>562.79998779297</ele>
        <time>2020-06-30T07:23:30.000Z</time>
      </trkpt>
      <trkpt lat="43.95459" lon="7.27518">
        <ele>563.59997558594</ele>
        <time>2020-06-30T07:23:33.000Z</time>
      </trkpt>
      <trkpt lat="43.9546" lon="7.27517">
        <ele>563.79998779297</ele>
        <time>2020-06-30T07:23:34.000Z</time>
      </trkpt>
      <trkpt lat="43.95469" lon="7.2751">
        <ele>565</ele>
        <time>2020-06-30T07:23:39.000Z</time>
      </trkpt>
      <trkpt lat="43.95476" lon="7.27504">
        <ele>565.79998779297</ele>
        <time>2020-06-30T07:23:43.000Z</time>
      </trkpt>
      <trkpt lat="43.95478" lon="7.27502">
        <ele>566</ele>
        <time>2020-06-30T07:23:44.000Z</time>
      </trkpt>
      <trkpt lat="43.95486" lon="7.27495">
        <ele>567.20001220703</ele>
        <time>2020-06-30T07:23:49.000Z</time>
      </trkpt>
      <trkpt lat="43.95489" lon="7.27492">
        <ele>567.79998779297</ele>
        <time>2020-06-30T07:23:51.000Z</time>
      </trkpt>
      <trkpt lat="43.95492" lon="7.27488">
        <ele>568.20001220703</ele>
        <time>2020-06-30T07:23:53.000Z</time>
      </trkpt>
      <trkpt lat="43.955" lon="7.2748">
        <ele>569.20001220703</ele>
        <time>2020-06-30T07:23:58.000Z</time>
      </trkpt>
      <trkpt lat="43.95509" lon="7.27469">
        <ele>570.20001220703</ele>
        <time>2020-06-30T07:24:04.000Z</time>
      </trkpt>
      <trkpt lat="43.95511" lon="7.27467">
        <ele>570.40002441406</ele>
        <time>2020-06-30T07:24:05.000Z</time>
      </trkpt>
      <trkpt lat="43.95522" lon="7.27451">
        <ele>571.40002441406</ele>
        <time>2020-06-30T07:24:12.000Z</time>
      </trkpt>
      <trkpt lat="43.95536" lon="7.27427">
        <ele>572.40002441406</ele>
        <time>2020-06-30T07:24:21.000Z</time>
      </trkpt>
      <trkpt lat="43.95538" lon="7.27421">
        <ele>572.59997558594</ele>
        <time>2020-06-30T07:24:23.000Z</time>
      </trkpt>
      <trkpt lat="43.9554" lon="7.27405">
        <ele>573.20001220703</ele>
        <time>2020-06-30T07:24:28.000Z</time>
      </trkpt>
      <trkpt lat="43.95541" lon="7.27399">
        <ele>573.59997558594</ele>
        <time>2020-06-30T07:24:30.000Z</time>
      </trkpt>
      <trkpt lat="43.95548" lon="7.27386">
        <ele>574.59997558594</ele>
        <time>2020-06-30T07:24:35.000Z</time>
      </trkpt>
      <trkpt lat="43.95558" lon="7.27377">
        <ele>575.79998779297</ele>
        <time>2020-06-30T07:24:41.000Z</time>
      </trkpt>
      <trkpt lat="43.95562" lon="7.27374">
        <ele>576.40002441406</ele>
        <time>2020-06-30T07:24:43.000Z</time>
      </trkpt>
      <trkpt lat="43.95568" lon="7.27369">
        <ele>576.79998779297</ele>
        <time>2020-06-30T07:24:46.000Z</time>
      </trkpt>
      <trkpt lat="43.95577" lon="7.27362">
        <ele>578</ele>
        <time>2020-06-30T07:24:51.000Z</time>
      </trkpt>
      <trkpt lat="43.95586" lon="7.27356">
        <ele>579</ele>
        <time>2020-06-30T07:24:56.000Z</time>
      </trkpt>
      <trkpt lat="43.9559" lon="7.27353">
        <ele>579.40002441406</ele>
        <time>2020-06-30T07:24:58.000Z</time>
      </trkpt>
      <trkpt lat="43.95602" lon="7.27346">
        <ele>580</ele>
        <time>2020-06-30T07:25:04.000Z</time>
      </trkpt>
      <trkpt lat="43.95605" lon="7.27342">
        <ele>580.40002441406</ele>
        <time>2020-06-30T07:25:06.000Z</time>
      </trkpt>
      <trkpt lat="43.95608" lon="7.27333">
        <ele>581</ele>
        <time>2020-06-30T07:25:10.000Z</time>
      </trkpt>
      <trkpt lat="43.95608" lon="7.27331">
        <ele>581.20001220703</ele>
        <time>2020-06-30T07:25:11.000Z</time>
      </trkpt>
      <trkpt lat="43.95608" lon="7.27328">
        <ele>581.59997558594</ele>
        <time>2020-06-30T07:25:12.000Z</time>
      </trkpt>
      <trkpt lat="43.95604" lon="7.2732">
        <ele>582.20001220703</ele>
        <time>2020-06-30T07:25:15.000Z</time>
      </trkpt>
      <trkpt lat="43.95603" lon="7.27318">
        <ele>582.40002441406</ele>
        <time>2020-06-30T07:25:16.000Z</time>
      </trkpt>
      <trkpt lat="43.95601" lon="7.27316">
        <ele>582.40002441406</ele>
        <time>2020-06-30T07:25:17.000Z</time>
      </trkpt>
      <trkpt lat="43.95597" lon="7.2731">
        <ele>583.20001220703</ele>
        <time>2020-06-30T07:25:20.000Z</time>
      </trkpt>
      <trkpt lat="43.95591" lon="7.27303">
        <ele>584.40002441406</ele>
        <time>2020-06-30T07:25:24.000Z</time>
      </trkpt>
      <trkpt lat="43.9559" lon="7.27301">
        <ele>584.59997558594</ele>
        <time>2020-06-30T07:25:25.000Z</time>
      </trkpt>
      <trkpt lat="43.95586" lon="7.27292">
        <ele>585.40002441406</ele>
        <time>2020-06-30T07:25:29.000Z</time>
      </trkpt>
      <trkpt lat="43.95582" lon="7.27283">
        <ele>586.20001220703</ele>
        <time>2020-06-30T07:25:33.000Z</time>
      </trkpt>
      <trkpt lat="43.95581" lon="7.27281">
        <ele>586.40002441406</ele>
        <time>2020-06-30T07:25:34.000Z</time>
      </trkpt>
      <trkpt lat="43.95574" lon="7.27268">
        <ele>587.59997558594</ele>
        <time>2020-06-30T07:25:40.000Z</time>
      </trkpt>
      <trkpt lat="43.95571" lon="7.27264">
        <ele>588</ele>
        <time>2020-06-30T07:25:42.000Z</time>
      </trkpt>
      <trkpt lat="43.95568" lon="7.27257">
        <ele>588.59997558594</ele>
        <time>2020-06-30T07:25:45.000Z</time>
      </trkpt>
      <trkpt lat="43.95563" lon="7.27245">
        <ele>589.59997558594</ele>
        <time>2020-06-30T07:25:50.000Z</time>
      </trkpt>
      <trkpt lat="43.95556" lon="7.27229">
        <ele>590.79998779297</ele>
        <time>2020-06-30T07:25:57.000Z</time>
      </trkpt>
      <trkpt lat="43.95551" lon="7.27218">
        <ele>592</ele>
        <time>2020-06-30T07:26:02.000Z</time>
      </trkpt>
      <trkpt lat="43.95545" lon="7.27204">
        <ele>593</ele>
        <time>2020-06-30T07:26:08.000Z</time>
      </trkpt>
      <trkpt lat="43.95543" lon="7.27199">
        <ele>593.59997558594</ele>
        <time>2020-06-30T07:26:10.000Z</time>
      </trkpt>
      <trkpt lat="43.95541" lon="7.27191">
        <ele>594.20001220703</ele>
        <time>2020-06-30T07:26:13.000Z</time>
      </trkpt>
      <trkpt lat="43.95541" lon="7.27176">
        <ele>595.20001220703</ele>
        <time>2020-06-30T07:26:18.000Z</time>
      </trkpt>
      <trkpt lat="43.95542" lon="7.2717">
        <ele>595.40002441406</ele>
        <time>2020-06-30T07:26:20.000Z</time>
      </trkpt>
      <trkpt lat="43.95547" lon="7.27157">
        <ele>596.20001220703</ele>
        <time>2020-06-30T07:26:25.000Z</time>
      </trkpt>
      <trkpt lat="43.95551" lon="7.2715">
        <ele>596.59997558594</ele>
        <time>2020-06-30T07:26:28.000Z</time>
      </trkpt>
      <trkpt lat="43.9556" lon="7.27137">
        <ele>597.59997558594</ele>
        <time>2020-06-30T07:26:34.000Z</time>
      </trkpt>
      <trkpt lat="43.95571" lon="7.27118">
        <ele>598.59997558594</ele>
        <time>2020-06-30T07:26:42.000Z</time>
      </trkpt>
      <trkpt lat="43.95572" lon="7.27116">
        <ele>598.79998779297</ele>
        <time>2020-06-30T07:26:43.000Z</time>
      </trkpt>
      <trkpt lat="43.95584" lon="7.27097">
        <ele>599.79998779297</ele>
        <time>2020-06-30T07:26:51.000Z</time>
      </trkpt>
      <trkpt lat="43.95598" lon="7.27087">
        <ele>600.79998779297</ele>
        <time>2020-06-30T07:26:58.000Z</time>
      </trkpt>
      <trkpt lat="43.956" lon="7.27086">
        <ele>601</ele>
        <time>2020-06-30T07:26:59.000Z</time>
      </trkpt>
      <trkpt lat="43.95612" lon="7.27088">
        <ele>601.59997558594</ele>
        <time>2020-06-30T07:27:04.000Z</time>
      </trkpt>
      <trkpt lat="43.95614" lon="7.27089">
        <ele>601.79998779297</ele>
        <time>2020-06-30T07:27:05.000Z</time>
      </trkpt>
      <trkpt lat="43.95631" lon="7.27086">
        <ele>603</ele>
        <time>2020-06-30T07:27:12.000Z</time>
      </trkpt>
      <trkpt lat="43.95649" lon="7.27077">
        <ele>604</ele>
        <time>2020-06-30T07:27:20.000Z</time>
      </trkpt>
      <trkpt lat="43.95652" lon="7.27076">
        <ele>604</ele>
        <time>2020-06-30T07:27:21.000Z</time>
      </trkpt>
      <trkpt lat="43.95668" lon="7.27073">
        <ele>605.20001220703</ele>
        <time>2020-06-30T07:27:28.000Z</time>
      </trkpt>
      <trkpt lat="43.95684" lon="7.27069">
        <ele>606.20001220703</ele>
        <time>2020-06-30T07:27:34.000Z</time>
      </trkpt>
      <trkpt lat="43.95689" lon="7.27068">
        <ele>606.59997558594</ele>
        <time>2020-06-30T07:27:36.000Z</time>
      </trkpt>
      <trkpt lat="43.95703" lon="7.2706">
        <ele>607.40002441406</ele>
        <time>2020-06-30T07:27:42.000Z</time>
      </trkpt>
      <trkpt lat="43.95708" lon="7.27058">
        <ele>607.59997558594</ele>
        <time>2020-06-30T07:27:44.000Z</time>
      </trkpt>
      <trkpt lat="43.95721" lon="7.27052">
        <ele>608.40002441406</ele>
        <time>2020-06-30T07:27:50.000Z</time>
      </trkpt>
      <trkpt lat="43.95725" lon="7.27055">
        <ele>608.79998779297</ele>
        <time>2020-06-30T07:27:52.000Z</time>
      </trkpt>
      <trkpt lat="43.95725" lon="7.27066">
        <ele>609.40002441406</ele>
        <time>2020-06-30T07:27:55.000Z</time>
      </trkpt>
      <trkpt lat="43.95723" lon="7.27068">
        <ele>609.59997558594</ele>
        <time>2020-06-30T07:27:56.000Z</time>
      </trkpt>
      <trkpt lat="43.9572" lon="7.27073">
        <ele>610</ele>
        <time>2020-06-30T07:27:58.000Z</time>
      </trkpt>
      <trkpt lat="43.95718" lon="7.27078">
        <ele>610.40002441406</ele>
        <time>2020-06-30T07:28:00.000Z</time>
      </trkpt>
      <trkpt lat="43.95715" lon="7.27082">
        <ele>610.79998779297</ele>
        <time>2020-06-30T07:28:02.000Z</time>
      </trkpt>
      <trkpt lat="43.9571" lon="7.27088">
        <ele>611.20001220703</ele>
        <time>2020-06-30T07:28:05.000Z</time>
      </trkpt>
      <trkpt lat="43.957" lon="7.27102">
        <ele>611.79998779297</ele>
        <time>2020-06-30T07:28:11.000Z</time>
      </trkpt>
      <trkpt lat="43.95695" lon="7.27106">
        <ele>612.20001220703</ele>
        <time>2020-06-30T07:28:13.000Z</time>
      </trkpt>
      <trkpt lat="43.95686" lon="7.27115">
        <ele>613</ele>
        <time>2020-06-30T07:28:18.000Z</time>
      </trkpt>
      <trkpt lat="43.95681" lon="7.27121">
        <ele>613.40002441406</ele>
        <time>2020-06-30T07:28:21.000Z</time>
      </trkpt>
      <trkpt lat="43.9567" lon="7.27131">
        <ele>614</ele>
        <time>2020-06-30T07:28:26.000Z</time>
      </trkpt>
      <trkpt lat="43.95668" lon="7.27133">
        <ele>614.20001220703</ele>
        <time>2020-06-30T07:28:27.000Z</time>
      </trkpt>
      <trkpt lat="43.95658" lon="7.27145">
        <ele>614.79998779297</ele>
        <time>2020-06-30T07:28:33.000Z</time>
      </trkpt>
      <trkpt lat="43.95655" lon="7.2715">
        <ele>615.20001220703</ele>
        <time>2020-06-30T07:28:35.000Z</time>
      </trkpt>
      <trkpt lat="43.95652" lon="7.27164">
        <ele>615.59997558594</ele>
        <time>2020-06-30T07:28:39.000Z</time>
      </trkpt>
      <trkpt lat="43.95654" lon="7.27178">
        <ele>616.20001220703</ele>
        <time>2020-06-30T07:28:43.000Z</time>
      </trkpt>
      <trkpt lat="43.95656" lon="7.27184">
        <ele>616.59997558594</ele>
        <time>2020-06-30T07:28:45.000Z</time>
      </trkpt>
      <trkpt lat="43.9566" lon="7.27202">
        <ele>617.40002441406</ele>
        <time>2020-06-30T07:28:50.000Z</time>
      </trkpt>
      <trkpt lat="43.95663" lon="7.27219">
        <ele>618</ele>
        <time>2020-06-30T07:28:55.000Z</time>
      </trkpt>
      <trkpt lat="43.95665" lon="7.27232">
        <ele>618.40002441406</ele>
        <time>2020-06-30T07:28:59.000Z</time>
      </trkpt>
      <trkpt lat="43.95665" lon="7.27239">
        <ele>618.79998779297</ele>
        <time>2020-06-30T07:29:01.000Z</time>
      </trkpt>
      <trkpt lat="43.95667" lon="7.27256">
        <ele>619.40002441406</ele>
        <time>2020-06-30T07:29:06.000Z</time>
      </trkpt>
      <trkpt lat="43.95669" lon="7.27263">
        <ele>619.79998779297</ele>
        <time>2020-06-30T07:29:08.000Z</time>
      </trkpt>
      <trkpt lat="43.95677" lon="7.27274">
        <ele>620.40002441406</ele>
        <time>2020-06-30T07:29:13.000Z</time>
      </trkpt>
      <trkpt lat="43.95678" lon="7.27276">
        <ele>620.59997558594</ele>
        <time>2020-06-30T07:29:14.000Z</time>
      </trkpt>
      <trkpt lat="43.95686" lon="7.27286">
        <ele>621.79998779297</ele>
        <time>2020-06-30T07:29:19.000Z</time>
      </trkpt>
      <trkpt lat="43.95692" lon="7.27294">
        <ele>622.59997558594</ele>
        <time>2020-06-30T07:29:23.000Z</time>
      </trkpt>
      <trkpt lat="43.95694" lon="7.27296">
        <ele>622.79998779297</ele>
        <time>2020-06-30T07:29:24.000Z</time>
      </trkpt>
      <trkpt lat="43.95703" lon="7.27304">
        <ele>623.79998779297</ele>
        <time>2020-06-30T07:29:29.000Z</time>
      </trkpt>
      <trkpt lat="43.95707" lon="7.27307">
        <ele>624.20001220703</ele>
        <time>2020-06-30T07:29:31.000Z</time>
      </trkpt>
      <trkpt lat="43.95713" lon="7.27313">
        <ele>625</ele>
        <time>2020-06-30T07:29:35.000Z</time>
      </trkpt>
      <trkpt lat="43.95718" lon="7.27318">
        <ele>625.59997558594</ele>
        <time>2020-06-30T07:29:38.000Z</time>
      </trkpt>
      <trkpt lat="43.95722" lon="7.27322">
        <ele>626.20001220703</ele>
        <time>2020-06-30T07:29:41.000Z</time>
      </trkpt>
      <trkpt lat="43.95731" lon="7.27329">
        <ele>627.20001220703</ele>
        <time>2020-06-30T07:29:46.000Z</time>
      </trkpt>
      <trkpt lat="43.95732" lon="7.27331">
        <ele>627.40002441406</ele>
        <time>2020-06-30T07:29:47.000Z</time>
      </trkpt>
      <trkpt lat="43.95739" lon="7.27335">
        <ele>628.40002441406</ele>
        <time>2020-06-30T07:29:51.000Z</time>
      </trkpt>
      <trkpt lat="43.95742" lon="7.27337">
        <ele>628.79998779297</ele>
        <time>2020-06-30T07:29:53.000Z</time>
      </trkpt>
      <trkpt lat="43.95747" lon="7.27341">
        <ele>629.40002441406</ele>
        <time>2020-06-30T07:29:56.000Z</time>
      </trkpt>
      <trkpt lat="43.95755" lon="7.27347">
        <ele>630.40002441406</ele>
        <time>2020-06-30T07:30:01.000Z</time>
      </trkpt>
      <trkpt lat="43.9576" lon="7.27358">
        <ele>631.59997558594</ele>
        <time>2020-06-30T07:30:06.000Z</time>
      </trkpt>
      <trkpt lat="43.9576" lon="7.27375">
        <ele>632.20001220703</ele>
        <time>2020-06-30T07:30:11.000Z</time>
      </trkpt>
      <trkpt lat="43.95756" lon="7.27396">
        <ele>632.59997558594</ele>
        <time>2020-06-30T07:30:17.000Z</time>
      </trkpt>
      <trkpt lat="43.95756" lon="7.27399">
        <ele>632.79998779297</ele>
        <time>2020-06-30T07:30:18.000Z</time>
      </trkpt>
      <trkpt lat="43.95762" lon="7.27415">
        <ele>633</ele>
        <time>2020-06-30T07:30:23.000Z</time>
      </trkpt>
      <trkpt lat="43.95767" lon="7.27427">
        <ele>633.59997558594</ele>
        <time>2020-06-30T07:30:27.000Z</time>
      </trkpt>
      <trkpt lat="43.9577" lon="7.2744">
        <ele>634.20001220703</ele>
        <time>2020-06-30T07:30:31.000Z</time>
      </trkpt>
      <trkpt lat="43.95771" lon="7.27455">
        <ele>634.59997558594</ele>
        <time>2020-06-30T07:30:35.000Z</time>
      </trkpt>
      <trkpt lat="43.95769" lon="7.27466">
        <ele>635</ele>
        <time>2020-06-30T07:30:38.000Z</time>
      </trkpt>
      <trkpt lat="43.95766" lon="7.27489">
        <ele>635.40002441406</ele>
        <time>2020-06-30T07:30:44.000Z</time>
      </trkpt>
      <trkpt lat="43.95766" lon="7.27515">
        <ele>635.59997558594</ele>
        <time>2020-06-30T07:30:50.000Z</time>
      </trkpt>
      <trkpt lat="43.95761" lon="7.27529">
        <ele>635.79998779297</ele>
        <time>2020-06-30T07:30:54.000Z</time>
      </trkpt>
      <trkpt lat="43.95757" lon="7.27536">
        <ele>636</ele>
        <time>2020-06-30T07:30:56.000Z</time>
      </trkpt>
      <trkpt lat="43.95743" lon="7.27549">
        <ele>636.59997558594</ele>
        <time>2020-06-30T07:31:02.000Z</time>
      </trkpt>
      <trkpt lat="43.95741" lon="7.2755">
        <ele>636.79998779297</ele>
        <time>2020-06-30T07:31:03.000Z</time>
      </trkpt>
      <trkpt lat="43.95729" lon="7.27559">
        <ele>637.40002441406</ele>
        <time>2020-06-30T07:31:08.000Z</time>
      </trkpt>
      <trkpt lat="43.9572" lon="7.2757">
        <ele>637.20001220703</ele>
        <time>2020-06-30T07:31:12.000Z</time>
      </trkpt>
      <trkpt lat="43.95711" lon="7.27589">
        <ele>637.40002441406</ele>
        <time>2020-06-30T07:31:18.000Z</time>
      </trkpt>
      <trkpt lat="43.95708" lon="7.27598">
        <ele>637.79998779297</ele>
        <time>2020-06-30T07:31:21.000Z</time>
      </trkpt>
      <trkpt lat="43.95706" lon="7.27604">
        <ele>638.20001220703</ele>
        <time>2020-06-30T07:31:23.000Z</time>
      </trkpt>
      <trkpt lat="43.95705" lon="7.27623">
        <ele>638.59997558594</ele>
        <time>2020-06-30T07:31:28.000Z</time>
      </trkpt>
      <trkpt lat="43.95707" lon="7.27639">
        <ele>639</ele>
        <time>2020-06-30T07:31:32.000Z</time>
      </trkpt>
      <trkpt lat="43.95708" lon="7.27647">
        <ele>639</ele>
        <time>2020-06-30T07:31:34.000Z</time>
      </trkpt>
      <trkpt lat="43.9571" lon="7.27669">
        <ele>639.20001220703</ele>
        <time>2020-06-30T07:31:40.000Z</time>
      </trkpt>
      <trkpt lat="43.95713" lon="7.27672">
        <ele>639.20001220703</ele>
        <time>2020-06-30T07:31:42.000Z</time>
      </trkpt>
      <trkpt lat="43.95717" lon="7.27672">
        <ele>639.40002441406</ele>
        <time>2020-06-30T07:31:44.000Z</time>
      </trkpt>
      <trkpt lat="43.95721" lon="7.27661">
        <ele>639.79998779297</ele>
        <time>2020-06-30T07:31:48.000Z</time>
      </trkpt>
      <trkpt lat="43.95722" lon="7.2766">
        <ele>640</ele>
        <time>2020-06-30T07:31:49.000Z</time>
      </trkpt>
      <trkpt lat="43.95721" lon="7.27653">
        <ele>640.40002441406</ele>
        <time>2020-06-30T07:31:51.000Z</time>
      </trkpt>
      <trkpt lat="43.95721" lon="7.2765">
        <ele>640.79998779297</ele>
        <time>2020-06-30T07:31:52.000Z</time>
      </trkpt>
      <trkpt lat="43.95721" lon="7.27647">
        <ele>641</ele>
        <time>2020-06-30T07:31:53.000Z</time>
      </trkpt>
      <trkpt lat="43.95725" lon="7.27634">
        <ele>642.20001220703</ele>
        <time>2020-06-30T07:31:58.000Z</time>
      </trkpt>
      <trkpt lat="43.95726" lon="7.27632">
        <ele>642.40002441406</ele>
        <time>2020-06-30T07:31:59.000Z</time>
      </trkpt>
      <trkpt lat="43.95734" lon="7.27624">
        <ele>643</ele>
        <time>2020-06-30T07:32:04.000Z</time>
      </trkpt>
      <trkpt lat="43.95739" lon="7.2762">
        <ele>643.20001220703</ele>
        <time>2020-06-30T07:32:07.000Z</time>
      </trkpt>
      <trkpt lat="43.95743" lon="7.27616">
        <ele>643.79998779297</ele>
        <time>2020-06-30T07:32:10.000Z</time>
      </trkpt>
      <trkpt lat="43.95746" lon="7.27613">
        <ele>644.40002441406</ele>
        <time>2020-06-30T07:32:12.000Z</time>
      </trkpt>
      <trkpt lat="43.95752" lon="7.27606">
        <ele>645.59997558594</ele>
        <time>2020-06-30T07:32:17.000Z</time>
      </trkpt>
      <trkpt lat="43.95754" lon="7.27604">
        <ele>645.79998779297</ele>
        <time>2020-06-30T07:32:18.000Z</time>
      </trkpt>
      <trkpt lat="43.95762" lon="7.27594">
        <ele>646.79998779297</ele>
        <time>2020-06-30T07:32:23.000Z</time>
      </trkpt>
      <trkpt lat="43.95769" lon="7.27584">
        <ele>647.20001220703</ele>
        <time>2020-06-30T07:32:27.000Z</time>
      </trkpt>
      <trkpt lat="43.95774" lon="7.27573">
        <ele>647.79998779297</ele>
        <time>2020-06-30T07:32:31.000Z</time>
      </trkpt>
      <trkpt lat="43.95777" lon="7.27566">
        <ele>648.20001220703</ele>
        <time>2020-06-30T07:32:34.000Z</time>
      </trkpt>
      <trkpt lat="43.95781" lon="7.27559">
        <ele>648.79998779297</ele>
        <time>2020-06-30T07:32:37.000Z</time>
      </trkpt>
      <trkpt lat="43.95786" lon="7.27551">
        <ele>649.59997558594</ele>
        <time>2020-06-30T07:32:40.000Z</time>
      </trkpt>
      <trkpt lat="43.95789" lon="7.27546">
        <ele>650</ele>
        <time>2020-06-30T07:32:42.000Z</time>
      </trkpt>
      <trkpt lat="43.95798" lon="7.27533">
        <ele>651.20001220703</ele>
        <time>2020-06-30T07:32:48.000Z</time>
      </trkpt>
      <trkpt lat="43.9581" lon="7.27521">
        <ele>651.79998779297</ele>
        <time>2020-06-30T07:32:55.000Z</time>
      </trkpt>
      <trkpt lat="43.95812" lon="7.27518">
        <ele>652.20001220703</ele>
        <time>2020-06-30T07:32:57.000Z</time>
      </trkpt>
      <trkpt lat="43.95819" lon="7.27508">
        <ele>653</ele>
        <time>2020-06-30T07:33:02.000Z</time>
      </trkpt>
      <trkpt lat="43.95821" lon="7.27503">
        <ele>653.20001220703</ele>
        <time>2020-06-30T07:33:04.000Z</time>
      </trkpt>
      <trkpt lat="43.95825" lon="7.27492">
        <ele>654</ele>
        <time>2020-06-30T07:33:09.000Z</time>
      </trkpt>
      <trkpt lat="43.95826" lon="7.27488">
        <ele>654.20001220703</ele>
        <time>2020-06-30T07:33:11.000Z</time>
      </trkpt>
      <trkpt lat="43.95828" lon="7.27478">
        <ele>655</ele>
        <time>2020-06-30T07:33:15.000Z</time>
      </trkpt>
      <trkpt lat="43.95828" lon="7.27472">
        <ele>655.40002441406</ele>
        <time>2020-06-30T07:33:17.000Z</time>
      </trkpt>
      <trkpt lat="43.9583" lon="7.27458">
        <ele>656.40002441406</ele>
        <time>2020-06-30T07:33:22.000Z</time>
      </trkpt>
      <trkpt lat="43.9583" lon="7.27456">
        <ele>656.59997558594</ele>
        <time>2020-06-30T07:33:23.000Z</time>
      </trkpt>
      <trkpt lat="43.95831" lon="7.27444">
        <ele>657.40002441406</ele>
        <time>2020-06-30T07:33:27.000Z</time>
      </trkpt>
      <trkpt lat="43.95831" lon="7.27439">
        <ele>658</ele>
        <time>2020-06-30T07:33:29.000Z</time>
      </trkpt>
      <trkpt lat="43.95833" lon="7.27428">
        <ele>658.59997558594</ele>
        <time>2020-06-30T07:33:33.000Z</time>
      </trkpt>
      <trkpt lat="43.95835" lon="7.27417">
        <ele>659.20001220703</ele>
        <time>2020-06-30T07:33:37.000Z</time>
      </trkpt>
      <trkpt lat="43.95838" lon="7.27413">
        <ele>659.59997558594</ele>
        <time>2020-06-30T07:33:39.000Z</time>
      </trkpt>
      <trkpt lat="43.95844" lon="7.27407">
        <ele>660.20001220703</ele>
        <time>2020-06-30T07:33:43.000Z</time>
      </trkpt>
      <trkpt lat="43.95858" lon="7.27398">
        <ele>660.59997558594</ele>
        <time>2020-06-30T07:33:50.000Z</time>
      </trkpt>
      <trkpt lat="43.95863" lon="7.27383">
        <ele>661.40002441406</ele>
        <time>2020-06-30T07:33:56.000Z</time>
      </trkpt>
      <trkpt lat="43.95863" lon="7.27378">
        <ele>661.59997558594</ele>
        <time>2020-06-30T07:33:58.000Z</time>
      </trkpt>
      <trkpt lat="43.95862" lon="7.27366">
        <ele>662.40002441406</ele>
        <time>2020-06-30T07:34:02.000Z</time>
      </trkpt>
      <trkpt lat="43.9586" lon="7.27361">
        <ele>662.79998779297</ele>
        <time>2020-06-30T07:34:04.000Z</time>
      </trkpt>
      <trkpt lat="43.95857" lon="7.27352">
        <ele>663.40002441406</ele>
        <time>2020-06-30T07:34:08.000Z</time>
      </trkpt>
      <trkpt lat="43.95855" lon="7.27349">
        <ele>663.79998779297</ele>
        <time>2020-06-30T07:34:10.000Z</time>
      </trkpt>
      <trkpt lat="43.95852" lon="7.27341">
        <ele>664.59997558594</ele>
        <time>2020-06-30T07:34:14.000Z</time>
      </trkpt>
      <trkpt lat="43.95851" lon="7.27339">
        <ele>664.79998779297</ele>
        <time>2020-06-30T07:34:15.000Z</time>
      </trkpt>
      <trkpt lat="43.95843" lon="7.27327">
        <ele>666.20001220703</ele>
        <time>2020-06-30T07:34:21.000Z</time>
      </trkpt>
      <trkpt lat="43.95839" lon="7.27321">
        <ele>667</ele>
        <time>2020-06-30T07:34:24.000Z</time>
      </trkpt>
      <trkpt lat="43.95835" lon="7.27317">
        <ele>667.20001220703</ele>
        <time>2020-06-30T07:34:26.000Z</time>
      </trkpt>
      <trkpt lat="43.9583" lon="7.27311">
        <ele>667.40002441406</ele>
        <time>2020-06-30T07:34:29.000Z</time>
      </trkpt>
      <trkpt lat="43.95819" lon="7.273">
        <ele>668.20001220703</ele>
        <time>2020-06-30T07:34:35.000Z</time>
      </trkpt>
      <trkpt lat="43.95814" lon="7.27292">
        <ele>668.79998779297</ele>
        <time>2020-06-30T07:34:39.000Z</time>
      </trkpt>
      <trkpt lat="43.95811" lon="7.27282">
        <ele>669.20001220703</ele>
        <time>2020-06-30T07:34:42.000Z</time>
      </trkpt>
      <trkpt lat="43.9581" lon="7.27276">
        <ele>669.59997558594</ele>
        <time>2020-06-30T07:34:44.000Z</time>
      </trkpt>
      <trkpt lat="43.95814" lon="7.27257">
        <ele>670</ele>
        <time>2020-06-30T07:34:50.000Z</time>
      </trkpt>
      <trkpt lat="43.9582" lon="7.27247">
        <ele>670.20001220703</ele>
        <time>2020-06-30T07:34:54.000Z</time>
      </trkpt>
      <trkpt lat="43.95828" lon="7.2724">
        <ele>670.79998779297</ele>
        <time>2020-06-30T07:34:58.000Z</time>
      </trkpt>
      <trkpt lat="43.95837" lon="7.27233">
        <ele>671.40002441406</ele>
        <time>2020-06-30T07:35:03.000Z</time>
      </trkpt>
      <trkpt lat="43.95842" lon="7.27231">
        <ele>671.59997558594</ele>
        <time>2020-06-30T07:35:05.000Z</time>
      </trkpt>
      <trkpt lat="43.95854" lon="7.2722">
        <ele>672.20001220703</ele>
        <time>2020-06-30T07:35:11.000Z</time>
      </trkpt>
      <trkpt lat="43.95858" lon="7.27215">
        <ele>672.40002441406</ele>
        <time>2020-06-30T07:35:13.000Z</time>
      </trkpt>
      <trkpt lat="43.95866" lon="7.27199">
        <ele>673.20001220703</ele>
        <time>2020-06-30T07:35:19.000Z</time>
      </trkpt>
      <trkpt lat="43.95868" lon="7.27196">
        <ele>673.40002441406</ele>
        <time>2020-06-30T07:35:20.000Z</time>
      </trkpt>
      <trkpt lat="43.95876" lon="7.27177">
        <ele>674.40002441406</ele>
        <time>2020-06-30T07:35:27.000Z</time>
      </trkpt>
      <trkpt lat="43.95877" lon="7.27174">
        <ele>674.59997558594</ele>
        <time>2020-06-30T07:35:28.000Z</time>
      </trkpt>
      <trkpt lat="43.95883" lon="7.27157">
        <ele>675.40002441406</ele>
        <time>2020-06-30T07:35:34.000Z</time>
      </trkpt>
      <trkpt lat="43.9589" lon="7.27143">
        <ele>675.59997558594</ele>
        <time>2020-06-30T07:35:39.000Z</time>
      </trkpt>
      <trkpt lat="43.95892" lon="7.27141">
        <ele>675.59997558594</ele>
        <time>2020-06-30T07:35:40.000Z</time>
      </trkpt>
      <trkpt lat="43.95898" lon="7.27125">
        <ele>675.79998779297</ele>
        <time>2020-06-30T07:35:45.000Z</time>
      </trkpt>
      <trkpt lat="43.95906" lon="7.271">
        <ele>676</ele>
        <time>2020-06-30T07:35:53.000Z</time>
      </trkpt>
      <trkpt lat="43.95914" lon="7.2708">
        <ele>676.20001220703</ele>
        <time>2020-06-30T07:35:59.000Z</time>
      </trkpt>
      <trkpt lat="43.9593" lon="7.27059">
        <ele>675.59997558594</ele>
        <time>2020-06-30T07:36:06.000Z</time>
      </trkpt>
      <trkpt lat="43.9594" lon="7.27053">
        <ele>675</ele>
        <time>2020-06-30T07:36:09.000Z</time>
      </trkpt>
      <trkpt lat="43.95943" lon="7.27049">
        <ele>675</ele>
        <time>2020-06-30T07:36:10.000Z</time>
      </trkpt>
      <trkpt lat="43.95956" lon="7.27031">
        <ele>675.20001220703</ele>
        <time>2020-06-30T07:36:16.000Z</time>
      </trkpt>
      <trkpt lat="43.95962" lon="7.27006">
        <ele>674.40002441406</ele>
        <time>2020-06-30T07:36:22.000Z</time>
      </trkpt>
      <trkpt lat="43.95967" lon="7.26988">
        <ele>674.79998779297</ele>
        <time>2020-06-30T07:36:27.000Z</time>
      </trkpt>
      <trkpt lat="43.95977" lon="7.26971">
        <ele>675.40002441406</ele>
        <time>2020-06-30T07:36:33.000Z</time>
      </trkpt>
      <trkpt lat="43.95979" lon="7.26969">
        <ele>675.59997558594</ele>
        <time>2020-06-30T07:36:34.000Z</time>
      </trkpt>
      <trkpt lat="43.95988" lon="7.26962">
        <ele>676.40002441406</ele>
        <time>2020-06-30T07:36:38.000Z</time>
      </trkpt>
      <trkpt lat="43.95999" lon="7.26963">
        <ele>676.59997558594</ele>
        <time>2020-06-30T07:36:42.000Z</time>
      </trkpt>
      <trkpt lat="43.96001" lon="7.26965">
        <ele>676.79998779297</ele>
        <time>2020-06-30T07:36:43.000Z</time>
      </trkpt>
      <trkpt lat="43.9601" lon="7.26973">
        <ele>677</ele>
        <time>2020-06-30T07:36:47.000Z</time>
      </trkpt>
      <trkpt lat="43.96023" lon="7.26978">
        <ele>677.20001220703</ele>
        <time>2020-06-30T07:36:52.000Z</time>
      </trkpt>
      <trkpt lat="43.96037" lon="7.26987">
        <ele>677.59997558594</ele>
        <time>2020-06-30T07:36:58.000Z</time>
      </trkpt>
      <trkpt lat="43.96039" lon="7.26989">
        <ele>677.79998779297</ele>
        <time>2020-06-30T07:36:59.000Z</time>
      </trkpt>
      <trkpt lat="43.96048" lon="7.26992">
        <ele>678.20001220703</ele>
        <time>2020-06-30T07:37:03.000Z</time>
      </trkpt>
      <trkpt lat="43.96051" lon="7.26991">
        <ele>678.20001220703</ele>
        <time>2020-06-30T07:37:04.000Z</time>
      </trkpt>
      <trkpt lat="43.96059" lon="7.26984">
        <ele>678.40002441406</ele>
        <time>2020-06-30T07:37:07.000Z</time>
      </trkpt>
      <trkpt lat="43.96075" lon="7.26982">
        <ele>677.79998779297</ele>
        <time>2020-06-30T07:37:12.000Z</time>
      </trkpt>
      <trkpt lat="43.9609" lon="7.26977">
        <ele>678</ele>
        <time>2020-06-30T07:37:18.000Z</time>
      </trkpt>
      <trkpt lat="43.96105" lon="7.26982">
        <ele>678.79998779297</ele>
        <time>2020-06-30T07:37:23.000Z</time>
      </trkpt>
      <trkpt lat="43.96122" lon="7.26986">
        <ele>678.59997558594</ele>
        <time>2020-06-30T07:37:29.000Z</time>
      </trkpt>
      <trkpt lat="43.96125" lon="7.26988">
        <ele>678.79998779297</ele>
        <time>2020-06-30T07:37:30.000Z</time>
      </trkpt>
      <trkpt lat="43.96133" lon="7.26994">
        <ele>679.40002441406</ele>
        <time>2020-06-30T07:37:33.000Z</time>
      </trkpt>
      <trkpt lat="43.96138" lon="7.26995">
        <ele>680</ele>
        <time>2020-06-30T07:37:35.000Z</time>
      </trkpt>
      <trkpt lat="43.96146" lon="7.26997">
        <ele>681</ele>
        <time>2020-06-30T07:37:38.000Z</time>
      </trkpt>
      <trkpt lat="43.96148" lon="7.26997">
        <ele>681.40002441406</ele>
        <time>2020-06-30T07:37:39.000Z</time>
      </trkpt>
      <trkpt lat="43.96156" lon="7.26995">
        <ele>682.20001220703</ele>
        <time>2020-06-30T07:37:42.000Z</time>
      </trkpt>
      <trkpt lat="43.9616" lon="7.2699">
        <ele>682.79998779297</ele>
        <time>2020-06-30T07:37:44.000Z</time>
      </trkpt>
      <trkpt lat="43.96163" lon="7.26986">
        <ele>683.40002441406</ele>
        <time>2020-06-30T07:37:46.000Z</time>
      </trkpt>
      <trkpt lat="43.96167" lon="7.26979">
        <ele>684.40002441406</ele>
        <time>2020-06-30T07:37:49.000Z</time>
      </trkpt>
      <trkpt lat="43.96171" lon="7.26972">
        <ele>684.79998779297</ele>
        <time>2020-06-30T07:37:51.000Z</time>
      </trkpt>
      <trkpt lat="43.96183" lon="7.26958">
        <ele>685.40002441406</ele>
        <time>2020-06-30T07:37:57.000Z</time>
      </trkpt>
      <trkpt lat="43.96189" lon="7.26954">
        <ele>685.59997558594</ele>
        <time>2020-06-30T07:38:00.000Z</time>
      </trkpt>
      <trkpt lat="43.96198" lon="7.2695">
        <ele>686</ele>
        <time>2020-06-30T07:38:04.000Z</time>
      </trkpt>
      <trkpt lat="43.96206" lon="7.26942">
        <ele>686.59997558594</ele>
        <time>2020-06-30T07:38:08.000Z</time>
      </trkpt>
      <trkpt lat="43.9621" lon="7.2694">
        <ele>687</ele>
        <time>2020-06-30T07:38:10.000Z</time>
      </trkpt>
      <trkpt lat="43.96217" lon="7.26938">
        <ele>688</ele>
        <time>2020-06-30T07:38:13.000Z</time>
      </trkpt>
      <trkpt lat="43.96223" lon="7.26938">
        <ele>689</ele>
        <time>2020-06-30T07:38:16.000Z</time>
      </trkpt>
      <trkpt lat="43.96228" lon="7.26935">
        <ele>690</ele>
        <time>2020-06-30T07:38:19.000Z</time>
      </trkpt>
      <trkpt lat="43.96232" lon="7.26932">
        <ele>690.59997558594</ele>
        <time>2020-06-30T07:38:21.000Z</time>
      </trkpt>
      <trkpt lat="43.96239" lon="7.26924">
        <ele>691.20001220703</ele>
        <time>2020-06-30T07:38:25.000Z</time>
      </trkpt>
      <trkpt lat="43.96245" lon="7.26916">
        <ele>691.40002441406</ele>
        <time>2020-06-30T07:38:28.000Z</time>
      </trkpt>
      <trkpt lat="43.96255" lon="7.26905">
        <ele>692.20001220703</ele>
        <time>2020-06-30T07:38:33.000Z</time>
      </trkpt>
      <trkpt lat="43.9626" lon="7.269">
        <ele>692.59997558594</ele>
        <time>2020-06-30T07:38:35.000Z</time>
      </trkpt>
      <trkpt lat="43.96268" lon="7.26891">
        <ele>693.40002441406</ele>
        <time>2020-06-30T07:38:39.000Z</time>
      </trkpt>
      <trkpt lat="43.96278" lon="7.26883">
        <ele>694.59997558594</ele>
        <time>2020-06-30T07:38:43.000Z</time>
      </trkpt>
      <trkpt lat="43.96282" lon="7.26879">
        <ele>696</ele>
        <time>2020-06-30T07:38:46.000Z</time>
      </trkpt>
      <trkpt lat="43.96284" lon="7.26877">
        <ele>696.40002441406</ele>
        <time>2020-06-30T07:38:47.000Z</time>
      </trkpt>
      <trkpt lat="43.96286" lon="7.26873">
        <ele>697</ele>
        <time>2020-06-30T07:38:49.000Z</time>
      </trkpt>
      <trkpt lat="43.96289" lon="7.26864">
        <ele>698</ele>
        <time>2020-06-30T07:38:52.000Z</time>
      </trkpt>
      <trkpt lat="43.96291" lon="7.26861">
        <ele>698.20001220703</ele>
        <time>2020-06-30T07:38:53.000Z</time>
      </trkpt>
      <trkpt lat="43.96297" lon="7.26846">
        <ele>699</ele>
        <time>2020-06-30T07:38:58.000Z</time>
      </trkpt>
      <trkpt lat="43.96298" lon="7.26843">
        <ele>699.20001220703</ele>
        <time>2020-06-30T07:38:59.000Z</time>
      </trkpt>
      <trkpt lat="43.96305" lon="7.26833">
        <ele>700.20001220703</ele>
        <time>2020-06-30T07:39:03.000Z</time>
      </trkpt>
      <trkpt lat="43.96307" lon="7.26832">
        <ele>700.79998779297</ele>
        <time>2020-06-30T07:39:04.000Z</time>
      </trkpt>
      <trkpt lat="43.96311" lon="7.26829">
        <ele>701.40002441406</ele>
        <time>2020-06-30T07:39:06.000Z</time>
      </trkpt>
      <trkpt lat="43.96315" lon="7.26826">
        <ele>701.59997558594</ele>
        <time>2020-06-30T07:39:08.000Z</time>
      </trkpt>
      <trkpt lat="43.96326" lon="7.26825">
        <ele>702.59997558594</ele>
        <time>2020-06-30T07:39:14.000Z</time>
      </trkpt>
      <trkpt lat="43.96336" lon="7.26824">
        <ele>703.40002441406</ele>
        <time>2020-06-30T07:39:19.000Z</time>
      </trkpt>
      <trkpt lat="43.9634" lon="7.26824">
        <ele>703.79998779297</ele>
        <time>2020-06-30T07:39:21.000Z</time>
      </trkpt>
      <trkpt lat="43.96349" lon="7.26821">
        <ele>704.59997558594</ele>
        <time>2020-06-30T07:39:25.000Z</time>
      </trkpt>
      <trkpt lat="43.96367" lon="7.26814">
        <ele>704.79998779297</ele>
        <time>2020-06-30T07:39:33.000Z</time>
      </trkpt>
      <trkpt lat="43.96371" lon="7.26811">
        <ele>704.79998779297</ele>
        <time>2020-06-30T07:39:35.000Z</time>
      </trkpt>
      <trkpt lat="43.96377" lon="7.26807">
        <ele>705.20001220703</ele>
        <time>2020-06-30T07:39:38.000Z</time>
      </trkpt>
      <trkpt lat="43.96382" lon="7.26802">
        <ele>706</ele>
        <time>2020-06-30T07:39:41.000Z</time>
      </trkpt>
      <trkpt lat="43.96386" lon="7.26799">
        <ele>706.59997558594</ele>
        <time>2020-06-30T07:39:43.000Z</time>
      </trkpt>
      <trkpt lat="43.96389" lon="7.26796">
        <ele>707</ele>
        <time>2020-06-30T07:39:45.000Z</time>
      </trkpt>
      <trkpt lat="43.96397" lon="7.26792">
        <ele>707.79998779297</ele>
        <time>2020-06-30T07:39:49.000Z</time>
      </trkpt>
      <trkpt lat="43.96406" lon="7.26794">
        <ele>708</ele>
        <time>2020-06-30T07:39:54.000Z</time>
      </trkpt>
      <trkpt lat="43.96408" lon="7.26794">
        <ele>708.20001220703</ele>
        <time>2020-06-30T07:39:55.000Z</time>
      </trkpt>
      <trkpt lat="43.96415" lon="7.26796">
        <ele>708.59997558594</ele>
        <time>2020-06-30T07:40:01.000Z</time>
      </trkpt>
      <trkpt lat="43.96418" lon="7.26797">
        <ele>708.79998779297</ele>
        <time>2020-06-30T07:40:05.000Z</time>
      </trkpt>
      <trkpt lat="43.96427" lon="7.268">
        <ele>709</ele>
        <time>2020-06-30T07:40:11.000Z</time>
      </trkpt>
      <trkpt lat="43.96428" lon="7.26801">
        <ele>709.20001220703</ele>
        <time>2020-06-30T07:40:12.000Z</time>
      </trkpt>
      <trkpt lat="43.96429" lon="7.26801">
        <ele>709.40002441406</ele>
        <time>2020-06-30T07:40:15.000Z</time>
      </trkpt>
      <trkpt lat="43.9643" lon="7.26801">
        <ele>709.59997558594</ele>
        <time>2020-06-30T07:40:23.000Z</time>
      </trkpt>
      <trkpt lat="43.96431" lon="7.268">
        <ele>709.40002441406</ele>
        <time>2020-06-30T07:40:33.000Z</time>
      </trkpt>
      <trkpt lat="43.96432" lon="7.268">
        <ele>709.40002441406</ele>
        <time>2020-06-30T07:40:41.000Z</time>
      </trkpt>
      <trkpt lat="43.96433" lon="7.26799">
        <ele>709.40002441406</ele>
        <time>2020-06-30T07:40:45.000Z</time>
      </trkpt>
      <trkpt lat="43.96436" lon="7.26799">
        <ele>709.40002441406</ele>
        <time>2020-06-30T07:40:57.000Z</time>
      </trkpt>
      <trkpt lat="43.96438" lon="7.26798">
        <ele>709.59997558594</ele>
        <time>2020-06-30T07:41:06.000Z</time>
      </trkpt>
      <trkpt lat="43.96438" lon="7.26798">
        <ele>709.20001220703</ele>
        <time>2020-06-30T07:41:11.000Z</time>
      </trkpt>
      <trkpt lat="43.96439" lon="7.26799">
        <ele>709.59997558594</ele>
        <time>2020-06-30T07:41:18.000Z</time>
      </trkpt>
      <trkpt lat="43.96439" lon="7.268">
        <ele>709.20001220703</ele>
        <time>2020-06-30T07:41:26.000Z</time>
      </trkpt>
      <trkpt lat="43.9644" lon="7.26801">
        <ele>709.59997558594</ele>
        <time>2020-06-30T07:41:32.000Z</time>
      </trkpt>
      <trkpt lat="43.96445" lon="7.26803">
        <ele>709.40002441406</ele>
        <time>2020-06-30T07:41:38.000Z</time>
      </trkpt>
      <trkpt lat="43.96459" lon="7.26812">
        <ele>709.79998779297</ele>
        <time>2020-06-30T07:41:44.000Z</time>
      </trkpt>
      <trkpt lat="43.9647" lon="7.26824">
        <ele>710.20001220703</ele>
        <time>2020-06-30T07:41:49.000Z</time>
      </trkpt>
      <trkpt lat="43.96474" lon="7.26828">
        <ele>710.79998779297</ele>
        <time>2020-06-30T07:41:51.000Z</time>
      </trkpt>
      <trkpt lat="43.9648" lon="7.26834">
        <ele>711.40002441406</ele>
        <time>2020-06-30T07:41:54.000Z</time>
      </trkpt>
      <trkpt lat="43.96483" lon="7.26836">
        <ele>711.59997558594</ele>
        <time>2020-06-30T07:41:55.000Z</time>
      </trkpt>
      <trkpt lat="43.96489" lon="7.2684">
        <ele>712.59997558594</ele>
        <time>2020-06-30T07:41:58.000Z</time>
      </trkpt>
      <trkpt lat="43.96497" lon="7.26844">
        <ele>713.20001220703</ele>
        <time>2020-06-30T07:42:01.000Z</time>
      </trkpt>
      <trkpt lat="43.96506" lon="7.26845">
        <ele>713.59997558594</ele>
        <time>2020-06-30T07:42:04.000Z</time>
      </trkpt>
      <trkpt lat="43.96512" lon="7.26844">
        <ele>713.79998779297</ele>
        <time>2020-06-30T07:42:06.000Z</time>
      </trkpt>
      <trkpt lat="43.96525" lon="7.26842">
        <ele>714.59997558594</ele>
        <time>2020-06-30T07:42:11.000Z</time>
      </trkpt>
      <trkpt lat="43.96527" lon="7.26842">
        <ele>714.79998779297</ele>
        <time>2020-06-30T07:42:12.000Z</time>
      </trkpt>
      <trkpt lat="43.96538" lon="7.26843">
        <ele>716</ele>
        <time>2020-06-30T07:42:16.000Z</time>
      </trkpt>
      <trkpt lat="43.96555" lon="7.26845">
        <ele>717.20001220703</ele>
        <time>2020-06-30T07:42:22.000Z</time>
      </trkpt>
      <trkpt lat="43.96565" lon="7.26847">
        <ele>718.40002441406</ele>
        <time>2020-06-30T07:42:26.000Z</time>
      </trkpt>
      <trkpt lat="43.96574" lon="7.26848">
        <ele>719.40002441406</ele>
        <time>2020-06-30T07:42:29.000Z</time>
      </trkpt>
      <trkpt lat="43.96584" lon="7.26848">
        <ele>720.59997558594</ele>
        <time>2020-06-30T07:42:33.000Z</time>
      </trkpt>
      <trkpt lat="43.96599" lon="7.26847">
        <ele>721.40002441406</ele>
        <time>2020-06-30T07:42:39.000Z</time>
      </trkpt>
      <trkpt lat="43.96602" lon="7.26845">
        <ele>721.59997558594</ele>
        <time>2020-06-30T07:42:40.000Z</time>
      </trkpt>
      <trkpt lat="43.9661" lon="7.26842">
        <ele>722.40002441406</ele>
        <time>2020-06-30T07:42:44.000Z</time>
      </trkpt>
      <trkpt lat="43.96615" lon="7.26841">
        <ele>722.79998779297</ele>
        <time>2020-06-30T07:42:46.000Z</time>
      </trkpt>
      <trkpt lat="43.96621" lon="7.26838">
        <ele>723.20001220703</ele>
        <time>2020-06-30T07:42:49.000Z</time>
      </trkpt>
      <trkpt lat="43.96628" lon="7.26838">
        <ele>723.79998779297</ele>
        <time>2020-06-30T07:42:52.000Z</time>
      </trkpt>
      <trkpt lat="43.96635" lon="7.26836">
        <ele>724.40002441406</ele>
        <time>2020-06-30T07:42:55.000Z</time>
      </trkpt>
      <trkpt lat="43.96638" lon="7.26835">
        <ele>724.79998779297</ele>
        <time>2020-06-30T07:42:57.000Z</time>
      </trkpt>
      <trkpt lat="43.96642" lon="7.26833">
        <ele>725.59997558594</ele>
        <time>2020-06-30T07:43:00.000Z</time>
      </trkpt>
      <trkpt lat="43.96645" lon="7.26832">
        <ele>726</ele>
        <time>2020-06-30T07:43:01.000Z</time>
      </trkpt>
      <trkpt lat="43.96651" lon="7.2683">
        <ele>727</ele>
        <time>2020-06-30T07:43:05.000Z</time>
      </trkpt>
      <trkpt lat="43.96652" lon="7.2683">
        <ele>727</ele>
        <time>2020-06-30T07:43:06.000Z</time>
      </trkpt>
      <trkpt lat="43.96653" lon="7.26829">
        <ele>727.40002441406</ele>
        <time>2020-06-30T07:43:07.000Z</time>
      </trkpt>
      <trkpt lat="43.96657" lon="7.26826">
        <ele>728</ele>
        <time>2020-06-30T07:43:10.000Z</time>
      </trkpt>
      <trkpt lat="43.96658" lon="7.26825">
        <ele>728.40002441406</ele>
        <time>2020-06-30T07:43:11.000Z</time>
      </trkpt>
      <trkpt lat="43.96662" lon="7.26821">
        <ele>729.20001220703</ele>
        <time>2020-06-30T07:43:15.000Z</time>
      </trkpt>
      <trkpt lat="43.96663" lon="7.2682">
        <ele>729.40002441406</ele>
        <time>2020-06-30T07:43:16.000Z</time>
      </trkpt>
      <trkpt lat="43.96665" lon="7.26819">
        <ele>729.59997558594</ele>
        <time>2020-06-30T07:43:17.000Z</time>
      </trkpt>
      <trkpt lat="43.96668" lon="7.26816">
        <ele>730.20001220703</ele>
        <time>2020-06-30T07:43:20.000Z</time>
      </trkpt>
      <trkpt lat="43.96669" lon="7.26813">
        <ele>730.59997558594</ele>
        <time>2020-06-30T07:43:22.000Z</time>
      </trkpt>
      <trkpt lat="43.96677" lon="7.26805">
        <ele>731.40002441406</ele>
        <time>2020-06-30T07:43:27.000Z</time>
      </trkpt>
      <trkpt lat="43.96678" lon="7.26805">
        <ele>731.59997558594</ele>
        <time>2020-06-30T07:43:28.000Z</time>
      </trkpt>
      <trkpt lat="43.96682" lon="7.26799">
        <ele>732.59997558594</ele>
        <time>2020-06-30T07:43:32.000Z</time>
      </trkpt>
      <trkpt lat="43.96685" lon="7.26795">
        <ele>733.40002441406</ele>
        <time>2020-06-30T07:43:36.000Z</time>
      </trkpt>
      <trkpt lat="43.96687" lon="7.26793">
        <ele>733.79998779297</ele>
        <time>2020-06-30T07:43:38.000Z</time>
      </trkpt>
      <trkpt lat="43.96693" lon="7.26783">
        <ele>735</ele>
        <time>2020-06-30T07:43:44.000Z</time>
      </trkpt>
      <trkpt lat="43.96695" lon="7.2678">
        <ele>735.40002441406</ele>
        <time>2020-06-30T07:43:46.000Z</time>
      </trkpt>
      <trkpt lat="43.967" lon="7.26772">
        <ele>736.20001220703</ele>
        <time>2020-06-30T07:43:51.000Z</time>
      </trkpt>
      <trkpt lat="43.96702" lon="7.2677">
        <ele>736.20001220703</ele>
        <time>2020-06-30T07:43:52.000Z</time>
      </trkpt>
      <trkpt lat="43.9671" lon="7.26762">
        <ele>737.20001220703</ele>
        <time>2020-06-30T07:43:59.000Z</time>
      </trkpt>
      <trkpt lat="43.96712" lon="7.26761">
        <ele>737.79998779297</ele>
        <time>2020-06-30T07:44:01.000Z</time>
      </trkpt>
      <trkpt lat="43.96716" lon="7.26761">
        <ele>738.40002441406</ele>
        <time>2020-06-30T07:44:04.000Z</time>
      </trkpt>
      <trkpt lat="43.96717" lon="7.2676">
        <ele>738.59997558594</ele>
        <time>2020-06-30T07:44:05.000Z</time>
      </trkpt>
      <trkpt lat="43.96723" lon="7.2676">
        <ele>739.40002441406</ele>
        <time>2020-06-30T07:44:09.000Z</time>
      </trkpt>
      <trkpt lat="43.96725" lon="7.26759">
        <ele>739.79998779297</ele>
        <time>2020-06-30T07:44:11.000Z</time>
      </trkpt>
      <trkpt lat="43.9673" lon="7.26759">
        <ele>740.59997558594</ele>
        <time>2020-06-30T07:44:15.000Z</time>
      </trkpt>
      <trkpt lat="43.96731" lon="7.26759">
        <ele>740.79998779297</ele>
        <time>2020-06-30T07:44:16.000Z</time>
      </trkpt>
      <trkpt lat="43.96739" lon="7.26754">
        <ele>741.59997558594</ele>
        <time>2020-06-30T07:44:21.000Z</time>
      </trkpt>
      <trkpt lat="43.96741" lon="7.26752">
        <ele>742.20001220703</ele>
        <time>2020-06-30T07:44:23.000Z</time>
      </trkpt>
      <trkpt lat="43.96743" lon="7.26751">
        <ele>742.79998779297</ele>
        <time>2020-06-30T07:44:25.000Z</time>
      </trkpt>
      <trkpt lat="43.96748" lon="7.26747">
        <ele>743.40002441406</ele>
        <time>2020-06-30T07:44:28.000Z</time>
      </trkpt>
      <trkpt lat="43.96751" lon="7.26745">
        <ele>744</ele>
        <time>2020-06-30T07:44:30.000Z</time>
      </trkpt>
      <trkpt lat="43.96755" lon="7.26738">
        <ele>745</ele>
        <time>2020-06-30T07:44:34.000Z</time>
      </trkpt>
      <trkpt lat="43.96756" lon="7.26736">
        <ele>745.20001220703</ele>
        <time>2020-06-30T07:44:35.000Z</time>
      </trkpt>
      <trkpt lat="43.9676" lon="7.26719">
        <ele>746</ele>
        <time>2020-06-30T07:44:42.000Z</time>
      </trkpt>
      <trkpt lat="43.96768" lon="7.26707">
        <ele>746.59997558594</ele>
        <time>2020-06-30T07:44:49.000Z</time>
      </trkpt>
      <trkpt lat="43.96772" lon="7.26705">
        <ele>747</ele>
        <time>2020-06-30T07:44:52.000Z</time>
      </trkpt>
      <trkpt lat="43.96774" lon="7.26706">
        <ele>747.20001220703</ele>
        <time>2020-06-30T07:44:53.000Z</time>
      </trkpt>
      <trkpt lat="43.96781" lon="7.26707">
        <ele>747.79998779297</ele>
        <time>2020-06-30T07:44:58.000Z</time>
      </trkpt>
      <trkpt lat="43.96782" lon="7.26706">
        <ele>748.20001220703</ele>
        <time>2020-06-30T07:44:59.000Z</time>
      </trkpt>
      <trkpt lat="43.96787" lon="7.26705">
        <ele>748.79998779297</ele>
        <time>2020-06-30T07:45:02.000Z</time>
      </trkpt>
      <trkpt lat="43.96789" lon="7.26705">
        <ele>749.20001220703</ele>
        <time>2020-06-30T07:45:04.000Z</time>
      </trkpt>
      <trkpt lat="43.96791" lon="7.26706">
        <ele>749.20001220703</ele>
        <time>2020-06-30T07:45:05.000Z</time>
      </trkpt>
      <trkpt lat="43.96798" lon="7.26707">
        <ele>750.40002441406</ele>
        <time>2020-06-30T07:45:10.000Z</time>
      </trkpt>
      <trkpt lat="43.96799" lon="7.26708">
        <ele>750.59997558594</ele>
        <time>2020-06-30T07:45:11.000Z</time>
      </trkpt>
      <trkpt lat="43.96804" lon="7.2671">
        <ele>751.59997558594</ele>
        <time>2020-06-30T07:45:15.000Z</time>
      </trkpt>
      <trkpt lat="43.96806" lon="7.2671">
        <ele>751.79998779297</ele>
        <time>2020-06-30T07:45:17.000Z</time>
      </trkpt>
      <trkpt lat="43.96808" lon="7.2671">
        <ele>752</ele>
        <time>2020-06-30T07:45:18.000Z</time>
      </trkpt>
      <trkpt lat="43.96815" lon="7.26708">
        <ele>752.59997558594</ele>
        <time>2020-06-30T07:45:22.000Z</time>
      </trkpt>
      <trkpt lat="43.96816" lon="7.26707">
        <ele>752.79998779297</ele>
        <time>2020-06-30T07:45:23.000Z</time>
      </trkpt>
      <trkpt lat="43.96821" lon="7.26705">
        <ele>753.59997558594</ele>
        <time>2020-06-30T07:45:27.000Z</time>
      </trkpt>
      <trkpt lat="43.96827" lon="7.26702">
        <ele>754.40002441406</ele>
        <time>2020-06-30T07:45:31.000Z</time>
      </trkpt>
      <trkpt lat="43.9683" lon="7.26702">
        <ele>754.59997558594</ele>
        <time>2020-06-30T07:45:33.000Z</time>
      </trkpt>
      <trkpt lat="43.96834" lon="7.26701">
        <ele>755.20001220703</ele>
        <time>2020-06-30T07:45:36.000Z</time>
      </trkpt>
      <trkpt lat="43.96837" lon="7.26701">
        <ele>755.79998779297</ele>
        <time>2020-06-30T07:45:38.000Z</time>
      </trkpt>
      <trkpt lat="43.96841" lon="7.26703">
        <ele>756.20001220703</ele>
        <time>2020-06-30T07:45:41.000Z</time>
      </trkpt>
      <trkpt lat="43.96844" lon="7.26704">
        <ele>756.79998779297</ele>
        <time>2020-06-30T07:45:44.000Z</time>
      </trkpt>
      <trkpt lat="43.96848" lon="7.26703">
        <ele>757.59997558594</ele>
        <time>2020-06-30T07:45:47.000Z</time>
      </trkpt>
      <trkpt lat="43.96852" lon="7.26702">
        <ele>758</ele>
        <time>2020-06-30T07:45:50.000Z</time>
      </trkpt>
      <trkpt lat="43.96856" lon="7.267">
        <ele>758.59997558594</ele>
        <time>2020-06-30T07:45:53.000Z</time>
      </trkpt>
      <trkpt lat="43.96858" lon="7.26699">
        <ele>759</ele>
        <time>2020-06-30T07:45:55.000Z</time>
      </trkpt>
      <trkpt lat="43.96865" lon="7.26695">
        <ele>760.20001220703</ele>
        <time>2020-06-30T07:46:00.000Z</time>
      </trkpt>
      <trkpt lat="43.96867" lon="7.26694">
        <ele>760.40002441406</ele>
        <time>2020-06-30T07:46:01.000Z</time>
      </trkpt>
      <trkpt lat="43.96873" lon="7.2669">
        <ele>760.79998779297</ele>
        <time>2020-06-30T07:46:06.000Z</time>
      </trkpt>
      <trkpt lat="43.96874" lon="7.26691">
        <ele>761</ele>
        <time>2020-06-30T07:46:07.000Z</time>
      </trkpt>
      <trkpt lat="43.96876" lon="7.26696">
        <ele>761.20001220703</ele>
        <time>2020-06-30T07:46:10.000Z</time>
      </trkpt>
      <trkpt lat="43.96875" lon="7.267">
        <ele>761.59997558594</ele>
        <time>2020-06-30T07:46:12.000Z</time>
      </trkpt>
      <trkpt lat="43.96875" lon="7.26704">
        <ele>761.79998779297</ele>
        <time>2020-06-30T07:46:14.000Z</time>
      </trkpt>
      <trkpt lat="43.96875" lon="7.26714">
        <ele>762.20001220703</ele>
        <time>2020-06-30T07:46:18.000Z</time>
      </trkpt>
      <trkpt lat="43.96875" lon="7.26716">
        <ele>762.40002441406</ele>
        <time>2020-06-30T07:46:19.000Z</time>
      </trkpt>
      <trkpt lat="43.96878" lon="7.26727">
        <ele>762.79998779297</ele>
        <time>2020-06-30T07:46:24.000Z</time>
      </trkpt>
      <trkpt lat="43.96883" lon="7.26735">
        <ele>763.59997558594</ele>
        <time>2020-06-30T07:46:28.000Z</time>
      </trkpt>
      <trkpt lat="43.96886" lon="7.26742">
        <ele>764</ele>
        <time>2020-06-30T07:46:32.000Z</time>
      </trkpt>
      <trkpt lat="43.96891" lon="7.2675">
        <ele>764.59997558594</ele>
        <time>2020-06-30T07:46:36.000Z</time>
      </trkpt>
      <trkpt lat="43.96894" lon="7.26755">
        <ele>764.79998779297</ele>
        <time>2020-06-30T07:46:39.000Z</time>
      </trkpt>
      <trkpt lat="43.969" lon="7.26769">
        <ele>765.40002441406</ele>
        <time>2020-06-30T07:46:45.000Z</time>
      </trkpt>
      <trkpt lat="43.96901" lon="7.26771">
        <ele>765.40002441406</ele>
        <time>2020-06-30T07:46:46.000Z</time>
      </trkpt>
      <trkpt lat="43.96905" lon="7.26778">
        <ele>765.59997558594</ele>
        <time>2020-06-30T07:46:49.000Z</time>
      </trkpt>
      <trkpt lat="43.96907" lon="7.26782">
        <ele>765.59997558594</ele>
        <time>2020-06-30T07:46:51.000Z</time>
      </trkpt>
      <trkpt lat="43.96909" lon="7.26791">
        <ele>766.59997558594</ele>
        <time>2020-06-30T07:46:56.000Z</time>
      </trkpt>
      <trkpt lat="43.96911" lon="7.26794">
        <ele>766.79998779297</ele>
        <time>2020-06-30T07:46:58.000Z</time>
      </trkpt>
      <trkpt lat="43.96914" lon="7.268">
        <ele>767.40002441406</ele>
        <time>2020-06-30T07:47:01.000Z</time>
      </trkpt>
      <trkpt lat="43.96915" lon="7.26804">
        <ele>767.59997558594</ele>
        <time>2020-06-30T07:47:03.000Z</time>
      </trkpt>
      <trkpt lat="43.96916" lon="7.26805">
        <ele>767.79998779297</ele>
        <time>2020-06-30T07:47:04.000Z</time>
      </trkpt>
      <trkpt lat="43.96917" lon="7.26807">
        <ele>767.79998779297</ele>
        <time>2020-06-30T07:47:05.000Z</time>
      </trkpt>
      <trkpt lat="43.96928" lon="7.26816">
        <ele>768.59997558594</ele>
        <time>2020-06-30T07:47:11.000Z</time>
      </trkpt>
      <trkpt lat="43.96931" lon="7.26818">
        <ele>768.79998779297</ele>
        <time>2020-06-30T07:47:13.000Z</time>
      </trkpt>
      <trkpt lat="43.96937" lon="7.26818">
        <ele>769</ele>
        <time>2020-06-30T07:47:16.000Z</time>
      </trkpt>
      <trkpt lat="43.96939" lon="7.26817">
        <ele>769</ele>
        <time>2020-06-30T07:47:17.000Z</time>
      </trkpt>
      <trkpt lat="43.96949" lon="7.26812">
        <ele>769.20001220703</ele>
        <time>2020-06-30T07:47:21.000Z</time>
      </trkpt>
      <trkpt lat="43.96963" lon="7.26814">
        <ele>769.40002441406</ele>
        <time>2020-06-30T07:47:26.000Z</time>
      </trkpt>
      <trkpt lat="43.96974" lon="7.26816">
        <ele>769.79998779297</ele>
        <time>2020-06-30T07:47:31.000Z</time>
      </trkpt>
      <trkpt lat="43.96984" lon="7.26809">
        <ele>770.40002441406</ele>
        <time>2020-06-30T07:47:37.000Z</time>
      </trkpt>
      <trkpt lat="43.96995" lon="7.26803">
        <ele>770.40002441406</ele>
        <time>2020-06-30T07:47:42.000Z</time>
      </trkpt>
      <trkpt lat="43.96997" lon="7.26804">
        <ele>770.59997558594</ele>
        <time>2020-06-30T07:47:43.000Z</time>
      </trkpt>
      <trkpt lat="43.97002" lon="7.26808">
        <ele>770.79998779297</ele>
        <time>2020-06-30T07:47:46.000Z</time>
      </trkpt>
      <trkpt lat="43.97003" lon="7.26809">
        <ele>771</ele>
        <time>2020-06-30T07:47:47.000Z</time>
      </trkpt>
      <trkpt lat="43.97005" lon="7.26811">
        <ele>771.20001220703</ele>
        <time>2020-06-30T07:47:48.000Z</time>
      </trkpt>
      <trkpt lat="43.9701" lon="7.26812">
        <ele>771.79998779297</ele>
        <time>2020-06-30T07:47:51.000Z</time>
      </trkpt>
      <trkpt lat="43.97011" lon="7.26812">
        <ele>772</ele>
        <time>2020-06-30T07:47:52.000Z</time>
      </trkpt>
      <trkpt lat="43.97021" lon="7.26812">
        <ele>772.59997558594</ele>
        <time>2020-06-30T07:47:58.000Z</time>
      </trkpt>
      <trkpt lat="43.97032" lon="7.26815">
        <ele>772.79998779297</ele>
        <time>2020-06-30T07:48:03.000Z</time>
      </trkpt>
      <trkpt lat="43.97037" lon="7.26816">
        <ele>772.79998779297</ele>
        <time>2020-06-30T07:48:05.000Z</time>
      </trkpt>
      <trkpt lat="43.97042" lon="7.26816">
        <ele>773.20001220703</ele>
        <time>2020-06-30T07:48:08.000Z</time>
      </trkpt>
      <trkpt lat="43.97056" lon="7.2682">
        <ele>773.20001220703</ele>
        <time>2020-06-30T07:48:15.000Z</time>
      </trkpt>
      <trkpt lat="43.97065" lon="7.26822">
        <ele>773.59997558594</ele>
        <time>2020-06-30T07:48:19.000Z</time>
      </trkpt>
      <trkpt lat="43.97069" lon="7.26826">
        <ele>773.79998779297</ele>
        <time>2020-06-30T07:48:21.000Z</time>
      </trkpt>
      <trkpt lat="43.97073" lon="7.2683">
        <ele>774.20001220703</ele>
        <time>2020-06-30T07:48:23.000Z</time>
      </trkpt>
      <trkpt lat="43.97083" lon="7.26836">
        <ele>774.40002441406</ele>
        <time>2020-06-30T07:48:28.000Z</time>
      </trkpt>
      <trkpt lat="43.97086" lon="7.26836">
        <ele>774.20001220703</ele>
        <time>2020-06-30T07:48:29.000Z</time>
      </trkpt>
      <trkpt lat="43.97102" lon="7.2684">
        <ele>773.79998779297</ele>
        <time>2020-06-30T07:48:35.000Z</time>
      </trkpt>
      <trkpt lat="43.97115" lon="7.26846">
        <ele>774.20001220703</ele>
        <time>2020-06-30T07:48:40.000Z</time>
      </trkpt>
      <trkpt lat="43.97126" lon="7.26851">
        <ele>775</ele>
        <time>2020-06-30T07:48:45.000Z</time>
      </trkpt>
      <trkpt lat="43.97129" lon="7.26851">
        <ele>775.20001220703</ele>
        <time>2020-06-30T07:48:46.000Z</time>
      </trkpt>
      <trkpt lat="43.97147" lon="7.26851">
        <ele>775.59997558594</ele>
        <time>2020-06-30T07:48:54.000Z</time>
      </trkpt>
      <trkpt lat="43.97163" lon="7.26856">
        <ele>776.20001220703</ele>
        <time>2020-06-30T07:49:00.000Z</time>
      </trkpt>
      <trkpt lat="43.97165" lon="7.26858">
        <ele>776.20001220703</ele>
        <time>2020-06-30T07:49:01.000Z</time>
      </trkpt>
      <trkpt lat="43.97168" lon="7.26866">
        <ele>776.59997558594</ele>
        <time>2020-06-30T07:49:04.000Z</time>
      </trkpt>
      <trkpt lat="43.9717" lon="7.26872">
        <ele>776.79998779297</ele>
        <time>2020-06-30T07:49:06.000Z</time>
      </trkpt>
      <trkpt lat="43.97172" lon="7.26885">
        <ele>777.20001220703</ele>
        <time>2020-06-30T07:49:11.000Z</time>
      </trkpt>
      <trkpt lat="43.97183" lon="7.26885">
        <ele>777.59997558594</ele>
        <time>2020-06-30T07:49:16.000Z</time>
      </trkpt>
      <trkpt lat="43.97188" lon="7.26884">
        <ele>777.59997558594</ele>
        <time>2020-06-30T07:49:18.000Z</time>
      </trkpt>
      <trkpt lat="43.97196" lon="7.26887">
        <ele>777.79998779297</ele>
        <time>2020-06-30T07:49:21.000Z</time>
      </trkpt>
      <trkpt lat="43.97208" lon="7.26898">
        <ele>778</ele>
        <time>2020-06-30T07:49:26.000Z</time>
      </trkpt>
      <trkpt lat="43.97211" lon="7.26906">
        <ele>778.40002441406</ele>
        <time>2020-06-30T07:49:29.000Z</time>
      </trkpt>
      <trkpt lat="43.97212" lon="7.26908">
        <ele>778.59997558594</ele>
        <time>2020-06-30T07:49:30.000Z</time>
      </trkpt>
      <trkpt lat="43.97215" lon="7.26913">
        <ele>778.79998779297</ele>
        <time>2020-06-30T07:49:32.000Z</time>
      </trkpt>
      <trkpt lat="43.97218" lon="7.26918">
        <ele>779</ele>
        <time>2020-06-30T07:49:34.000Z</time>
      </trkpt>
      <trkpt lat="43.97224" lon="7.26924">
        <ele>779.40002441406</ele>
        <time>2020-06-30T07:49:38.000Z</time>
      </trkpt>
      <trkpt lat="43.97225" lon="7.26926">
        <ele>779.59997558594</ele>
        <time>2020-06-30T07:49:39.000Z</time>
      </trkpt>
      <trkpt lat="43.9723" lon="7.26933">
        <ele>780.59997558594</ele>
        <time>2020-06-30T07:49:43.000Z</time>
      </trkpt>
      <trkpt lat="43.97231" lon="7.26938">
        <ele>781</ele>
        <time>2020-06-30T07:49:45.000Z</time>
      </trkpt>
      <trkpt lat="43.97234" lon="7.26946">
        <ele>781.59997558594</ele>
        <time>2020-06-30T07:49:49.000Z</time>
      </trkpt>
      <trkpt lat="43.97234" lon="7.2695">
        <ele>782</ele>
        <time>2020-06-30T07:49:51.000Z</time>
      </trkpt>
      <trkpt lat="43.97235" lon="7.26954">
        <ele>782.20001220703</ele>
        <time>2020-06-30T07:49:53.000Z</time>
      </trkpt>
      <trkpt lat="43.97236" lon="7.2696">
        <ele>782.59997558594</ele>
        <time>2020-06-30T07:49:56.000Z</time>
      </trkpt>
      <trkpt lat="43.97238" lon="7.26962">
        <ele>782.79998779297</ele>
        <time>2020-06-30T07:49:57.000Z</time>
      </trkpt>
      <trkpt lat="43.97239" lon="7.26965">
        <ele>782.79998779297</ele>
        <time>2020-06-30T07:49:58.000Z</time>
      </trkpt>
      <trkpt lat="43.9724" lon="7.26969">
        <ele>783.20001220703</ele>
        <time>2020-06-30T07:50:00.000Z</time>
      </trkpt>
      <trkpt lat="43.97244" lon="7.26976">
        <ele>783.79998779297</ele>
        <time>2020-06-30T07:50:03.000Z</time>
      </trkpt>
      <trkpt lat="43.97247" lon="7.26978">
        <ele>784</ele>
        <time>2020-06-30T07:50:05.000Z</time>
      </trkpt>
      <trkpt lat="43.97256" lon="7.26977">
        <ele>784.20001220703</ele>
        <time>2020-06-30T07:50:10.000Z</time>
      </trkpt>
      <trkpt lat="43.97258" lon="7.26972">
        <ele>784.20001220703</ele>
        <time>2020-06-30T07:50:13.000Z</time>
      </trkpt>
      <trkpt lat="43.97258" lon="7.2697">
        <ele>784.20001220703</ele>
        <time>2020-06-30T07:50:14.000Z</time>
      </trkpt>
      <trkpt lat="43.97261" lon="7.26957">
        <ele>784.40002441406</ele>
        <time>2020-06-30T07:50:19.000Z</time>
      </trkpt>
      <trkpt lat="43.97265" lon="7.26945">
        <ele>784.59997558594</ele>
        <time>2020-06-30T07:50:23.000Z</time>
      </trkpt>
      <trkpt lat="43.97268" lon="7.26928">
        <ele>784.59997558594</ele>
        <time>2020-06-30T07:50:29.000Z</time>
      </trkpt>
      <trkpt lat="43.97274" lon="7.26913">
        <ele>784.59997558594</ele>
        <time>2020-06-30T07:50:34.000Z</time>
      </trkpt>
      <trkpt lat="43.9728" lon="7.26903">
        <ele>784.79998779297</ele>
        <time>2020-06-30T07:50:38.000Z</time>
      </trkpt>
      <trkpt lat="43.97281" lon="7.26902">
        <ele>785</ele>
        <time>2020-06-30T07:50:39.000Z</time>
      </trkpt>
      <trkpt lat="43.97284" lon="7.26896">
        <ele>786.20001220703</ele>
        <time>2020-06-30T07:50:42.000Z</time>
      </trkpt>
      <trkpt lat="43.97289" lon="7.26889">
        <ele>787</ele>
        <time>2020-06-30T07:50:46.000Z</time>
      </trkpt>
      <trkpt lat="43.97293" lon="7.26888">
        <ele>787.40002441406</ele>
        <time>2020-06-30T07:50:49.000Z</time>
      </trkpt>
      <trkpt lat="43.97295" lon="7.26888">
        <ele>788</ele>
        <time>2020-06-30T07:50:51.000Z</time>
      </trkpt>
      <trkpt lat="43.97298" lon="7.2689">
        <ele>788.40002441406</ele>
        <time>2020-06-30T07:50:53.000Z</time>
      </trkpt>
      <trkpt lat="43.97305" lon="7.26893">
        <ele>788.79998779297</ele>
        <time>2020-06-30T07:50:57.000Z</time>
      </trkpt>
      <trkpt lat="43.97314" lon="7.26897">
        <ele>789.40002441406</ele>
        <time>2020-06-30T07:51:02.000Z</time>
      </trkpt>
      <trkpt lat="43.97315" lon="7.26898">
        <ele>789.59997558594</ele>
        <time>2020-06-30T07:51:03.000Z</time>
      </trkpt>
      <trkpt lat="43.97325" lon="7.26905">
        <ele>790.40002441406</ele>
        <time>2020-06-30T07:51:10.000Z</time>
      </trkpt>
      <trkpt lat="43.97326" lon="7.26906">
        <ele>790.59997558594</ele>
        <time>2020-06-30T07:51:11.000Z</time>
      </trkpt>
      <trkpt lat="43.97331" lon="7.2691">
        <ele>791.20001220703</ele>
        <time>2020-06-30T07:51:15.000Z</time>
      </trkpt>
      <trkpt lat="43.97337" lon="7.26914">
        <ele>791.59997558594</ele>
        <time>2020-06-30T07:51:19.000Z</time>
      </trkpt>
      <trkpt lat="43.97342" lon="7.26918">
        <ele>791.79998779297</ele>
        <time>2020-06-30T07:51:22.000Z</time>
      </trkpt>
      <trkpt lat="43.97352" lon="7.26921">
        <ele>792.40002441406</ele>
        <time>2020-06-30T07:51:27.000Z</time>
      </trkpt>
      <trkpt lat="43.97361" lon="7.26923">
        <ele>792.59997558594</ele>
        <time>2020-06-30T07:51:31.000Z</time>
      </trkpt>
      <trkpt lat="43.97368" lon="7.26923">
        <ele>793</ele>
        <time>2020-06-30T07:51:35.000Z</time>
      </trkpt>
      <trkpt lat="43.97381" lon="7.26923">
        <ele>793.40002441406</ele>
        <time>2020-06-30T07:51:41.000Z</time>
      </trkpt>
      <trkpt lat="43.97391" lon="7.26923">
        <ele>793.79998779297</ele>
        <time>2020-06-30T07:51:46.000Z</time>
      </trkpt>
      <trkpt lat="43.97393" lon="7.26923">
        <ele>794</ele>
        <time>2020-06-30T07:51:47.000Z</time>
      </trkpt>
      <trkpt lat="43.97401" lon="7.26924">
        <ele>794.79998779297</ele>
        <time>2020-06-30T07:51:52.000Z</time>
      </trkpt>
      <trkpt lat="43.97403" lon="7.26923">
        <ele>794.79998779297</ele>
        <time>2020-06-30T07:51:53.000Z</time>
      </trkpt>
      <trkpt lat="43.97406" lon="7.2692">
        <ele>794.79998779297</ele>
        <time>2020-06-30T07:51:55.000Z</time>
      </trkpt>
      <trkpt lat="43.97409" lon="7.26915">
        <ele>794.79998779297</ele>
        <time>2020-06-30T07:51:57.000Z</time>
      </trkpt>
      <trkpt lat="43.97408" lon="7.26905">
        <ele>795.20001220703</ele>
        <time>2020-06-30T07:52:02.000Z</time>
      </trkpt>
      <trkpt lat="43.97402" lon="7.269">
        <ele>795.59997558594</ele>
        <time>2020-06-30T07:52:06.000Z</time>
      </trkpt>
      <trkpt lat="43.974" lon="7.26899">
        <ele>795.79998779297</ele>
        <time>2020-06-30T07:52:07.000Z</time>
      </trkpt>
      <trkpt lat="43.97399" lon="7.26898">
        <ele>796</ele>
        <time>2020-06-30T07:52:08.000Z</time>
      </trkpt>
      <trkpt lat="43.97392" lon="7.26891">
        <ele>797</ele>
        <time>2020-06-30T07:52:13.000Z</time>
      </trkpt>
      <trkpt lat="43.9739" lon="7.26887">
        <ele>797.40002441406</ele>
        <time>2020-06-30T07:52:15.000Z</time>
      </trkpt>
      <trkpt lat="43.97384" lon="7.26875">
        <ele>798</ele>
        <time>2020-06-30T07:52:21.000Z</time>
      </trkpt>
      <trkpt lat="43.97382" lon="7.26871">
        <ele>798.40002441406</ele>
        <time>2020-06-30T07:52:23.000Z</time>
      </trkpt>
      <trkpt lat="43.97382" lon="7.26852">
        <ele>798.79998779297</ele>
        <time>2020-06-30T07:52:30.000Z</time>
      </trkpt>
      <trkpt lat="43.97382" lon="7.2685">
        <ele>799</ele>
        <time>2020-06-30T07:52:31.000Z</time>
      </trkpt>
      <trkpt lat="43.97385" lon="7.26839">
        <ele>799.79998779297</ele>
        <time>2020-06-30T07:52:36.000Z</time>
      </trkpt>
      <trkpt lat="43.97386" lon="7.26834">
        <ele>800.20001220703</ele>
        <time>2020-06-30T07:52:38.000Z</time>
      </trkpt>
      <trkpt lat="43.97384" lon="7.26822">
        <ele>801</ele>
        <time>2020-06-30T07:52:43.000Z</time>
      </trkpt>
      <trkpt lat="43.97383" lon="7.2682">
        <ele>801.20001220703</ele>
        <time>2020-06-30T07:52:44.000Z</time>
      </trkpt>
      <trkpt lat="43.97376" lon="7.26811">
        <ele>801.79998779297</ele>
        <time>2020-06-30T07:52:49.000Z</time>
      </trkpt>
      <trkpt lat="43.97374" lon="7.26805">
        <ele>801.79998779297</ele>
        <time>2020-06-30T07:52:51.000Z</time>
      </trkpt>
      <trkpt lat="43.97374" lon="7.26799">
        <ele>802.20001220703</ele>
        <time>2020-06-30T07:52:54.000Z</time>
      </trkpt>
      <trkpt lat="43.97376" lon="7.26787">
        <ele>803.20001220703</ele>
        <time>2020-06-30T07:52:59.000Z</time>
      </trkpt>
      <trkpt lat="43.97375" lon="7.26785">
        <ele>803.40002441406</ele>
        <time>2020-06-30T07:53:00.000Z</time>
      </trkpt>
      <trkpt lat="43.97377" lon="7.26776">
        <ele>804</ele>
        <time>2020-06-30T07:53:04.000Z</time>
      </trkpt>
      <trkpt lat="43.97377" lon="7.26773">
        <ele>804.20001220703</ele>
        <time>2020-06-30T07:53:05.000Z</time>
      </trkpt>
      <trkpt lat="43.97377" lon="7.26771">
        <ele>804.40002441406</ele>
        <time>2020-06-30T07:53:06.000Z</time>
      </trkpt>
      <trkpt lat="43.97374" lon="7.2676">
        <ele>805.40002441406</ele>
        <time>2020-06-30T07:53:11.000Z</time>
      </trkpt>
      <trkpt lat="43.97373" lon="7.26758">
        <ele>805.40002441406</ele>
        <time>2020-06-30T07:53:12.000Z</time>
      </trkpt>
      <trkpt lat="43.97367" lon="7.26756">
        <ele>806.40002441406</ele>
        <time>2020-06-30T07:53:16.000Z</time>
      </trkpt>
      <trkpt lat="43.97366" lon="7.26756">
        <ele>806.59997558594</ele>
        <time>2020-06-30T07:53:17.000Z</time>
      </trkpt>
      <trkpt lat="43.97359" lon="7.26754">
        <ele>807.79998779297</ele>
        <time>2020-06-30T07:53:22.000Z</time>
      </trkpt>
      <trkpt lat="43.97357" lon="7.26754">
        <ele>807.79998779297</ele>
        <time>2020-06-30T07:53:23.000Z</time>
      </trkpt>
      <trkpt lat="43.9735" lon="7.26749">
        <ele>808.79998779297</ele>
        <time>2020-06-30T07:53:28.000Z</time>
      </trkpt>
      <trkpt lat="43.97348" lon="7.26747">
        <ele>809.20001220703</ele>
        <time>2020-06-30T07:53:30.000Z</time>
      </trkpt>
      <trkpt lat="43.97342" lon="7.26738">
        <ele>810.20001220703</ele>
        <time>2020-06-30T07:53:36.000Z</time>
      </trkpt>
      <trkpt lat="43.97342" lon="7.26735">
        <ele>810.40002441406</ele>
        <time>2020-06-30T07:53:37.000Z</time>
      </trkpt>
      <trkpt lat="43.97341" lon="7.26728">
        <ele>811.20001220703</ele>
        <time>2020-06-30T07:53:41.000Z</time>
      </trkpt>
      <trkpt lat="43.9734" lon="7.26726">
        <ele>811.59997558594</ele>
        <time>2020-06-30T07:53:42.000Z</time>
      </trkpt>
      <trkpt lat="43.97336" lon="7.26721">
        <ele>812</ele>
        <time>2020-06-30T07:53:46.000Z</time>
      </trkpt>
      <trkpt lat="43.97335" lon="7.2672">
        <ele>812.40002441406</ele>
        <time>2020-06-30T07:53:47.000Z</time>
      </trkpt>
      <trkpt lat="43.97331" lon="7.26718">
        <ele>813.40002441406</ele>
        <time>2020-06-30T07:53:50.000Z</time>
      </trkpt>
      <trkpt lat="43.97327" lon="7.26714">
        <ele>814.20001220703</ele>
        <time>2020-06-30T07:53:54.000Z</time>
      </trkpt>
      <trkpt lat="43.97323" lon="7.26711">
        <ele>814.59997558594</ele>
        <time>2020-06-30T07:53:56.000Z</time>
      </trkpt>
      <trkpt lat="43.97318" lon="7.26706">
        <ele>815.40002441406</ele>
        <time>2020-06-30T07:53:59.000Z</time>
      </trkpt>
      <trkpt lat="43.97316" lon="7.26705">
        <ele>815.79998779297</ele>
        <time>2020-06-30T07:54:00.000Z</time>
      </trkpt>
      <trkpt lat="43.97312" lon="7.26699">
        <ele>817</ele>
        <time>2020-06-30T07:54:03.000Z</time>
      </trkpt>
      <trkpt lat="43.97311" lon="7.26698">
        <ele>817</ele>
        <time>2020-06-30T07:54:04.000Z</time>
      </trkpt>
      <trkpt lat="43.97307" lon="7.26689">
        <ele>818.20001220703</ele>
        <time>2020-06-30T07:54:08.000Z</time>
      </trkpt>
      <trkpt lat="43.97306" lon="7.26682">
        <ele>819</ele>
        <time>2020-06-30T07:54:11.000Z</time>
      </trkpt>
      <trkpt lat="43.97306" lon="7.2668">
        <ele>819.20001220703</ele>
        <time>2020-06-30T07:54:12.000Z</time>
      </trkpt>
      <trkpt lat="43.97306" lon="7.26666">
        <ele>820.40002441406</ele>
        <time>2020-06-30T07:54:18.000Z</time>
      </trkpt>
      <trkpt lat="43.97307" lon="7.26655">
        <ele>821.59997558594</ele>
        <time>2020-06-30T07:54:23.000Z</time>
      </trkpt>
      <trkpt lat="43.97308" lon="7.26653">
        <ele>821.79998779297</ele>
        <time>2020-06-30T07:54:24.000Z</time>
      </trkpt>
      <trkpt lat="43.97309" lon="7.26646">
        <ele>822.59997558594</ele>
        <time>2020-06-30T07:54:27.000Z</time>
      </trkpt>
      <trkpt lat="43.97307" lon="7.26639">
        <ele>823.59997558594</ele>
        <time>2020-06-30T07:54:30.000Z</time>
      </trkpt>
      <trkpt lat="43.97306" lon="7.26638">
        <ele>823.79998779297</ele>
        <time>2020-06-30T07:54:31.000Z</time>
      </trkpt>
      <trkpt lat="43.97298" lon="7.26632">
        <ele>825.20001220703</ele>
        <time>2020-06-30T07:54:36.000Z</time>
      </trkpt>
      <trkpt lat="43.97292" lon="7.26629">
        <ele>826.20001220703</ele>
        <time>2020-06-30T07:54:39.000Z</time>
      </trkpt>
      <trkpt lat="43.97287" lon="7.26626">
        <ele>827.40002441406</ele>
        <time>2020-06-30T07:54:42.000Z</time>
      </trkpt>
      <trkpt lat="43.97285" lon="7.26625">
        <ele>827.79998779297</ele>
        <time>2020-06-30T07:54:43.000Z</time>
      </trkpt>
      <trkpt lat="43.9728" lon="7.26622">
        <ele>828.59997558594</ele>
        <time>2020-06-30T07:54:46.000Z</time>
      </trkpt>
      <trkpt lat="43.97274" lon="7.26618">
        <ele>829.40002441406</ele>
        <time>2020-06-30T07:54:50.000Z</time>
      </trkpt>
      <trkpt lat="43.97272" lon="7.26616">
        <ele>829.79998779297</ele>
        <time>2020-06-30T07:54:52.000Z</time>
      </trkpt>
      <trkpt lat="43.97267" lon="7.26606">
        <ele>830.79998779297</ele>
        <time>2020-06-30T07:54:57.000Z</time>
      </trkpt>
      <trkpt lat="43.97267" lon="7.26603">
        <ele>831.20001220703</ele>
        <time>2020-06-30T07:54:58.000Z</time>
      </trkpt>
      <trkpt lat="43.97271" lon="7.26596">
        <ele>832.59997558594</ele>
        <time>2020-06-30T07:55:02.000Z</time>
      </trkpt>
      <trkpt lat="43.97273" lon="7.26594">
        <ele>832.79998779297</ele>
        <time>2020-06-30T07:55:03.000Z</time>
      </trkpt>
      <trkpt lat="43.97275" lon="7.2659">
        <ele>833.79998779297</ele>
        <time>2020-06-30T07:55:05.000Z</time>
      </trkpt>
      <trkpt lat="43.97278" lon="7.26582">
        <ele>834.79998779297</ele>
        <time>2020-06-30T07:55:09.000Z</time>
      </trkpt>
      <trkpt lat="43.97278" lon="7.26579">
        <ele>835.20001220703</ele>
        <time>2020-06-30T07:55:10.000Z</time>
      </trkpt>
      <trkpt lat="43.97278" lon="7.26568">
        <ele>836.20001220703</ele>
        <time>2020-06-30T07:55:14.000Z</time>
      </trkpt>
      <trkpt lat="43.97278" lon="7.26565">
        <ele>836.40002441406</ele>
        <time>2020-06-30T07:55:15.000Z</time>
      </trkpt>
      <trkpt lat="43.97279" lon="7.26558">
        <ele>837.20001220703</ele>
        <time>2020-06-30T07:55:18.000Z</time>
      </trkpt>
      <trkpt lat="43.97281" lon="7.26551">
        <ele>838.40002441406</ele>
        <time>2020-06-30T07:55:21.000Z</time>
      </trkpt>
      <trkpt lat="43.97283" lon="7.2654">
        <ele>839.59997558594</ele>
        <time>2020-06-30T07:55:25.000Z</time>
      </trkpt>
      <trkpt lat="43.97285" lon="7.26536">
        <ele>840.40002441406</ele>
        <time>2020-06-30T07:55:27.000Z</time>
      </trkpt>
      <trkpt lat="43.97286" lon="7.26534">
        <ele>840.79998779297</ele>
        <time>2020-06-30T07:55:28.000Z</time>
      </trkpt>
      <trkpt lat="43.97291" lon="7.26526">
        <ele>842</ele>
        <time>2020-06-30T07:55:32.000Z</time>
      </trkpt>
      <trkpt lat="43.97293" lon="7.26522">
        <ele>842.40002441406</ele>
        <time>2020-06-30T07:55:34.000Z</time>
      </trkpt>
      <trkpt lat="43.97293" lon="7.26513">
        <ele>843.20001220703</ele>
        <time>2020-06-30T07:55:37.000Z</time>
      </trkpt>
      <trkpt lat="43.97292" lon="7.26508">
        <ele>843.79998779297</ele>
        <time>2020-06-30T07:55:39.000Z</time>
      </trkpt>
      <trkpt lat="43.97292" lon="7.26506">
        <ele>844.40002441406</ele>
        <time>2020-06-30T07:55:40.000Z</time>
      </trkpt>
      <trkpt lat="43.9729" lon="7.26499">
        <ele>845.40002441406</ele>
        <time>2020-06-30T07:55:43.000Z</time>
      </trkpt>
      <trkpt lat="43.97288" lon="7.26491">
        <ele>846.20001220703</ele>
        <time>2020-06-30T07:55:46.000Z</time>
      </trkpt>
      <trkpt lat="43.97287" lon="7.26489">
        <ele>846.40002441406</ele>
        <time>2020-06-30T07:55:47.000Z</time>
      </trkpt>
      <trkpt lat="43.97282" lon="7.26481">
        <ele>847.79998779297</ele>
        <time>2020-06-30T07:55:51.000Z</time>
      </trkpt>
      <trkpt lat="43.97281" lon="7.26479">
        <ele>848</ele>
        <time>2020-06-30T07:55:52.000Z</time>
      </trkpt>
      <trkpt lat="43.97275" lon="7.26469">
        <ele>848.79998779297</ele>
        <time>2020-06-30T07:55:57.000Z</time>
      </trkpt>
      <trkpt lat="43.97272" lon="7.26461">
        <ele>849.40002441406</ele>
        <time>2020-06-30T07:56:00.000Z</time>
      </trkpt>
      <trkpt lat="43.97271" lon="7.26457">
        <ele>850</ele>
        <time>2020-06-30T07:56:02.000Z</time>
      </trkpt>
      <trkpt lat="43.97269" lon="7.26446">
        <ele>851.20001220703</ele>
        <time>2020-06-30T07:56:06.000Z</time>
      </trkpt>
      <trkpt lat="43.97268" lon="7.26442">
        <ele>851.59997558594</ele>
        <time>2020-06-30T07:56:08.000Z</time>
      </trkpt>
      <trkpt lat="43.97267" lon="7.26437">
        <ele>852.20001220703</ele>
        <time>2020-06-30T07:56:10.000Z</time>
      </trkpt>
      <trkpt lat="43.97268" lon="7.26435">
        <ele>852.40002441406</ele>
        <time>2020-06-30T07:56:11.000Z</time>
      </trkpt>
      <trkpt lat="43.97272" lon="7.26434">
        <ele>853</ele>
        <time>2020-06-30T07:56:13.000Z</time>
      </trkpt>
      <trkpt lat="43.97274" lon="7.26435">
        <ele>853.20001220703</ele>
        <time>2020-06-30T07:56:15.000Z</time>
      </trkpt>
      <trkpt lat="43.97276" lon="7.26439">
        <ele>853.40002441406</ele>
        <time>2020-06-30T07:56:18.000Z</time>
      </trkpt>
      <trkpt lat="43.97279" lon="7.26444">
        <ele>853.59997558594</ele>
        <time>2020-06-30T07:56:23.000Z</time>
      </trkpt>
      <trkpt lat="43.97278" lon="7.26444">
        <ele>853.59997558594</ele>
        <time>2020-06-30T07:56:32.000Z</time>
      </trkpt>
      <trkpt lat="43.97277" lon="7.26444">
        <ele>853.59997558594</ele>
        <time>2020-06-30T07:56:43.000Z</time>
      </trkpt>
      <trkpt lat="43.97278" lon="7.26443">
        <ele>853.20001220703</ele>
        <time>2020-06-30T07:56:49.000Z</time>
      </trkpt>
      <trkpt lat="43.97278" lon="7.26442">
        <ele>853.59997558594</ele>
        <time>2020-06-30T07:56:58.000Z</time>
      </trkpt>
      <trkpt lat="43.97278" lon="7.26442">
        <ele>853.40002441406</ele>
        <time>2020-06-30T07:57:05.000Z</time>
      </trkpt>
      <trkpt lat="43.97279" lon="7.26441">
        <ele>853.40002441406</ele>
        <time>2020-06-30T07:57:11.000Z</time>
      </trkpt>
      <trkpt lat="43.97276" lon="7.26437">
        <ele>853.20001220703</ele>
        <time>2020-06-30T07:57:18.000Z</time>
      </trkpt>
      <trkpt lat="43.97276" lon="7.26437">
        <ele>853.40002441406</ele>
        <time>2020-06-30T07:57:24.000Z</time>
      </trkpt>
      <trkpt lat="43.97276" lon="7.26438">
        <ele>853.59997558594</ele>
        <time>2020-06-30T07:57:31.000Z</time>
      </trkpt>
      <trkpt lat="43.97275" lon="7.26439">
        <ele>853.40002441406</ele>
        <time>2020-06-30T07:57:44.000Z</time>
      </trkpt>
      <trkpt lat="43.97275" lon="7.26439">
        <ele>853.40002441406</ele>
        <time>2020-06-30T07:57:53.000Z</time>
      </trkpt>
      <trkpt lat="43.97274" lon="7.26439">
        <ele>853.20001220703</ele>
        <time>2020-06-30T07:57:59.000Z</time>
      </trkpt>
      <trkpt lat="43.97275" lon="7.26439">
        <ele>853.40002441406</ele>
        <time>2020-06-30T07:58:06.000Z</time>
      </trkpt>
      <trkpt lat="43.97274" lon="7.26439">
        <ele>853.40002441406</ele>
        <time>2020-06-30T07:58:19.000Z</time>
      </trkpt>
      <trkpt lat="43.97275" lon="7.26439">
        <ele>853.59997558594</ele>
        <time>2020-06-30T07:58:31.000Z</time>
      </trkpt>
      <trkpt lat="43.97275" lon="7.2644">
        <ele>853.40002441406</ele>
        <time>2020-06-30T07:58:41.000Z</time>
      </trkpt>
      <trkpt lat="43.97275" lon="7.26441">
        <ele>853.20001220703</ele>
        <time>2020-06-30T07:58:55.000Z</time>
      </trkpt>
      <trkpt lat="43.97274" lon="7.26445">
        <ele>853.20001220703</ele>
        <time>2020-06-30T07:59:20.000Z</time>
      </trkpt>
      <trkpt lat="43.97273" lon="7.26447">
        <ele>853.20001220703</ele>
        <time>2020-06-30T07:59:34.000Z</time>
      </trkpt>
      <trkpt lat="43.97275" lon="7.26446">
        <ele>853.40002441406</ele>
        <time>2020-06-30T07:59:42.000Z</time>
      </trkpt>
      <trkpt lat="43.97277" lon="7.26448">
        <ele>853.59997558594</ele>
        <time>2020-06-30T07:59:49.000Z</time>
      </trkpt>
      <trkpt lat="43.97278" lon="7.26448">
        <ele>853.40002441406</ele>
        <time>2020-06-30T07:59:53.000Z</time>
      </trkpt>
      <trkpt lat="43.97284" lon="7.26452">
        <ele>853.40002441406</ele>
        <time>2020-06-30T07:59:58.000Z</time>
      </trkpt>
      <trkpt lat="43.97286" lon="7.26452">
        <ele>853.40002441406</ele>
        <time>2020-06-30T08:00:00.000Z</time>
      </trkpt>
      <trkpt lat="43.97289" lon="7.2645">
        <ele>853.40002441406</ele>
        <time>2020-06-30T08:00:02.000Z</time>
      </trkpt>
      <trkpt lat="43.97295" lon="7.26441">
        <ele>853.59997558594</ele>
        <time>2020-06-30T08:00:07.000Z</time>
      </trkpt>
      <trkpt lat="43.97297" lon="7.26439">
        <ele>853.59997558594</ele>
        <time>2020-06-30T08:00:08.000Z</time>
      </trkpt>
      <trkpt lat="43.97304" lon="7.2643">
        <ele>854</ele>
        <time>2020-06-30T08:00:13.000Z</time>
      </trkpt>
      <trkpt lat="43.97307" lon="7.2642">
        <ele>854.20001220703</ele>
        <time>2020-06-30T08:00:16.000Z</time>
      </trkpt>
      <trkpt lat="43.97309" lon="7.26416">
        <ele>854.20001220703</ele>
        <time>2020-06-30T08:00:17.000Z</time>
      </trkpt>
      <trkpt lat="43.97316" lon="7.26393">
        <ele>855.20001220703</ele>
        <time>2020-06-30T08:00:24.000Z</time>
      </trkpt>
      <trkpt lat="43.97317" lon="7.26389">
        <ele>855.40002441406</ele>
        <time>2020-06-30T08:00:25.000Z</time>
      </trkpt>
      <trkpt lat="43.97319" lon="7.26372">
        <ele>855.79998779297</ele>
        <time>2020-06-30T08:00:30.000Z</time>
      </trkpt>
      <trkpt lat="43.97321" lon="7.26356">
        <ele>856.40002441406</ele>
        <time>2020-06-30T08:00:35.000Z</time>
      </trkpt>
      <trkpt lat="43.97323" lon="7.26343">
        <ele>856.79998779297</ele>
        <time>2020-06-30T08:00:38.000Z</time>
      </trkpt>
      <trkpt lat="43.97334" lon="7.26321">
        <ele>857.40002441406</ele>
        <time>2020-06-30T08:00:45.000Z</time>
      </trkpt>
      <trkpt lat="43.97344" lon="7.26323">
        <ele>857.59997558594</ele>
        <time>2020-06-30T08:00:49.000Z</time>
      </trkpt>
      <trkpt lat="43.97354" lon="7.2633">
        <ele>858</ele>
        <time>2020-06-30T08:00:54.000Z</time>
      </trkpt>
      <trkpt lat="43.9736" lon="7.26334">
        <ele>858.59997558594</ele>
        <time>2020-06-30T08:00:57.000Z</time>
      </trkpt>
      <trkpt lat="43.97363" lon="7.26337">
        <ele>859</ele>
        <time>2020-06-30T08:00:59.000Z</time>
      </trkpt>
      <trkpt lat="43.97371" lon="7.26344">
        <ele>859.79998779297</ele>
        <time>2020-06-30T08:01:03.000Z</time>
      </trkpt>
      <trkpt lat="43.97374" lon="7.26348">
        <ele>860</ele>
        <time>2020-06-30T08:01:06.000Z</time>
      </trkpt>
      <trkpt lat="43.97379" lon="7.26357">
        <ele>860.79998779297</ele>
        <time>2020-06-30T08:01:10.000Z</time>
      </trkpt>
      <trkpt lat="43.97379" lon="7.26358">
        <ele>861</ele>
        <time>2020-06-30T08:01:11.000Z</time>
      </trkpt>
      <trkpt lat="43.97385" lon="7.26365">
        <ele>861.40002441406</ele>
        <time>2020-06-30T08:01:15.000Z</time>
      </trkpt>
      <trkpt lat="43.97387" lon="7.26367">
        <ele>861.40002441406</ele>
        <time>2020-06-30T08:01:16.000Z</time>
      </trkpt>
      <trkpt lat="43.97398" lon="7.26375">
        <ele>862</ele>
        <time>2020-06-30T08:01:21.000Z</time>
      </trkpt>
      <trkpt lat="43.9741" lon="7.26375">
        <ele>862.40002441406</ele>
        <time>2020-06-30T08:01:26.000Z</time>
      </trkpt>
      <trkpt lat="43.9743" lon="7.26368">
        <ele>862.79998779297</ele>
        <time>2020-06-30T08:01:34.000Z</time>
      </trkpt>
      <trkpt lat="43.97438" lon="7.26367">
        <ele>863</ele>
        <time>2020-06-30T08:01:37.000Z</time>
      </trkpt>
      <trkpt lat="43.97443" lon="7.26369">
        <ele>863.40002441406</ele>
        <time>2020-06-30T08:01:39.000Z</time>
      </trkpt>
      <trkpt lat="43.97446" lon="7.26372">
        <ele>863.40002441406</ele>
        <time>2020-06-30T08:01:40.000Z</time>
      </trkpt>
      <trkpt lat="43.97452" lon="7.2638">
        <ele>863.20001220703</ele>
        <time>2020-06-30T08:01:44.000Z</time>
      </trkpt>
      <trkpt lat="43.97463" lon="7.26378">
        <ele>863.20001220703</ele>
        <time>2020-06-30T08:01:48.000Z</time>
      </trkpt>
      <trkpt lat="43.97478" lon="7.2638">
        <ele>863.20001220703</ele>
        <time>2020-06-30T08:01:53.000Z</time>
      </trkpt>
      <trkpt lat="43.9748" lon="7.26381">
        <ele>863</ele>
        <time>2020-06-30T08:01:54.000Z</time>
      </trkpt>
      <trkpt lat="43.97498" lon="7.26391">
        <ele>863</ele>
        <time>2020-06-30T08:02:01.000Z</time>
      </trkpt>
      <trkpt lat="43.97505" lon="7.26406">
        <ele>863.20001220703</ele>
        <time>2020-06-30T08:02:06.000Z</time>
      </trkpt>
      <trkpt lat="43.97503" lon="7.26424">
        <ele>864</ele>
        <time>2020-06-30T08:02:11.000Z</time>
      </trkpt>
      <trkpt lat="43.97505" lon="7.26427">
        <ele>864.20001220703</ele>
        <time>2020-06-30T08:02:12.000Z</time>
      </trkpt>
      <trkpt lat="43.97509" lon="7.26435">
        <ele>864.20001220703</ele>
        <time>2020-06-30T08:02:15.000Z</time>
      </trkpt>
      <trkpt lat="43.97516" lon="7.26448">
        <ele>864.40002441406</ele>
        <time>2020-06-30T08:02:20.000Z</time>
      </trkpt>
      <trkpt lat="43.97517" lon="7.26455">
        <ele>864.59997558594</ele>
        <time>2020-06-30T08:02:23.000Z</time>
      </trkpt>
      <trkpt lat="43.97517" lon="7.26453">
        <ele>864.59997558594</ele>
        <time>2020-06-30T08:02:24.000Z</time>
      </trkpt>
      <trkpt lat="43.97521" lon="7.26457">
        <ele>864.79998779297</ele>
        <time>2020-06-30T08:02:25.000Z</time>
      </trkpt>
      <trkpt lat="43.97523" lon="7.2646">
        <ele>865.20001220703</ele>
        <time>2020-06-30T08:02:27.000Z</time>
      </trkpt>
      <trkpt lat="43.97527" lon="7.26461">
        <ele>865.20001220703</ele>
        <time>2020-06-30T08:02:28.000Z</time>
      </trkpt>
      <trkpt lat="43.97534" lon="7.26464">
        <ele>865.20001220703</ele>
        <time>2020-06-30T08:02:30.000Z</time>
      </trkpt>
      <trkpt lat="43.97537" lon="7.26465">
        <ele>865.20001220703</ele>
        <time>2020-06-30T08:02:31.000Z</time>
      </trkpt>
      <trkpt lat="43.97545" lon="7.26477">
        <ele>865.20001220703</ele>
        <time>2020-06-30T08:02:35.000Z</time>
      </trkpt>
      <trkpt lat="43.97557" lon="7.26488">
        <ele>864.79998779297</ele>
        <time>2020-06-30T08:02:40.000Z</time>
      </trkpt>
      <trkpt lat="43.97572" lon="7.26487">
        <ele>865</ele>
        <time>2020-06-30T08:02:44.000Z</time>
      </trkpt>
      <trkpt lat="43.97594" lon="7.26479">
        <ele>865</ele>
        <time>2020-06-30T08:02:50.000Z</time>
      </trkpt>
      <trkpt lat="43.97608" lon="7.26488">
        <ele>865.20001220703</ele>
        <time>2020-06-30T08:02:54.000Z</time>
      </trkpt>
      <trkpt lat="43.97617" lon="7.26507">
        <ele>865.59997558594</ele>
        <time>2020-06-30T08:03:00.000Z</time>
      </trkpt>
      <trkpt lat="43.9762" lon="7.2652">
        <ele>866.40002441406</ele>
        <time>2020-06-30T08:03:04.000Z</time>
      </trkpt>
      <trkpt lat="43.97621" lon="7.26523">
        <ele>866.59997558594</ele>
        <time>2020-06-30T08:03:05.000Z</time>
      </trkpt>
      <trkpt lat="43.97627" lon="7.2654">
        <ele>867</ele>
        <time>2020-06-30T08:03:10.000Z</time>
      </trkpt>
      <trkpt lat="43.97632" lon="7.26552">
        <ele>867.40002441406</ele>
        <time>2020-06-30T08:03:14.000Z</time>
      </trkpt>
      <trkpt lat="43.97633" lon="7.26556">
        <ele>867.40002441406</ele>
        <time>2020-06-30T08:03:15.000Z</time>
      </trkpt>
      <trkpt lat="43.97636" lon="7.26576">
        <ele>867.59997558594</ele>
        <time>2020-06-30T08:03:21.000Z</time>
      </trkpt>
      <trkpt lat="43.97635" lon="7.26593">
        <ele>868</ele>
        <time>2020-06-30T08:03:26.000Z</time>
      </trkpt>
      <trkpt lat="43.97632" lon="7.26599">
        <ele>868.20001220703</ele>
        <time>2020-06-30T08:03:28.000Z</time>
      </trkpt>
      <trkpt lat="43.97626" lon="7.26607">
        <ele>868.20001220703</ele>
        <time>2020-06-30T08:03:31.000Z</time>
      </trkpt>
      <trkpt lat="43.97618" lon="7.2662">
        <ele>868.20001220703</ele>
        <time>2020-06-30T08:03:36.000Z</time>
      </trkpt>
      <trkpt lat="43.97619" lon="7.26624">
        <ele>868.20001220703</ele>
        <time>2020-06-30T08:03:37.000Z</time>
      </trkpt>
      <trkpt lat="43.97624" lon="7.26629">
        <ele>868.40002441406</ele>
        <time>2020-06-30T08:03:40.000Z</time>
      </trkpt>
      <trkpt lat="43.97628" lon="7.2663">
        <ele>868.40002441406</ele>
        <time>2020-06-30T08:03:42.000Z</time>
      </trkpt>
      <trkpt lat="43.97637" lon="7.26629">
        <ele>868.40002441406</ele>
        <time>2020-06-30T08:03:44.000Z</time>
      </trkpt>
      <trkpt lat="43.97659" lon="7.26617">
        <ele>868.59997558594</ele>
        <time>2020-06-30T08:03:50.000Z</time>
      </trkpt>
      <trkpt lat="43.97681" lon="7.26594">
        <ele>868.20001220703</ele>
        <time>2020-06-30T08:03:58.000Z</time>
      </trkpt>
      <trkpt lat="43.97688" lon="7.26591">
        <ele>868.20001220703</ele>
        <time>2020-06-30T08:04:00.000Z</time>
      </trkpt>
      <trkpt lat="43.97693" lon="7.26595">
        <ele>868.20001220703</ele>
        <time>2020-06-30T08:04:02.000Z</time>
      </trkpt>
      <trkpt lat="43.97704" lon="7.26611">
        <ele>868.59997558594</ele>
        <time>2020-06-30T08:04:07.000Z</time>
      </trkpt>
      <trkpt lat="43.9772" lon="7.26626">
        <ele>868.79998779297</ele>
        <time>2020-06-30T08:04:12.000Z</time>
      </trkpt>
      <trkpt lat="43.97738" lon="7.26635">
        <ele>869</ele>
        <time>2020-06-30T08:04:18.000Z</time>
      </trkpt>
      <trkpt lat="43.97752" lon="7.26646">
        <ele>869</ele>
        <time>2020-06-30T08:04:22.000Z</time>
      </trkpt>
      <trkpt lat="43.97763" lon="7.26655">
        <ele>869.40002441406</ele>
        <time>2020-06-30T08:04:26.000Z</time>
      </trkpt>
      <trkpt lat="43.97767" lon="7.26657">
        <ele>869.59997558594</ele>
        <time>2020-06-30T08:04:27.000Z</time>
      </trkpt>
      <trkpt lat="43.97779" lon="7.26669">
        <ele>869.79998779297</ele>
        <time>2020-06-30T08:04:32.000Z</time>
      </trkpt>
      <trkpt lat="43.97781" lon="7.26677">
        <ele>870</ele>
        <time>2020-06-30T08:04:35.000Z</time>
      </trkpt>
      <trkpt lat="43.97784" lon="7.26681">
        <ele>869.79998779297</ele>
        <time>2020-06-30T08:04:37.000Z</time>
      </trkpt>
      <trkpt lat="43.97792" lon="7.26682">
        <ele>869.79998779297</ele>
        <time>2020-06-30T08:04:41.000Z</time>
      </trkpt>
      <trkpt lat="43.97802" lon="7.26676">
        <ele>869.59997558594</ele>
        <time>2020-06-30T08:04:46.000Z</time>
      </trkpt>
      <trkpt lat="43.97814" lon="7.26667">
        <ele>869.79998779297</ele>
        <time>2020-06-30T08:04:51.000Z</time>
      </trkpt>
      <trkpt lat="43.97832" lon="7.26671">
        <ele>869.79998779297</ele>
        <time>2020-06-30T08:04:56.000Z</time>
      </trkpt>
      <trkpt lat="43.97847" lon="7.26673">
        <ele>869.40002441406</ele>
        <time>2020-06-30T08:05:01.000Z</time>
      </trkpt>
      <trkpt lat="43.97864" lon="7.26679">
        <ele>870</ele>
        <time>2020-06-30T08:05:07.000Z</time>
      </trkpt>
      <trkpt lat="43.97869" lon="7.26677">
        <ele>870</ele>
        <time>2020-06-30T08:05:09.000Z</time>
      </trkpt>
      <trkpt lat="43.97879" lon="7.26674">
        <ele>870</ele>
        <time>2020-06-30T08:05:13.000Z</time>
      </trkpt>
      <trkpt lat="43.97883" lon="7.26673">
        <ele>870</ele>
        <time>2020-06-30T08:05:17.000Z</time>
      </trkpt>
      <trkpt lat="43.97887" lon="7.26671">
        <ele>870.40002441406</ele>
        <time>2020-06-30T08:05:24.000Z</time>
      </trkpt>
      <trkpt lat="43.97889" lon="7.2667">
        <ele>870.40002441406</ele>
        <time>2020-06-30T08:05:30.000Z</time>
      </trkpt>
      <trkpt lat="43.97889" lon="7.2667">
        <ele>870.40002441406</ele>
        <time>2020-06-30T08:05:32.000Z</time>
      </trkpt>
      <trkpt lat="43.97889" lon="7.26666">
        <ele>870.40002441406</ele>
        <time>2020-06-30T08:05:37.000Z</time>
      </trkpt>
      <trkpt lat="43.97889" lon="7.26659">
        <ele>870.59997558594</ele>
        <time>2020-06-30T08:05:44.000Z</time>
      </trkpt>
      <trkpt lat="43.97883" lon="7.2664">
        <ele>870.79998779297</ele>
        <time>2020-06-30T08:05:50.000Z</time>
      </trkpt>
      <trkpt lat="43.97878" lon="7.26631">
        <ele>871.20001220703</ele>
        <time>2020-06-30T08:05:54.000Z</time>
      </trkpt>
      <trkpt lat="43.97875" lon="7.26629">
        <ele>871.40002441406</ele>
        <time>2020-06-30T08:05:55.000Z</time>
      </trkpt>
      <trkpt lat="43.97873" lon="7.26628">
        <ele>871.59997558594</ele>
        <time>2020-06-30T08:05:56.000Z</time>
      </trkpt>
      <trkpt lat="43.97863" lon="7.26616">
        <ele>872.20001220703</ele>
        <time>2020-06-30T08:06:01.000Z</time>
      </trkpt>
      <trkpt lat="43.97858" lon="7.26609">
        <ele>872.79998779297</ele>
        <time>2020-06-30T08:06:04.000Z</time>
      </trkpt>
      <trkpt lat="43.97853" lon="7.26601">
        <ele>873.40002441406</ele>
        <time>2020-06-30T08:06:07.000Z</time>
      </trkpt>
      <trkpt lat="43.97846" lon="7.26588">
        <ele>873.79998779297</ele>
        <time>2020-06-30T08:06:12.000Z</time>
      </trkpt>
      <trkpt lat="43.97843" lon="7.2658">
        <ele>874</ele>
        <time>2020-06-30T08:06:15.000Z</time>
      </trkpt>
      <trkpt lat="43.97832" lon="7.26566">
        <ele>874.40002441406</ele>
        <time>2020-06-30T08:06:22.000Z</time>
      </trkpt>
      <trkpt lat="43.9783" lon="7.26561">
        <ele>874.79998779297</ele>
        <time>2020-06-30T08:06:24.000Z</time>
      </trkpt>
      <trkpt lat="43.97827" lon="7.26553">
        <ele>875</ele>
        <time>2020-06-30T08:06:27.000Z</time>
      </trkpt>
      <trkpt lat="43.97821" lon="7.26534">
        <ele>875.59997558594</ele>
        <time>2020-06-30T08:06:33.000Z</time>
      </trkpt>
      <trkpt lat="43.9782" lon="7.26523">
        <ele>876</ele>
        <time>2020-06-30T08:06:37.000Z</time>
      </trkpt>
      <trkpt lat="43.97819" lon="7.26518">
        <ele>876</ele>
        <time>2020-06-30T08:06:39.000Z</time>
      </trkpt>
      <trkpt lat="43.97816" lon="7.26502">
        <ele>877</ele>
        <time>2020-06-30T08:06:44.000Z</time>
      </trkpt>
      <trkpt lat="43.97815" lon="7.26495">
        <ele>877</ele>
        <time>2020-06-30T08:06:46.000Z</time>
      </trkpt>
      <trkpt lat="43.97813" lon="7.26471">
        <ele>877.79998779297</ele>
        <time>2020-06-30T08:06:54.000Z</time>
      </trkpt>
      <trkpt lat="43.97812" lon="7.26462">
        <ele>878.20001220703</ele>
        <time>2020-06-30T08:06:57.000Z</time>
      </trkpt>
      <trkpt lat="43.97811" lon="7.26448">
        <ele>878.40002441406</ele>
        <time>2020-06-30T08:07:01.000Z</time>
      </trkpt>
      <trkpt lat="43.97808" lon="7.26432">
        <ele>879.20001220703</ele>
        <time>2020-06-30T08:07:07.000Z</time>
      </trkpt>
      <trkpt lat="43.97807" lon="7.26429">
        <ele>879.20001220703</ele>
        <time>2020-06-30T08:07:08.000Z</time>
      </trkpt>
      <trkpt lat="43.97804" lon="7.26409">
        <ele>880</ele>
        <time>2020-06-30T08:07:15.000Z</time>
      </trkpt>
      <trkpt lat="43.97804" lon="7.26399">
        <ele>880.40002441406</ele>
        <time>2020-06-30T08:07:18.000Z</time>
      </trkpt>
      <trkpt lat="43.97803" lon="7.26388">
        <ele>880.79998779297</ele>
        <time>2020-06-30T08:07:22.000Z</time>
      </trkpt>
      <trkpt lat="43.97801" lon="7.26381">
        <ele>881.40002441406</ele>
        <time>2020-06-30T08:07:25.000Z</time>
      </trkpt>
      <trkpt lat="43.97797" lon="7.26369">
        <ele>881.59997558594</ele>
        <time>2020-06-30T08:07:29.000Z</time>
      </trkpt>
      <trkpt lat="43.97787" lon="7.2634">
        <ele>882.40002441406</ele>
        <time>2020-06-30T08:07:38.000Z</time>
      </trkpt>
      <trkpt lat="43.97786" lon="7.26337">
        <ele>882.40002441406</ele>
        <time>2020-06-30T08:07:39.000Z</time>
      </trkpt>
      <trkpt lat="43.97788" lon="7.26324">
        <ele>883</ele>
        <time>2020-06-30T08:07:43.000Z</time>
      </trkpt>
      <trkpt lat="43.97789" lon="7.26323">
        <ele>883.40002441406</ele>
        <time>2020-06-30T08:07:44.000Z</time>
      </trkpt>
      <trkpt lat="43.97792" lon="7.26321">
        <ele>883.59997558594</ele>
        <time>2020-06-30T08:07:45.000Z</time>
      </trkpt>
      <trkpt lat="43.97796" lon="7.26319">
        <ele>883.79998779297</ele>
        <time>2020-06-30T08:07:47.000Z</time>
      </trkpt>
      <trkpt lat="43.97801" lon="7.26317">
        <ele>884</ele>
        <time>2020-06-30T08:07:49.000Z</time>
      </trkpt>
      <trkpt lat="43.97808" lon="7.26311">
        <ele>884.59997558594</ele>
        <time>2020-06-30T08:07:53.000Z</time>
      </trkpt>
      <trkpt lat="43.97813" lon="7.26306">
        <ele>885.40002441406</ele>
        <time>2020-06-30T08:07:56.000Z</time>
      </trkpt>
      <trkpt lat="43.97817" lon="7.26302">
        <ele>885.79998779297</ele>
        <time>2020-06-30T08:07:59.000Z</time>
      </trkpt>
      <trkpt lat="43.97825" lon="7.26295">
        <ele>886.59997558594</ele>
        <time>2020-06-30T08:08:03.000Z</time>
      </trkpt>
      <trkpt lat="43.97826" lon="7.26294">
        <ele>887</ele>
        <time>2020-06-30T08:08:04.000Z</time>
      </trkpt>
      <trkpt lat="43.97834" lon="7.26293">
        <ele>888.20001220703</ele>
        <time>2020-06-30T08:08:09.000Z</time>
      </trkpt>
      <trkpt lat="43.97839" lon="7.26296">
        <ele>889.40002441406</ele>
        <time>2020-06-30T08:08:15.000Z</time>
      </trkpt>
      <trkpt lat="43.97843" lon="7.26298">
        <ele>890.40002441406</ele>
        <time>2020-06-30T08:08:20.000Z</time>
      </trkpt>
      <trkpt lat="43.97853" lon="7.26299">
        <ele>891.40002441406</ele>
        <time>2020-06-30T08:08:25.000Z</time>
      </trkpt>
      <trkpt lat="43.97855" lon="7.26299">
        <ele>891.59997558594</ele>
        <time>2020-06-30T08:08:26.000Z</time>
      </trkpt>
      <trkpt lat="43.97865" lon="7.26292">
        <ele>892.20001220703</ele>
        <time>2020-06-30T08:08:31.000Z</time>
      </trkpt>
      <trkpt lat="43.97868" lon="7.2629">
        <ele>892.59997558594</ele>
        <time>2020-06-30T08:08:33.000Z</time>
      </trkpt>
      <trkpt lat="43.97874" lon="7.26287">
        <ele>893.20001220703</ele>
        <time>2020-06-30T08:08:37.000Z</time>
      </trkpt>
      <trkpt lat="43.97878" lon="7.26284">
        <ele>893.59997558594</ele>
        <time>2020-06-30T08:08:39.000Z</time>
      </trkpt>
      <trkpt lat="43.97883" lon="7.26279">
        <ele>894.20001220703</ele>
        <time>2020-06-30T08:08:43.000Z</time>
      </trkpt>
      <trkpt lat="43.97887" lon="7.26271">
        <ele>894.59997558594</ele>
        <time>2020-06-30T08:08:46.000Z</time>
      </trkpt>
      <trkpt lat="43.97889" lon="7.26265">
        <ele>895</ele>
        <time>2020-06-30T08:08:49.000Z</time>
      </trkpt>
      <trkpt lat="43.97892" lon="7.26252">
        <ele>895.79998779297</ele>
        <time>2020-06-30T08:08:54.000Z</time>
      </trkpt>
      <trkpt lat="43.97897" lon="7.26235">
        <ele>896.79998779297</ele>
        <time>2020-06-30T08:09:01.000Z</time>
      </trkpt>
      <trkpt lat="43.97899" lon="7.26234">
        <ele>897</ele>
        <time>2020-06-30T08:09:02.000Z</time>
      </trkpt>
      <trkpt lat="43.97901" lon="7.26227">
        <ele>897.79998779297</ele>
        <time>2020-06-30T08:09:05.000Z</time>
      </trkpt>
      <trkpt lat="43.97903" lon="7.26223">
        <ele>898.20001220703</ele>
        <time>2020-06-30T08:09:07.000Z</time>
      </trkpt>
      <trkpt lat="43.97906" lon="7.26213">
        <ele>898.79998779297</ele>
        <time>2020-06-30T08:09:11.000Z</time>
      </trkpt>
      <trkpt lat="43.97911" lon="7.26208">
        <ele>899.20001220703</ele>
        <time>2020-06-30T08:09:14.000Z</time>
      </trkpt>
      <trkpt lat="43.97914" lon="7.26206">
        <ele>899.59997558594</ele>
        <time>2020-06-30T08:09:16.000Z</time>
      </trkpt>
      <trkpt lat="43.9792" lon="7.26206">
        <ele>900.20001220703</ele>
        <time>2020-06-30T08:09:19.000Z</time>
      </trkpt>
      <trkpt lat="43.97928" lon="7.26205">
        <ele>901</ele>
        <time>2020-06-30T08:09:23.000Z</time>
      </trkpt>
      <trkpt lat="43.9793" lon="7.26205">
        <ele>901.40002441406</ele>
        <time>2020-06-30T08:09:24.000Z</time>
      </trkpt>
      <trkpt lat="43.97936" lon="7.26204">
        <ele>902.20001220703</ele>
        <time>2020-06-30T08:09:28.000Z</time>
      </trkpt>
      <trkpt lat="43.9794" lon="7.26203">
        <ele>902.59997558594</ele>
        <time>2020-06-30T08:09:30.000Z</time>
      </trkpt>
      <trkpt lat="43.9795" lon="7.262">
        <ele>903.59997558594</ele>
        <time>2020-06-30T08:09:36.000Z</time>
      </trkpt>
      <trkpt lat="43.97956" lon="7.26198">
        <ele>904.20001220703</ele>
        <time>2020-06-30T08:09:40.000Z</time>
      </trkpt>
      <trkpt lat="43.9796" lon="7.26197">
        <ele>905</ele>
        <time>2020-06-30T08:09:42.000Z</time>
      </trkpt>
      <trkpt lat="43.97969" lon="7.26195">
        <ele>905.79998779297</ele>
        <time>2020-06-30T08:09:47.000Z</time>
      </trkpt>
      <trkpt lat="43.9797" lon="7.26194">
        <ele>906.20001220703</ele>
        <time>2020-06-30T08:09:48.000Z</time>
      </trkpt>
      <trkpt lat="43.97976" lon="7.26192">
        <ele>906.59997558594</ele>
        <time>2020-06-30T08:09:52.000Z</time>
      </trkpt>
      <trkpt lat="43.97979" lon="7.26191">
        <ele>907.20001220703</ele>
        <time>2020-06-30T08:09:54.000Z</time>
      </trkpt>
      <trkpt lat="43.97988" lon="7.26186">
        <ele>908</ele>
        <time>2020-06-30T08:09:59.000Z</time>
      </trkpt>
      <trkpt lat="43.9799" lon="7.26185">
        <ele>908.20001220703</ele>
        <time>2020-06-30T08:10:00.000Z</time>
      </trkpt>
      <trkpt lat="43.97995" lon="7.26184">
        <ele>908.79998779297</ele>
        <time>2020-06-30T08:10:04.000Z</time>
      </trkpt>
      <trkpt lat="43.97998" lon="7.26183">
        <ele>909.20001220703</ele>
        <time>2020-06-30T08:10:06.000Z</time>
      </trkpt>
      <trkpt lat="43.98006" lon="7.26181">
        <ele>910.20001220703</ele>
        <time>2020-06-30T08:10:11.000Z</time>
      </trkpt>
      <trkpt lat="43.9801" lon="7.2618">
        <ele>910.59997558594</ele>
        <time>2020-06-30T08:10:13.000Z</time>
      </trkpt>
      <trkpt lat="43.98016" lon="7.2618">
        <ele>911.20001220703</ele>
        <time>2020-06-30T08:10:17.000Z</time>
      </trkpt>
      <trkpt lat="43.98018" lon="7.26182">
        <ele>911.59997558594</ele>
        <time>2020-06-30T08:10:19.000Z</time>
      </trkpt>
      <trkpt lat="43.98019" lon="7.26184">
        <ele>911.79998779297</ele>
        <time>2020-06-30T08:10:20.000Z</time>
      </trkpt>
      <trkpt lat="43.98023" lon="7.26192">
        <ele>912.20001220703</ele>
        <time>2020-06-30T08:10:24.000Z</time>
      </trkpt>
      <trkpt lat="43.98023" lon="7.26197">
        <ele>912.20001220703</ele>
        <time>2020-06-30T08:10:26.000Z</time>
      </trkpt>
      <trkpt lat="43.98023" lon="7.26199">
        <ele>912.40002441406</ele>
        <time>2020-06-30T08:10:27.000Z</time>
      </trkpt>
      <trkpt lat="43.98024" lon="7.26201">
        <ele>912.40002441406</ele>
        <time>2020-06-30T08:10:28.000Z</time>
      </trkpt>
      <trkpt lat="43.98025" lon="7.26204">
        <ele>912.40002441406</ele>
        <time>2020-06-30T08:10:29.000Z</time>
      </trkpt>
      <trkpt lat="43.98026" lon="7.26206">
        <ele>912.59997558594</ele>
        <time>2020-06-30T08:10:30.000Z</time>
      </trkpt>
      <trkpt lat="43.98028" lon="7.26218">
        <ele>913.40002441406</ele>
        <time>2020-06-30T08:10:35.000Z</time>
      </trkpt>
      <trkpt lat="43.98029" lon="7.26221">
        <ele>913.40002441406</ele>
        <time>2020-06-30T08:10:36.000Z</time>
      </trkpt>
      <trkpt lat="43.98037" lon="7.26242">
        <ele>913.59997558594</ele>
        <time>2020-06-30T08:10:43.000Z</time>
      </trkpt>
      <trkpt lat="43.98039" lon="7.26253">
        <ele>914</ele>
        <time>2020-06-30T08:10:47.000Z</time>
      </trkpt>
      <trkpt lat="43.9804" lon="7.26255">
        <ele>914</ele>
        <time>2020-06-30T08:10:48.000Z</time>
      </trkpt>
      <trkpt lat="43.98043" lon="7.26258">
        <ele>914.20001220703</ele>
        <time>2020-06-30T08:10:50.000Z</time>
      </trkpt>
      <trkpt lat="43.98047" lon="7.26258">
        <ele>914</ele>
        <time>2020-06-30T08:10:52.000Z</time>
      </trkpt>
      <trkpt lat="43.98052" lon="7.26258">
        <ele>914</ele>
        <time>2020-06-30T08:10:54.000Z</time>
      </trkpt>
      <trkpt lat="43.98061" lon="7.26261">
        <ele>914.40002441406</ele>
        <time>2020-06-30T08:10:57.000Z</time>
      </trkpt>
      <trkpt lat="43.98063" lon="7.26263">
        <ele>914.59997558594</ele>
        <time>2020-06-30T08:10:58.000Z</time>
      </trkpt>
      <trkpt lat="43.98074" lon="7.26278">
        <ele>915.20001220703</ele>
        <time>2020-06-30T08:11:04.000Z</time>
      </trkpt>
      <trkpt lat="43.98081" lon="7.26288">
        <ele>915.20001220703</ele>
        <time>2020-06-30T08:11:08.000Z</time>
      </trkpt>
      <trkpt lat="43.98085" lon="7.26292">
        <ele>915.40002441406</ele>
        <time>2020-06-30T08:11:10.000Z</time>
      </trkpt>
      <trkpt lat="43.9809" lon="7.263">
        <ele>916</ele>
        <time>2020-06-30T08:11:13.000Z</time>
      </trkpt>
      <trkpt lat="43.98099" lon="7.26307">
        <ele>916</ele>
        <time>2020-06-30T08:11:18.000Z</time>
      </trkpt>
      <trkpt lat="43.98102" lon="7.26308">
        <ele>916.20001220703</ele>
        <time>2020-06-30T08:11:20.000Z</time>
      </trkpt>
      <trkpt lat="43.98105" lon="7.26304">
        <ele>916</ele>
        <time>2020-06-30T08:11:23.000Z</time>
      </trkpt>
      <trkpt lat="43.98119" lon="7.26285">
        <ele>916.59997558594</ele>
        <time>2020-06-30T08:11:30.000Z</time>
      </trkpt>
      <trkpt lat="43.98121" lon="7.26281">
        <ele>916.59997558594</ele>
        <time>2020-06-30T08:11:31.000Z</time>
      </trkpt>
      <trkpt lat="43.98137" lon="7.26264">
        <ele>917</ele>
        <time>2020-06-30T08:11:38.000Z</time>
      </trkpt>
      <trkpt lat="43.9814" lon="7.26263">
        <ele>917.20001220703</ele>
        <time>2020-06-30T08:11:39.000Z</time>
      </trkpt>
      <trkpt lat="43.98149" lon="7.26265">
        <ele>917.40002441406</ele>
        <time>2020-06-30T08:11:42.000Z</time>
      </trkpt>
      <trkpt lat="43.98151" lon="7.26266">
        <ele>917.59997558594</ele>
        <time>2020-06-30T08:11:43.000Z</time>
      </trkpt>
      <trkpt lat="43.98161" lon="7.26271">
        <ele>917.59997558594</ele>
        <time>2020-06-30T08:11:47.000Z</time>
      </trkpt>
      <trkpt lat="43.98162" lon="7.26272">
        <ele>917.59997558594</ele>
        <time>2020-06-30T08:11:48.000Z</time>
      </trkpt>
      <trkpt lat="43.98165" lon="7.26275">
        <ele>917.79998779297</ele>
        <time>2020-06-30T08:11:49.000Z</time>
      </trkpt>
      <trkpt lat="43.98174" lon="7.26285">
        <ele>918.59997558594</ele>
        <time>2020-06-30T08:11:55.000Z</time>
      </trkpt>
      <trkpt lat="43.98178" lon="7.26288">
        <ele>918.59997558594</ele>
        <time>2020-06-30T08:11:57.000Z</time>
      </trkpt>
      <trkpt lat="43.98182" lon="7.26293">
        <ele>919</ele>
        <time>2020-06-30T08:12:00.000Z</time>
      </trkpt>
      <trkpt lat="43.98192" lon="7.26304">
        <ele>919.79998779297</ele>
        <time>2020-06-30T08:12:05.000Z</time>
      </trkpt>
      <trkpt lat="43.98194" lon="7.26306">
        <ele>919.79998779297</ele>
        <time>2020-06-30T08:12:06.000Z</time>
      </trkpt>
      <trkpt lat="43.98199" lon="7.26306">
        <ele>920</ele>
        <time>2020-06-30T08:12:09.000Z</time>
      </trkpt>
      <trkpt lat="43.98202" lon="7.26302">
        <ele>920.20001220703</ele>
        <time>2020-06-30T08:12:11.000Z</time>
      </trkpt>
      <trkpt lat="43.98216" lon="7.26287">
        <ele>920.20001220703</ele>
        <time>2020-06-30T08:12:17.000Z</time>
      </trkpt>
      <trkpt lat="43.98221" lon="7.26285">
        <ele>920.20001220703</ele>
        <time>2020-06-30T08:12:19.000Z</time>
      </trkpt>
      <trkpt lat="43.9823" lon="7.26286">
        <ele>920.59997558594</ele>
        <time>2020-06-30T08:12:22.000Z</time>
      </trkpt>
      <trkpt lat="43.98235" lon="7.26281">
        <ele>920.59997558594</ele>
        <time>2020-06-30T08:12:24.000Z</time>
      </trkpt>
      <trkpt lat="43.9824" lon="7.26276">
        <ele>920.59997558594</ele>
        <time>2020-06-30T08:12:26.000Z</time>
      </trkpt>
      <trkpt lat="43.98245" lon="7.26273">
        <ele>920.79998779297</ele>
        <time>2020-06-30T08:12:28.000Z</time>
      </trkpt>
      <trkpt lat="43.98248" lon="7.26275">
        <ele>921</ele>
        <time>2020-06-30T08:12:29.000Z</time>
      </trkpt>
      <trkpt lat="43.98251" lon="7.26277">
        <ele>921.20001220703</ele>
        <time>2020-06-30T08:12:30.000Z</time>
      </trkpt>
      <trkpt lat="43.98257" lon="7.26284">
        <ele>921.59997558594</ele>
        <time>2020-06-30T08:12:33.000Z</time>
      </trkpt>
      <trkpt lat="43.98258" lon="7.26286">
        <ele>921.79998779297</ele>
        <time>2020-06-30T08:12:34.000Z</time>
      </trkpt>
      <trkpt lat="43.9826" lon="7.26287">
        <ele>921.79998779297</ele>
        <time>2020-06-30T08:12:35.000Z</time>
      </trkpt>
      <trkpt lat="43.98268" lon="7.26293">
        <ele>922</ele>
        <time>2020-06-30T08:12:39.000Z</time>
      </trkpt>
      <trkpt lat="43.98282" lon="7.26297">
        <ele>922.40002441406</ele>
        <time>2020-06-30T08:12:44.000Z</time>
      </trkpt>
      <trkpt lat="43.98283" lon="7.26299">
        <ele>922.59997558594</ele>
        <time>2020-06-30T08:12:45.000Z</time>
      </trkpt>
      <trkpt lat="43.98286" lon="7.26302">
        <ele>923</ele>
        <time>2020-06-30T08:12:47.000Z</time>
      </trkpt>
      <trkpt lat="43.98287" lon="7.26304">
        <ele>923.20001220703</ele>
        <time>2020-06-30T08:12:48.000Z</time>
      </trkpt>
      <trkpt lat="43.98296" lon="7.26309">
        <ele>923.79998779297</ele>
        <time>2020-06-30T08:12:52.000Z</time>
      </trkpt>
      <trkpt lat="43.98302" lon="7.26311">
        <ele>924</ele>
        <time>2020-06-30T08:12:54.000Z</time>
      </trkpt>
      <trkpt lat="43.98314" lon="7.26315">
        <ele>924.59997558594</ele>
        <time>2020-06-30T08:12:59.000Z</time>
      </trkpt>
      <trkpt lat="43.98319" lon="7.26318">
        <ele>925</ele>
        <time>2020-06-30T08:13:02.000Z</time>
      </trkpt>
      <trkpt lat="43.98323" lon="7.26324">
        <ele>925.40002441406</ele>
        <time>2020-06-30T08:13:05.000Z</time>
      </trkpt>
      <trkpt lat="43.98327" lon="7.26326">
        <ele>925.59997558594</ele>
        <time>2020-06-30T08:13:07.000Z</time>
      </trkpt>
      <trkpt lat="43.98334" lon="7.26328">
        <ele>926</ele>
        <time>2020-06-30T08:13:10.000Z</time>
      </trkpt>
      <trkpt lat="43.98339" lon="7.26325">
        <ele>926.20001220703</ele>
        <time>2020-06-30T08:13:12.000Z</time>
      </trkpt>
      <trkpt lat="43.98346" lon="7.26319">
        <ele>926.59997558594</ele>
        <time>2020-06-30T08:13:16.000Z</time>
      </trkpt>
      <trkpt lat="43.9835" lon="7.26319">
        <ele>926.59997558594</ele>
        <time>2020-06-30T08:13:17.000Z</time>
      </trkpt>
      <trkpt lat="43.98355" lon="7.26322">
        <ele>926.79998779297</ele>
        <time>2020-06-30T08:13:19.000Z</time>
      </trkpt>
      <trkpt lat="43.98363" lon="7.26329">
        <ele>927.20001220703</ele>
        <time>2020-06-30T08:13:23.000Z</time>
      </trkpt>
      <trkpt lat="43.98367" lon="7.26332">
        <ele>927.40002441406</ele>
        <time>2020-06-30T08:13:25.000Z</time>
      </trkpt>
      <trkpt lat="43.98381" lon="7.2633">
        <ele>927.79998779297</ele>
        <time>2020-06-30T08:13:30.000Z</time>
      </trkpt>
      <trkpt lat="43.98385" lon="7.26326">
        <ele>928.20001220703</ele>
        <time>2020-06-30T08:13:32.000Z</time>
      </trkpt>
      <trkpt lat="43.98392" lon="7.2632">
        <ele>928.40002441406</ele>
        <time>2020-06-30T08:13:35.000Z</time>
      </trkpt>
      <trkpt lat="43.98403" lon="7.26315">
        <ele>928.79998779297</ele>
        <time>2020-06-30T08:13:39.000Z</time>
      </trkpt>
      <trkpt lat="43.98414" lon="7.26308">
        <ele>929</ele>
        <time>2020-06-30T08:13:44.000Z</time>
      </trkpt>
      <trkpt lat="43.98416" lon="7.26306">
        <ele>929.20001220703</ele>
        <time>2020-06-30T08:13:45.000Z</time>
      </trkpt>
      <trkpt lat="43.98419" lon="7.263">
        <ele>929.20001220703</ele>
        <time>2020-06-30T08:13:47.000Z</time>
      </trkpt>
      <trkpt lat="43.9843" lon="7.26281">
        <ele>929.20001220703</ele>
        <time>2020-06-30T08:13:53.000Z</time>
      </trkpt>
      <trkpt lat="43.98434" lon="7.2628">
        <ele>929.20001220703</ele>
        <time>2020-06-30T08:13:54.000Z</time>
      </trkpt>
      <trkpt lat="43.98439" lon="7.2628">
        <ele>929.59997558594</ele>
        <time>2020-06-30T08:13:56.000Z</time>
      </trkpt>
      <trkpt lat="43.98444" lon="7.26283">
        <ele>929.79998779297</ele>
        <time>2020-06-30T08:13:58.000Z</time>
      </trkpt>
      <trkpt lat="43.98451" lon="7.2629">
        <ele>930.40002441406</ele>
        <time>2020-06-30T08:14:02.000Z</time>
      </trkpt>
      <trkpt lat="43.98457" lon="7.26297">
        <ele>930.79998779297</ele>
        <time>2020-06-30T08:14:07.000Z</time>
      </trkpt>
      <trkpt lat="43.9846" lon="7.263">
        <ele>931.20001220703</ele>
        <time>2020-06-30T08:14:09.000Z</time>
      </trkpt>
      <trkpt lat="43.98462" lon="7.26301">
        <ele>931.40002441406</ele>
        <time>2020-06-30T08:14:10.000Z</time>
      </trkpt>
      <trkpt lat="43.98465" lon="7.26303">
        <ele>931.40002441406</ele>
        <time>2020-06-30T08:14:12.000Z</time>
      </trkpt>
      <trkpt lat="43.98469" lon="7.26304">
        <ele>931.79998779297</ele>
        <time>2020-06-30T08:14:15.000Z</time>
      </trkpt>
      <trkpt lat="43.98474" lon="7.26303">
        <ele>932</ele>
        <time>2020-06-30T08:14:18.000Z</time>
      </trkpt>
      <trkpt lat="43.98475" lon="7.26302">
        <ele>932.20001220703</ele>
        <time>2020-06-30T08:14:19.000Z</time>
      </trkpt>
      <trkpt lat="43.98477" lon="7.26301">
        <ele>932.40002441406</ele>
        <time>2020-06-30T08:14:20.000Z</time>
      </trkpt>
      <trkpt lat="43.98481" lon="7.26294">
        <ele>933</ele>
        <time>2020-06-30T08:14:24.000Z</time>
      </trkpt>
      <trkpt lat="43.98485" lon="7.26283">
        <ele>933</ele>
        <time>2020-06-30T08:14:28.000Z</time>
      </trkpt>
      <trkpt lat="43.98487" lon="7.26278">
        <ele>933.20001220703</ele>
        <time>2020-06-30T08:14:30.000Z</time>
      </trkpt>
      <trkpt lat="43.98489" lon="7.26272">
        <ele>933.40002441406</ele>
        <time>2020-06-30T08:14:32.000Z</time>
      </trkpt>
      <trkpt lat="43.98493" lon="7.26263">
        <ele>933.79998779297</ele>
        <time>2020-06-30T08:14:35.000Z</time>
      </trkpt>
      <trkpt lat="43.98497" lon="7.2626">
        <ele>934</ele>
        <time>2020-06-30T08:14:37.000Z</time>
      </trkpt>
      <trkpt lat="43.98505" lon="7.2626">
        <ele>934.59997558594</ele>
        <time>2020-06-30T08:14:41.000Z</time>
      </trkpt>
      <trkpt lat="43.98507" lon="7.26263">
        <ele>934.79998779297</ele>
        <time>2020-06-30T08:14:43.000Z</time>
      </trkpt>
      <trkpt lat="43.98514" lon="7.26276">
        <ele>936</ele>
        <time>2020-06-30T08:14:49.000Z</time>
      </trkpt>
      <trkpt lat="43.98523" lon="7.26293">
        <ele>937</ele>
        <time>2020-06-30T08:14:58.000Z</time>
      </trkpt>
      <trkpt lat="43.98525" lon="7.26295">
        <ele>937</ele>
        <time>2020-06-30T08:14:59.000Z</time>
      </trkpt>
      <trkpt lat="43.98533" lon="7.26301">
        <ele>937.59997558594</ele>
        <time>2020-06-30T08:15:04.000Z</time>
      </trkpt>
      <trkpt lat="43.98537" lon="7.26302">
        <ele>938.20001220703</ele>
        <time>2020-06-30T08:15:06.000Z</time>
      </trkpt>
      <trkpt lat="43.9854" lon="7.26303">
        <ele>938.40002441406</ele>
        <time>2020-06-30T08:15:08.000Z</time>
      </trkpt>
      <trkpt lat="43.98544" lon="7.26305">
        <ele>938.79998779297</ele>
        <time>2020-06-30T08:15:11.000Z</time>
      </trkpt>
      <trkpt lat="43.98548" lon="7.26306">
        <ele>939.20001220703</ele>
        <time>2020-06-30T08:15:14.000Z</time>
      </trkpt>
      <trkpt lat="43.98549" lon="7.26306">
        <ele>939.20001220703</ele>
        <time>2020-06-30T08:15:15.000Z</time>
      </trkpt>
      <trkpt lat="43.98566" lon="7.26309">
        <ele>939.79998779297</ele>
        <time>2020-06-30T08:15:22.000Z</time>
      </trkpt>
      <trkpt lat="43.98571" lon="7.26313">
        <ele>940.40002441406</ele>
        <time>2020-06-30T08:15:25.000Z</time>
      </trkpt>
      <trkpt lat="43.98574" lon="7.26316">
        <ele>940.59997558594</ele>
        <time>2020-06-30T08:15:27.000Z</time>
      </trkpt>
      <trkpt lat="43.98577" lon="7.26318">
        <ele>941</ele>
        <time>2020-06-30T08:15:29.000Z</time>
      </trkpt>
      <trkpt lat="43.98583" lon="7.26318">
        <ele>941.40002441406</ele>
        <time>2020-06-30T08:15:33.000Z</time>
      </trkpt>
      <trkpt lat="43.98588" lon="7.2632">
        <ele>941.79998779297</ele>
        <time>2020-06-30T08:15:35.000Z</time>
      </trkpt>
      <trkpt lat="43.98593" lon="7.26323">
        <ele>942.59997558594</ele>
        <time>2020-06-30T08:15:39.000Z</time>
      </trkpt>
      <trkpt lat="43.98598" lon="7.26326">
        <ele>943</ele>
        <time>2020-06-30T08:15:42.000Z</time>
      </trkpt>
      <trkpt lat="43.98602" lon="7.26328">
        <ele>943.20001220703</ele>
        <time>2020-06-30T08:15:44.000Z</time>
      </trkpt>
      <trkpt lat="43.98603" lon="7.26328">
        <ele>943.20001220703</ele>
        <time>2020-06-30T08:15:45.000Z</time>
      </trkpt>
      <trkpt lat="43.98605" lon="7.26326">
        <ele>943.79998779297</ele>
        <time>2020-06-30T08:15:49.000Z</time>
      </trkpt>
      <trkpt lat="43.98607" lon="7.26324">
        <ele>943.59997558594</ele>
        <time>2020-06-30T08:15:50.000Z</time>
      </trkpt>
      <trkpt lat="43.98612" lon="7.26315">
        <ele>943.59997558594</ele>
        <time>2020-06-30T08:15:54.000Z</time>
      </trkpt>
      <trkpt lat="43.98612" lon="7.26312">
        <ele>943.79998779297</ele>
        <time>2020-06-30T08:15:55.000Z</time>
      </trkpt>
      <trkpt lat="43.98605" lon="7.26291">
        <ele>944.20001220703</ele>
        <time>2020-06-30T08:16:01.000Z</time>
      </trkpt>
      <trkpt lat="43.98588" lon="7.26259">
        <ele>944.20001220703</ele>
        <time>2020-06-30T08:16:11.000Z</time>
      </trkpt>
      <trkpt lat="43.98584" lon="7.26248">
        <ele>944.20001220703</ele>
        <time>2020-06-30T08:16:14.000Z</time>
      </trkpt>
      <trkpt lat="43.98585" lon="7.26241">
        <ele>944.20001220703</ele>
        <time>2020-06-30T08:16:16.000Z</time>
      </trkpt>
      <trkpt lat="43.9859" lon="7.26219">
        <ele>944.79998779297</ele>
        <time>2020-06-30T08:16:23.000Z</time>
      </trkpt>
      <trkpt lat="43.98591" lon="7.26216">
        <ele>945</ele>
        <time>2020-06-30T08:16:24.000Z</time>
      </trkpt>
      <trkpt lat="43.98592" lon="7.26201">
        <ele>946</ele>
        <time>2020-06-30T08:16:29.000Z</time>
      </trkpt>
      <trkpt lat="43.98592" lon="7.26195">
        <ele>946.40002441406</ele>
        <time>2020-06-30T08:16:31.000Z</time>
      </trkpt>
      <trkpt lat="43.9859" lon="7.26184">
        <ele>947.20001220703</ele>
        <time>2020-06-30T08:16:35.000Z</time>
      </trkpt>
      <trkpt lat="43.98588" lon="7.26173">
        <ele>947.40002441406</ele>
        <time>2020-06-30T08:16:38.000Z</time>
      </trkpt>
      <trkpt lat="43.98584" lon="7.26158">
        <ele>948.20001220703</ele>
        <time>2020-06-30T08:16:43.000Z</time>
      </trkpt>
      <trkpt lat="43.9858" lon="7.2615">
        <ele>948.59997558594</ele>
        <time>2020-06-30T08:16:46.000Z</time>
      </trkpt>
      <trkpt lat="43.98578" lon="7.2614">
        <ele>949</ele>
        <time>2020-06-30T08:16:49.000Z</time>
      </trkpt>
      <trkpt lat="43.98579" lon="7.26137">
        <ele>949.40002441406</ele>
        <time>2020-06-30T08:16:50.000Z</time>
      </trkpt>
      <trkpt lat="43.98581" lon="7.26135">
        <ele>949.40002441406</ele>
        <time>2020-06-30T08:16:51.000Z</time>
      </trkpt>
      <trkpt lat="43.98595" lon="7.26128">
        <ele>950</ele>
        <time>2020-06-30T08:16:57.000Z</time>
      </trkpt>
      <trkpt lat="43.98615" lon="7.26117">
        <ele>950.20001220703</ele>
        <time>2020-06-30T08:17:04.000Z</time>
      </trkpt>
      <trkpt lat="43.9862" lon="7.26116">
        <ele>950.40002441406</ele>
        <time>2020-06-30T08:17:06.000Z</time>
      </trkpt>
      <trkpt lat="43.98628" lon="7.26116">
        <ele>950.79998779297</ele>
        <time>2020-06-30T08:17:10.000Z</time>
      </trkpt>
      <trkpt lat="43.98636" lon="7.26115">
        <ele>951.20001220703</ele>
        <time>2020-06-30T08:17:14.000Z</time>
      </trkpt>
      <trkpt lat="43.98637" lon="7.26113">
        <ele>951.40002441406</ele>
        <time>2020-06-30T08:17:15.000Z</time>
      </trkpt>
      <trkpt lat="43.9864" lon="7.26092">
        <ele>951</ele>
        <time>2020-06-30T08:17:21.000Z</time>
      </trkpt>
      <trkpt lat="43.98647" lon="7.2608">
        <ele>951</ele>
        <time>2020-06-30T08:17:27.000Z</time>
      </trkpt>
      <trkpt lat="43.98655" lon="7.26071">
        <ele>951.20001220703</ele>
        <time>2020-06-30T08:17:32.000Z</time>
      </trkpt>
      <trkpt lat="43.98663" lon="7.26056">
        <ele>951</ele>
        <time>2020-06-30T08:17:38.000Z</time>
      </trkpt>
      <trkpt lat="43.98666" lon="7.26049">
        <ele>951.20001220703</ele>
        <time>2020-06-30T08:17:41.000Z</time>
      </trkpt>
      <trkpt lat="43.98666" lon="7.26042">
        <ele>951.20001220703</ele>
        <time>2020-06-30T08:17:43.000Z</time>
      </trkpt>
      <trkpt lat="43.98671" lon="7.26019">
        <ele>951.20001220703</ele>
        <time>2020-06-30T08:17:50.000Z</time>
      </trkpt>
      <trkpt lat="43.98674" lon="7.26006">
        <ele>951.40002441406</ele>
        <time>2020-06-30T08:17:54.000Z</time>
      </trkpt>
      <trkpt lat="43.98681" lon="7.25994">
        <ele>951.59997558594</ele>
        <time>2020-06-30T08:17:58.000Z</time>
      </trkpt>
      <trkpt lat="43.98694" lon="7.25978">
        <ele>952.59997558594</ele>
        <time>2020-06-30T08:18:05.000Z</time>
      </trkpt>
      <trkpt lat="43.98696" lon="7.25977">
        <ele>952.79998779297</ele>
        <time>2020-06-30T08:18:06.000Z</time>
      </trkpt>
      <trkpt lat="43.98701" lon="7.25971">
        <ele>953.79998779297</ele>
        <time>2020-06-30T08:18:10.000Z</time>
      </trkpt>
      <trkpt lat="43.98705" lon="7.25967">
        <ele>954.40002441406</ele>
        <time>2020-06-30T08:18:13.000Z</time>
      </trkpt>
      <trkpt lat="43.98707" lon="7.25965">
        <ele>954.59997558594</ele>
        <time>2020-06-30T08:18:14.000Z</time>
      </trkpt>
      <trkpt lat="43.98709" lon="7.25965">
        <ele>955</ele>
        <time>2020-06-30T08:18:15.000Z</time>
      </trkpt>
      <trkpt lat="43.98712" lon="7.25966">
        <ele>955.40002441406</ele>
        <time>2020-06-30T08:18:17.000Z</time>
      </trkpt>
      <trkpt lat="43.98713" lon="7.25967">
        <ele>955.59997558594</ele>
        <time>2020-06-30T08:18:18.000Z</time>
      </trkpt>
      <trkpt lat="43.98717" lon="7.2597">
        <ele>956</ele>
        <time>2020-06-30T08:18:20.000Z</time>
      </trkpt>
      <trkpt lat="43.98723" lon="7.25975">
        <ele>957</ele>
        <time>2020-06-30T08:18:24.000Z</time>
      </trkpt>
      <trkpt lat="43.98725" lon="7.25976">
        <ele>957</ele>
        <time>2020-06-30T08:18:25.000Z</time>
      </trkpt>
      <trkpt lat="43.9873" lon="7.25982">
        <ele>958.20001220703</ele>
        <time>2020-06-30T08:18:30.000Z</time>
      </trkpt>
      <trkpt lat="43.98736" lon="7.25989">
        <ele>959.40002441406</ele>
        <time>2020-06-30T08:18:36.000Z</time>
      </trkpt>
      <trkpt lat="43.98744" lon="7.25997">
        <ele>960.40002441406</ele>
        <time>2020-06-30T08:18:42.000Z</time>
      </trkpt>
      <trkpt lat="43.98745" lon="7.25998">
        <ele>960.40002441406</ele>
        <time>2020-06-30T08:18:43.000Z</time>
      </trkpt>
      <trkpt lat="43.98751" lon="7.26004">
        <ele>961.59997558594</ele>
        <time>2020-06-30T08:18:48.000Z</time>
      </trkpt>
      <trkpt lat="43.98752" lon="7.26005">
        <ele>961.79998779297</ele>
        <time>2020-06-30T08:18:49.000Z</time>
      </trkpt>
      <trkpt lat="43.9876" lon="7.26009">
        <ele>962.79998779297</ele>
        <time>2020-06-30T08:18:54.000Z</time>
      </trkpt>
      <trkpt lat="43.98767" lon="7.26014">
        <ele>963.79998779297</ele>
        <time>2020-06-30T08:19:00.000Z</time>
      </trkpt>
      <trkpt lat="43.98768" lon="7.26015">
        <ele>963.79998779297</ele>
        <time>2020-06-30T08:19:01.000Z</time>
      </trkpt>
      <trkpt lat="43.98777" lon="7.26021">
        <ele>964.79998779297</ele>
        <time>2020-06-30T08:19:07.000Z</time>
      </trkpt>
      <trkpt lat="43.98778" lon="7.26022">
        <ele>965</ele>
        <time>2020-06-30T08:19:08.000Z</time>
      </trkpt>
      <trkpt lat="43.98788" lon="7.2603">
        <ele>966</ele>
        <time>2020-06-30T08:19:14.000Z</time>
      </trkpt>
      <trkpt lat="43.98797" lon="7.26037">
        <ele>967.20001220703</ele>
        <time>2020-06-30T08:19:20.000Z</time>
      </trkpt>
      <trkpt lat="43.988" lon="7.26039">
        <ele>967.59997558594</ele>
        <time>2020-06-30T08:19:22.000Z</time>
      </trkpt>
      <trkpt lat="43.98806" lon="7.26043">
        <ele>968.20001220703</ele>
        <time>2020-06-30T08:19:25.000Z</time>
      </trkpt>
      <trkpt lat="43.98812" lon="7.26048">
        <ele>969</ele>
        <time>2020-06-30T08:19:29.000Z</time>
      </trkpt>
      <trkpt lat="43.98815" lon="7.26049">
        <ele>969.40002441406</ele>
        <time>2020-06-30T08:19:31.000Z</time>
      </trkpt>
      <trkpt lat="43.9882" lon="7.26054">
        <ele>970.20001220703</ele>
        <time>2020-06-30T08:19:35.000Z</time>
      </trkpt>
      <trkpt lat="43.98822" lon="7.26058">
        <ele>970.40002441406</ele>
        <time>2020-06-30T08:19:37.000Z</time>
      </trkpt>
      <trkpt lat="43.98825" lon="7.26068">
        <ele>971</ele>
        <time>2020-06-30T08:19:41.000Z</time>
      </trkpt>
      <trkpt lat="43.98827" lon="7.2607">
        <ele>971.40002441406</ele>
        <time>2020-06-30T08:19:42.000Z</time>
      </trkpt>
      <trkpt lat="43.9883" lon="7.26075">
        <ele>972.40002441406</ele>
        <time>2020-06-30T08:19:45.000Z</time>
      </trkpt>
      <trkpt lat="43.98833" lon="7.26076">
        <ele>973.40002441406</ele>
        <time>2020-06-30T08:19:47.000Z</time>
      </trkpt>
      <trkpt lat="43.98834" lon="7.26077">
        <ele>973.40002441406</ele>
        <time>2020-06-30T08:19:48.000Z</time>
      </trkpt>
      <trkpt lat="43.9885" lon="7.26083">
        <ele>974.40002441406</ele>
        <time>2020-06-30T08:19:56.000Z</time>
      </trkpt>
      <trkpt lat="43.98852" lon="7.26085">
        <ele>974.59997558594</ele>
        <time>2020-06-30T08:19:57.000Z</time>
      </trkpt>
      <trkpt lat="43.98866" lon="7.26091">
        <ele>975.20001220703</ele>
        <time>2020-06-30T08:20:04.000Z</time>
      </trkpt>
      <trkpt lat="43.98871" lon="7.26092">
        <ele>975.59997558594</ele>
        <time>2020-06-30T08:20:07.000Z</time>
      </trkpt>
      <trkpt lat="43.98877" lon="7.26096">
        <ele>976.59997558594</ele>
        <time>2020-06-30T08:20:11.000Z</time>
      </trkpt>
      <trkpt lat="43.98883" lon="7.261">
        <ele>977.59997558594</ele>
        <time>2020-06-30T08:20:15.000Z</time>
      </trkpt>
      <trkpt lat="43.98891" lon="7.26101">
        <ele>978.59997558594</ele>
        <time>2020-06-30T08:20:20.000Z</time>
      </trkpt>
      <trkpt lat="43.98892" lon="7.26101">
        <ele>978.79998779297</ele>
        <time>2020-06-30T08:20:21.000Z</time>
      </trkpt>
      <trkpt lat="43.98901" lon="7.261">
        <ele>980</ele>
        <time>2020-06-30T08:20:27.000Z</time>
      </trkpt>
      <trkpt lat="43.98908" lon="7.26101">
        <ele>980.79998779297</ele>
        <time>2020-06-30T08:20:32.000Z</time>
      </trkpt>
      <trkpt lat="43.98909" lon="7.26102">
        <ele>981</ele>
        <time>2020-06-30T08:20:33.000Z</time>
      </trkpt>
      <trkpt lat="43.98915" lon="7.26105">
        <ele>982.20001220703</ele>
        <time>2020-06-30T08:20:37.000Z</time>
      </trkpt>
      <trkpt lat="43.98916" lon="7.26106">
        <ele>982.40002441406</ele>
        <time>2020-06-30T08:20:38.000Z</time>
      </trkpt>
      <trkpt lat="43.98923" lon="7.26105">
        <ele>982.79998779297</ele>
        <time>2020-06-30T08:20:41.000Z</time>
      </trkpt>
      <trkpt lat="43.98929" lon="7.26101">
        <ele>983</ele>
        <time>2020-06-30T08:20:44.000Z</time>
      </trkpt>
      <trkpt lat="43.98937" lon="7.26095">
        <ele>983.40002441406</ele>
        <time>2020-06-30T08:20:49.000Z</time>
      </trkpt>
      <trkpt lat="43.98941" lon="7.26093">
        <ele>984</ele>
        <time>2020-06-30T08:20:52.000Z</time>
      </trkpt>
      <trkpt lat="43.98947" lon="7.2609">
        <ele>984.59997558594</ele>
        <time>2020-06-30T08:20:56.000Z</time>
      </trkpt>
      <trkpt lat="43.98949" lon="7.26089">
        <ele>985</ele>
        <time>2020-06-30T08:20:58.000Z</time>
      </trkpt>
      <trkpt lat="43.98955" lon="7.26088">
        <ele>985.79998779297</ele>
        <time>2020-06-30T08:21:02.000Z</time>
      </trkpt>
      <trkpt lat="43.98957" lon="7.26087">
        <ele>986.20001220703</ele>
        <time>2020-06-30T08:21:04.000Z</time>
      </trkpt>
      <trkpt lat="43.98963" lon="7.26088">
        <ele>986.79998779297</ele>
        <time>2020-06-30T08:21:09.000Z</time>
      </trkpt>
      <trkpt lat="43.98964" lon="7.26088">
        <ele>987</ele>
        <time>2020-06-30T08:21:10.000Z</time>
      </trkpt>
      <trkpt lat="43.98972" lon="7.26094">
        <ele>987.79998779297</ele>
        <time>2020-06-30T08:21:17.000Z</time>
      </trkpt>
      <trkpt lat="43.98973" lon="7.26096">
        <ele>988</ele>
        <time>2020-06-30T08:21:18.000Z</time>
      </trkpt>
      <trkpt lat="43.98981" lon="7.26104">
        <ele>988.20001220703</ele>
        <time>2020-06-30T08:21:23.000Z</time>
      </trkpt>
      <trkpt lat="43.98988" lon="7.26103">
        <ele>988.40002441406</ele>
        <time>2020-06-30T08:21:27.000Z</time>
      </trkpt>
      <trkpt lat="43.98989" lon="7.26103">
        <ele>988.40002441406</ele>
        <time>2020-06-30T08:21:28.000Z</time>
      </trkpt>
      <trkpt lat="43.98991" lon="7.261">
        <ele>988.40002441406</ele>
        <time>2020-06-30T08:21:29.000Z</time>
      </trkpt>
      <trkpt lat="43.98997" lon="7.26094">
        <ele>988.79998779297</ele>
        <time>2020-06-30T08:21:32.000Z</time>
      </trkpt>
      <trkpt lat="43.99004" lon="7.26089">
        <ele>989</ele>
        <time>2020-06-30T08:21:35.000Z</time>
      </trkpt>
      <trkpt lat="43.99009" lon="7.26088">
        <ele>989</ele>
        <time>2020-06-30T08:21:37.000Z</time>
      </trkpt>
      <trkpt lat="43.99023" lon="7.26093">
        <ele>989.40002441406</ele>
        <time>2020-06-30T08:21:44.000Z</time>
      </trkpt>
      <trkpt lat="43.99031" lon="7.26098">
        <ele>990</ele>
        <time>2020-06-30T08:21:50.000Z</time>
      </trkpt>
      <trkpt lat="43.99032" lon="7.26098">
        <ele>990</ele>
        <time>2020-06-30T08:21:51.000Z</time>
      </trkpt>
      <trkpt lat="43.99035" lon="7.26095">
        <ele>990.20001220703</ele>
        <time>2020-06-30T08:21:55.000Z</time>
      </trkpt>
      <trkpt lat="43.99038" lon="7.2608">
        <ele>990.59997558594</ele>
        <time>2020-06-30T08:22:00.000Z</time>
      </trkpt>
      <trkpt lat="43.99037" lon="7.26076">
        <ele>990.40002441406</ele>
        <time>2020-06-30T08:22:01.000Z</time>
      </trkpt>
      <trkpt lat="43.99036" lon="7.26065">
        <ele>990.40002441406</ele>
        <time>2020-06-30T08:22:04.000Z</time>
      </trkpt>
      <trkpt lat="43.99032" lon="7.26047">
        <ele>991.20001220703</ele>
        <time>2020-06-30T08:22:09.000Z</time>
      </trkpt>
      <trkpt lat="43.99025" lon="7.26026">
        <ele>992</ele>
        <time>2020-06-30T08:22:16.000Z</time>
      </trkpt>
      <trkpt lat="43.99024" lon="7.26023">
        <ele>992.20001220703</ele>
        <time>2020-06-30T08:22:17.000Z</time>
      </trkpt>
      <trkpt lat="43.9902" lon="7.26009">
        <ele>993.20001220703</ele>
        <time>2020-06-30T08:22:22.000Z</time>
      </trkpt>
      <trkpt lat="43.99016" lon="7.26004">
        <ele>993.40002441406</ele>
        <time>2020-06-30T08:22:24.000Z</time>
      </trkpt>
      <trkpt lat="43.99015" lon="7.2599">
        <ele>994</ele>
        <time>2020-06-30T08:22:29.000Z</time>
      </trkpt>
      <trkpt lat="43.99018" lon="7.25979">
        <ele>994.40002441406</ele>
        <time>2020-06-30T08:22:33.000Z</time>
      </trkpt>
      <trkpt lat="43.9902" lon="7.25972">
        <ele>995</ele>
        <time>2020-06-30T08:22:36.000Z</time>
      </trkpt>
      <trkpt lat="43.99023" lon="7.25962">
        <ele>995.40002441406</ele>
        <time>2020-06-30T08:22:40.000Z</time>
      </trkpt>
      <trkpt lat="43.99027" lon="7.25946">
        <ele>996.40002441406</ele>
        <time>2020-06-30T08:22:46.000Z</time>
      </trkpt>
      <trkpt lat="43.99028" lon="7.25943">
        <ele>996.79998779297</ele>
        <time>2020-06-30T08:22:47.000Z</time>
      </trkpt>
      <trkpt lat="43.99033" lon="7.25931">
        <ele>997.79998779297</ele>
        <time>2020-06-30T08:22:52.000Z</time>
      </trkpt>
      <trkpt lat="43.99036" lon="7.25917">
        <ele>998.79998779297</ele>
        <time>2020-06-30T08:22:58.000Z</time>
      </trkpt>
      <trkpt lat="43.99035" lon="7.25907">
        <ele>1000</ele>
        <time>2020-06-30T08:23:02.000Z</time>
      </trkpt>
      <trkpt lat="43.99035" lon="7.25901">
        <ele>1000.4000244141</ele>
        <time>2020-06-30T08:23:04.000Z</time>
      </trkpt>
      <trkpt lat="43.99034" lon="7.25892">
        <ele>1001</ele>
        <time>2020-06-30T08:23:08.000Z</time>
      </trkpt>
      <trkpt lat="43.99032" lon="7.25884">
        <ele>1002</ele>
        <time>2020-06-30T08:23:11.000Z</time>
      </trkpt>
      <trkpt lat="43.99032" lon="7.25882">
        <ele>1002.200012207</ele>
        <time>2020-06-30T08:23:12.000Z</time>
      </trkpt>
      <trkpt lat="43.99031" lon="7.25872">
        <ele>1003.4000244141</ele>
        <time>2020-06-30T08:23:17.000Z</time>
      </trkpt>
      <trkpt lat="43.99031" lon="7.25868">
        <ele>1003.5999755859</ele>
        <time>2020-06-30T08:23:19.000Z</time>
      </trkpt>
      <trkpt lat="43.99033" lon="7.25857">
        <ele>1004.4000244141</ele>
        <time>2020-06-30T08:23:25.000Z</time>
      </trkpt>
      <trkpt lat="43.99034" lon="7.25855">
        <ele>1004.799987793</ele>
        <time>2020-06-30T08:23:26.000Z</time>
      </trkpt>
      <trkpt lat="43.99036" lon="7.25849">
        <ele>1005.799987793</ele>
        <time>2020-06-30T08:23:29.000Z</time>
      </trkpt>
      <trkpt lat="43.99038" lon="7.25842">
        <ele>1006.4000244141</ele>
        <time>2020-06-30T08:23:32.000Z</time>
      </trkpt>
      <trkpt lat="43.9904" lon="7.25834">
        <ele>1006.799987793</ele>
        <time>2020-06-30T08:23:35.000Z</time>
      </trkpt>
      <trkpt lat="43.99041" lon="7.25823">
        <ele>1007.4000244141</ele>
        <time>2020-06-30T08:23:40.000Z</time>
      </trkpt>
      <trkpt lat="43.99041" lon="7.25819">
        <ele>1008</ele>
        <time>2020-06-30T08:23:42.000Z</time>
      </trkpt>
      <trkpt lat="43.99038" lon="7.25809">
        <ele>1008.799987793</ele>
        <time>2020-06-30T08:23:47.000Z</time>
      </trkpt>
      <trkpt lat="43.99038" lon="7.25806">
        <ele>1009.200012207</ele>
        <time>2020-06-30T08:23:49.000Z</time>
      </trkpt>
      <trkpt lat="43.99038" lon="7.25807">
        <ele>1009.799987793</ele>
        <time>2020-06-30T08:23:51.000Z</time>
      </trkpt>
      <trkpt lat="43.99038" lon="7.25805">
        <ele>1010.4000244141</ele>
        <time>2020-06-30T08:23:59.000Z</time>
      </trkpt>
      <trkpt lat="43.99036" lon="7.25794">
        <ele>1010.799987793</ele>
        <time>2020-06-30T08:24:06.000Z</time>
      </trkpt>
      <trkpt lat="43.99037" lon="7.25787">
        <ele>1011.4000244141</ele>
        <time>2020-06-30T08:24:09.000Z</time>
      </trkpt>
      <trkpt lat="43.99036" lon="7.25777">
        <ele>1012.5999755859</ele>
        <time>2020-06-30T08:24:13.000Z</time>
      </trkpt>
      <trkpt lat="43.99037" lon="7.25767">
        <ele>1013.5999755859</ele>
        <time>2020-06-30T08:24:18.000Z</time>
      </trkpt>
      <trkpt lat="43.99037" lon="7.25763">
        <ele>1014</ele>
        <time>2020-06-30T08:24:20.000Z</time>
      </trkpt>
      <trkpt lat="43.99038" lon="7.25756">
        <ele>1014.5999755859</ele>
        <time>2020-06-30T08:24:23.000Z</time>
      </trkpt>
      <trkpt lat="43.99039" lon="7.25743">
        <ele>1016</ele>
        <time>2020-06-30T08:24:27.000Z</time>
      </trkpt>
      <trkpt lat="43.99037" lon="7.25733">
        <ele>1017</ele>
        <time>2020-06-30T08:24:32.000Z</time>
      </trkpt>
      <trkpt lat="43.99038" lon="7.25721">
        <ele>1018</ele>
        <time>2020-06-30T08:24:37.000Z</time>
      </trkpt>
      <trkpt lat="43.99039" lon="7.25708">
        <ele>1019</ele>
        <time>2020-06-30T08:24:42.000Z</time>
      </trkpt>
      <trkpt lat="43.99039" lon="7.25706">
        <ele>1019.4000244141</ele>
        <time>2020-06-30T08:24:43.000Z</time>
      </trkpt>
      <trkpt lat="43.99041" lon="7.25698">
        <ele>1020.200012207</ele>
        <time>2020-06-30T08:24:47.000Z</time>
      </trkpt>
      <trkpt lat="43.99043" lon="7.25692">
        <ele>1021</ele>
        <time>2020-06-30T08:24:50.000Z</time>
      </trkpt>
      <trkpt lat="43.99045" lon="7.25685">
        <ele>1021.4000244141</ele>
        <time>2020-06-30T08:24:53.000Z</time>
      </trkpt>
      <trkpt lat="43.99049" lon="7.2568">
        <ele>1021.799987793</ele>
        <time>2020-06-30T08:24:56.000Z</time>
      </trkpt>
      <trkpt lat="43.99052" lon="7.25677">
        <ele>1022.4000244141</ele>
        <time>2020-06-30T08:24:58.000Z</time>
      </trkpt>
      <trkpt lat="43.99058" lon="7.25674">
        <ele>1023.200012207</ele>
        <time>2020-06-30T08:25:02.000Z</time>
      </trkpt>
      <trkpt lat="43.99061" lon="7.25672">
        <ele>1023.5999755859</ele>
        <time>2020-06-30T08:25:04.000Z</time>
      </trkpt>
      <trkpt lat="43.99068" lon="7.25669">
        <ele>1024.1999511719</ele>
        <time>2020-06-30T08:25:08.000Z</time>
      </trkpt>
      <trkpt lat="43.9907" lon="7.25667">
        <ele>1024.5999755859</ele>
        <time>2020-06-30T08:25:10.000Z</time>
      </trkpt>
      <trkpt lat="43.99073" lon="7.25665">
        <ele>1024.8000488281</ele>
        <time>2020-06-30T08:25:12.000Z</time>
      </trkpt>
      <trkpt lat="43.99081" lon="7.25664">
        <ele>1025.1999511719</ele>
        <time>2020-06-30T08:25:17.000Z</time>
      </trkpt>
      <trkpt lat="43.99083" lon="7.25665">
        <ele>1025.5999755859</ele>
        <time>2020-06-30T08:25:19.000Z</time>
      </trkpt>
      <trkpt lat="43.99092" lon="7.2567">
        <ele>1026.4000244141</ele>
        <time>2020-06-30T08:25:25.000Z</time>
      </trkpt>
      <trkpt lat="43.99096" lon="7.25672">
        <ele>1026.8000488281</ele>
        <time>2020-06-30T08:25:28.000Z</time>
      </trkpt>
      <trkpt lat="43.99103" lon="7.25674">
        <ele>1027.1999511719</ele>
        <time>2020-06-30T08:25:32.000Z</time>
      </trkpt>
      <trkpt lat="43.99116" lon="7.25682">
        <ele>1027.8000488281</ele>
        <time>2020-06-30T08:25:39.000Z</time>
      </trkpt>
      <trkpt lat="43.9913" lon="7.25682">
        <ele>1028.1999511719</ele>
        <time>2020-06-30T08:25:46.000Z</time>
      </trkpt>
      <trkpt lat="43.99135" lon="7.25682">
        <ele>1028.8000488281</ele>
        <time>2020-06-30T08:25:49.000Z</time>
      </trkpt>
      <trkpt lat="43.99141" lon="7.25682">
        <ele>1029.1999511719</ele>
        <time>2020-06-30T08:25:52.000Z</time>
      </trkpt>
      <trkpt lat="43.99151" lon="7.25681">
        <ele>1029.5999755859</ele>
        <time>2020-06-30T08:25:57.000Z</time>
      </trkpt>
      <trkpt lat="43.99155" lon="7.25681">
        <ele>1029.8000488281</ele>
        <time>2020-06-30T08:25:59.000Z</time>
      </trkpt>
      <trkpt lat="43.99164" lon="7.25682">
        <ele>1030.1999511719</ele>
        <time>2020-06-30T08:26:03.000Z</time>
      </trkpt>
      <trkpt lat="43.99175" lon="7.25676">
        <ele>1030.5999755859</ele>
        <time>2020-06-30T08:26:08.000Z</time>
      </trkpt>
      <trkpt lat="43.9918" lon="7.25672">
        <ele>1031</ele>
        <time>2020-06-30T08:26:10.000Z</time>
      </trkpt>
      <trkpt lat="43.99187" lon="7.25668">
        <ele>1031.8000488281</ele>
        <time>2020-06-30T08:26:13.000Z</time>
      </trkpt>
      <trkpt lat="43.9919" lon="7.25667">
        <ele>1032.1999511719</ele>
        <time>2020-06-30T08:26:14.000Z</time>
      </trkpt>
      <trkpt lat="43.99206" lon="7.25658">
        <ele>1032.4000244141</ele>
        <time>2020-06-30T08:26:20.000Z</time>
      </trkpt>
      <trkpt lat="43.99229" lon="7.25645">
        <ele>1033</ele>
        <time>2020-06-30T08:26:30.000Z</time>
      </trkpt>
      <trkpt lat="43.99234" lon="7.25644">
        <ele>1033.1999511719</ele>
        <time>2020-06-30T08:26:32.000Z</time>
      </trkpt>
      <trkpt lat="43.9924" lon="7.25642">
        <ele>1033.5999755859</ele>
        <time>2020-06-30T08:26:35.000Z</time>
      </trkpt>
      <trkpt lat="43.99249" lon="7.25636">
        <ele>1034.1999511719</ele>
        <time>2020-06-30T08:26:41.000Z</time>
      </trkpt>
      <trkpt lat="43.9925" lon="7.25636">
        <ele>1034.4000244141</ele>
        <time>2020-06-30T08:26:42.000Z</time>
      </trkpt>
      <trkpt lat="43.99253" lon="7.25634">
        <ele>1034.4000244141</ele>
        <time>2020-06-30T08:26:44.000Z</time>
      </trkpt>
      <trkpt lat="43.99261" lon="7.25626">
        <ele>1034.8000488281</ele>
        <time>2020-06-30T08:26:49.000Z</time>
      </trkpt>
      <trkpt lat="43.99274" lon="7.25623">
        <ele>1035</ele>
        <time>2020-06-30T08:26:55.000Z</time>
      </trkpt>
      <trkpt lat="43.9928" lon="7.25612">
        <ele>1035.1999511719</ele>
        <time>2020-06-30T08:26:59.000Z</time>
      </trkpt>
      <trkpt lat="43.99283" lon="7.25606">
        <ele>1035.4000244141</ele>
        <time>2020-06-30T08:27:01.000Z</time>
      </trkpt>
      <trkpt lat="43.99285" lon="7.25603">
        <ele>1035.5999755859</ele>
        <time>2020-06-30T08:27:02.000Z</time>
      </trkpt>
      <trkpt lat="43.99289" lon="7.256">
        <ele>1035.8000488281</ele>
        <time>2020-06-30T08:27:04.000Z</time>
      </trkpt>
      <trkpt lat="43.99294" lon="7.256">
        <ele>1036.4000244141</ele>
        <time>2020-06-30T08:27:07.000Z</time>
      </trkpt>
      <trkpt lat="43.99295" lon="7.256">
        <ele>1036.5999755859</ele>
        <time>2020-06-30T08:27:08.000Z</time>
      </trkpt>
      <trkpt lat="43.99295" lon="7.25599">
        <ele>1037.4000244141</ele>
        <time>2020-06-30T08:27:13.000Z</time>
      </trkpt>
      <trkpt lat="43.99296" lon="7.25597">
        <ele>1037.5999755859</ele>
        <time>2020-06-30T08:27:19.000Z</time>
      </trkpt>
      <trkpt lat="43.99296" lon="7.25596">
        <ele>1037.8000488281</ele>
        <time>2020-06-30T08:27:23.000Z</time>
      </trkpt>
      <trkpt lat="43.99299" lon="7.25595">
        <ele>1037.5999755859</ele>
        <time>2020-06-30T08:27:37.000Z</time>
      </trkpt>
      <trkpt lat="43.99301" lon="7.25596">
        <ele>1038</ele>
        <time>2020-06-30T08:27:42.000Z</time>
      </trkpt>
      <trkpt lat="43.99303" lon="7.25597">
        <ele>1038.8000488281</ele>
        <time>2020-06-30T08:27:47.000Z</time>
      </trkpt>
      <trkpt lat="43.99304" lon="7.25597">
        <ele>1039</ele>
        <time>2020-06-30T08:27:49.000Z</time>
      </trkpt>
      <trkpt lat="43.99306" lon="7.25597">
        <ele>1040</ele>
        <time>2020-06-30T08:27:54.000Z</time>
      </trkpt>
      <trkpt lat="43.99308" lon="7.25597">
        <ele>1040.1999511719</ele>
        <time>2020-06-30T08:27:56.000Z</time>
      </trkpt>
      <trkpt lat="43.9931" lon="7.25598">
        <ele>1041.1999511719</ele>
        <time>2020-06-30T08:28:01.000Z</time>
      </trkpt>
      <trkpt lat="43.9931" lon="7.25598">
        <ele>1041.4000244141</ele>
        <time>2020-06-30T08:28:03.000Z</time>
      </trkpt>
      <trkpt lat="43.99314" lon="7.25599">
        <ele>1042.1999511719</ele>
        <time>2020-06-30T08:28:10.000Z</time>
      </trkpt>
      <trkpt lat="43.99315" lon="7.25599">
        <ele>1042.4000244141</ele>
        <time>2020-06-30T08:28:11.000Z</time>
      </trkpt>
      <trkpt lat="43.99316" lon="7.25596">
        <ele>1043.1999511719</ele>
        <time>2020-06-30T08:28:15.000Z</time>
      </trkpt>
      <trkpt lat="43.99316" lon="7.25595">
        <ele>1043.5999755859</ele>
        <time>2020-06-30T08:28:18.000Z</time>
      </trkpt>
      <trkpt lat="43.99316" lon="7.25594">
        <ele>1043.8000488281</ele>
        <time>2020-06-30T08:28:20.000Z</time>
      </trkpt>
      <trkpt lat="43.99318" lon="7.25587">
        <ele>1044</ele>
        <time>2020-06-30T08:28:23.000Z</time>
      </trkpt>
      <trkpt lat="43.99319" lon="7.25582">
        <ele>1044.4000244141</ele>
        <time>2020-06-30T08:28:25.000Z</time>
      </trkpt>
      <trkpt lat="43.99322" lon="7.25574">
        <ele>1045.8000488281</ele>
        <time>2020-06-30T08:28:29.000Z</time>
      </trkpt>
      <trkpt lat="43.99324" lon="7.25569">
        <ele>1046.8000488281</ele>
        <time>2020-06-30T08:28:32.000Z</time>
      </trkpt>
      <trkpt lat="43.99326" lon="7.25567">
        <ele>1047.1999511719</ele>
        <time>2020-06-30T08:28:33.000Z</time>
      </trkpt>
      <trkpt lat="43.99328" lon="7.25566">
        <ele>1048.1999511719</ele>
        <time>2020-06-30T08:28:35.000Z</time>
      </trkpt>
      <trkpt lat="43.99331" lon="7.25562">
        <ele>1049.4000244141</ele>
        <time>2020-06-30T08:28:38.000Z</time>
      </trkpt>
      <trkpt lat="43.99332" lon="7.2556">
        <ele>1049.8000488281</ele>
        <time>2020-06-30T08:28:39.000Z</time>
      </trkpt>
      <trkpt lat="43.99334" lon="7.25557">
        <ele>1050.4000244141</ele>
        <time>2020-06-30T08:28:41.000Z</time>
      </trkpt>
      <trkpt lat="43.99338" lon="7.25553">
        <ele>1051.4000244141</ele>
        <time>2020-06-30T08:28:44.000Z</time>
      </trkpt>
      <trkpt lat="43.9934" lon="7.25552">
        <ele>1051.5999755859</ele>
        <time>2020-06-30T08:28:45.000Z</time>
      </trkpt>
      <trkpt lat="43.99342" lon="7.25551">
        <ele>1051.8000488281</ele>
        <time>2020-06-30T08:28:46.000Z</time>
      </trkpt>
      <trkpt lat="43.99347" lon="7.2555">
        <ele>1052.5999755859</ele>
        <time>2020-06-30T08:28:49.000Z</time>
      </trkpt>
      <trkpt lat="43.99353" lon="7.25549">
        <ele>1054.4000244141</ele>
        <time>2020-06-30T08:28:52.000Z</time>
      </trkpt>
      <trkpt lat="43.99358" lon="7.25549">
        <ele>1055.5999755859</ele>
        <time>2020-06-30T08:28:55.000Z</time>
      </trkpt>
      <trkpt lat="43.99361" lon="7.25549">
        <ele>1056.4000244141</ele>
        <time>2020-06-30T08:28:57.000Z</time>
      </trkpt>
      <trkpt lat="43.99362" lon="7.25548">
        <ele>1056.8000488281</ele>
        <time>2020-06-30T08:28:58.000Z</time>
      </trkpt>
      <trkpt lat="43.99364" lon="7.25549">
        <ele>1057.1999511719</ele>
        <time>2020-06-30T08:28:59.000Z</time>
      </trkpt>
      <trkpt lat="43.99366" lon="7.25553">
        <ele>1057.8000488281</ele>
        <time>2020-06-30T08:29:01.000Z</time>
      </trkpt>
      <trkpt lat="43.99363" lon="7.25555">
        <ele>1058.4000244141</ele>
        <time>2020-06-30T08:29:03.000Z</time>
      </trkpt>
      <trkpt lat="43.99362" lon="7.25556">
        <ele>1058.8000488281</ele>
        <time>2020-06-30T08:29:04.000Z</time>
      </trkpt>
      <trkpt lat="43.99359" lon="7.25559">
        <ele>1059.8000488281</ele>
        <time>2020-06-30T08:29:07.000Z</time>
      </trkpt>
      <trkpt lat="43.99358" lon="7.2556">
        <ele>1060.1999511719</ele>
        <time>2020-06-30T08:29:08.000Z</time>
      </trkpt>
      <trkpt lat="43.99358" lon="7.25561">
        <ele>1061.1999511719</ele>
        <time>2020-06-30T08:29:10.000Z</time>
      </trkpt>
      <trkpt lat="43.99358" lon="7.25563">
        <ele>1062</ele>
        <time>2020-06-30T08:29:13.000Z</time>
      </trkpt>
      <trkpt lat="43.99358" lon="7.25562">
        <ele>1062.1999511719</ele>
        <time>2020-06-30T08:29:15.000Z</time>
      </trkpt>
      <trkpt lat="43.99359" lon="7.25562">
        <ele>1062.5999755859</ele>
        <time>2020-06-30T08:29:19.000Z</time>
      </trkpt>
      <trkpt lat="43.99361" lon="7.25562">
        <ele>1063</ele>
        <time>2020-06-30T08:29:24.000Z</time>
      </trkpt>
      <trkpt lat="43.99362" lon="7.25561">
        <ele>1063.4000244141</ele>
        <time>2020-06-30T08:29:27.000Z</time>
      </trkpt>
      <trkpt lat="43.99367" lon="7.25561">
        <ele>1063.4000244141</ele>
        <time>2020-06-30T08:29:29.000Z</time>
      </trkpt>
      <trkpt lat="43.99369" lon="7.25562">
        <ele>1063.8000488281</ele>
        <time>2020-06-30T08:29:31.000Z</time>
      </trkpt>
      <trkpt lat="43.99372" lon="7.25564">
        <ele>1064.5999755859</ele>
        <time>2020-06-30T08:29:33.000Z</time>
      </trkpt>
      <trkpt lat="43.99372" lon="7.25564">
        <ele>1064.8000488281</ele>
        <time>2020-06-30T08:29:34.000Z</time>
      </trkpt>
      <trkpt lat="43.99376" lon="7.25566">
        <ele>1065.5999755859</ele>
        <time>2020-06-30T08:29:36.000Z</time>
      </trkpt>
      <trkpt lat="43.99379" lon="7.25569">
        <ele>1066.8000488281</ele>
        <time>2020-06-30T08:29:39.000Z</time>
      </trkpt>
      <trkpt lat="43.9938" lon="7.2557">
        <ele>1068.1999511719</ele>
        <time>2020-06-30T08:29:42.000Z</time>
      </trkpt>
      <trkpt lat="43.9938" lon="7.25571">
        <ele>1068.5999755859</ele>
        <time>2020-06-30T08:29:43.000Z</time>
      </trkpt>
      <trkpt lat="43.99381" lon="7.25571">
        <ele>1069.1999511719</ele>
        <time>2020-06-30T08:29:44.000Z</time>
      </trkpt>
      <trkpt lat="43.99383" lon="7.25573">
        <ele>1069.8000488281</ele>
        <time>2020-06-30T08:29:48.000Z</time>
      </trkpt>
      <trkpt lat="43.99386" lon="7.25575">
        <ele>1070.1999511719</ele>
        <time>2020-06-30T08:29:51.000Z</time>
      </trkpt>
      <trkpt lat="43.99389" lon="7.25578">
        <ele>1071</ele>
        <time>2020-06-30T08:29:54.000Z</time>
      </trkpt>
      <trkpt lat="43.9939" lon="7.2558">
        <ele>1071.4000244141</ele>
        <time>2020-06-30T08:29:55.000Z</time>
      </trkpt>
      <trkpt lat="43.99392" lon="7.25581">
        <ele>1072.8000488281</ele>
        <time>2020-06-30T08:29:59.000Z</time>
      </trkpt>
      <trkpt lat="43.99393" lon="7.25582">
        <ele>1073.4000244141</ele>
        <time>2020-06-30T08:30:01.000Z</time>
      </trkpt>
      <trkpt lat="43.99393" lon="7.25582">
        <ele>1073.8000488281</ele>
        <time>2020-06-30T08:30:03.000Z</time>
      </trkpt>
      <trkpt lat="43.99393" lon="7.25582">
        <ele>1073.8000488281</ele>
        <time>2020-06-30T08:30:06.000Z</time>
      </trkpt>
      <trkpt lat="43.99392" lon="7.2558">
        <ele>1073.8000488281</ele>
        <time>2020-06-30T08:30:12.000Z</time>
      </trkpt>
      <trkpt lat="43.99394" lon="7.2558">
        <ele>1073.4000244141</ele>
        <time>2020-06-30T08:30:26.000Z</time>
      </trkpt>
      <trkpt lat="43.99394" lon="7.25579">
        <ele>1073.8000488281</ele>
        <time>2020-06-30T08:30:34.000Z</time>
      </trkpt>
      <trkpt lat="43.99395" lon="7.25576">
        <ele>1073.5999755859</ele>
        <time>2020-06-30T08:30:54.000Z</time>
      </trkpt>
      <trkpt lat="43.99395" lon="7.25575">
        <ele>1073.5999755859</ele>
        <time>2020-06-30T08:31:13.000Z</time>
      </trkpt>
      <trkpt lat="43.99396" lon="7.25576">
        <ele>1073.5999755859</ele>
        <time>2020-06-30T08:31:35.000Z</time>
      </trkpt>
      <trkpt lat="43.99396" lon="7.25577">
        <ele>1073.1999511719</ele>
        <time>2020-06-30T08:31:46.000Z</time>
      </trkpt>
      <trkpt lat="43.99395" lon="7.25577">
        <ele>1071.1999511719</ele>
        <time>2020-06-30T08:31:50.000Z</time>
      </trkpt>
      <trkpt lat="43.99395" lon="7.25578">
        <ele>1072.5999755859</ele>
        <time>2020-06-30T08:31:51.000Z</time>
      </trkpt>
      <trkpt lat="43.99395" lon="7.25578">
        <ele>1073.1999511719</ele>
        <time>2020-06-30T08:31:53.000Z</time>
      </trkpt>
      <trkpt lat="43.99396" lon="7.25579">
        <ele>1073.5999755859</ele>
        <time>2020-06-30T08:31:58.000Z</time>
      </trkpt>
      <trkpt lat="43.99398" lon="7.25581">
        <ele>1074</ele>
        <time>2020-06-30T08:32:02.000Z</time>
      </trkpt>
      <trkpt lat="43.99398" lon="7.25579">
        <ele>1074</ele>
        <time>2020-06-30T08:32:05.000Z</time>
      </trkpt>
      <trkpt lat="43.99398" lon="7.25579">
        <ele>1074.8000488281</ele>
        <time>2020-06-30T08:32:11.000Z</time>
      </trkpt>
      <trkpt lat="43.99399" lon="7.25579">
        <ele>1074.8000488281</ele>
        <time>2020-06-30T08:32:13.000Z</time>
      </trkpt>
      <trkpt lat="43.99399" lon="7.25577">
        <ele>1075.5999755859</ele>
        <time>2020-06-30T08:32:21.000Z</time>
      </trkpt>
      <trkpt lat="43.99399" lon="7.25576">
        <ele>1075.1999511719</ele>
        <time>2020-06-30T08:32:27.000Z</time>
      </trkpt>
      <trkpt lat="43.99401" lon="7.25575">
        <ele>1074.8000488281</ele>
        <time>2020-06-30T08:32:35.000Z</time>
      </trkpt>
      <trkpt lat="43.99402" lon="7.25576">
        <ele>1074</ele>
        <time>2020-06-30T08:32:41.000Z</time>
      </trkpt>
      <trkpt lat="43.99402" lon="7.25577">
        <ele>1073.8000488281</ele>
        <time>2020-06-30T08:32:43.000Z</time>
      </trkpt>
      <trkpt lat="43.99401" lon="7.25578">
        <ele>1073.5999755859</ele>
        <time>2020-06-30T08:32:48.000Z</time>
      </trkpt>
      <trkpt lat="43.99399" lon="7.2558">
        <ele>1070.5999755859</ele>
        <time>2020-06-30T08:32:54.000Z</time>
      </trkpt>
      <trkpt lat="43.99399" lon="7.2558">
        <ele>1065.8000488281</ele>
        <time>2020-06-30T08:32:55.000Z</time>
      </trkpt>
      <trkpt lat="43.99399" lon="7.25581">
        <ele>1061.4000244141</ele>
        <time>2020-06-30T08:32:56.000Z</time>
      </trkpt>
      <trkpt lat="43.99399" lon="7.25581">
        <ele>1057.8000488281</ele>
        <time>2020-06-30T08:32:57.000Z</time>
      </trkpt>
      <trkpt lat="43.99399" lon="7.25581">
        <ele>1055.4000244141</ele>
        <time>2020-06-30T08:32:58.000Z</time>
      </trkpt>
      <trkpt lat="43.99399" lon="7.25581">
        <ele>1058.8000488281</ele>
        <time>2020-06-30T08:33:00.000Z</time>
      </trkpt>
      <trkpt lat="43.99398" lon="7.25582">
        <ele>1061.4000244141</ele>
        <time>2020-06-30T08:33:01.000Z</time>
      </trkpt>
      <trkpt lat="43.99398" lon="7.25582">
        <ele>1063</ele>
        <time>2020-06-30T08:33:02.000Z</time>
      </trkpt>
      <trkpt lat="43.99399" lon="7.25581">
        <ele>1066.1999511719</ele>
        <time>2020-06-30T08:33:03.000Z</time>
      </trkpt>
      <trkpt lat="43.99398" lon="7.25582">
        <ele>1068.1999511719</ele>
        <time>2020-06-30T08:33:04.000Z</time>
      </trkpt>
      <trkpt lat="43.99399" lon="7.25582">
        <ele>1070.1999511719</ele>
        <time>2020-06-30T08:33:05.000Z</time>
      </trkpt>
      <trkpt lat="43.994" lon="7.25582">
        <ele>1073.1999511719</ele>
        <time>2020-06-30T08:33:06.000Z</time>
      </trkpt>
      <trkpt lat="43.994" lon="7.25582">
        <ele>1072</ele>
        <time>2020-06-30T08:33:08.000Z</time>
      </trkpt>
      <trkpt lat="43.99401" lon="7.25582">
        <ele>1071</ele>
        <time>2020-06-30T08:33:09.000Z</time>
      </trkpt>
      <trkpt lat="43.99401" lon="7.25582">
        <ele>1069.8000488281</ele>
        <time>2020-06-30T08:33:10.000Z</time>
      </trkpt>
      <trkpt lat="43.99401" lon="7.25582">
        <ele>1068.4000244141</ele>
        <time>2020-06-30T08:33:11.000Z</time>
      </trkpt>
      <trkpt lat="43.99402" lon="7.25582">
        <ele>1067.1999511719</ele>
        <time>2020-06-30T08:33:12.000Z</time>
      </trkpt>
      <trkpt lat="43.99402" lon="7.25582">
        <ele>1068.1999511719</ele>
        <time>2020-06-30T08:33:13.000Z</time>
      </trkpt>
      <trkpt lat="43.99402" lon="7.25582">
        <ele>1069.4000244141</ele>
        <time>2020-06-30T08:33:14.000Z</time>
      </trkpt>
      <trkpt lat="43.99402" lon="7.25582">
        <ele>1071.4000244141</ele>
        <time>2020-06-30T08:33:16.000Z</time>
      </trkpt>
      <trkpt lat="43.99402" lon="7.25582">
        <ele>1072.5999755859</ele>
        <time>2020-06-30T08:33:17.000Z</time>
      </trkpt>
      <trkpt lat="43.99402" lon="7.25582">
        <ele>1071.1999511719</ele>
        <time>2020-06-30T08:33:18.000Z</time>
      </trkpt>
      <trkpt lat="43.99402" lon="7.25581">
        <ele>1070.1999511719</ele>
        <time>2020-06-30T08:33:19.000Z</time>
      </trkpt>
      <trkpt lat="43.99403" lon="7.25582">
        <ele>1068.8000488281</ele>
        <time>2020-06-30T08:33:20.000Z</time>
      </trkpt>
      <trkpt lat="43.99403" lon="7.25582">
        <ele>1065.8000488281</ele>
        <time>2020-06-30T08:33:21.000Z</time>
      </trkpt>
      <trkpt lat="43.99403" lon="7.25582">
        <ele>1063.5999755859</ele>
        <time>2020-06-30T08:33:22.000Z</time>
      </trkpt>
      <trkpt lat="43.99403" lon="7.25582">
        <ele>1062</ele>
        <time>2020-06-30T08:33:23.000Z</time>
      </trkpt>
      <trkpt lat="43.99403" lon="7.25582">
        <ele>1060.5999755859</ele>
        <time>2020-06-30T08:33:24.000Z</time>
      </trkpt>
      <trkpt lat="43.99403" lon="7.25581">
        <ele>1058.4000244141</ele>
        <time>2020-06-30T08:33:25.000Z</time>
      </trkpt>
      <trkpt lat="43.99403" lon="7.25581">
        <ele>1057.8000488281</ele>
        <time>2020-06-30T08:33:29.000Z</time>
      </trkpt>
      <trkpt lat="43.99402" lon="7.25582">
        <ele>1057.1999511719</ele>
        <time>2020-06-30T08:33:31.000Z</time>
      </trkpt>
      <trkpt lat="43.99402" lon="7.25582">
        <ele>1058.4000244141</ele>
        <time>2020-06-30T08:33:36.000Z</time>
      </trkpt>
      <trkpt lat="43.99402" lon="7.25583">
        <ele>1057.4000244141</ele>
        <time>2020-06-30T08:33:45.000Z</time>
      </trkpt>
      <trkpt lat="43.99401" lon="7.25584">
        <ele>1057.1999511719</ele>
        <time>2020-06-30T08:33:51.000Z</time>
      </trkpt>
      <trkpt lat="43.99401" lon="7.25585">
        <ele>1057.5999755859</ele>
        <time>2020-06-30T08:34:03.000Z</time>
      </trkpt>
      <trkpt lat="43.99403" lon="7.25584">
        <ele>1058.5999755859</ele>
        <time>2020-06-30T08:34:13.000Z</time>
      </trkpt>
      <trkpt lat="43.99404" lon="7.25584">
        <ele>1059.4000244141</ele>
        <time>2020-06-30T08:34:17.000Z</time>
      </trkpt>
      <trkpt lat="43.99404" lon="7.25584">
        <ele>1059.5999755859</ele>
        <time>2020-06-30T08:34:18.000Z</time>
      </trkpt>
      <trkpt lat="43.99405" lon="7.25583">
        <ele>1060.5999755859</ele>
        <time>2020-06-30T08:34:24.000Z</time>
      </trkpt>
      <trkpt lat="43.99405" lon="7.25583">
        <ele>1060.8000488281</ele>
        <time>2020-06-30T08:34:25.000Z</time>
      </trkpt>
      <trkpt lat="43.99405" lon="7.25584">
        <ele>1059.1999511719</ele>
        <time>2020-06-30T08:34:40.000Z</time>
      </trkpt>
      <trkpt lat="43.99405" lon="7.25584">
        <ele>1058.8000488281</ele>
        <time>2020-06-30T08:34:41.000Z</time>
      </trkpt>
      <trkpt lat="43.99405" lon="7.25584">
        <ele>1057.4000244141</ele>
        <time>2020-06-30T08:34:43.000Z</time>
      </trkpt>
      <trkpt lat="43.99405" lon="7.25584">
        <ele>1060.5999755859</ele>
        <time>2020-06-30T08:34:44.000Z</time>
      </trkpt>
      <trkpt lat="43.99405" lon="7.25584">
        <ele>1064.1999511719</ele>
        <time>2020-06-30T08:34:45.000Z</time>
      </trkpt>
      <trkpt lat="43.99405" lon="7.25583">
        <ele>1067.8000488281</ele>
        <time>2020-06-30T08:34:46.000Z</time>
      </trkpt>
      <trkpt lat="43.99405" lon="7.25583">
        <ele>1071.4000244141</ele>
        <time>2020-06-30T08:34:47.000Z</time>
      </trkpt>
      <trkpt lat="43.99405" lon="7.25583">
        <ele>1075.1999511719</ele>
        <time>2020-06-30T08:34:48.000Z</time>
      </trkpt>
      <trkpt lat="43.99405" lon="7.25584">
        <ele>1074.1999511719</ele>
        <time>2020-06-30T08:34:50.000Z</time>
      </trkpt>
      <trkpt lat="43.99405" lon="7.25585">
        <ele>1074</ele>
        <time>2020-06-30T08:34:51.000Z</time>
      </trkpt>
      <trkpt lat="43.99405" lon="7.25585">
        <ele>1073.8000488281</ele>
        <time>2020-06-30T08:34:57.000Z</time>
      </trkpt>
      <trkpt lat="43.99404" lon="7.25585">
        <ele>1073.4000244141</ele>
        <time>2020-06-30T08:35:04.000Z</time>
      </trkpt>
      <trkpt lat="43.99403" lon="7.25584">
        <ele>1071.8000488281</ele>
        <time>2020-06-30T08:35:06.000Z</time>
      </trkpt>
      <trkpt lat="43.99403" lon="7.25584">
        <ele>1065.8000488281</ele>
        <time>2020-06-30T08:35:07.000Z</time>
      </trkpt>
      <trkpt lat="43.99403" lon="7.25584">
        <ele>1060.1999511719</ele>
        <time>2020-06-30T08:35:08.000Z</time>
      </trkpt>
      <trkpt lat="43.99403" lon="7.25584">
        <ele>1051.8000488281</ele>
        <time>2020-06-30T08:35:09.000Z</time>
      </trkpt>
      <trkpt lat="43.99402" lon="7.25584">
        <ele>1043.4000244141</ele>
        <time>2020-06-30T08:35:10.000Z</time>
      </trkpt>
      <trkpt lat="43.99402" lon="7.25583">
        <ele>1035.4000244141</ele>
        <time>2020-06-30T08:35:11.000Z</time>
      </trkpt>
      <trkpt lat="43.99402" lon="7.25583">
        <ele>1033.5999755859</ele>
        <time>2020-06-30T08:35:12.000Z</time>
      </trkpt>
      <trkpt lat="43.99402" lon="7.25583">
        <ele>1032</ele>
        <time>2020-06-30T08:35:13.000Z</time>
      </trkpt>
      <trkpt lat="43.99402" lon="7.25583">
        <ele>1035.5999755859</ele>
        <time>2020-06-30T08:35:15.000Z</time>
      </trkpt>
      <trkpt lat="43.99401" lon="7.25583">
        <ele>1036.1999511719</ele>
        <time>2020-06-30T08:35:17.000Z</time>
      </trkpt>
      <trkpt lat="43.99401" lon="7.25582">
        <ele>1033.5999755859</ele>
        <time>2020-06-30T08:35:20.000Z</time>
      </trkpt>
      <trkpt lat="43.99401" lon="7.25582">
        <ele>1032.4000244141</ele>
        <time>2020-06-30T08:35:26.000Z</time>
      </trkpt>
      <trkpt lat="43.99401" lon="7.25582">
        <ele>1031.4000244141</ele>
        <time>2020-06-30T08:35:28.000Z</time>
      </trkpt>
      <trkpt lat="43.994" lon="7.25582">
        <ele>1030.4000244141</ele>
        <time>2020-06-30T08:35:39.000Z</time>
      </trkpt>
      <trkpt lat="43.994" lon="7.25583">
        <ele>1030.5999755859</ele>
        <time>2020-06-30T08:35:42.000Z</time>
      </trkpt>
      <trkpt lat="43.994" lon="7.25583">
        <ele>1036.4000244141</ele>
        <time>2020-06-30T08:35:45.000Z</time>
      </trkpt>
      <trkpt lat="43.994" lon="7.25583">
        <ele>1044.8000488281</ele>
        <time>2020-06-30T08:35:46.000Z</time>
      </trkpt>
      <trkpt lat="43.994" lon="7.25583">
        <ele>1052.8000488281</ele>
        <time>2020-06-30T08:35:47.000Z</time>
      </trkpt>
      <trkpt lat="43.994" lon="7.25583">
        <ele>1061</ele>
        <time>2020-06-30T08:35:48.000Z</time>
      </trkpt>
      <trkpt lat="43.994" lon="7.25583">
        <ele>1069.4000244141</ele>
        <time>2020-06-30T08:35:49.000Z</time>
      </trkpt>
      <trkpt lat="43.994" lon="7.25583">
        <ele>1073</ele>
        <time>2020-06-30T08:35:50.000Z</time>
      </trkpt>
      <trkpt lat="43.994" lon="7.25583">
        <ele>1071</ele>
        <time>2020-06-30T08:35:53.000Z</time>
      </trkpt>
      <trkpt lat="43.99401" lon="7.25583">
        <ele>1066.5999755859</ele>
        <time>2020-06-30T08:35:54.000Z</time>
      </trkpt>
      <trkpt lat="43.99401" lon="7.25583">
        <ele>1059.5999755859</ele>
        <time>2020-06-30T08:35:55.000Z</time>
      </trkpt>
      <trkpt lat="43.99401" lon="7.25583">
        <ele>1052</ele>
        <time>2020-06-30T08:35:56.000Z</time>
      </trkpt>
      <trkpt lat="43.99401" lon="7.25583">
        <ele>1041.1999511719</ele>
        <time>2020-06-30T08:35:57.000Z</time>
      </trkpt>
      <trkpt lat="43.99401" lon="7.25583">
        <ele>1036</ele>
        <time>2020-06-30T08:35:58.000Z</time>
      </trkpt>
      <trkpt lat="43.99401" lon="7.25583">
        <ele>1033</ele>
        <time>2020-06-30T08:35:59.000Z</time>
      </trkpt>
      <trkpt lat="43.99401" lon="7.25583">
        <ele>1031.8000488281</ele>
        <time>2020-06-30T08:36:01.000Z</time>
      </trkpt>
      <trkpt lat="43.99401" lon="7.25583">
        <ele>1033.4000244141</ele>
        <time>2020-06-30T08:36:04.000Z</time>
      </trkpt>
      <trkpt lat="43.99401" lon="7.25583">
        <ele>1034.8000488281</ele>
        <time>2020-06-30T08:36:05.000Z</time>
      </trkpt>
      <trkpt lat="43.99401" lon="7.25584">
        <ele>1036.8000488281</ele>
        <time>2020-06-30T08:36:06.000Z</time>
      </trkpt>
      <trkpt lat="43.99401" lon="7.25584">
        <ele>1038.5999755859</ele>
        <time>2020-06-30T08:36:07.000Z</time>
      </trkpt>
      <trkpt lat="43.99401" lon="7.25584">
        <ele>1040</ele>
        <time>2020-06-30T08:36:08.000Z</time>
      </trkpt>
      <trkpt lat="43.99401" lon="7.25584">
        <ele>1037.4000244141</ele>
        <time>2020-06-30T08:36:10.000Z</time>
      </trkpt>
      <trkpt lat="43.99401" lon="7.25584">
        <ele>1035.4000244141</ele>
        <time>2020-06-30T08:36:11.000Z</time>
      </trkpt>
      <trkpt lat="43.99401" lon="7.25584">
        <ele>1032.4000244141</ele>
        <time>2020-06-30T08:36:12.000Z</time>
      </trkpt>
      <trkpt lat="43.99401" lon="7.25584">
        <ele>1029.8000488281</ele>
        <time>2020-06-30T08:36:13.000Z</time>
      </trkpt>
      <trkpt lat="43.99401" lon="7.25584">
        <ele>1026.4000244141</ele>
        <time>2020-06-30T08:36:14.000Z</time>
      </trkpt>
      <trkpt lat="43.99402" lon="7.25584">
        <ele>1025</ele>
        <time>2020-06-30T08:36:15.000Z</time>
      </trkpt>
      <trkpt lat="43.99401" lon="7.25583">
        <ele>1026.4000244141</ele>
        <time>2020-06-30T08:36:20.000Z</time>
      </trkpt>
      <trkpt lat="43.99401" lon="7.25583">
        <ele>1027.5999755859</ele>
        <time>2020-06-30T08:36:22.000Z</time>
      </trkpt>
      <trkpt lat="43.99402" lon="7.25584">
        <ele>1025.8000488281</ele>
        <time>2020-06-30T08:36:25.000Z</time>
      </trkpt>
      <trkpt lat="43.99402" lon="7.25584">
        <ele>1024.5999755859</ele>
        <time>2020-06-30T08:36:26.000Z</time>
      </trkpt>
      <trkpt lat="43.99402" lon="7.25584">
        <ele>1023.4000244141</ele>
        <time>2020-06-30T08:36:27.000Z</time>
      </trkpt>
      <trkpt lat="43.99402" lon="7.25584">
        <ele>1021.5999755859</ele>
        <time>2020-06-30T08:36:28.000Z</time>
      </trkpt>
      <trkpt lat="43.99401" lon="7.25581">
        <ele>1019.799987793</ele>
        <time>2020-06-30T08:36:37.000Z</time>
      </trkpt>
      <trkpt lat="43.99401" lon="7.25581">
        <ele>1018.5999755859</ele>
        <time>2020-06-30T08:36:38.000Z</time>
      </trkpt>
      <trkpt lat="43.994" lon="7.25581">
        <ele>1017.4000244141</ele>
        <time>2020-06-30T08:36:39.000Z</time>
      </trkpt>
      <trkpt lat="43.994" lon="7.25581">
        <ele>1019.4000244141</ele>
        <time>2020-06-30T08:36:40.000Z</time>
      </trkpt>
      <trkpt lat="43.99399" lon="7.2558">
        <ele>1034</ele>
        <time>2020-06-30T08:36:41.000Z</time>
      </trkpt>
      <trkpt lat="43.99398" lon="7.2558">
        <ele>1045.5999755859</ele>
        <time>2020-06-30T08:36:42.000Z</time>
      </trkpt>
      <trkpt lat="43.99398" lon="7.2558">
        <ele>1053.4000244141</ele>
        <time>2020-06-30T08:36:43.000Z</time>
      </trkpt>
      <trkpt lat="43.99398" lon="7.25579">
        <ele>1065</ele>
        <time>2020-06-30T08:36:44.000Z</time>
      </trkpt>
      <trkpt lat="43.99398" lon="7.25578">
        <ele>1073.4000244141</ele>
        <time>2020-06-30T08:36:45.000Z</time>
      </trkpt>
      <trkpt lat="43.99398" lon="7.25578">
        <ele>1072.4000244141</ele>
        <time>2020-06-30T08:36:47.000Z</time>
      </trkpt>
      <trkpt lat="43.99397" lon="7.25578">
        <ele>1072</ele>
        <time>2020-06-30T08:36:53.000Z</time>
      </trkpt>
      <trkpt lat="43.99398" lon="7.25579">
        <ele>1071.5999755859</ele>
        <time>2020-06-30T08:37:05.000Z</time>
      </trkpt>
      <trkpt lat="43.99397" lon="7.25579">
        <ele>1071.5999755859</ele>
        <time>2020-06-30T08:37:12.000Z</time>
      </trkpt>
      <trkpt lat="43.99398" lon="7.25579">
        <ele>1071.8000488281</ele>
        <time>2020-06-30T08:37:22.000Z</time>
      </trkpt>
      <trkpt lat="43.99399" lon="7.25581">
        <ele>1071.8000488281</ele>
        <time>2020-06-30T08:37:23.000Z</time>
      </trkpt>
      <trkpt lat="43.99399" lon="7.25582">
        <ele>1072</ele>
        <time>2020-06-30T08:37:28.000Z</time>
      </trkpt>
      <trkpt lat="43.994" lon="7.25579">
        <ele>1071.8000488281</ele>
        <time>2020-06-30T08:37:39.000Z</time>
      </trkpt>
      <trkpt lat="43.99401" lon="7.25578">
        <ele>1072.1999511719</ele>
        <time>2020-06-30T08:37:47.000Z</time>
      </trkpt>
      <trkpt lat="43.99401" lon="7.25574">
        <ele>1072</ele>
        <time>2020-06-30T08:37:56.000Z</time>
      </trkpt>
      <trkpt lat="43.99401" lon="7.25574">
        <ele>1072.1999511719</ele>
        <time>2020-06-30T08:38:03.000Z</time>
      </trkpt>
      <trkpt lat="43.99401" lon="7.25575">
        <ele>1072.4000244141</ele>
        <time>2020-06-30T08:38:12.000Z</time>
      </trkpt>
      <trkpt lat="43.994" lon="7.25575">
        <ele>1072.4000244141</ele>
        <time>2020-06-30T08:38:13.000Z</time>
      </trkpt>
      <trkpt lat="43.99399" lon="7.25575">
        <ele>1072.4000244141</ele>
        <time>2020-06-30T08:38:17.000Z</time>
      </trkpt>
      <trkpt lat="43.99396" lon="7.25575">
        <ele>1072.5999755859</ele>
        <time>2020-06-30T08:38:25.000Z</time>
      </trkpt>
      <trkpt lat="43.9939" lon="7.25577">
        <ele>1073.1999511719</ele>
        <time>2020-06-30T08:38:29.000Z</time>
      </trkpt>
      <trkpt lat="43.99389" lon="7.25577">
        <ele>1073.4000244141</ele>
        <time>2020-06-30T08:38:30.000Z</time>
      </trkpt>
      <trkpt lat="43.99383" lon="7.25581">
        <ele>1074.5999755859</ele>
        <time>2020-06-30T08:38:34.000Z</time>
      </trkpt>
      <trkpt lat="43.99381" lon="7.25582">
        <ele>1074.8000488281</ele>
        <time>2020-06-30T08:38:35.000Z</time>
      </trkpt>
      <trkpt lat="43.99373" lon="7.25593">
        <ele>1074.8000488281</ele>
        <time>2020-06-30T08:38:40.000Z</time>
      </trkpt>
      <trkpt lat="43.99371" lon="7.25609">
        <ele>1075.1999511719</ele>
        <time>2020-06-30T08:38:46.000Z</time>
      </trkpt>
      <trkpt lat="43.99369" lon="7.25619">
        <ele>1075.5999755859</ele>
        <time>2020-06-30T08:38:50.000Z</time>
      </trkpt>
      <trkpt lat="43.99368" lon="7.2562">
        <ele>1075.4000244141</ele>
        <time>2020-06-30T08:38:51.000Z</time>
      </trkpt>
      <trkpt lat="43.99368" lon="7.25628">
        <ele>1075.1999511719</ele>
        <time>2020-06-30T08:38:55.000Z</time>
      </trkpt>
      <trkpt lat="43.99367" lon="7.25635">
        <ele>1075.4000244141</ele>
        <time>2020-06-30T08:38:58.000Z</time>
      </trkpt>
      <trkpt lat="43.99363" lon="7.25637">
        <ele>1075.5999755859</ele>
        <time>2020-06-30T08:39:00.000Z</time>
      </trkpt>
      <trkpt lat="43.99353" lon="7.25641">
        <ele>1076.5999755859</ele>
        <time>2020-06-30T08:39:06.000Z</time>
      </trkpt>
      <trkpt lat="43.99345" lon="7.25646">
        <ele>1077.4000244141</ele>
        <time>2020-06-30T08:39:11.000Z</time>
      </trkpt>
      <trkpt lat="43.99344" lon="7.25647">
        <ele>1077.5999755859</ele>
        <time>2020-06-30T08:39:12.000Z</time>
      </trkpt>
      <trkpt lat="43.99338" lon="7.25651">
        <ele>1078</ele>
        <time>2020-06-30T08:39:15.000Z</time>
      </trkpt>
      <trkpt lat="43.99334" lon="7.25654">
        <ele>1078</ele>
        <time>2020-06-30T08:39:17.000Z</time>
      </trkpt>
      <trkpt lat="43.99325" lon="7.25665">
        <ele>1077</ele>
        <time>2020-06-30T08:39:22.000Z</time>
      </trkpt>
      <trkpt lat="43.99325" lon="7.25667">
        <ele>1076.5999755859</ele>
        <time>2020-06-30T08:39:24.000Z</time>
      </trkpt>
      <trkpt lat="43.99324" lon="7.25668">
        <ele>1076.5999755859</ele>
        <time>2020-06-30T08:39:25.000Z</time>
      </trkpt>
      <trkpt lat="43.99318" lon="7.25678">
        <ele>1077</ele>
        <time>2020-06-30T08:39:30.000Z</time>
      </trkpt>
      <trkpt lat="43.99315" lon="7.25681">
        <ele>1077.5999755859</ele>
        <time>2020-06-30T08:39:33.000Z</time>
      </trkpt>
      <trkpt lat="43.99313" lon="7.25684">
        <ele>1078</ele>
        <time>2020-06-30T08:39:35.000Z</time>
      </trkpt>
      <trkpt lat="43.9931" lon="7.25688">
        <ele>1078.8000488281</ele>
        <time>2020-06-30T08:39:38.000Z</time>
      </trkpt>
      <trkpt lat="43.99307" lon="7.25691">
        <ele>1079.1999511719</ele>
        <time>2020-06-30T08:39:40.000Z</time>
      </trkpt>
      <trkpt lat="43.99294" lon="7.25692">
        <ele>1079</ele>
        <time>2020-06-30T08:39:45.000Z</time>
      </trkpt>
      <trkpt lat="43.99286" lon="7.25693">
        <ele>1078.1999511719</ele>
        <time>2020-06-30T08:39:49.000Z</time>
      </trkpt>
      <trkpt lat="43.99276" lon="7.25702">
        <ele>1077.8000488281</ele>
        <time>2020-06-30T08:39:52.000Z</time>
      </trkpt>
      <trkpt lat="43.99273" lon="7.25703">
        <ele>1077.5999755859</ele>
        <time>2020-06-30T08:39:53.000Z</time>
      </trkpt>
      <trkpt lat="43.99257" lon="7.2571">
        <ele>1076.4000244141</ele>
        <time>2020-06-30T08:39:57.000Z</time>
      </trkpt>
      <trkpt lat="43.99249" lon="7.25713">
        <ele>1075.5999755859</ele>
        <time>2020-06-30T08:39:59.000Z</time>
      </trkpt>
      <trkpt lat="43.99244" lon="7.25715">
        <ele>1075.4000244141</ele>
        <time>2020-06-30T08:40:00.000Z</time>
      </trkpt>
      <trkpt lat="43.99236" lon="7.25725">
        <ele>1075.1999511719</ele>
        <time>2020-06-30T08:40:03.000Z</time>
      </trkpt>
      <trkpt lat="43.9923" lon="7.25731">
        <ele>1075</ele>
        <time>2020-06-30T08:40:05.000Z</time>
      </trkpt>
      <trkpt lat="43.99223" lon="7.2574">
        <ele>1074.8000488281</ele>
        <time>2020-06-30T08:40:08.000Z</time>
      </trkpt>
      <trkpt lat="43.99211" lon="7.25747">
        <ele>1075</ele>
        <time>2020-06-30T08:40:13.000Z</time>
      </trkpt>
      <trkpt lat="43.992" lon="7.25747">
        <ele>1075.1999511719</ele>
        <time>2020-06-30T08:40:17.000Z</time>
      </trkpt>
      <trkpt lat="43.99197" lon="7.25745">
        <ele>1075.1999511719</ele>
        <time>2020-06-30T08:40:18.000Z</time>
      </trkpt>
      <trkpt lat="43.99184" lon="7.25746">
        <ele>1074.4000244141</ele>
        <time>2020-06-30T08:40:23.000Z</time>
      </trkpt>
      <trkpt lat="43.99169" lon="7.25749">
        <ele>1076.4000244141</ele>
        <time>2020-06-30T08:40:30.000Z</time>
      </trkpt>
      <trkpt lat="43.99157" lon="7.25746">
        <ele>1076.8000488281</ele>
        <time>2020-06-30T08:40:36.000Z</time>
      </trkpt>
      <trkpt lat="43.99149" lon="7.25749">
        <ele>1076.4000244141</ele>
        <time>2020-06-30T08:40:41.000Z</time>
      </trkpt>
      <trkpt lat="43.99143" lon="7.25755">
        <ele>1078</ele>
        <time>2020-06-30T08:40:45.000Z</time>
      </trkpt>
      <trkpt lat="43.99142" lon="7.25756">
        <ele>1078.4000244141</ele>
        <time>2020-06-30T08:40:46.000Z</time>
      </trkpt>
      <trkpt lat="43.99142" lon="7.25757">
        <ele>1078.8000488281</ele>
        <time>2020-06-30T08:40:47.000Z</time>
      </trkpt>
      <trkpt lat="43.99141" lon="7.25759">
        <ele>1079.1999511719</ele>
        <time>2020-06-30T08:40:48.000Z</time>
      </trkpt>
      <trkpt lat="43.99139" lon="7.25766">
        <ele>1079.5999755859</ele>
        <time>2020-06-30T08:40:51.000Z</time>
      </trkpt>
      <trkpt lat="43.99135" lon="7.25787">
        <ele>1078.5999755859</ele>
        <time>2020-06-30T08:40:58.000Z</time>
      </trkpt>
      <trkpt lat="43.99137" lon="7.25796">
        <ele>1078.1999511719</ele>
        <time>2020-06-30T08:41:01.000Z</time>
      </trkpt>
      <trkpt lat="43.99139" lon="7.25806">
        <ele>1078.4000244141</ele>
        <time>2020-06-30T08:41:04.000Z</time>
      </trkpt>
      <trkpt lat="43.99142" lon="7.25818">
        <ele>1077.8000488281</ele>
        <time>2020-06-30T08:41:08.000Z</time>
      </trkpt>
      <trkpt lat="43.99145" lon="7.25836">
        <ele>1078.4000244141</ele>
        <time>2020-06-30T08:41:14.000Z</time>
      </trkpt>
      <trkpt lat="43.99149" lon="7.2585">
        <ele>1078.4000244141</ele>
        <time>2020-06-30T08:41:19.000Z</time>
      </trkpt>
      <trkpt lat="43.99149" lon="7.25865">
        <ele>1078.5999755859</ele>
        <time>2020-06-30T08:41:23.000Z</time>
      </trkpt>
      <trkpt lat="43.99151" lon="7.2588">
        <ele>1078</ele>
        <time>2020-06-30T08:41:28.000Z</time>
      </trkpt>
      <trkpt lat="43.99149" lon="7.25894">
        <ele>1079.1999511719</ele>
        <time>2020-06-30T08:41:34.000Z</time>
      </trkpt>
      <trkpt lat="43.99148" lon="7.25896">
        <ele>1079.4000244141</ele>
        <time>2020-06-30T08:41:35.000Z</time>
      </trkpt>
      <trkpt lat="43.99141" lon="7.25909">
        <ele>1080</ele>
        <time>2020-06-30T08:41:41.000Z</time>
      </trkpt>
      <trkpt lat="43.99138" lon="7.2592">
        <ele>1080.5999755859</ele>
        <time>2020-06-30T08:41:46.000Z</time>
      </trkpt>
      <trkpt lat="43.99139" lon="7.25926">
        <ele>1080.5999755859</ele>
        <time>2020-06-30T08:41:48.000Z</time>
      </trkpt>
      <trkpt lat="43.99143" lon="7.25937">
        <ele>1081</ele>
        <time>2020-06-30T08:41:53.000Z</time>
      </trkpt>
      <trkpt lat="43.99145" lon="7.25943">
        <ele>1081.5999755859</ele>
        <time>2020-06-30T08:41:56.000Z</time>
      </trkpt>
      <trkpt lat="43.99145" lon="7.25945">
        <ele>1081.8000488281</ele>
        <time>2020-06-30T08:41:57.000Z</time>
      </trkpt>
      <trkpt lat="43.99146" lon="7.25962">
        <ele>1082.1999511719</ele>
        <time>2020-06-30T08:42:03.000Z</time>
      </trkpt>
      <trkpt lat="43.99146" lon="7.25978">
        <ele>1082.4000244141</ele>
        <time>2020-06-30T08:42:09.000Z</time>
      </trkpt>
      <trkpt lat="43.99145" lon="7.25983">
        <ele>1082.5999755859</ele>
        <time>2020-06-30T08:42:11.000Z</time>
      </trkpt>
      <trkpt lat="43.99144" lon="7.25988">
        <ele>1083.5999755859</ele>
        <time>2020-06-30T08:42:14.000Z</time>
      </trkpt>
      <trkpt lat="43.99143" lon="7.25991">
        <ele>1084</ele>
        <time>2020-06-30T08:42:15.000Z</time>
      </trkpt>
      <trkpt lat="43.99145" lon="7.26001">
        <ele>1085</ele>
        <time>2020-06-30T08:42:19.000Z</time>
      </trkpt>
      <trkpt lat="43.99146" lon="7.26001">
        <ele>1085</ele>
        <time>2020-06-30T08:42:20.000Z</time>
      </trkpt>
      <trkpt lat="43.99147" lon="7.26002">
        <ele>1085.8000488281</ele>
        <time>2020-06-30T08:42:23.000Z</time>
      </trkpt>
      <trkpt lat="43.99147" lon="7.26002">
        <ele>1086</ele>
        <time>2020-06-30T08:42:24.000Z</time>
      </trkpt>
      <trkpt lat="43.99147" lon="7.26002">
        <ele>1086.8000488281</ele>
        <time>2020-06-30T08:42:34.000Z</time>
      </trkpt>
      <trkpt lat="43.99149" lon="7.26004">
        <ele>1086.8000488281</ele>
        <time>2020-06-30T08:42:40.000Z</time>
      </trkpt>
      <trkpt lat="43.99151" lon="7.26006">
        <ele>1087</ele>
        <time>2020-06-30T08:42:42.000Z</time>
      </trkpt>
      <trkpt lat="43.99156" lon="7.26009">
        <ele>1087.8000488281</ele>
        <time>2020-06-30T08:42:46.000Z</time>
      </trkpt>
      <trkpt lat="43.99157" lon="7.26011">
        <ele>1088.1999511719</ele>
        <time>2020-06-30T08:42:47.000Z</time>
      </trkpt>
      <trkpt lat="43.99163" lon="7.26014">
        <ele>1089.4000244141</ele>
        <time>2020-06-30T08:42:51.000Z</time>
      </trkpt>
      <trkpt lat="43.99169" lon="7.2602">
        <ele>1090.5999755859</ele>
        <time>2020-06-30T08:42:56.000Z</time>
      </trkpt>
      <trkpt lat="43.99171" lon="7.26023">
        <ele>1091</ele>
        <time>2020-06-30T08:42:58.000Z</time>
      </trkpt>
      <trkpt lat="43.99175" lon="7.26027">
        <ele>1091.5999755859</ele>
        <time>2020-06-30T08:43:01.000Z</time>
      </trkpt>
      <trkpt lat="43.99178" lon="7.26028">
        <ele>1092.1999511719</ele>
        <time>2020-06-30T08:43:03.000Z</time>
      </trkpt>
      <trkpt lat="43.9918" lon="7.26029">
        <ele>1093</ele>
        <time>2020-06-30T08:43:05.000Z</time>
      </trkpt>
      <trkpt lat="43.99182" lon="7.26031">
        <ele>1093.8000488281</ele>
        <time>2020-06-30T08:43:07.000Z</time>
      </trkpt>
      <trkpt lat="43.99181" lon="7.26031">
        <ele>1094.1999511719</ele>
        <time>2020-06-30T08:43:09.000Z</time>
      </trkpt>
      <trkpt lat="43.99182" lon="7.26032">
        <ele>1094.4000244141</ele>
        <time>2020-06-30T08:43:12.000Z</time>
      </trkpt>
      <trkpt lat="43.99182" lon="7.26041">
        <ele>1094.4000244141</ele>
        <time>2020-06-30T08:43:17.000Z</time>
      </trkpt>
      <trkpt lat="43.9918" lon="7.2605">
        <ele>1094</ele>
        <time>2020-06-30T08:43:21.000Z</time>
      </trkpt>
      <trkpt lat="43.9918" lon="7.26051">
        <ele>1094.1999511719</ele>
        <time>2020-06-30T08:43:23.000Z</time>
      </trkpt>
      <trkpt lat="43.99179" lon="7.26053">
        <ele>1094.1999511719</ele>
        <time>2020-06-30T08:43:28.000Z</time>
      </trkpt>
      <trkpt lat="43.99176" lon="7.26056">
        <ele>1095</ele>
        <time>2020-06-30T08:43:34.000Z</time>
      </trkpt>
      <trkpt lat="43.99175" lon="7.26057">
        <ele>1095.1999511719</ele>
        <time>2020-06-30T08:43:36.000Z</time>
      </trkpt>
      <trkpt lat="43.99175" lon="7.26058">
        <ele>1095.4000244141</ele>
        <time>2020-06-30T08:43:40.000Z</time>
      </trkpt>
      <trkpt lat="43.99176" lon="7.26064">
        <ele>1095.4000244141</ele>
        <time>2020-06-30T08:43:46.000Z</time>
      </trkpt>
      <trkpt lat="43.99179" lon="7.26068">
        <ele>1095</ele>
        <time>2020-06-30T08:43:52.000Z</time>
      </trkpt>
      <trkpt lat="43.99181" lon="7.26073">
        <ele>1095.5999755859</ele>
        <time>2020-06-30T08:43:59.000Z</time>
      </trkpt>
      <trkpt lat="43.99183" lon="7.26079">
        <ele>1095.8000488281</ele>
        <time>2020-06-30T08:44:05.000Z</time>
      </trkpt>
      <trkpt lat="43.99184" lon="7.26081">
        <ele>1096</ele>
        <time>2020-06-30T08:44:10.000Z</time>
      </trkpt>
      <trkpt lat="43.99184" lon="7.26083">
        <ele>1096.4000244141</ele>
        <time>2020-06-30T08:44:12.000Z</time>
      </trkpt>
      <trkpt lat="43.99185" lon="7.26085">
        <ele>1096.4000244141</ele>
        <time>2020-06-30T08:44:16.000Z</time>
      </trkpt>
      <trkpt lat="43.99187" lon="7.26089">
        <ele>1097</ele>
        <time>2020-06-30T08:44:24.000Z</time>
      </trkpt>
      <trkpt lat="43.99187" lon="7.26096">
        <ele>1097.1999511719</ele>
        <time>2020-06-30T08:44:29.000Z</time>
      </trkpt>
      <trkpt lat="43.9919" lon="7.26101">
        <ele>1097.4000244141</ele>
        <time>2020-06-30T08:44:34.000Z</time>
      </trkpt>
      <trkpt lat="43.99191" lon="7.26105">
        <ele>1097.5999755859</ele>
        <time>2020-06-30T08:44:36.000Z</time>
      </trkpt>
      <trkpt lat="43.99192" lon="7.2611">
        <ele>1098.1999511719</ele>
        <time>2020-06-30T08:44:40.000Z</time>
      </trkpt>
      <trkpt lat="43.99192" lon="7.26112">
        <ele>1098.1999511719</ele>
        <time>2020-06-30T08:44:41.000Z</time>
      </trkpt>
      <trkpt lat="43.99192" lon="7.26113">
        <ele>1098.4000244141</ele>
        <time>2020-06-30T08:44:42.000Z</time>
      </trkpt>
      <trkpt lat="43.99193" lon="7.26114">
        <ele>1098.5999755859</ele>
        <time>2020-06-30T08:44:43.000Z</time>
      </trkpt>
      <trkpt lat="43.99195" lon="7.26116">
        <ele>1099</ele>
        <time>2020-06-30T08:44:46.000Z</time>
      </trkpt>
      <trkpt lat="43.99204" lon="7.26125">
        <ele>1099</ele>
        <time>2020-06-30T08:44:50.000Z</time>
      </trkpt>
      <trkpt lat="43.99208" lon="7.26132">
        <ele>1099.4000244141</ele>
        <time>2020-06-30T08:44:56.000Z</time>
      </trkpt>
      <trkpt lat="43.99209" lon="7.26133">
        <ele>1100.5999755859</ele>
        <time>2020-06-30T08:45:01.000Z</time>
      </trkpt>
      <trkpt lat="43.9921" lon="7.26135">
        <ele>1100.5999755859</ele>
        <time>2020-06-30T08:45:07.000Z</time>
      </trkpt>
      <trkpt lat="43.99215" lon="7.26141">
        <ele>1101.5999755859</ele>
        <time>2020-06-30T08:45:13.000Z</time>
      </trkpt>
      <trkpt lat="43.99215" lon="7.2614">
        <ele>1102.8000488281</ele>
        <time>2020-06-30T08:45:17.000Z</time>
      </trkpt>
      <trkpt lat="43.99216" lon="7.26144">
        <ele>1103.1999511719</ele>
        <time>2020-06-30T08:45:26.000Z</time>
      </trkpt>
      <trkpt lat="43.99218" lon="7.26147">
        <ele>1103.8000488281</ele>
        <time>2020-06-30T08:45:30.000Z</time>
      </trkpt>
      <trkpt lat="43.99221" lon="7.2615">
        <ele>1105</ele>
        <time>2020-06-30T08:45:35.000Z</time>
      </trkpt>
      <trkpt lat="43.99223" lon="7.26151">
        <ele>1106</ele>
        <time>2020-06-30T08:45:39.000Z</time>
      </trkpt>
      <trkpt lat="43.99226" lon="7.26153">
        <ele>1106.5999755859</ele>
        <time>2020-06-30T08:45:43.000Z</time>
      </trkpt>
      <trkpt lat="43.99228" lon="7.26153">
        <ele>1107</ele>
        <time>2020-06-30T08:45:45.000Z</time>
      </trkpt>
      <trkpt lat="43.99228" lon="7.26153">
        <ele>1107.5999755859</ele>
        <time>2020-06-30T08:45:50.000Z</time>
      </trkpt>
      <trkpt lat="43.99232" lon="7.26153">
        <ele>1107.4000244141</ele>
        <time>2020-06-30T08:46:03.000Z</time>
      </trkpt>
      <trkpt lat="43.99237" lon="7.26156">
        <ele>1108</ele>
        <time>2020-06-30T08:46:09.000Z</time>
      </trkpt>
      <trkpt lat="43.99238" lon="7.26159">
        <ele>1108.4000244141</ele>
        <time>2020-06-30T08:46:14.000Z</time>
      </trkpt>
      <trkpt lat="43.99241" lon="7.2616">
        <ele>1109.1999511719</ele>
        <time>2020-06-30T08:46:18.000Z</time>
      </trkpt>
      <trkpt lat="43.99242" lon="7.26162">
        <ele>1109.1999511719</ele>
        <time>2020-06-30T08:46:20.000Z</time>
      </trkpt>
      <trkpt lat="43.99243" lon="7.26163">
        <ele>1109.1999511719</ele>
        <time>2020-06-30T08:46:21.000Z</time>
      </trkpt>
      <trkpt lat="43.99244" lon="7.26165">
        <ele>1108.5999755859</ele>
        <time>2020-06-30T08:46:27.000Z</time>
      </trkpt>
      <trkpt lat="43.99252" lon="7.26171">
        <ele>1108.5999755859</ele>
        <time>2020-06-30T08:46:32.000Z</time>
      </trkpt>
      <trkpt lat="43.99255" lon="7.26176">
        <ele>1108.1999511719</ele>
        <time>2020-06-30T08:46:35.000Z</time>
      </trkpt>
      <trkpt lat="43.99255" lon="7.26178">
        <ele>1108.1999511719</ele>
        <time>2020-06-30T08:46:36.000Z</time>
      </trkpt>
      <trkpt lat="43.99257" lon="7.26191">
        <ele>1108</ele>
        <time>2020-06-30T08:46:41.000Z</time>
      </trkpt>
      <trkpt lat="43.9926" lon="7.26194">
        <ele>1108</ele>
        <time>2020-06-30T08:46:43.000Z</time>
      </trkpt>
      <trkpt lat="43.99265" lon="7.26199">
        <ele>1109.4000244141</ele>
        <time>2020-06-30T08:46:47.000Z</time>
      </trkpt>
      <trkpt lat="43.99265" lon="7.26201">
        <ele>1110.1999511719</ele>
        <time>2020-06-30T08:46:49.000Z</time>
      </trkpt>
      <trkpt lat="43.99265" lon="7.26201">
        <ele>1110.5999755859</ele>
        <time>2020-06-30T08:46:50.000Z</time>
      </trkpt>
      <trkpt lat="43.99265" lon="7.26204">
        <ele>1111.1999511719</ele>
        <time>2020-06-30T08:46:55.000Z</time>
      </trkpt>
      <trkpt lat="43.99265" lon="7.26206">
        <ele>1111</ele>
        <time>2020-06-30T08:47:00.000Z</time>
      </trkpt>
      <trkpt lat="43.99265" lon="7.26211">
        <ele>1110.5999755859</ele>
        <time>2020-06-30T08:47:03.000Z</time>
      </trkpt>
      <trkpt lat="43.99264" lon="7.26213">
        <ele>1110.5999755859</ele>
        <time>2020-06-30T08:47:04.000Z</time>
      </trkpt>
      <trkpt lat="43.99262" lon="7.26215">
        <ele>1110.5999755859</ele>
        <time>2020-06-30T08:47:09.000Z</time>
      </trkpt>
      <trkpt lat="43.99259" lon="7.26215">
        <ele>1110.1999511719</ele>
        <time>2020-06-30T08:47:13.000Z</time>
      </trkpt>
      <trkpt lat="43.99258" lon="7.26215">
        <ele>1110.1999511719</ele>
        <time>2020-06-30T08:47:14.000Z</time>
      </trkpt>
      <trkpt lat="43.99254" lon="7.26212">
        <ele>1110.8000488281</ele>
        <time>2020-06-30T08:47:17.000Z</time>
      </trkpt>
      <trkpt lat="43.99251" lon="7.26211">
        <ele>1111.1999511719</ele>
        <time>2020-06-30T08:47:19.000Z</time>
      </trkpt>
      <trkpt lat="43.99244" lon="7.2621">
        <ele>1111.5999755859</ele>
        <time>2020-06-30T08:47:23.000Z</time>
      </trkpt>
      <trkpt lat="43.99241" lon="7.2621">
        <ele>1111.8000488281</ele>
        <time>2020-06-30T08:47:25.000Z</time>
      </trkpt>
      <trkpt lat="43.99235" lon="7.2621">
        <ele>1112.5999755859</ele>
        <time>2020-06-30T08:47:29.000Z</time>
      </trkpt>
      <trkpt lat="43.99234" lon="7.26212">
        <ele>1112.8000488281</ele>
        <time>2020-06-30T08:47:30.000Z</time>
      </trkpt>
      <trkpt lat="43.99229" lon="7.26218">
        <ele>1114</ele>
        <time>2020-06-30T08:47:34.000Z</time>
      </trkpt>
      <trkpt lat="43.99223" lon="7.26222">
        <ele>1115.1999511719</ele>
        <time>2020-06-30T08:47:38.000Z</time>
      </trkpt>
      <trkpt lat="43.99221" lon="7.26225">
        <ele>1115.8000488281</ele>
        <time>2020-06-30T08:47:40.000Z</time>
      </trkpt>
      <trkpt lat="43.99218" lon="7.26227">
        <ele>1116.1999511719</ele>
        <time>2020-06-30T08:47:42.000Z</time>
      </trkpt>
      <trkpt lat="43.99211" lon="7.26236">
        <ele>1117</ele>
        <time>2020-06-30T08:47:47.000Z</time>
      </trkpt>
      <trkpt lat="43.9921" lon="7.26237">
        <ele>1117.4000244141</ele>
        <time>2020-06-30T08:47:48.000Z</time>
      </trkpt>
      <trkpt lat="43.99209" lon="7.26238">
        <ele>1118.8000488281</ele>
        <time>2020-06-30T08:47:51.000Z</time>
      </trkpt>
      <trkpt lat="43.99208" lon="7.26239">
        <ele>1119.5999755859</ele>
        <time>2020-06-30T08:48:00.000Z</time>
      </trkpt>
      <trkpt lat="43.99206" lon="7.26241">
        <ele>1119.5999755859</ele>
        <time>2020-06-30T08:48:02.000Z</time>
      </trkpt>
      <trkpt lat="43.99205" lon="7.26244">
        <ele>1119.5999755859</ele>
        <time>2020-06-30T08:48:04.000Z</time>
      </trkpt>
      <trkpt lat="43.99205" lon="7.26243">
        <ele>1119.8000488281</ele>
        <time>2020-06-30T08:48:05.000Z</time>
      </trkpt>
      <trkpt lat="43.99205" lon="7.26244">
        <ele>1120.8000488281</ele>
        <time>2020-06-30T08:48:08.000Z</time>
      </trkpt>
      <trkpt lat="43.99201" lon="7.26245">
        <ele>1121.5999755859</ele>
        <time>2020-06-30T08:48:14.000Z</time>
      </trkpt>
      <trkpt lat="43.99201" lon="7.26245">
        <ele>1121.8000488281</ele>
        <time>2020-06-30T08:48:16.000Z</time>
      </trkpt>
      <trkpt lat="43.99201" lon="7.26245">
        <ele>1122</ele>
        <time>2020-06-30T08:48:20.000Z</time>
      </trkpt>
      <trkpt lat="43.99199" lon="7.26246">
        <ele>1122.1999511719</ele>
        <time>2020-06-30T08:48:25.000Z</time>
      </trkpt>
      <trkpt lat="43.99198" lon="7.26246">
        <ele>1122.8000488281</ele>
        <time>2020-06-30T08:48:29.000Z</time>
      </trkpt>
      <trkpt lat="43.99197" lon="7.26248">
        <ele>1122.8000488281</ele>
        <time>2020-06-30T08:48:31.000Z</time>
      </trkpt>
      <trkpt lat="43.99193" lon="7.26253">
        <ele>1124.4000244141</ele>
        <time>2020-06-30T08:48:37.000Z</time>
      </trkpt>
      <trkpt lat="43.99191" lon="7.26256">
        <ele>1125.4000244141</ele>
        <time>2020-06-30T08:48:43.000Z</time>
      </trkpt>
      <trkpt lat="43.99191" lon="7.26256">
        <ele>1125.8000488281</ele>
        <time>2020-06-30T08:48:44.000Z</time>
      </trkpt>
      <trkpt lat="43.9919" lon="7.26257">
        <ele>1127.4000244141</ele>
        <time>2020-06-30T08:48:45.000Z</time>
      </trkpt>
      <trkpt lat="43.9919" lon="7.26258">
        <ele>1126.1999511719</ele>
        <time>2020-06-30T08:48:50.000Z</time>
      </trkpt>
      <trkpt lat="43.99189" lon="7.2626">
        <ele>1126.1999511719</ele>
        <time>2020-06-30T08:48:51.000Z</time>
      </trkpt>
      <trkpt lat="43.99183" lon="7.26266">
        <ele>1126.4000244141</ele>
        <time>2020-06-30T08:48:55.000Z</time>
      </trkpt>
      <trkpt lat="43.99182" lon="7.26268">
        <ele>1126.5999755859</ele>
        <time>2020-06-30T08:48:56.000Z</time>
      </trkpt>
      <trkpt lat="43.99178" lon="7.26272">
        <ele>1127.5999755859</ele>
        <time>2020-06-30T08:49:00.000Z</time>
      </trkpt>
      <trkpt lat="43.99172" lon="7.26276">
        <ele>1128.5999755859</ele>
        <time>2020-06-30T08:49:04.000Z</time>
      </trkpt>
      <trkpt lat="43.9917" lon="7.26275">
        <ele>1128.8000488281</ele>
        <time>2020-06-30T08:49:05.000Z</time>
      </trkpt>
      <trkpt lat="43.99167" lon="7.26276">
        <ele>1129.1999511719</ele>
        <time>2020-06-30T08:49:07.000Z</time>
      </trkpt>
      <trkpt lat="43.99162" lon="7.26279">
        <ele>1129.8000488281</ele>
        <time>2020-06-30T08:49:10.000Z</time>
      </trkpt>
      <trkpt lat="43.99158" lon="7.2628">
        <ele>1130.8000488281</ele>
        <time>2020-06-30T08:49:13.000Z</time>
      </trkpt>
      <trkpt lat="43.99152" lon="7.26279">
        <ele>1132.4000244141</ele>
        <time>2020-06-30T08:49:16.000Z</time>
      </trkpt>
      <trkpt lat="43.99148" lon="7.26278">
        <ele>1133.5999755859</ele>
        <time>2020-06-30T08:49:19.000Z</time>
      </trkpt>
      <trkpt lat="43.99145" lon="7.26277">
        <ele>1134</ele>
        <time>2020-06-30T08:49:21.000Z</time>
      </trkpt>
      <trkpt lat="43.99141" lon="7.26276">
        <ele>1134.5999755859</ele>
        <time>2020-06-30T08:49:23.000Z</time>
      </trkpt>
      <trkpt lat="43.99137" lon="7.26275">
        <ele>1135.8000488281</ele>
        <time>2020-06-30T08:49:26.000Z</time>
      </trkpt>
      <trkpt lat="43.99137" lon="7.26275">
        <ele>1137</ele>
        <time>2020-06-30T08:49:28.000Z</time>
      </trkpt>
      <trkpt lat="43.99133" lon="7.26274">
        <ele>1137.4000244141</ele>
        <time>2020-06-30T08:49:30.000Z</time>
      </trkpt>
      <trkpt lat="43.99131" lon="7.26273">
        <ele>1137.8000488281</ele>
        <time>2020-06-30T08:49:31.000Z</time>
      </trkpt>
      <trkpt lat="43.99129" lon="7.26273">
        <ele>1138</ele>
        <time>2020-06-30T08:49:32.000Z</time>
      </trkpt>
      <trkpt lat="43.99123" lon="7.26273">
        <ele>1139</ele>
        <time>2020-06-30T08:49:35.000Z</time>
      </trkpt>
      <trkpt lat="43.9912" lon="7.26272">
        <ele>1140</ele>
        <time>2020-06-30T08:49:37.000Z</time>
      </trkpt>
      <trkpt lat="43.99118" lon="7.26272">
        <ele>1140.4000244141</ele>
        <time>2020-06-30T08:49:38.000Z</time>
      </trkpt>
      <trkpt lat="43.99113" lon="7.26272">
        <ele>1141.5999755859</ele>
        <time>2020-06-30T08:49:41.000Z</time>
      </trkpt>
      <trkpt lat="43.99111" lon="7.26274">
        <ele>1142.1999511719</ele>
        <time>2020-06-30T08:49:43.000Z</time>
      </trkpt>
      <trkpt lat="43.99108" lon="7.26278">
        <ele>1142.5999755859</ele>
        <time>2020-06-30T08:49:45.000Z</time>
      </trkpt>
      <trkpt lat="43.99104" lon="7.26285">
        <ele>1143.8000488281</ele>
        <time>2020-06-30T08:49:49.000Z</time>
      </trkpt>
      <trkpt lat="43.991" lon="7.26294">
        <ele>1144.8000488281</ele>
        <time>2020-06-30T08:49:53.000Z</time>
      </trkpt>
      <trkpt lat="43.99098" lon="7.26304">
        <ele>1146</ele>
        <time>2020-06-30T08:49:57.000Z</time>
      </trkpt>
      <trkpt lat="43.99093" lon="7.26315">
        <ele>1146.5999755859</ele>
        <time>2020-06-30T08:50:03.000Z</time>
      </trkpt>
      <trkpt lat="43.99094" lon="7.26323">
        <ele>1147</ele>
        <time>2020-06-30T08:50:06.000Z</time>
      </trkpt>
      <trkpt lat="43.99094" lon="7.26328">
        <ele>1147.5999755859</ele>
        <time>2020-06-30T08:50:08.000Z</time>
      </trkpt>
      <trkpt lat="43.99094" lon="7.26328">
        <ele>1148.4000244141</ele>
        <time>2020-06-30T08:50:10.000Z</time>
      </trkpt>
      <trkpt lat="43.99093" lon="7.26329">
        <ele>1149.1999511719</ele>
        <time>2020-06-30T08:50:12.000Z</time>
      </trkpt>
      <trkpt lat="43.99093" lon="7.26329">
        <ele>1149.4000244141</ele>
        <time>2020-06-30T08:50:13.000Z</time>
      </trkpt>
      <trkpt lat="43.99094" lon="7.26337">
        <ele>1149.5999755859</ele>
        <time>2020-06-30T08:50:20.000Z</time>
      </trkpt>
      <trkpt lat="43.99094" lon="7.26338">
        <ele>1149.8000488281</ele>
        <time>2020-06-30T08:50:23.000Z</time>
      </trkpt>
      <trkpt lat="43.99092" lon="7.2634">
        <ele>1150.4000244141</ele>
        <time>2020-06-30T08:50:29.000Z</time>
      </trkpt>
      <trkpt lat="43.99087" lon="7.26346">
        <ele>1150.4000244141</ele>
        <time>2020-06-30T08:50:34.000Z</time>
      </trkpt>
      <trkpt lat="43.99078" lon="7.26353">
        <ele>1151.1999511719</ele>
        <time>2020-06-30T08:50:40.000Z</time>
      </trkpt>
      <trkpt lat="43.99074" lon="7.26353">
        <ele>1151.8000488281</ele>
        <time>2020-06-30T08:50:42.000Z</time>
      </trkpt>
      <trkpt lat="43.99067" lon="7.26353">
        <ele>1152.5999755859</ele>
        <time>2020-06-30T08:50:45.000Z</time>
      </trkpt>
      <trkpt lat="43.99053" lon="7.26355">
        <ele>1152.4000244141</ele>
        <time>2020-06-30T08:50:51.000Z</time>
      </trkpt>
      <trkpt lat="43.99044" lon="7.26353">
        <ele>1153</ele>
        <time>2020-06-30T08:50:55.000Z</time>
      </trkpt>
      <trkpt lat="43.99043" lon="7.26353">
        <ele>1153.5999755859</ele>
        <time>2020-06-30T08:50:56.000Z</time>
      </trkpt>
      <trkpt lat="43.99041" lon="7.26354">
        <ele>1154.1999511719</ele>
        <time>2020-06-30T08:50:57.000Z</time>
      </trkpt>
      <trkpt lat="43.99038" lon="7.26357">
        <ele>1155.1999511719</ele>
        <time>2020-06-30T08:50:59.000Z</time>
      </trkpt>
      <trkpt lat="43.99034" lon="7.26359">
        <ele>1156.1999511719</ele>
        <time>2020-06-30T08:51:02.000Z</time>
      </trkpt>
      <trkpt lat="43.99033" lon="7.26361">
        <ele>1158</ele>
        <time>2020-06-30T08:51:05.000Z</time>
      </trkpt>
      <trkpt lat="43.99032" lon="7.2636">
        <ele>1158.5999755859</ele>
        <time>2020-06-30T08:51:07.000Z</time>
      </trkpt>
      <trkpt lat="43.99032" lon="7.26362">
        <ele>1159</ele>
        <time>2020-06-30T08:51:09.000Z</time>
      </trkpt>
      <trkpt lat="43.99032" lon="7.26363">
        <ele>1158.8000488281</ele>
        <time>2020-06-30T08:51:11.000Z</time>
      </trkpt>
      <trkpt lat="43.99033" lon="7.26369">
        <ele>1158</ele>
        <time>2020-06-30T08:51:16.000Z</time>
      </trkpt>
      <trkpt lat="43.99041" lon="7.26384">
        <ele>1157</ele>
        <time>2020-06-30T08:51:20.000Z</time>
      </trkpt>
      <trkpt lat="43.99044" lon="7.26389">
        <ele>1156.4000244141</ele>
        <time>2020-06-30T08:51:21.000Z</time>
      </trkpt>
      <trkpt lat="43.99047" lon="7.26393">
        <ele>1155.8000488281</ele>
        <time>2020-06-30T08:51:22.000Z</time>
      </trkpt>
      <trkpt lat="43.9905" lon="7.26403">
        <ele>1154.8000488281</ele>
        <time>2020-06-30T08:51:24.000Z</time>
      </trkpt>
      <trkpt lat="43.99052" lon="7.2641">
        <ele>1154.1999511719</ele>
        <time>2020-06-30T08:51:26.000Z</time>
      </trkpt>
      <trkpt lat="43.99054" lon="7.26415">
        <ele>1153.5999755859</ele>
        <time>2020-06-30T08:51:28.000Z</time>
      </trkpt>
      <trkpt lat="43.99057" lon="7.26424">
        <ele>1153.4000244141</ele>
        <time>2020-06-30T08:51:30.000Z</time>
      </trkpt>
      <trkpt lat="43.99061" lon="7.26438">
        <ele>1153.1999511719</ele>
        <time>2020-06-30T08:51:35.000Z</time>
      </trkpt>
      <trkpt lat="43.99068" lon="7.26445">
        <ele>1153.5999755859</ele>
        <time>2020-06-30T08:51:40.000Z</time>
      </trkpt>
      <trkpt lat="43.99079" lon="7.26445">
        <ele>1153</ele>
        <time>2020-06-30T08:51:44.000Z</time>
      </trkpt>
      <trkpt lat="43.99085" lon="7.26444">
        <ele>1152.1999511719</ele>
        <time>2020-06-30T08:51:47.000Z</time>
      </trkpt>
      <trkpt lat="43.99087" lon="7.26442">
        <ele>1152</ele>
        <time>2020-06-30T08:51:48.000Z</time>
      </trkpt>
      <trkpt lat="43.99095" lon="7.26437">
        <ele>1151</ele>
        <time>2020-06-30T08:51:51.000Z</time>
      </trkpt>
      <trkpt lat="43.99096" lon="7.26437">
        <ele>1150.8000488281</ele>
        <time>2020-06-30T08:51:52.000Z</time>
      </trkpt>
      <trkpt lat="43.99102" lon="7.26435">
        <ele>1150</ele>
        <time>2020-06-30T08:51:55.000Z</time>
      </trkpt>
      <trkpt lat="43.99104" lon="7.26435">
        <ele>1149.8000488281</ele>
        <time>2020-06-30T08:51:56.000Z</time>
      </trkpt>
      <trkpt lat="43.99108" lon="7.26433">
        <ele>1149</ele>
        <time>2020-06-30T08:51:58.000Z</time>
      </trkpt>
      <trkpt lat="43.99109" lon="7.26432">
        <ele>1148.8000488281</ele>
        <time>2020-06-30T08:51:59.000Z</time>
      </trkpt>
      <trkpt lat="43.99115" lon="7.26433">
        <ele>1148.4000244141</ele>
        <time>2020-06-30T08:52:00.000Z</time>
      </trkpt>
      <trkpt lat="43.99119" lon="7.26434">
        <ele>1148.1999511719</ele>
        <time>2020-06-30T08:52:01.000Z</time>
      </trkpt>
      <trkpt lat="43.99123" lon="7.26434">
        <ele>1147.8000488281</ele>
        <time>2020-06-30T08:52:02.000Z</time>
      </trkpt>
      <trkpt lat="43.9913" lon="7.26437">
        <ele>1146.4000244141</ele>
        <time>2020-06-30T08:52:05.000Z</time>
      </trkpt>
      <trkpt lat="43.99136" lon="7.26452">
        <ele>1145.4000244141</ele>
        <time>2020-06-30T08:52:09.000Z</time>
      </trkpt>
      <trkpt lat="43.99147" lon="7.26465">
        <ele>1146.1999511719</ele>
        <time>2020-06-30T08:52:15.000Z</time>
      </trkpt>
      <trkpt lat="43.99149" lon="7.26467">
        <ele>1146.4000244141</ele>
        <time>2020-06-30T08:52:16.000Z</time>
      </trkpt>
      <trkpt lat="43.99158" lon="7.26476">
        <ele>1147.4000244141</ele>
        <time>2020-06-30T08:52:20.000Z</time>
      </trkpt>
      <trkpt lat="43.9916" lon="7.26479">
        <ele>1147.5999755859</ele>
        <time>2020-06-30T08:52:21.000Z</time>
      </trkpt>
      <trkpt lat="43.99175" lon="7.26497">
        <ele>1146</ele>
        <time>2020-06-30T08:52:26.000Z</time>
      </trkpt>
      <trkpt lat="43.99178" lon="7.26502">
        <ele>1145.5999755859</ele>
        <time>2020-06-30T08:52:27.000Z</time>
      </trkpt>
      <trkpt lat="43.99183" lon="7.26509">
        <ele>1144.8000488281</ele>
        <time>2020-06-30T08:52:29.000Z</time>
      </trkpt>
      <trkpt lat="43.99186" lon="7.26512">
        <ele>1144.4000244141</ele>
        <time>2020-06-30T08:52:30.000Z</time>
      </trkpt>
      <trkpt lat="43.99194" lon="7.26521">
        <ele>1144.1999511719</ele>
        <time>2020-06-30T08:52:34.000Z</time>
      </trkpt>
      <trkpt lat="43.99195" lon="7.26531">
        <ele>1143.8000488281</ele>
        <time>2020-06-30T08:52:37.000Z</time>
      </trkpt>
      <trkpt lat="43.99194" lon="7.26535">
        <ele>1143.5999755859</ele>
        <time>2020-06-30T08:52:39.000Z</time>
      </trkpt>
      <trkpt lat="43.99189" lon="7.26549">
        <ele>1143.5999755859</ele>
        <time>2020-06-30T08:52:43.000Z</time>
      </trkpt>
      <trkpt lat="43.99187" lon="7.26561">
        <ele>1143</ele>
        <time>2020-06-30T08:52:47.000Z</time>
      </trkpt>
      <trkpt lat="43.99185" lon="7.26565">
        <ele>1143.1999511719</ele>
        <time>2020-06-30T08:52:49.000Z</time>
      </trkpt>
      <trkpt lat="43.99182" lon="7.26567">
        <ele>1143.5999755859</ele>
        <time>2020-06-30T08:52:51.000Z</time>
      </trkpt>
      <trkpt lat="43.99176" lon="7.26569">
        <ele>1144.5999755859</ele>
        <time>2020-06-30T08:52:56.000Z</time>
      </trkpt>
      <trkpt lat="43.99169" lon="7.26572">
        <ele>1144.1999511719</ele>
        <time>2020-06-30T08:53:01.000Z</time>
      </trkpt>
      <trkpt lat="43.99165" lon="7.26574">
        <ele>1144.8000488281</ele>
        <time>2020-06-30T08:53:04.000Z</time>
      </trkpt>
      <trkpt lat="43.99162" lon="7.26578">
        <ele>1145.8000488281</ele>
        <time>2020-06-30T08:53:07.000Z</time>
      </trkpt>
      <trkpt lat="43.99161" lon="7.2658">
        <ele>1146</ele>
        <time>2020-06-30T08:53:08.000Z</time>
      </trkpt>
      <trkpt lat="43.99161" lon="7.26586">
        <ele>1146.4000244141</ele>
        <time>2020-06-30T08:53:11.000Z</time>
      </trkpt>
      <trkpt lat="43.99162" lon="7.26588">
        <ele>1146.4000244141</ele>
        <time>2020-06-30T08:53:12.000Z</time>
      </trkpt>
      <trkpt lat="43.99163" lon="7.26603">
        <ele>1146.1999511719</ele>
        <time>2020-06-30T08:53:17.000Z</time>
      </trkpt>
      <trkpt lat="43.99166" lon="7.26617">
        <ele>1145.1999511719</ele>
        <time>2020-06-30T08:53:23.000Z</time>
      </trkpt>
      <trkpt lat="43.99166" lon="7.26618">
        <ele>1145.4000244141</ele>
        <time>2020-06-30T08:53:24.000Z</time>
      </trkpt>
      <trkpt lat="43.99168" lon="7.26627">
        <ele>1145.1999511719</ele>
        <time>2020-06-30T08:53:27.000Z</time>
      </trkpt>
      <trkpt lat="43.99169" lon="7.26634">
        <ele>1145</ele>
        <time>2020-06-30T08:53:29.000Z</time>
      </trkpt>
      <trkpt lat="43.9917" lon="7.26643">
        <ele>1144.8000488281</ele>
        <time>2020-06-30T08:53:33.000Z</time>
      </trkpt>
      <trkpt lat="43.99171" lon="7.26654">
        <ele>1145.1999511719</ele>
        <time>2020-06-30T08:53:39.000Z</time>
      </trkpt>
      <trkpt lat="43.99172" lon="7.26657">
        <ele>1145.1999511719</ele>
        <time>2020-06-30T08:53:40.000Z</time>
      </trkpt>
      <trkpt lat="43.99174" lon="7.26663">
        <ele>1145.4000244141</ele>
        <time>2020-06-30T08:53:44.000Z</time>
      </trkpt>
      <trkpt lat="43.99178" lon="7.26673">
        <ele>1145.8000488281</ele>
        <time>2020-06-30T08:53:50.000Z</time>
      </trkpt>
      <trkpt lat="43.99183" lon="7.2668">
        <ele>1146.1999511719</ele>
        <time>2020-06-30T08:53:54.000Z</time>
      </trkpt>
      <trkpt lat="43.99188" lon="7.26684">
        <ele>1146.5999755859</ele>
        <time>2020-06-30T08:53:57.000Z</time>
      </trkpt>
      <trkpt lat="43.99199" lon="7.26693">
        <ele>1146.5999755859</ele>
        <time>2020-06-30T08:54:02.000Z</time>
      </trkpt>
      <trkpt lat="43.99203" lon="7.26697">
        <ele>1146.4000244141</ele>
        <time>2020-06-30T08:54:04.000Z</time>
      </trkpt>
      <trkpt lat="43.99205" lon="7.26702">
        <ele>1146.1999511719</ele>
        <time>2020-06-30T08:54:06.000Z</time>
      </trkpt>
      <trkpt lat="43.99211" lon="7.26722">
        <ele>1146.4000244141</ele>
        <time>2020-06-30T08:54:12.000Z</time>
      </trkpt>
      <trkpt lat="43.99212" lon="7.26741">
        <ele>1145.8000488281</ele>
        <time>2020-06-30T08:54:16.000Z</time>
      </trkpt>
      <trkpt lat="43.99211" lon="7.26757">
        <ele>1145.4000244141</ele>
        <time>2020-06-30T08:54:20.000Z</time>
      </trkpt>
      <trkpt lat="43.9921" lon="7.26761">
        <ele>1146</ele>
        <time>2020-06-30T08:54:25.000Z</time>
      </trkpt>
      <trkpt lat="43.99208" lon="7.26768">
        <ele>1146</ele>
        <time>2020-06-30T08:54:35.000Z</time>
      </trkpt>
      <trkpt lat="43.992" lon="7.26785">
        <ele>1145.8000488281</ele>
        <time>2020-06-30T08:54:41.000Z</time>
      </trkpt>
      <trkpt lat="43.99187" lon="7.26797">
        <ele>1145.8000488281</ele>
        <time>2020-06-30T08:54:47.000Z</time>
      </trkpt>
      <trkpt lat="43.99173" lon="7.26811">
        <ele>1146.1999511719</ele>
        <time>2020-06-30T08:54:55.000Z</time>
      </trkpt>
      <trkpt lat="43.99163" lon="7.26815">
        <ele>1146.8000488281</ele>
        <time>2020-06-30T08:55:00.000Z</time>
      </trkpt>
      <trkpt lat="43.9916" lon="7.26816">
        <ele>1147</ele>
        <time>2020-06-30T08:55:02.000Z</time>
      </trkpt>
      <trkpt lat="43.99158" lon="7.26817">
        <ele>1147.1999511719</ele>
        <time>2020-06-30T08:55:03.000Z</time>
      </trkpt>
      <trkpt lat="43.99155" lon="7.26818">
        <ele>1147.4000244141</ele>
        <time>2020-06-30T08:55:07.000Z</time>
      </trkpt>
      <trkpt lat="43.99155" lon="7.26819">
        <ele>1148</ele>
        <time>2020-06-30T08:55:19.000Z</time>
      </trkpt>
      <trkpt lat="43.99155" lon="7.26818">
        <ele>1147.5999755859</ele>
        <time>2020-06-30T08:55:24.000Z</time>
      </trkpt>
      <trkpt lat="43.99154" lon="7.26819">
        <ele>1148.1999511719</ele>
        <time>2020-06-30T08:55:34.000Z</time>
      </trkpt>
      <trkpt lat="43.99153" lon="7.26819">
        <ele>1148.1999511719</ele>
        <time>2020-06-30T08:55:39.000Z</time>
      </trkpt>
      <trkpt lat="43.99152" lon="7.2682">
        <ele>1148</ele>
        <time>2020-06-30T08:55:47.000Z</time>
      </trkpt>
      <trkpt lat="43.99151" lon="7.26822">
        <ele>1148.1999511719</ele>
        <time>2020-06-30T08:55:53.000Z</time>
      </trkpt>
      <trkpt lat="43.99151" lon="7.26823">
        <ele>1148</ele>
        <time>2020-06-30T08:56:01.000Z</time>
      </trkpt>
      <trkpt lat="43.9915" lon="7.26823">
        <ele>1148</ele>
        <time>2020-06-30T08:56:15.000Z</time>
      </trkpt>
      <trkpt lat="43.99147" lon="7.26824">
        <ele>1148</ele>
        <time>2020-06-30T08:56:20.000Z</time>
      </trkpt>
      <trkpt lat="43.99138" lon="7.26826">
        <ele>1148.8000488281</ele>
        <time>2020-06-30T08:56:26.000Z</time>
      </trkpt>
      <trkpt lat="43.99136" lon="7.26827">
        <ele>1149.1999511719</ele>
        <time>2020-06-30T08:56:28.000Z</time>
      </trkpt>
      <trkpt lat="43.99131" lon="7.26828">
        <ele>1149.8000488281</ele>
        <time>2020-06-30T08:56:31.000Z</time>
      </trkpt>
      <trkpt lat="43.99126" lon="7.2683">
        <ele>1150.4000244141</ele>
        <time>2020-06-30T08:56:34.000Z</time>
      </trkpt>
      <trkpt lat="43.99121" lon="7.26831">
        <ele>1150.8000488281</ele>
        <time>2020-06-30T08:56:37.000Z</time>
      </trkpt>
      <trkpt lat="43.99117" lon="7.26833">
        <ele>1151.4000244141</ele>
        <time>2020-06-30T08:56:40.000Z</time>
      </trkpt>
      <trkpt lat="43.99116" lon="7.26833">
        <ele>1151.5999755859</ele>
        <time>2020-06-30T08:56:41.000Z</time>
      </trkpt>
      <trkpt lat="43.99114" lon="7.26834">
        <ele>1152</ele>
        <time>2020-06-30T08:56:42.000Z</time>
      </trkpt>
      <trkpt lat="43.99111" lon="7.26834">
        <ele>1152.4000244141</ele>
        <time>2020-06-30T08:56:44.000Z</time>
      </trkpt>
      <trkpt lat="43.99107" lon="7.26834">
        <ele>1152.8000488281</ele>
        <time>2020-06-30T08:56:46.000Z</time>
      </trkpt>
      <trkpt lat="43.99105" lon="7.26835">
        <ele>1153</ele>
        <time>2020-06-30T08:56:47.000Z</time>
      </trkpt>
      <trkpt lat="43.991" lon="7.26834">
        <ele>1153.8000488281</ele>
        <time>2020-06-30T08:56:50.000Z</time>
      </trkpt>
      <trkpt lat="43.99098" lon="7.26834">
        <ele>1154.1999511719</ele>
        <time>2020-06-30T08:56:51.000Z</time>
      </trkpt>
      <trkpt lat="43.99095" lon="7.26833">
        <ele>1154.8000488281</ele>
        <time>2020-06-30T08:56:53.000Z</time>
      </trkpt>
      <trkpt lat="43.99089" lon="7.26832">
        <ele>1155.5999755859</ele>
        <time>2020-06-30T08:56:56.000Z</time>
      </trkpt>
      <trkpt lat="43.99088" lon="7.26831">
        <ele>1156</ele>
        <time>2020-06-30T08:56:57.000Z</time>
      </trkpt>
      <trkpt lat="43.9908" lon="7.26829">
        <ele>1157</ele>
        <time>2020-06-30T08:57:01.000Z</time>
      </trkpt>
      <trkpt lat="43.99079" lon="7.26828">
        <ele>1157.4000244141</ele>
        <time>2020-06-30T08:57:02.000Z</time>
      </trkpt>
      <trkpt lat="43.99073" lon="7.26824">
        <ele>1158.5999755859</ele>
        <time>2020-06-30T08:57:06.000Z</time>
      </trkpt>
      <trkpt lat="43.99071" lon="7.26823">
        <ele>1158.5999755859</ele>
        <time>2020-06-30T08:57:07.000Z</time>
      </trkpt>
      <trkpt lat="43.99059" lon="7.26819">
        <ele>1159.5999755859</ele>
        <time>2020-06-30T08:57:13.000Z</time>
      </trkpt>
      <trkpt lat="43.99057" lon="7.26819">
        <ele>1159.8000488281</ele>
        <time>2020-06-30T08:57:14.000Z</time>
      </trkpt>
      <trkpt lat="43.99046" lon="7.26816">
        <ele>1160.5999755859</ele>
        <time>2020-06-30T08:57:20.000Z</time>
      </trkpt>
      <trkpt lat="43.99044" lon="7.26816">
        <ele>1160.5999755859</ele>
        <time>2020-06-30T08:57:21.000Z</time>
      </trkpt>
      <trkpt lat="43.99034" lon="7.26824">
        <ele>1161</ele>
        <time>2020-06-30T08:57:26.000Z</time>
      </trkpt>
      <trkpt lat="43.99032" lon="7.26831">
        <ele>1161</ele>
        <time>2020-06-30T08:57:28.000Z</time>
      </trkpt>
      <trkpt lat="43.99031" lon="7.26843">
        <ele>1160.8000488281</ele>
        <time>2020-06-30T08:57:31.000Z</time>
      </trkpt>
      <trkpt lat="43.99031" lon="7.26874">
        <ele>1160.8000488281</ele>
        <time>2020-06-30T08:57:39.000Z</time>
      </trkpt>
      <trkpt lat="43.99026" lon="7.26895">
        <ele>1160.8000488281</ele>
        <time>2020-06-30T08:57:44.000Z</time>
      </trkpt>
      <trkpt lat="43.99015" lon="7.269">
        <ele>1160.4000244141</ele>
        <time>2020-06-30T08:57:48.000Z</time>
      </trkpt>
      <trkpt lat="43.9901" lon="7.26903">
        <ele>1160.5999755859</ele>
        <time>2020-06-30T08:57:50.000Z</time>
      </trkpt>
      <trkpt lat="43.99" lon="7.26907">
        <ele>1161.1999511719</ele>
        <time>2020-06-30T08:57:54.000Z</time>
      </trkpt>
      <trkpt lat="43.98983" lon="7.26914">
        <ele>1161.5999755859</ele>
        <time>2020-06-30T08:58:00.000Z</time>
      </trkpt>
      <trkpt lat="43.98974" lon="7.26919">
        <ele>1162</ele>
        <time>2020-06-30T08:58:03.000Z</time>
      </trkpt>
      <trkpt lat="43.98966" lon="7.26927">
        <ele>1162.5999755859</ele>
        <time>2020-06-30T08:58:07.000Z</time>
      </trkpt>
      <trkpt lat="43.98964" lon="7.26929">
        <ele>1163</ele>
        <time>2020-06-30T08:58:08.000Z</time>
      </trkpt>
      <trkpt lat="43.98958" lon="7.26949">
        <ele>1163</ele>
        <time>2020-06-30T08:58:13.000Z</time>
      </trkpt>
      <trkpt lat="43.98963" lon="7.26982">
        <ele>1161.5999755859</ele>
        <time>2020-06-30T08:58:19.000Z</time>
      </trkpt>
      <trkpt lat="43.98964" lon="7.26988">
        <ele>1161.5999755859</ele>
        <time>2020-06-30T08:58:20.000Z</time>
      </trkpt>
      <trkpt lat="43.98964" lon="7.26994">
        <ele>1161.4000244141</ele>
        <time>2020-06-30T08:58:21.000Z</time>
      </trkpt>
      <trkpt lat="43.98965" lon="7.27006">
        <ele>1160.8000488281</ele>
        <time>2020-06-30T08:58:23.000Z</time>
      </trkpt>
      <trkpt lat="43.98965" lon="7.27012">
        <ele>1160.1999511719</ele>
        <time>2020-06-30T08:58:24.000Z</time>
      </trkpt>
      <trkpt lat="43.98962" lon="7.27021">
        <ele>1159.5999755859</ele>
        <time>2020-06-30T08:58:26.000Z</time>
      </trkpt>
      <trkpt lat="43.98955" lon="7.27028">
        <ele>1159.5999755859</ele>
        <time>2020-06-30T08:58:29.000Z</time>
      </trkpt>
      <trkpt lat="43.98947" lon="7.27037">
        <ele>1160.1999511719</ele>
        <time>2020-06-30T08:58:33.000Z</time>
      </trkpt>
      <trkpt lat="43.98936" lon="7.27047">
        <ele>1161.4000244141</ele>
        <time>2020-06-30T08:58:37.000Z</time>
      </trkpt>
      <trkpt lat="43.98928" lon="7.27053">
        <ele>1161.5999755859</ele>
        <time>2020-06-30T08:58:40.000Z</time>
      </trkpt>
      <trkpt lat="43.9892" lon="7.27059">
        <ele>1162.4000244141</ele>
        <time>2020-06-30T08:58:44.000Z</time>
      </trkpt>
      <trkpt lat="43.98919" lon="7.27061">
        <ele>1162.5999755859</ele>
        <time>2020-06-30T08:58:45.000Z</time>
      </trkpt>
      <trkpt lat="43.98918" lon="7.27062">
        <ele>1163.4000244141</ele>
        <time>2020-06-30T08:58:50.000Z</time>
      </trkpt>
      <trkpt lat="43.98918" lon="7.27062">
        <ele>1163.4000244141</ele>
        <time>2020-06-30T08:58:52.000Z</time>
      </trkpt>
      <trkpt lat="43.98917" lon="7.27064">
        <ele>1163.4000244141</ele>
        <time>2020-06-30T08:59:01.000Z</time>
      </trkpt>
      <trkpt lat="43.98915" lon="7.27065">
        <ele>1163.1999511719</ele>
        <time>2020-06-30T08:59:06.000Z</time>
      </trkpt>
      <trkpt lat="43.98915" lon="7.27065">
        <ele>1163.4000244141</ele>
        <time>2020-06-30T08:59:12.000Z</time>
      </trkpt>
      <trkpt lat="43.98915" lon="7.27065">
        <ele>1163.1999511719</ele>
        <time>2020-06-30T08:59:20.000Z</time>
      </trkpt>
      <trkpt lat="43.98914" lon="7.27065">
        <ele>1163</ele>
        <time>2020-06-30T08:59:24.000Z</time>
      </trkpt>
      <trkpt lat="43.98914" lon="7.27065">
        <ele>1163.1999511719</ele>
        <time>2020-06-30T08:59:33.000Z</time>
      </trkpt>
      <trkpt lat="43.98916" lon="7.27067">
        <ele>1163</ele>
        <time>2020-06-30T08:59:42.000Z</time>
      </trkpt>
      <trkpt lat="43.98916" lon="7.27067">
        <ele>1162.4000244141</ele>
        <time>2020-06-30T08:59:48.000Z</time>
      </trkpt>
      <trkpt lat="43.98915" lon="7.27067">
        <ele>1162.4000244141</ele>
        <time>2020-06-30T08:59:56.000Z</time>
      </trkpt>
      <trkpt lat="43.98915" lon="7.27067">
        <ele>1162.5999755859</ele>
        <time>2020-06-30T09:00:07.000Z</time>
      </trkpt>
      <trkpt lat="43.98914" lon="7.27067">
        <ele>1162.4000244141</ele>
        <time>2020-06-30T09:00:16.000Z</time>
      </trkpt>
      <trkpt lat="43.98914" lon="7.27067">
        <ele>1162.1999511719</ele>
        <time>2020-06-30T09:00:25.000Z</time>
      </trkpt>
      <trkpt lat="43.98915" lon="7.27068">
        <ele>1162</ele>
        <time>2020-06-30T09:00:35.000Z</time>
      </trkpt>
      <trkpt lat="43.98915" lon="7.27067">
        <ele>1162</ele>
        <time>2020-06-30T09:00:46.000Z</time>
      </trkpt>
      <trkpt lat="43.98915" lon="7.27067">
        <ele>1162.5999755859</ele>
        <time>2020-06-30T09:00:53.000Z</time>
      </trkpt>
      <trkpt lat="43.98915" lon="7.27068">
        <ele>1162</ele>
        <time>2020-06-30T09:01:06.000Z</time>
      </trkpt>
      <trkpt lat="43.98914" lon="7.27067">
        <ele>1162</ele>
        <time>2020-06-30T09:01:16.000Z</time>
      </trkpt>
      <trkpt lat="43.98914" lon="7.27065">
        <ele>1161.8000488281</ele>
        <time>2020-06-30T09:01:22.000Z</time>
      </trkpt>
      <trkpt lat="43.98915" lon="7.27065">
        <ele>1162.8000488281</ele>
        <time>2020-06-30T09:01:26.000Z</time>
      </trkpt>
      <trkpt lat="43.98915" lon="7.27065">
        <ele>1163</ele>
        <time>2020-06-30T09:01:36.000Z</time>
      </trkpt>
      <trkpt lat="43.98915" lon="7.27064">
        <ele>1163</ele>
        <time>2020-06-30T09:01:43.000Z</time>
      </trkpt>
      <trkpt lat="43.98916" lon="7.27068">
        <ele>1162.8000488281</ele>
        <time>2020-06-30T09:01:52.000Z</time>
      </trkpt>
      <trkpt lat="43.98918" lon="7.27084">
        <ele>1161.5999755859</ele>
        <time>2020-06-30T09:01:57.000Z</time>
      </trkpt>
      <trkpt lat="43.98919" lon="7.27088">
        <ele>1161.1999511719</ele>
        <time>2020-06-30T09:01:58.000Z</time>
      </trkpt>
      <trkpt lat="43.98923" lon="7.27097">
        <ele>1160</ele>
        <time>2020-06-30T09:02:01.000Z</time>
      </trkpt>
      <trkpt lat="43.98927" lon="7.27102">
        <ele>1158.8000488281</ele>
        <time>2020-06-30T09:02:03.000Z</time>
      </trkpt>
      <trkpt lat="43.98927" lon="7.27104">
        <ele>1157.4000244141</ele>
        <time>2020-06-30T09:02:06.000Z</time>
      </trkpt>
      <trkpt lat="43.98927" lon="7.27105">
        <ele>1156.8000488281</ele>
        <time>2020-06-30T09:02:07.000Z</time>
      </trkpt>
      <trkpt lat="43.98926" lon="7.27106">
        <ele>1156.4000244141</ele>
        <time>2020-06-30T09:02:08.000Z</time>
      </trkpt>
      <trkpt lat="43.98923" lon="7.27105">
        <ele>1155.8000488281</ele>
        <time>2020-06-30T09:02:10.000Z</time>
      </trkpt>
      <trkpt lat="43.98921" lon="7.27104">
        <ele>1155.5999755859</ele>
        <time>2020-06-30T09:02:11.000Z</time>
      </trkpt>
      <trkpt lat="43.98918" lon="7.27103">
        <ele>1155.1999511719</ele>
        <time>2020-06-30T09:02:12.000Z</time>
      </trkpt>
      <trkpt lat="43.98914" lon="7.27102">
        <ele>1154.5999755859</ele>
        <time>2020-06-30T09:02:14.000Z</time>
      </trkpt>
      <trkpt lat="43.98911" lon="7.27102">
        <ele>1154</ele>
        <time>2020-06-30T09:02:15.000Z</time>
      </trkpt>
      <trkpt lat="43.98906" lon="7.27103">
        <ele>1153.1999511719</ele>
        <time>2020-06-30T09:02:17.000Z</time>
      </trkpt>
      <trkpt lat="43.98903" lon="7.27104">
        <ele>1152.5999755859</ele>
        <time>2020-06-30T09:02:18.000Z</time>
      </trkpt>
      <trkpt lat="43.98895" lon="7.27105">
        <ele>1151.5999755859</ele>
        <time>2020-06-30T09:02:20.000Z</time>
      </trkpt>
      <trkpt lat="43.98888" lon="7.27107">
        <ele>1150.8000488281</ele>
        <time>2020-06-30T09:02:22.000Z</time>
      </trkpt>
      <trkpt lat="43.98885" lon="7.27109">
        <ele>1150.1999511719</ele>
        <time>2020-06-30T09:02:23.000Z</time>
      </trkpt>
      <trkpt lat="43.98879" lon="7.27112">
        <ele>1148.8000488281</ele>
        <time>2020-06-30T09:02:25.000Z</time>
      </trkpt>
      <trkpt lat="43.98876" lon="7.27113">
        <ele>1147.4000244141</ele>
        <time>2020-06-30T09:02:26.000Z</time>
      </trkpt>
      <trkpt lat="43.98871" lon="7.27112">
        <ele>1145.8000488281</ele>
        <time>2020-06-30T09:02:28.000Z</time>
      </trkpt>
      <trkpt lat="43.98863" lon="7.27107">
        <ele>1145.4000244141</ele>
        <time>2020-06-30T09:02:31.000Z</time>
      </trkpt>
      <trkpt lat="43.98853" lon="7.27103">
        <ele>1144.8000488281</ele>
        <time>2020-06-30T09:02:34.000Z</time>
      </trkpt>
      <trkpt lat="43.98843" lon="7.27101">
        <ele>1143.1999511719</ele>
        <time>2020-06-30T09:02:37.000Z</time>
      </trkpt>
      <trkpt lat="43.98833" lon="7.271">
        <ele>1142</ele>
        <time>2020-06-30T09:02:40.000Z</time>
      </trkpt>
      <trkpt lat="43.98827" lon="7.27101">
        <ele>1140.8000488281</ele>
        <time>2020-06-30T09:02:42.000Z</time>
      </trkpt>
      <trkpt lat="43.98816" lon="7.27102">
        <ele>1139</ele>
        <time>2020-06-30T09:02:45.000Z</time>
      </trkpt>
      <trkpt lat="43.98811" lon="7.27101">
        <ele>1137.1999511719</ele>
        <time>2020-06-30T09:02:47.000Z</time>
      </trkpt>
      <trkpt lat="43.98807" lon="7.271">
        <ele>1135.5999755859</ele>
        <time>2020-06-30T09:02:48.000Z</time>
      </trkpt>
      <trkpt lat="43.98804" lon="7.27099">
        <ele>1134.8000488281</ele>
        <time>2020-06-30T09:02:49.000Z</time>
      </trkpt>
      <trkpt lat="43.988" lon="7.27097">
        <ele>1133.8000488281</ele>
        <time>2020-06-30T09:02:50.000Z</time>
      </trkpt>
      <trkpt lat="43.98792" lon="7.27095">
        <ele>1132.1999511719</ele>
        <time>2020-06-30T09:02:52.000Z</time>
      </trkpt>
      <trkpt lat="43.98784" lon="7.27094">
        <ele>1130.4000244141</ele>
        <time>2020-06-30T09:02:54.000Z</time>
      </trkpt>
      <trkpt lat="43.9878" lon="7.27093">
        <ele>1129.5999755859</ele>
        <time>2020-06-30T09:02:55.000Z</time>
      </trkpt>
      <trkpt lat="43.98777" lon="7.27094">
        <ele>1128.5999755859</ele>
        <time>2020-06-30T09:02:56.000Z</time>
      </trkpt>
      <trkpt lat="43.98771" lon="7.27095">
        <ele>1126.8000488281</ele>
        <time>2020-06-30T09:02:58.000Z</time>
      </trkpt>
      <trkpt lat="43.98767" lon="7.27095">
        <ele>1126.4000244141</ele>
        <time>2020-06-30T09:02:59.000Z</time>
      </trkpt>
      <trkpt lat="43.98764" lon="7.27094">
        <ele>1125.4000244141</ele>
        <time>2020-06-30T09:03:00.000Z</time>
      </trkpt>
      <trkpt lat="43.98761" lon="7.27095">
        <ele>1124</ele>
        <time>2020-06-30T09:03:01.000Z</time>
      </trkpt>
      <trkpt lat="43.98758" lon="7.27098">
        <ele>1123.1999511719</ele>
        <time>2020-06-30T09:03:02.000Z</time>
      </trkpt>
      <trkpt lat="43.98755" lon="7.27101">
        <ele>1122.5999755859</ele>
        <time>2020-06-30T09:03:03.000Z</time>
      </trkpt>
      <trkpt lat="43.98752" lon="7.27104">
        <ele>1121</ele>
        <time>2020-06-30T09:03:04.000Z</time>
      </trkpt>
      <trkpt lat="43.98746" lon="7.27108">
        <ele>1119.1999511719</ele>
        <time>2020-06-30T09:03:06.000Z</time>
      </trkpt>
      <trkpt lat="43.98747" lon="7.2711">
        <ele>1118.8000488281</ele>
        <time>2020-06-30T09:03:09.000Z</time>
      </trkpt>
      <trkpt lat="43.98752" lon="7.27108">
        <ele>1118.1999511719</ele>
        <time>2020-06-30T09:03:13.000Z</time>
      </trkpt>
      <trkpt lat="43.98753" lon="7.2711">
        <ele>1118</ele>
        <time>2020-06-30T09:03:14.000Z</time>
      </trkpt>
      <trkpt lat="43.98754" lon="7.27111">
        <ele>1117.5999755859</ele>
        <time>2020-06-30T09:03:15.000Z</time>
      </trkpt>
      <trkpt lat="43.98752" lon="7.27113">
        <ele>1117</ele>
        <time>2020-06-30T09:03:17.000Z</time>
      </trkpt>
      <trkpt lat="43.98748" lon="7.27116">
        <ele>1116.8000488281</ele>
        <time>2020-06-30T09:03:19.000Z</time>
      </trkpt>
      <trkpt lat="43.98741" lon="7.2712">
        <ele>1116</ele>
        <time>2020-06-30T09:03:21.000Z</time>
      </trkpt>
      <trkpt lat="43.98738" lon="7.2712">
        <ele>1115.4000244141</ele>
        <time>2020-06-30T09:03:22.000Z</time>
      </trkpt>
      <trkpt lat="43.98734" lon="7.27119">
        <ele>1115</ele>
        <time>2020-06-30T09:03:23.000Z</time>
      </trkpt>
      <trkpt lat="43.98723" lon="7.27111">
        <ele>1113.1999511719</ele>
        <time>2020-06-30T09:03:26.000Z</time>
      </trkpt>
      <trkpt lat="43.9872" lon="7.2711">
        <ele>1112.5999755859</ele>
        <time>2020-06-30T09:03:27.000Z</time>
      </trkpt>
      <trkpt lat="43.98717" lon="7.27112">
        <ele>1111.8000488281</ele>
        <time>2020-06-30T09:03:28.000Z</time>
      </trkpt>
      <trkpt lat="43.98712" lon="7.27119">
        <ele>1110.8000488281</ele>
        <time>2020-06-30T09:03:30.000Z</time>
      </trkpt>
      <trkpt lat="43.98706" lon="7.27125">
        <ele>1108.5999755859</ele>
        <time>2020-06-30T09:03:32.000Z</time>
      </trkpt>
      <trkpt lat="43.98703" lon="7.27128">
        <ele>1107.1999511719</ele>
        <time>2020-06-30T09:03:33.000Z</time>
      </trkpt>
      <trkpt lat="43.98698" lon="7.27135">
        <ele>1105.1999511719</ele>
        <time>2020-06-30T09:03:35.000Z</time>
      </trkpt>
      <trkpt lat="43.98694" lon="7.2714">
        <ele>1103.8000488281</ele>
        <time>2020-06-30T09:03:37.000Z</time>
      </trkpt>
      <trkpt lat="43.98688" lon="7.27139">
        <ele>1102.1999511719</ele>
        <time>2020-06-30T09:03:39.000Z</time>
      </trkpt>
      <trkpt lat="43.98681" lon="7.27134">
        <ele>1101</ele>
        <time>2020-06-30T09:03:41.000Z</time>
      </trkpt>
      <trkpt lat="43.98679" lon="7.27131">
        <ele>1100.5999755859</ele>
        <time>2020-06-30T09:03:42.000Z</time>
      </trkpt>
      <trkpt lat="43.98677" lon="7.2713">
        <ele>1100.1999511719</ele>
        <time>2020-06-30T09:03:43.000Z</time>
      </trkpt>
      <trkpt lat="43.98673" lon="7.27126">
        <ele>1099.5999755859</ele>
        <time>2020-06-30T09:03:45.000Z</time>
      </trkpt>
      <trkpt lat="43.98667" lon="7.27121">
        <ele>1099.1999511719</ele>
        <time>2020-06-30T09:03:47.000Z</time>
      </trkpt>
      <trkpt lat="43.98662" lon="7.27113">
        <ele>1098.4000244141</ele>
        <time>2020-06-30T09:03:49.000Z</time>
      </trkpt>
      <trkpt lat="43.98655" lon="7.2711">
        <ele>1096.8000488281</ele>
        <time>2020-06-30T09:03:51.000Z</time>
      </trkpt>
      <trkpt lat="43.98649" lon="7.27114">
        <ele>1096.1999511719</ele>
        <time>2020-06-30T09:03:53.000Z</time>
      </trkpt>
      <trkpt lat="43.98642" lon="7.27115">
        <ele>1095.8000488281</ele>
        <time>2020-06-30T09:03:55.000Z</time>
      </trkpt>
      <trkpt lat="43.98639" lon="7.27113">
        <ele>1095.5999755859</ele>
        <time>2020-06-30T09:03:56.000Z</time>
      </trkpt>
      <trkpt lat="43.98632" lon="7.27118">
        <ele>1094.8000488281</ele>
        <time>2020-06-30T09:03:59.000Z</time>
      </trkpt>
      <trkpt lat="43.98629" lon="7.27122">
        <ele>1094.5999755859</ele>
        <time>2020-06-30T09:04:00.000Z</time>
      </trkpt>
      <trkpt lat="43.98619" lon="7.27127">
        <ele>1094.1999511719</ele>
        <time>2020-06-30T09:04:03.000Z</time>
      </trkpt>
      <trkpt lat="43.98616" lon="7.27127">
        <ele>1094.1999511719</ele>
        <time>2020-06-30T09:04:04.000Z</time>
      </trkpt>
      <trkpt lat="43.98602" lon="7.27132">
        <ele>1094.1999511719</ele>
        <time>2020-06-30T09:04:08.000Z</time>
      </trkpt>
      <trkpt lat="43.98595" lon="7.27137">
        <ele>1094.1999511719</ele>
        <time>2020-06-30T09:04:10.000Z</time>
      </trkpt>
      <trkpt lat="43.98586" lon="7.2714">
        <ele>1094</ele>
        <time>2020-06-30T09:04:12.000Z</time>
      </trkpt>
      <trkpt lat="43.98582" lon="7.2714">
        <ele>1093.8000488281</ele>
        <time>2020-06-30T09:04:13.000Z</time>
      </trkpt>
      <trkpt lat="43.98578" lon="7.27136">
        <ele>1093.5999755859</ele>
        <time>2020-06-30T09:04:14.000Z</time>
      </trkpt>
      <trkpt lat="43.9857" lon="7.27129">
        <ele>1092.8000488281</ele>
        <time>2020-06-30T09:04:16.000Z</time>
      </trkpt>
      <trkpt lat="43.98567" lon="7.27127">
        <ele>1092.5999755859</ele>
        <time>2020-06-30T09:04:17.000Z</time>
      </trkpt>
      <trkpt lat="43.98561" lon="7.2713">
        <ele>1091.8000488281</ele>
        <time>2020-06-30T09:04:19.000Z</time>
      </trkpt>
      <trkpt lat="43.98559" lon="7.27133">
        <ele>1091.5999755859</ele>
        <time>2020-06-30T09:04:20.000Z</time>
      </trkpt>
      <trkpt lat="43.98551" lon="7.27149">
        <ele>1091.5999755859</ele>
        <time>2020-06-30T09:04:24.000Z</time>
      </trkpt>
      <trkpt lat="43.98538" lon="7.27173">
        <ele>1091.1999511719</ele>
        <time>2020-06-30T09:04:30.000Z</time>
      </trkpt>
      <trkpt lat="43.98523" lon="7.27176">
        <ele>1090.8000488281</ele>
        <time>2020-06-30T09:04:34.000Z</time>
      </trkpt>
      <trkpt lat="43.98515" lon="7.27175">
        <ele>1090.5999755859</ele>
        <time>2020-06-30T09:04:36.000Z</time>
      </trkpt>
      <trkpt lat="43.98506" lon="7.2718">
        <ele>1090.4000244141</ele>
        <time>2020-06-30T09:04:39.000Z</time>
      </trkpt>
      <trkpt lat="43.98496" lon="7.27198">
        <ele>1090.8000488281</ele>
        <time>2020-06-30T09:04:43.000Z</time>
      </trkpt>
      <trkpt lat="43.98489" lon="7.27225">
        <ele>1090.1999511719</ele>
        <time>2020-06-30T09:04:48.000Z</time>
      </trkpt>
      <trkpt lat="43.98485" lon="7.27249">
        <ele>1090.4000244141</ele>
        <time>2020-06-30T09:04:53.000Z</time>
      </trkpt>
      <trkpt lat="43.98476" lon="7.27267">
        <ele>1090</ele>
        <time>2020-06-30T09:04:57.000Z</time>
      </trkpt>
      <trkpt lat="43.9846" lon="7.27286">
        <ele>1089.5999755859</ele>
        <time>2020-06-30T09:05:02.000Z</time>
      </trkpt>
      <trkpt lat="43.98458" lon="7.27289">
        <ele>1089.4000244141</ele>
        <time>2020-06-30T09:05:03.000Z</time>
      </trkpt>
      <trkpt lat="43.98453" lon="7.27309">
        <ele>1088.4000244141</ele>
        <time>2020-06-30T09:05:08.000Z</time>
      </trkpt>
      <trkpt lat="43.98452" lon="7.27311">
        <ele>1088.4000244141</ele>
        <time>2020-06-30T09:05:11.000Z</time>
      </trkpt>
      <trkpt lat="43.98453" lon="7.27312">
        <ele>1088.5999755859</ele>
        <time>2020-06-30T09:05:18.000Z</time>
      </trkpt>
      <trkpt lat="43.98454" lon="7.27314">
        <ele>1088.4000244141</ele>
        <time>2020-06-30T09:05:45.000Z</time>
      </trkpt>
      <trkpt lat="43.98456" lon="7.27317">
        <ele>1088.1999511719</ele>
        <time>2020-06-30T09:05:49.000Z</time>
      </trkpt>
      <trkpt lat="43.98456" lon="7.27317">
        <ele>1087.4000244141</ele>
        <time>2020-06-30T09:05:52.000Z</time>
      </trkpt>
      <trkpt lat="43.98457" lon="7.27317">
        <ele>1087.1999511719</ele>
        <time>2020-06-30T09:05:54.000Z</time>
      </trkpt>
      <trkpt lat="43.98458" lon="7.27321">
        <ele>1087</ele>
        <time>2020-06-30T09:06:00.000Z</time>
      </trkpt>
      <trkpt lat="43.98458" lon="7.27332">
        <ele>1086.4000244141</ele>
        <time>2020-06-30T09:06:04.000Z</time>
      </trkpt>
      <trkpt lat="43.98458" lon="7.27339">
        <ele>1085.8000488281</ele>
        <time>2020-06-30T09:06:06.000Z</time>
      </trkpt>
      <trkpt lat="43.98457" lon="7.27346">
        <ele>1085.1999511719</ele>
        <time>2020-06-30T09:06:08.000Z</time>
      </trkpt>
      <trkpt lat="43.98455" lon="7.27359">
        <ele>1084</ele>
        <time>2020-06-30T09:06:11.000Z</time>
      </trkpt>
      <trkpt lat="43.98453" lon="7.27368">
        <ele>1082.8000488281</ele>
        <time>2020-06-30T09:06:13.000Z</time>
      </trkpt>
      <trkpt lat="43.98452" lon="7.27375">
        <ele>1081.8000488281</ele>
        <time>2020-06-30T09:06:15.000Z</time>
      </trkpt>
      <trkpt lat="43.98451" lon="7.27392">
        <ele>1080.8000488281</ele>
        <time>2020-06-30T09:06:19.000Z</time>
      </trkpt>
      <trkpt lat="43.98451" lon="7.27397">
        <ele>1080.5999755859</ele>
        <time>2020-06-30T09:06:20.000Z</time>
      </trkpt>
      <trkpt lat="43.98451" lon="7.27402">
        <ele>1080.1999511719</ele>
        <time>2020-06-30T09:06:21.000Z</time>
      </trkpt>
      <trkpt lat="43.98453" lon="7.27415">
        <ele>1079.5999755859</ele>
        <time>2020-06-30T09:06:23.000Z</time>
      </trkpt>
      <trkpt lat="43.98454" lon="7.27421">
        <ele>1079.4000244141</ele>
        <time>2020-06-30T09:06:24.000Z</time>
      </trkpt>
      <trkpt lat="43.98455" lon="7.27429">
        <ele>1078.5999755859</ele>
        <time>2020-06-30T09:06:27.000Z</time>
      </trkpt>
      <trkpt lat="43.98455" lon="7.27439">
        <ele>1079.8000488281</ele>
        <time>2020-06-30T09:06:31.000Z</time>
      </trkpt>
      <trkpt lat="43.98455" lon="7.27443">
        <ele>1079.8000488281</ele>
        <time>2020-06-30T09:06:32.000Z</time>
      </trkpt>
      <trkpt lat="43.98454" lon="7.27462">
        <ele>1080</ele>
        <time>2020-06-30T09:06:36.000Z</time>
      </trkpt>
      <trkpt lat="43.98456" lon="7.27467">
        <ele>1080</ele>
        <time>2020-06-30T09:06:37.000Z</time>
      </trkpt>
      <trkpt lat="43.98462" lon="7.27484">
        <ele>1079.5999755859</ele>
        <time>2020-06-30T09:06:41.000Z</time>
      </trkpt>
      <trkpt lat="43.98462" lon="7.27486">
        <ele>1078.8000488281</ele>
        <time>2020-06-30T09:06:44.000Z</time>
      </trkpt>
      <trkpt lat="43.98464" lon="7.27491">
        <ele>1078.5999755859</ele>
        <time>2020-06-30T09:06:50.000Z</time>
      </trkpt>
      <trkpt lat="43.98464" lon="7.27491">
        <ele>1078.1999511719</ele>
        <time>2020-06-30T09:06:52.000Z</time>
      </trkpt>
      <trkpt lat="43.98465" lon="7.27495">
        <ele>1078</ele>
        <time>2020-06-30T09:06:56.000Z</time>
      </trkpt>
      <trkpt lat="43.98466" lon="7.27498">
        <ele>1078.5999755859</ele>
        <time>2020-06-30T09:07:01.000Z</time>
      </trkpt>
      <trkpt lat="43.9847" lon="7.27507">
        <ele>1079</ele>
        <time>2020-06-30T09:07:06.000Z</time>
      </trkpt>
      <trkpt lat="43.98471" lon="7.27512">
        <ele>1079.1999511719</ele>
        <time>2020-06-30T09:07:07.000Z</time>
      </trkpt>
      <trkpt lat="43.98475" lon="7.27531">
        <ele>1079</ele>
        <time>2020-06-30T09:07:11.000Z</time>
      </trkpt>
      <trkpt lat="43.98474" lon="7.27536">
        <ele>1078.5999755859</ele>
        <time>2020-06-30T09:07:12.000Z</time>
      </trkpt>
      <trkpt lat="43.98471" lon="7.27552">
        <ele>1077.5999755859</ele>
        <time>2020-06-30T09:07:16.000Z</time>
      </trkpt>
      <trkpt lat="43.98471" lon="7.27555">
        <ele>1077.8000488281</ele>
        <time>2020-06-30T09:07:17.000Z</time>
      </trkpt>
      <trkpt lat="43.98474" lon="7.27566">
        <ele>1078</ele>
        <time>2020-06-30T09:07:20.000Z</time>
      </trkpt>
      <trkpt lat="43.98477" lon="7.27582">
        <ele>1077.1999511719</ele>
        <time>2020-06-30T09:07:23.000Z</time>
      </trkpt>
      <trkpt lat="43.98478" lon="7.27588">
        <ele>1076.5999755859</ele>
        <time>2020-06-30T09:07:24.000Z</time>
      </trkpt>
      <trkpt lat="43.98479" lon="7.27595">
        <ele>1075.8000488281</ele>
        <time>2020-06-30T09:07:25.000Z</time>
      </trkpt>
      <trkpt lat="43.98481" lon="7.27606">
        <ele>1074.5999755859</ele>
        <time>2020-06-30T09:07:27.000Z</time>
      </trkpt>
      <trkpt lat="43.98485" lon="7.27621">
        <ele>1073.8000488281</ele>
        <time>2020-06-30T09:07:30.000Z</time>
      </trkpt>
      <trkpt lat="43.98487" lon="7.27633">
        <ele>1073.5999755859</ele>
        <time>2020-06-30T09:07:32.000Z</time>
      </trkpt>
      <trkpt lat="43.98491" lon="7.27643">
        <ele>1073.1999511719</ele>
        <time>2020-06-30T09:07:34.000Z</time>
      </trkpt>
      <trkpt lat="43.98494" lon="7.27653">
        <ele>1071.8000488281</ele>
        <time>2020-06-30T09:07:36.000Z</time>
      </trkpt>
      <trkpt lat="43.98497" lon="7.27665">
        <ele>1070.1999511719</ele>
        <time>2020-06-30T09:07:38.000Z</time>
      </trkpt>
      <trkpt lat="43.98497" lon="7.27671">
        <ele>1069.8000488281</ele>
        <time>2020-06-30T09:07:39.000Z</time>
      </trkpt>
      <trkpt lat="43.98498" lon="7.27678">
        <ele>1068.4000244141</ele>
        <time>2020-06-30T09:07:40.000Z</time>
      </trkpt>
      <trkpt lat="43.98499" lon="7.27693">
        <ele>1067</ele>
        <time>2020-06-30T09:07:42.000Z</time>
      </trkpt>
      <trkpt lat="43.98499" lon="7.27699">
        <ele>1065.8000488281</ele>
        <time>2020-06-30T09:07:43.000Z</time>
      </trkpt>
      <trkpt lat="43.98497" lon="7.27707">
        <ele>1065</ele>
        <time>2020-06-30T09:07:45.000Z</time>
      </trkpt>
      <trkpt lat="43.98493" lon="7.2771">
        <ele>1064.4000244141</ele>
        <time>2020-06-30T09:07:47.000Z</time>
      </trkpt>
      <trkpt lat="43.98486" lon="7.27711">
        <ele>1064</ele>
        <time>2020-06-30T09:07:49.000Z</time>
      </trkpt>
      <trkpt lat="43.98483" lon="7.27711">
        <ele>1063.4000244141</ele>
        <time>2020-06-30T09:07:50.000Z</time>
      </trkpt>
      <trkpt lat="43.98475" lon="7.27709">
        <ele>1061.5999755859</ele>
        <time>2020-06-30T09:07:52.000Z</time>
      </trkpt>
      <trkpt lat="43.9847" lon="7.27714">
        <ele>1059.8000488281</ele>
        <time>2020-06-30T09:07:54.000Z</time>
      </trkpt>
      <trkpt lat="43.9847" lon="7.27717">
        <ele>1058.5999755859</ele>
        <time>2020-06-30T09:07:55.000Z</time>
      </trkpt>
      <trkpt lat="43.98468" lon="7.27724">
        <ele>1056.4000244141</ele>
        <time>2020-06-30T09:07:57.000Z</time>
      </trkpt>
      <trkpt lat="43.98466" lon="7.27727">
        <ele>1055.5999755859</ele>
        <time>2020-06-30T09:07:58.000Z</time>
      </trkpt>
      <trkpt lat="43.98463" lon="7.27727">
        <ele>1054.4000244141</ele>
        <time>2020-06-30T09:07:59.000Z</time>
      </trkpt>
      <trkpt lat="43.98459" lon="7.27724">
        <ele>1052.5999755859</ele>
        <time>2020-06-30T09:08:01.000Z</time>
      </trkpt>
      <trkpt lat="43.98458" lon="7.27718">
        <ele>1051.4000244141</ele>
        <time>2020-06-30T09:08:03.000Z</time>
      </trkpt>
      <trkpt lat="43.98457" lon="7.27714">
        <ele>1050.1999511719</ele>
        <time>2020-06-30T09:08:05.000Z</time>
      </trkpt>
      <trkpt lat="43.9845" lon="7.27709">
        <ele>1048.5999755859</ele>
        <time>2020-06-30T09:08:08.000Z</time>
      </trkpt>
      <trkpt lat="43.98445" lon="7.27708">
        <ele>1048.4000244141</ele>
        <time>2020-06-30T09:08:10.000Z</time>
      </trkpt>
      <trkpt lat="43.98441" lon="7.27711">
        <ele>1047.4000244141</ele>
        <time>2020-06-30T09:08:12.000Z</time>
      </trkpt>
      <trkpt lat="43.98438" lon="7.2772">
        <ele>1045.8000488281</ele>
        <time>2020-06-30T09:08:14.000Z</time>
      </trkpt>
      <trkpt lat="43.98437" lon="7.27729">
        <ele>1044.5999755859</ele>
        <time>2020-06-30T09:08:16.000Z</time>
      </trkpt>
      <trkpt lat="43.98437" lon="7.27735">
        <ele>1043.5999755859</ele>
        <time>2020-06-30T09:08:18.000Z</time>
      </trkpt>
      <trkpt lat="43.98436" lon="7.27738">
        <ele>1043.1999511719</ele>
        <time>2020-06-30T09:08:19.000Z</time>
      </trkpt>
      <trkpt lat="43.98434" lon="7.27744">
        <ele>1041.8000488281</ele>
        <time>2020-06-30T09:08:21.000Z</time>
      </trkpt>
      <trkpt lat="43.98433" lon="7.27749">
        <ele>1040.8000488281</ele>
        <time>2020-06-30T09:08:22.000Z</time>
      </trkpt>
      <trkpt lat="43.98434" lon="7.27753">
        <ele>1040</ele>
        <time>2020-06-30T09:08:23.000Z</time>
      </trkpt>
      <trkpt lat="43.98435" lon="7.27757">
        <ele>1039.1999511719</ele>
        <time>2020-06-30T09:08:24.000Z</time>
      </trkpt>
      <trkpt lat="43.98433" lon="7.27763">
        <ele>1037.5999755859</ele>
        <time>2020-06-30T09:08:26.000Z</time>
      </trkpt>
      <trkpt lat="43.98432" lon="7.27765">
        <ele>1037</ele>
        <time>2020-06-30T09:08:27.000Z</time>
      </trkpt>
      <trkpt lat="43.98432" lon="7.27766">
        <ele>1036</ele>
        <time>2020-06-30T09:08:28.000Z</time>
      </trkpt>
      <trkpt lat="43.98431" lon="7.27769">
        <ele>1034.8000488281</ele>
        <time>2020-06-30T09:08:30.000Z</time>
      </trkpt>
      <trkpt lat="43.98431" lon="7.27771">
        <ele>1034</ele>
        <time>2020-06-30T09:08:31.000Z</time>
      </trkpt>
      <trkpt lat="43.98432" lon="7.27773">
        <ele>1033.5999755859</ele>
        <time>2020-06-30T09:08:32.000Z</time>
      </trkpt>
      <trkpt lat="43.98433" lon="7.27776">
        <ele>1033.4000244141</ele>
        <time>2020-06-30T09:08:33.000Z</time>
      </trkpt>
      <trkpt lat="43.98434" lon="7.27782">
        <ele>1032.1999511719</ele>
        <time>2020-06-30T09:08:35.000Z</time>
      </trkpt>
      <trkpt lat="43.98433" lon="7.27797">
        <ele>1030.5999755859</ele>
        <time>2020-06-30T09:08:38.000Z</time>
      </trkpt>
      <trkpt lat="43.98431" lon="7.27807">
        <ele>1029</ele>
        <time>2020-06-30T09:08:40.000Z</time>
      </trkpt>
      <trkpt lat="43.98425" lon="7.27813">
        <ele>1027.5999755859</ele>
        <time>2020-06-30T09:08:42.000Z</time>
      </trkpt>
      <trkpt lat="43.98423" lon="7.27815">
        <ele>1027.1999511719</ele>
        <time>2020-06-30T09:08:43.000Z</time>
      </trkpt>
      <trkpt lat="43.98422" lon="7.27817">
        <ele>1026.5999755859</ele>
        <time>2020-06-30T09:08:44.000Z</time>
      </trkpt>
      <trkpt lat="43.98422" lon="7.27821">
        <ele>1026.4000244141</ele>
        <time>2020-06-30T09:08:45.000Z</time>
      </trkpt>
      <trkpt lat="43.98423" lon="7.27823">
        <ele>1026</ele>
        <time>2020-06-30T09:08:46.000Z</time>
      </trkpt>
      <trkpt lat="43.98424" lon="7.27831">
        <ele>1024.8000488281</ele>
        <time>2020-06-30T09:08:48.000Z</time>
      </trkpt>
      <trkpt lat="43.98424" lon="7.27834">
        <ele>1024.4000244141</ele>
        <time>2020-06-30T09:08:49.000Z</time>
      </trkpt>
      <trkpt lat="43.98424" lon="7.27837">
        <ele>1024.1999511719</ele>
        <time>2020-06-30T09:08:50.000Z</time>
      </trkpt>
      <trkpt lat="43.98424" lon="7.27841">
        <ele>1023.5999755859</ele>
        <time>2020-06-30T09:08:51.000Z</time>
      </trkpt>
      <trkpt lat="43.98423" lon="7.27849">
        <ele>1022.799987793</ele>
        <time>2020-06-30T09:08:53.000Z</time>
      </trkpt>
      <trkpt lat="43.98423" lon="7.27853">
        <ele>1022.4000244141</ele>
        <time>2020-06-30T09:08:54.000Z</time>
      </trkpt>
      <trkpt lat="43.98422" lon="7.27861">
        <ele>1021.200012207</ele>
        <time>2020-06-30T09:08:56.000Z</time>
      </trkpt>
      <trkpt lat="43.98422" lon="7.27868">
        <ele>1020</ele>
        <time>2020-06-30T09:08:58.000Z</time>
      </trkpt>
      <trkpt lat="43.98421" lon="7.27871">
        <ele>1019.4000244141</ele>
        <time>2020-06-30T09:08:59.000Z</time>
      </trkpt>
      <trkpt lat="43.98419" lon="7.27874">
        <ele>1018.5999755859</ele>
        <time>2020-06-30T09:09:00.000Z</time>
      </trkpt>
      <trkpt lat="43.98419" lon="7.2788">
        <ele>1017</ele>
        <time>2020-06-30T09:09:02.000Z</time>
      </trkpt>
      <trkpt lat="43.98419" lon="7.27885">
        <ele>1016.5999755859</ele>
        <time>2020-06-30T09:09:03.000Z</time>
      </trkpt>
      <trkpt lat="43.98418" lon="7.27888">
        <ele>1015.799987793</ele>
        <time>2020-06-30T09:09:04.000Z</time>
      </trkpt>
      <trkpt lat="43.98417" lon="7.27902">
        <ele>1015</ele>
        <time>2020-06-30T09:09:07.000Z</time>
      </trkpt>
      <trkpt lat="43.98415" lon="7.27906">
        <ele>1014.4000244141</ele>
        <time>2020-06-30T09:09:08.000Z</time>
      </trkpt>
      <trkpt lat="43.9841" lon="7.27919">
        <ele>1012.4000244141</ele>
        <time>2020-06-30T09:09:11.000Z</time>
      </trkpt>
      <trkpt lat="43.98409" lon="7.27926">
        <ele>1011</ele>
        <time>2020-06-30T09:09:13.000Z</time>
      </trkpt>
      <trkpt lat="43.98409" lon="7.27936">
        <ele>1009.5999755859</ele>
        <time>2020-06-30T09:09:15.000Z</time>
      </trkpt>
      <trkpt lat="43.98409" lon="7.27943">
        <ele>1008.5999755859</ele>
        <time>2020-06-30T09:09:17.000Z</time>
      </trkpt>
      <trkpt lat="43.98409" lon="7.27952">
        <ele>1007.799987793</ele>
        <time>2020-06-30T09:09:19.000Z</time>
      </trkpt>
      <trkpt lat="43.98409" lon="7.2796">
        <ele>1007.200012207</ele>
        <time>2020-06-30T09:09:20.000Z</time>
      </trkpt>
      <trkpt lat="43.9841" lon="7.27972">
        <ele>1006.5999755859</ele>
        <time>2020-06-30T09:09:22.000Z</time>
      </trkpt>
      <trkpt lat="43.9841" lon="7.27978">
        <ele>1006</ele>
        <time>2020-06-30T09:09:23.000Z</time>
      </trkpt>
      <trkpt lat="43.98413" lon="7.27999">
        <ele>1004.5999755859</ele>
        <time>2020-06-30T09:09:27.000Z</time>
      </trkpt>
      <trkpt lat="43.98413" lon="7.28002">
        <ele>1003.5999755859</ele>
        <time>2020-06-30T09:09:30.000Z</time>
      </trkpt>
      <trkpt lat="43.98413" lon="7.28003">
        <ele>1003.5999755859</ele>
        <time>2020-06-30T09:09:31.000Z</time>
      </trkpt>
      <trkpt lat="43.98409" lon="7.28005">
        <ele>1002.4000244141</ele>
        <time>2020-06-30T09:09:45.000Z</time>
      </trkpt>
      <trkpt lat="43.98404" lon="7.28002">
        <ele>1002</ele>
        <time>2020-06-30T09:09:49.000Z</time>
      </trkpt>
      <trkpt lat="43.98401" lon="7.28002">
        <ele>1001.5999755859</ele>
        <time>2020-06-30T09:09:50.000Z</time>
      </trkpt>
      <trkpt lat="43.98399" lon="7.28003">
        <ele>1001.4000244141</ele>
        <time>2020-06-30T09:09:51.000Z</time>
      </trkpt>
      <trkpt lat="43.98398" lon="7.28006">
        <ele>1001.200012207</ele>
        <time>2020-06-30T09:09:52.000Z</time>
      </trkpt>
      <trkpt lat="43.98396" lon="7.28018">
        <ele>1000.200012207</ele>
        <time>2020-06-30T09:09:55.000Z</time>
      </trkpt>
      <trkpt lat="43.98396" lon="7.28024">
        <ele>999.59997558594</ele>
        <time>2020-06-30T09:09:56.000Z</time>
      </trkpt>
      <trkpt lat="43.98395" lon="7.28027">
        <ele>998.20001220703</ele>
        <time>2020-06-30T09:09:57.000Z</time>
      </trkpt>
      <trkpt lat="43.98393" lon="7.2803">
        <ele>997</ele>
        <time>2020-06-30T09:09:58.000Z</time>
      </trkpt>
      <trkpt lat="43.98391" lon="7.28033">
        <ele>996</ele>
        <time>2020-06-30T09:09:59.000Z</time>
      </trkpt>
      <trkpt lat="43.98389" lon="7.28037">
        <ele>995.20001220703</ele>
        <time>2020-06-30T09:10:00.000Z</time>
      </trkpt>
      <trkpt lat="43.98385" lon="7.28041">
        <ele>993.79998779297</ele>
        <time>2020-06-30T09:10:02.000Z</time>
      </trkpt>
      <trkpt lat="43.98384" lon="7.28042">
        <ele>993.40002441406</ele>
        <time>2020-06-30T09:10:03.000Z</time>
      </trkpt>
      <trkpt lat="43.98385" lon="7.28043">
        <ele>992.40002441406</ele>
        <time>2020-06-30T09:10:05.000Z</time>
      </trkpt>
      <trkpt lat="43.98386" lon="7.28044">
        <ele>991.79998779297</ele>
        <time>2020-06-30T09:10:06.000Z</time>
      </trkpt>
      <trkpt lat="43.98388" lon="7.28047">
        <ele>991.40002441406</ele>
        <time>2020-06-30T09:10:07.000Z</time>
      </trkpt>
      <trkpt lat="43.98392" lon="7.28053">
        <ele>990.20001220703</ele>
        <time>2020-06-30T09:10:09.000Z</time>
      </trkpt>
      <trkpt lat="43.98393" lon="7.28057">
        <ele>989.59997558594</ele>
        <time>2020-06-30T09:10:10.000Z</time>
      </trkpt>
      <trkpt lat="43.98392" lon="7.28059">
        <ele>988.59997558594</ele>
        <time>2020-06-30T09:10:11.000Z</time>
      </trkpt>
      <trkpt lat="43.98388" lon="7.28061">
        <ele>986.79998779297</ele>
        <time>2020-06-30T09:10:13.000Z</time>
      </trkpt>
      <trkpt lat="43.98382" lon="7.28062">
        <ele>985.40002441406</ele>
        <time>2020-06-30T09:10:15.000Z</time>
      </trkpt>
      <trkpt lat="43.98378" lon="7.28066">
        <ele>984.79998779297</ele>
        <time>2020-06-30T09:10:17.000Z</time>
      </trkpt>
      <trkpt lat="43.98375" lon="7.28067">
        <ele>984.20001220703</ele>
        <time>2020-06-30T09:10:18.000Z</time>
      </trkpt>
      <trkpt lat="43.98372" lon="7.28065">
        <ele>983.59997558594</ele>
        <time>2020-06-30T09:10:19.000Z</time>
      </trkpt>
      <trkpt lat="43.9837" lon="7.28065">
        <ele>983.20001220703</ele>
        <time>2020-06-30T09:10:20.000Z</time>
      </trkpt>
      <trkpt lat="43.98365" lon="7.28065">
        <ele>981.59997558594</ele>
        <time>2020-06-30T09:10:22.000Z</time>
      </trkpt>
      <trkpt lat="43.98362" lon="7.28066">
        <ele>981</ele>
        <time>2020-06-30T09:10:23.000Z</time>
      </trkpt>
      <trkpt lat="43.98361" lon="7.28065">
        <ele>980.40002441406</ele>
        <time>2020-06-30T09:10:24.000Z</time>
      </trkpt>
      <trkpt lat="43.9836" lon="7.28063">
        <ele>979.79998779297</ele>
        <time>2020-06-30T09:10:26.000Z</time>
      </trkpt>
      <trkpt lat="43.98359" lon="7.28062">
        <ele>979.40002441406</ele>
        <time>2020-06-30T09:10:27.000Z</time>
      </trkpt>
      <trkpt lat="43.98358" lon="7.28062">
        <ele>978.79998779297</ele>
        <time>2020-06-30T09:10:28.000Z</time>
      </trkpt>
      <trkpt lat="43.98355" lon="7.28063">
        <ele>978.20001220703</ele>
        <time>2020-06-30T09:10:30.000Z</time>
      </trkpt>
      <trkpt lat="43.98352" lon="7.28062">
        <ele>977.59997558594</ele>
        <time>2020-06-30T09:10:31.000Z</time>
      </trkpt>
      <trkpt lat="43.9835" lon="7.28062">
        <ele>977</ele>
        <time>2020-06-30T09:10:32.000Z</time>
      </trkpt>
      <trkpt lat="43.98348" lon="7.28063">
        <ele>975.40002441406</ele>
        <time>2020-06-30T09:10:34.000Z</time>
      </trkpt>
      <trkpt lat="43.98348" lon="7.28064">
        <ele>974.59997558594</ele>
        <time>2020-06-30T09:10:35.000Z</time>
      </trkpt>
      <trkpt lat="43.98349" lon="7.28066">
        <ele>974</ele>
        <time>2020-06-30T09:10:36.000Z</time>
      </trkpt>
      <trkpt lat="43.9835" lon="7.2807">
        <ele>973.40002441406</ele>
        <time>2020-06-30T09:10:37.000Z</time>
      </trkpt>
      <trkpt lat="43.98351" lon="7.28072">
        <ele>972.59997558594</ele>
        <time>2020-06-30T09:10:38.000Z</time>
      </trkpt>
      <trkpt lat="43.98353" lon="7.28075">
        <ele>972</ele>
        <time>2020-06-30T09:10:39.000Z</time>
      </trkpt>
      <trkpt lat="43.98356" lon="7.28079">
        <ele>971.40002441406</ele>
        <time>2020-06-30T09:10:40.000Z</time>
      </trkpt>
      <trkpt lat="43.9836" lon="7.28082">
        <ele>969.79998779297</ele>
        <time>2020-06-30T09:10:42.000Z</time>
      </trkpt>
      <trkpt lat="43.98361" lon="7.28085">
        <ele>969.20001220703</ele>
        <time>2020-06-30T09:10:43.000Z</time>
      </trkpt>
      <trkpt lat="43.98364" lon="7.2809">
        <ele>968.20001220703</ele>
        <time>2020-06-30T09:10:45.000Z</time>
      </trkpt>
      <trkpt lat="43.98368" lon="7.28093">
        <ele>967.20001220703</ele>
        <time>2020-06-30T09:10:47.000Z</time>
      </trkpt>
      <trkpt lat="43.98372" lon="7.28094">
        <ele>965.59997558594</ele>
        <time>2020-06-30T09:10:49.000Z</time>
      </trkpt>
      <trkpt lat="43.98372" lon="7.28097">
        <ele>963.59997558594</ele>
        <time>2020-06-30T09:10:51.000Z</time>
      </trkpt>
      <trkpt lat="43.98367" lon="7.28098">
        <ele>962.59997558594</ele>
        <time>2020-06-30T09:10:53.000Z</time>
      </trkpt>
      <trkpt lat="43.98363" lon="7.28098">
        <ele>961.79998779297</ele>
        <time>2020-06-30T09:10:55.000Z</time>
      </trkpt>
      <trkpt lat="43.98361" lon="7.281">
        <ele>961.20001220703</ele>
        <time>2020-06-30T09:10:56.000Z</time>
      </trkpt>
      <trkpt lat="43.98356" lon="7.281">
        <ele>960</ele>
        <time>2020-06-30T09:10:58.000Z</time>
      </trkpt>
      <trkpt lat="43.98355" lon="7.28101">
        <ele>959.40002441406</ele>
        <time>2020-06-30T09:10:59.000Z</time>
      </trkpt>
      <trkpt lat="43.98354" lon="7.28102">
        <ele>958.79998779297</ele>
        <time>2020-06-30T09:11:00.000Z</time>
      </trkpt>
      <trkpt lat="43.98352" lon="7.28104">
        <ele>957.59997558594</ele>
        <time>2020-06-30T09:11:02.000Z</time>
      </trkpt>
      <trkpt lat="43.98353" lon="7.28107">
        <ele>956.40002441406</ele>
        <time>2020-06-30T09:11:04.000Z</time>
      </trkpt>
      <trkpt lat="43.98352" lon="7.28114">
        <ele>955</ele>
        <time>2020-06-30T09:11:06.000Z</time>
      </trkpt>
      <trkpt lat="43.98353" lon="7.28117">
        <ele>954.40002441406</ele>
        <time>2020-06-30T09:11:07.000Z</time>
      </trkpt>
      <trkpt lat="43.98354" lon="7.28123">
        <ele>953.59997558594</ele>
        <time>2020-06-30T09:11:08.000Z</time>
      </trkpt>
      <trkpt lat="43.98354" lon="7.28129">
        <ele>952.40002441406</ele>
        <time>2020-06-30T09:11:09.000Z</time>
      </trkpt>
      <trkpt lat="43.98355" lon="7.28134">
        <ele>951.59997558594</ele>
        <time>2020-06-30T09:11:10.000Z</time>
      </trkpt>
      <trkpt lat="43.98357" lon="7.28137">
        <ele>950.59997558594</ele>
        <time>2020-06-30T09:11:11.000Z</time>
      </trkpt>
      <trkpt lat="43.98363" lon="7.28142">
        <ele>948.79998779297</ele>
        <time>2020-06-30T09:11:13.000Z</time>
      </trkpt>
      <trkpt lat="43.98366" lon="7.28145">
        <ele>947.59997558594</ele>
        <time>2020-06-30T09:11:14.000Z</time>
      </trkpt>
      <trkpt lat="43.98369" lon="7.28151">
        <ele>946.20001220703</ele>
        <time>2020-06-30T09:11:16.000Z</time>
      </trkpt>
      <trkpt lat="43.98369" lon="7.28156">
        <ele>945</ele>
        <time>2020-06-30T09:11:17.000Z</time>
      </trkpt>
      <trkpt lat="43.9837" lon="7.28164">
        <ele>944</ele>
        <time>2020-06-30T09:11:19.000Z</time>
      </trkpt>
      <trkpt lat="43.98372" lon="7.28168">
        <ele>942</ele>
        <time>2020-06-30T09:11:21.000Z</time>
      </trkpt>
      <trkpt lat="43.98374" lon="7.28172">
        <ele>941</ele>
        <time>2020-06-30T09:11:23.000Z</time>
      </trkpt>
      <trkpt lat="43.98376" lon="7.28173">
        <ele>940.79998779297</ele>
        <time>2020-06-30T09:11:24.000Z</time>
      </trkpt>
      <trkpt lat="43.98378" lon="7.28177">
        <ele>940.40002441406</ele>
        <time>2020-06-30T09:11:26.000Z</time>
      </trkpt>
      <trkpt lat="43.98382" lon="7.28187">
        <ele>939.59997558594</ele>
        <time>2020-06-30T09:11:30.000Z</time>
      </trkpt>
      <trkpt lat="43.98381" lon="7.28186">
        <ele>939.40002441406</ele>
        <time>2020-06-30T09:11:31.000Z</time>
      </trkpt>
      <trkpt lat="43.98382" lon="7.28188">
        <ele>938.40002441406</ele>
        <time>2020-06-30T09:11:34.000Z</time>
      </trkpt>
      <trkpt lat="43.98382" lon="7.28188">
        <ele>938</ele>
        <time>2020-06-30T09:11:40.000Z</time>
      </trkpt>
      <trkpt lat="43.98382" lon="7.28198">
        <ele>938</ele>
        <time>2020-06-30T09:11:45.000Z</time>
      </trkpt>
      <trkpt lat="43.98382" lon="7.2821">
        <ele>937.79998779297</ele>
        <time>2020-06-30T09:11:47.000Z</time>
      </trkpt>
      <trkpt lat="43.98383" lon="7.28216">
        <ele>937.59997558594</ele>
        <time>2020-06-30T09:11:48.000Z</time>
      </trkpt>
      <trkpt lat="43.98385" lon="7.28221">
        <ele>937.40002441406</ele>
        <time>2020-06-30T09:11:49.000Z</time>
      </trkpt>
      <trkpt lat="43.98389" lon="7.2823">
        <ele>936</ele>
        <time>2020-06-30T09:11:51.000Z</time>
      </trkpt>
      <trkpt lat="43.9839" lon="7.28235">
        <ele>935.20001220703</ele>
        <time>2020-06-30T09:11:52.000Z</time>
      </trkpt>
      <trkpt lat="43.98391" lon="7.2824">
        <ele>934.40002441406</ele>
        <time>2020-06-30T09:11:53.000Z</time>
      </trkpt>
      <trkpt lat="43.98392" lon="7.28245">
        <ele>933.20001220703</ele>
        <time>2020-06-30T09:11:54.000Z</time>
      </trkpt>
      <trkpt lat="43.98396" lon="7.2825">
        <ele>931.40002441406</ele>
        <time>2020-06-30T09:11:56.000Z</time>
      </trkpt>
      <trkpt lat="43.98397" lon="7.28253">
        <ele>930.40002441406</ele>
        <time>2020-06-30T09:11:57.000Z</time>
      </trkpt>
      <trkpt lat="43.98396" lon="7.28256">
        <ele>929.40002441406</ele>
        <time>2020-06-30T09:11:58.000Z</time>
      </trkpt>
      <trkpt lat="43.98396" lon="7.28259">
        <ele>928.59997558594</ele>
        <time>2020-06-30T09:11:59.000Z</time>
      </trkpt>
      <trkpt lat="43.98395" lon="7.28263">
        <ele>927.79998779297</ele>
        <time>2020-06-30T09:12:00.000Z</time>
      </trkpt>
      <trkpt lat="43.98395" lon="7.28267">
        <ele>926.79998779297</ele>
        <time>2020-06-30T09:12:01.000Z</time>
      </trkpt>
      <trkpt lat="43.98397" lon="7.2827">
        <ele>925.59997558594</ele>
        <time>2020-06-30T09:12:02.000Z</time>
      </trkpt>
      <trkpt lat="43.98399" lon="7.28273">
        <ele>924.79998779297</ele>
        <time>2020-06-30T09:12:03.000Z</time>
      </trkpt>
      <trkpt lat="43.98401" lon="7.28277">
        <ele>923.59997558594</ele>
        <time>2020-06-30T09:12:04.000Z</time>
      </trkpt>
      <trkpt lat="43.98401" lon="7.28288">
        <ele>921.79998779297</ele>
        <time>2020-06-30T09:12:06.000Z</time>
      </trkpt>
      <trkpt lat="43.98403" lon="7.28293">
        <ele>920.59997558594</ele>
        <time>2020-06-30T09:12:07.000Z</time>
      </trkpt>
      <trkpt lat="43.98405" lon="7.28297">
        <ele>919.59997558594</ele>
        <time>2020-06-30T09:12:08.000Z</time>
      </trkpt>
      <trkpt lat="43.98408" lon="7.28302">
        <ele>918.79998779297</ele>
        <time>2020-06-30T09:12:09.000Z</time>
      </trkpt>
      <trkpt lat="43.98411" lon="7.28307">
        <ele>917.79998779297</ele>
        <time>2020-06-30T09:12:10.000Z</time>
      </trkpt>
      <trkpt lat="43.98413" lon="7.28313">
        <ele>917.20001220703</ele>
        <time>2020-06-30T09:12:11.000Z</time>
      </trkpt>
      <trkpt lat="43.98415" lon="7.2832">
        <ele>916.20001220703</ele>
        <time>2020-06-30T09:12:12.000Z</time>
      </trkpt>
      <trkpt lat="43.98417" lon="7.28331">
        <ele>915.20001220703</ele>
        <time>2020-06-30T09:12:14.000Z</time>
      </trkpt>
      <trkpt lat="43.98416" lon="7.28335">
        <ele>914.59997558594</ele>
        <time>2020-06-30T09:12:15.000Z</time>
      </trkpt>
      <trkpt lat="43.98413" lon="7.28336">
        <ele>914</ele>
        <time>2020-06-30T09:12:16.000Z</time>
      </trkpt>
      <trkpt lat="43.98409" lon="7.28333">
        <ele>913.40002441406</ele>
        <time>2020-06-30T09:12:18.000Z</time>
      </trkpt>
      <trkpt lat="43.98409" lon="7.2833">
        <ele>912.79998779297</ele>
        <time>2020-06-30T09:12:19.000Z</time>
      </trkpt>
      <trkpt lat="43.98408" lon="7.28326">
        <ele>912.20001220703</ele>
        <time>2020-06-30T09:12:20.000Z</time>
      </trkpt>
      <trkpt lat="43.98407" lon="7.28325">
        <ele>911.40002441406</ele>
        <time>2020-06-30T09:12:21.000Z</time>
      </trkpt>
      <trkpt lat="43.98405" lon="7.28318">
        <ele>909.79998779297</ele>
        <time>2020-06-30T09:12:24.000Z</time>
      </trkpt>
      <trkpt lat="43.98403" lon="7.28316">
        <ele>909</ele>
        <time>2020-06-30T09:12:25.000Z</time>
      </trkpt>
      <trkpt lat="43.98402" lon="7.28316">
        <ele>908.20001220703</ele>
        <time>2020-06-30T09:12:26.000Z</time>
      </trkpt>
      <trkpt lat="43.98402" lon="7.28317">
        <ele>907.20001220703</ele>
        <time>2020-06-30T09:12:27.000Z</time>
      </trkpt>
      <trkpt lat="43.98402" lon="7.28321">
        <ele>906.20001220703</ele>
        <time>2020-06-30T09:12:28.000Z</time>
      </trkpt>
      <trkpt lat="43.98403" lon="7.28324">
        <ele>905.79998779297</ele>
        <time>2020-06-30T09:12:29.000Z</time>
      </trkpt>
      <trkpt lat="43.98403" lon="7.28331">
        <ele>904.40002441406</ele>
        <time>2020-06-30T09:12:31.000Z</time>
      </trkpt>
      <trkpt lat="43.98402" lon="7.28338">
        <ele>903</ele>
        <time>2020-06-30T09:12:33.000Z</time>
      </trkpt>
      <trkpt lat="43.98401" lon="7.28345">
        <ele>901</ele>
        <time>2020-06-30T09:12:35.000Z</time>
      </trkpt>
      <trkpt lat="43.984" lon="7.28349">
        <ele>900</ele>
        <time>2020-06-30T09:12:36.000Z</time>
      </trkpt>
      <trkpt lat="43.984" lon="7.28352">
        <ele>899.20001220703</ele>
        <time>2020-06-30T09:12:37.000Z</time>
      </trkpt>
      <trkpt lat="43.98401" lon="7.28354">
        <ele>898.20001220703</ele>
        <time>2020-06-30T09:12:38.000Z</time>
      </trkpt>
      <trkpt lat="43.984" lon="7.28363">
        <ele>897.20001220703</ele>
        <time>2020-06-30T09:12:41.000Z</time>
      </trkpt>
      <trkpt lat="43.98396" lon="7.28374">
        <ele>897.20001220703</ele>
        <time>2020-06-30T09:12:43.000Z</time>
      </trkpt>
      <trkpt lat="43.98394" lon="7.28387">
        <ele>897.20001220703</ele>
        <time>2020-06-30T09:12:45.000Z</time>
      </trkpt>
      <trkpt lat="43.98395" lon="7.28399">
        <ele>895.79998779297</ele>
        <time>2020-06-30T09:12:47.000Z</time>
      </trkpt>
      <trkpt lat="43.98395" lon="7.28405">
        <ele>894.40002441406</ele>
        <time>2020-06-30T09:12:48.000Z</time>
      </trkpt>
      <trkpt lat="43.98395" lon="7.28413">
        <ele>892</ele>
        <time>2020-06-30T09:12:50.000Z</time>
      </trkpt>
      <trkpt lat="43.98394" lon="7.28415">
        <ele>890.40002441406</ele>
        <time>2020-06-30T09:12:51.000Z</time>
      </trkpt>
      <trkpt lat="43.98392" lon="7.28414">
        <ele>889.59997558594</ele>
        <time>2020-06-30T09:12:52.000Z</time>
      </trkpt>
      <trkpt lat="43.9839" lon="7.28413">
        <ele>888.59997558594</ele>
        <time>2020-06-30T09:12:53.000Z</time>
      </trkpt>
      <trkpt lat="43.98386" lon="7.28416">
        <ele>887.40002441406</ele>
        <time>2020-06-30T09:12:55.000Z</time>
      </trkpt>
      <trkpt lat="43.98384" lon="7.28423">
        <ele>886</ele>
        <time>2020-06-30T09:12:57.000Z</time>
      </trkpt>
      <trkpt lat="43.98385" lon="7.28426">
        <ele>885.59997558594</ele>
        <time>2020-06-30T09:12:58.000Z</time>
      </trkpt>
      <trkpt lat="43.98385" lon="7.28427">
        <ele>885</ele>
        <time>2020-06-30T09:12:59.000Z</time>
      </trkpt>
      <trkpt lat="43.98386" lon="7.28428">
        <ele>884.59997558594</ele>
        <time>2020-06-30T09:13:00.000Z</time>
      </trkpt>
      <trkpt lat="43.98386" lon="7.2843">
        <ele>884.20001220703</ele>
        <time>2020-06-30T09:13:01.000Z</time>
      </trkpt>
      <trkpt lat="43.98386" lon="7.28429">
        <ele>884</ele>
        <time>2020-06-30T09:13:02.000Z</time>
      </trkpt>
      <trkpt lat="43.98386" lon="7.28431">
        <ele>883</ele>
        <time>2020-06-30T09:13:05.000Z</time>
      </trkpt>
      <trkpt lat="43.98387" lon="7.28436">
        <ele>882.40002441406</ele>
        <time>2020-06-30T09:13:08.000Z</time>
      </trkpt>
      <trkpt lat="43.98386" lon="7.28439">
        <ele>882.40002441406</ele>
        <time>2020-06-30T09:13:09.000Z</time>
      </trkpt>
      <trkpt lat="43.98385" lon="7.28445">
        <ele>881.59997558594</ele>
        <time>2020-06-30T09:13:11.000Z</time>
      </trkpt>
      <trkpt lat="43.98383" lon="7.28447">
        <ele>881</ele>
        <time>2020-06-30T09:13:12.000Z</time>
      </trkpt>
      <trkpt lat="43.98382" lon="7.28448">
        <ele>880.20001220703</ele>
        <time>2020-06-30T09:13:13.000Z</time>
      </trkpt>
      <trkpt lat="43.98376" lon="7.28451">
        <ele>878.79998779297</ele>
        <time>2020-06-30T09:13:16.000Z</time>
      </trkpt>
      <trkpt lat="43.98374" lon="7.28452">
        <ele>878.40002441406</ele>
        <time>2020-06-30T09:13:17.000Z</time>
      </trkpt>
      <trkpt lat="43.98371" lon="7.28456">
        <ele>877.79998779297</ele>
        <time>2020-06-30T09:13:20.000Z</time>
      </trkpt>
      <trkpt lat="43.98371" lon="7.28457">
        <ele>877.79998779297</ele>
        <time>2020-06-30T09:13:21.000Z</time>
      </trkpt>
      <trkpt lat="43.98372" lon="7.28464">
        <ele>876.79998779297</ele>
        <time>2020-06-30T09:13:25.000Z</time>
      </trkpt>
      <trkpt lat="43.98374" lon="7.28466">
        <ele>876.40002441406</ele>
        <time>2020-06-30T09:13:26.000Z</time>
      </trkpt>
      <trkpt lat="43.98375" lon="7.28469">
        <ele>875</ele>
        <time>2020-06-30T09:13:28.000Z</time>
      </trkpt>
      <trkpt lat="43.98375" lon="7.28469">
        <ele>873.59997558594</ele>
        <time>2020-06-30T09:13:30.000Z</time>
      </trkpt>
      <trkpt lat="43.98375" lon="7.28469">
        <ele>872.40002441406</ele>
        <time>2020-06-30T09:13:32.000Z</time>
      </trkpt>
      <trkpt lat="43.98375" lon="7.2847">
        <ele>872.40002441406</ele>
        <time>2020-06-30T09:13:37.000Z</time>
      </trkpt>
      <trkpt lat="43.98374" lon="7.28476">
        <ele>872.20001220703</ele>
        <time>2020-06-30T09:13:43.000Z</time>
      </trkpt>
      <trkpt lat="43.98373" lon="7.2848">
        <ele>871.79998779297</ele>
        <time>2020-06-30T09:13:49.000Z</time>
      </trkpt>
      <trkpt lat="43.98372" lon="7.28485">
        <ele>871.20001220703</ele>
        <time>2020-06-30T09:13:55.000Z</time>
      </trkpt>
      <trkpt lat="43.98372" lon="7.28485">
        <ele>871</ele>
        <time>2020-06-30T09:13:56.000Z</time>
      </trkpt>
      <trkpt lat="43.98371" lon="7.28487">
        <ele>870.20001220703</ele>
        <time>2020-06-30T09:14:00.000Z</time>
      </trkpt>
      <trkpt lat="43.98371" lon="7.28488">
        <ele>870</ele>
        <time>2020-06-30T09:14:03.000Z</time>
      </trkpt>
      <trkpt lat="43.9837" lon="7.2849">
        <ele>869.79998779297</ele>
        <time>2020-06-30T09:14:04.000Z</time>
      </trkpt>
      <trkpt lat="43.98366" lon="7.28497">
        <ele>869.20001220703</ele>
        <time>2020-06-30T09:14:07.000Z</time>
      </trkpt>
      <trkpt lat="43.98366" lon="7.28498">
        <ele>868.79998779297</ele>
        <time>2020-06-30T09:14:08.000Z</time>
      </trkpt>
      <trkpt lat="43.98366" lon="7.28502">
        <ele>868</ele>
        <time>2020-06-30T09:14:10.000Z</time>
      </trkpt>
      <trkpt lat="43.98366" lon="7.28503">
        <ele>867.40002441406</ele>
        <time>2020-06-30T09:14:11.000Z</time>
      </trkpt>
      <trkpt lat="43.98366" lon="7.28504">
        <ele>866</ele>
        <time>2020-06-30T09:14:14.000Z</time>
      </trkpt>
      <trkpt lat="43.98365" lon="7.28505">
        <ele>866</ele>
        <time>2020-06-30T09:14:17.000Z</time>
      </trkpt>
      <trkpt lat="43.98367" lon="7.28507">
        <ele>865.79998779297</ele>
        <time>2020-06-30T09:14:29.000Z</time>
      </trkpt>
      <trkpt lat="43.98367" lon="7.2851">
        <ele>865.79998779297</ele>
        <time>2020-06-30T09:14:40.000Z</time>
      </trkpt>
      <trkpt lat="43.98367" lon="7.28513">
        <ele>865.40002441406</ele>
        <time>2020-06-30T09:14:46.000Z</time>
      </trkpt>
      <trkpt lat="43.98367" lon="7.28514">
        <ele>865</ele>
        <time>2020-06-30T09:14:49.000Z</time>
      </trkpt>
      <trkpt lat="43.98367" lon="7.28517">
        <ele>864.59997558594</ele>
        <time>2020-06-30T09:14:52.000Z</time>
      </trkpt>
      <trkpt lat="43.98368" lon="7.28521">
        <ele>864.20001220703</ele>
        <time>2020-06-30T09:15:00.000Z</time>
      </trkpt>
      <trkpt lat="43.98368" lon="7.28522">
        <ele>863.79998779297</ele>
        <time>2020-06-30T09:15:01.000Z</time>
      </trkpt>
      <trkpt lat="43.98369" lon="7.28523">
        <ele>863.79998779297</ele>
        <time>2020-06-30T09:15:06.000Z</time>
      </trkpt>
      <trkpt lat="43.9837" lon="7.28526">
        <ele>863.40002441406</ele>
        <time>2020-06-30T09:15:09.000Z</time>
      </trkpt>
      <trkpt lat="43.98371" lon="7.2853">
        <ele>863</ele>
        <time>2020-06-30T09:15:11.000Z</time>
      </trkpt>
      <trkpt lat="43.98369" lon="7.28532">
        <ele>862.59997558594</ele>
        <time>2020-06-30T09:15:13.000Z</time>
      </trkpt>
      <trkpt lat="43.98367" lon="7.28535">
        <ele>862.20001220703</ele>
        <time>2020-06-30T09:15:15.000Z</time>
      </trkpt>
      <trkpt lat="43.98367" lon="7.28535">
        <ele>861.59997558594</ele>
        <time>2020-06-30T09:15:17.000Z</time>
      </trkpt>
      <trkpt lat="43.98367" lon="7.28536">
        <ele>860.79998779297</ele>
        <time>2020-06-30T09:15:20.000Z</time>
      </trkpt>
      <trkpt lat="43.98367" lon="7.28538">
        <ele>860.59997558594</ele>
        <time>2020-06-30T09:15:23.000Z</time>
      </trkpt>
      <trkpt lat="43.98369" lon="7.2854">
        <ele>860.20001220703</ele>
        <time>2020-06-30T09:15:27.000Z</time>
      </trkpt>
      <trkpt lat="43.98371" lon="7.28547">
        <ele>859.40002441406</ele>
        <time>2020-06-30T09:15:31.000Z</time>
      </trkpt>
      <trkpt lat="43.98372" lon="7.28554">
        <ele>859</ele>
        <time>2020-06-30T09:15:34.000Z</time>
      </trkpt>
      <trkpt lat="43.9837" lon="7.2856">
        <ele>858.59997558594</ele>
        <time>2020-06-30T09:15:36.000Z</time>
      </trkpt>
      <trkpt lat="43.98366" lon="7.28569">
        <ele>858</ele>
        <time>2020-06-30T09:15:38.000Z</time>
      </trkpt>
      <trkpt lat="43.98362" lon="7.28578">
        <ele>856.79998779297</ele>
        <time>2020-06-30T09:15:40.000Z</time>
      </trkpt>
      <trkpt lat="43.98358" lon="7.28587">
        <ele>855.79998779297</ele>
        <time>2020-06-30T09:15:42.000Z</time>
      </trkpt>
      <trkpt lat="43.98356" lon="7.28593">
        <ele>855.59997558594</ele>
        <time>2020-06-30T09:15:44.000Z</time>
      </trkpt>
      <trkpt lat="43.98355" lon="7.28607">
        <ele>855.40002441406</ele>
        <time>2020-06-30T09:15:48.000Z</time>
      </trkpt>
      <trkpt lat="43.98354" lon="7.28621">
        <ele>854.40002441406</ele>
        <time>2020-06-30T09:15:51.000Z</time>
      </trkpt>
      <trkpt lat="43.9835" lon="7.28626">
        <ele>853.20001220703</ele>
        <time>2020-06-30T09:15:53.000Z</time>
      </trkpt>
      <trkpt lat="43.98346" lon="7.28635">
        <ele>851.40002441406</ele>
        <time>2020-06-30T09:15:55.000Z</time>
      </trkpt>
      <trkpt lat="43.98342" lon="7.28645">
        <ele>849.79998779297</ele>
        <time>2020-06-30T09:15:57.000Z</time>
      </trkpt>
      <trkpt lat="43.9834" lon="7.28656">
        <ele>847.79998779297</ele>
        <time>2020-06-30T09:15:59.000Z</time>
      </trkpt>
      <trkpt lat="43.98339" lon="7.28663">
        <ele>846.79998779297</ele>
        <time>2020-06-30T09:16:00.000Z</time>
      </trkpt>
      <trkpt lat="43.98339" lon="7.28669">
        <ele>845.40002441406</ele>
        <time>2020-06-30T09:16:01.000Z</time>
      </trkpt>
      <trkpt lat="43.98339" lon="7.28674">
        <ele>844.40002441406</ele>
        <time>2020-06-30T09:16:02.000Z</time>
      </trkpt>
      <trkpt lat="43.98338" lon="7.28678">
        <ele>843.20001220703</ele>
        <time>2020-06-30T09:16:03.000Z</time>
      </trkpt>
      <trkpt lat="43.98336" lon="7.2868">
        <ele>842.59997558594</ele>
        <time>2020-06-30T09:16:04.000Z</time>
      </trkpt>
      <trkpt lat="43.98334" lon="7.28681">
        <ele>841.59997558594</ele>
        <time>2020-06-30T09:16:05.000Z</time>
      </trkpt>
      <trkpt lat="43.98333" lon="7.28682">
        <ele>841.20001220703</ele>
        <time>2020-06-30T09:16:06.000Z</time>
      </trkpt>
      <trkpt lat="43.98332" lon="7.28684">
        <ele>841</ele>
        <time>2020-06-30T09:16:07.000Z</time>
      </trkpt>
      <trkpt lat="43.98327" lon="7.28691">
        <ele>840.79998779297</ele>
        <time>2020-06-30T09:16:09.000Z</time>
      </trkpt>
      <trkpt lat="43.98325" lon="7.28696">
        <ele>840.59997558594</ele>
        <time>2020-06-30T09:16:10.000Z</time>
      </trkpt>
      <trkpt lat="43.98322" lon="7.28699">
        <ele>840.20001220703</ele>
        <time>2020-06-30T09:16:11.000Z</time>
      </trkpt>
      <trkpt lat="43.98318" lon="7.28703">
        <ele>839.59997558594</ele>
        <time>2020-06-30T09:16:12.000Z</time>
      </trkpt>
      <trkpt lat="43.98312" lon="7.28707">
        <ele>838.20001220703</ele>
        <time>2020-06-30T09:16:14.000Z</time>
      </trkpt>
      <trkpt lat="43.98307" lon="7.28713">
        <ele>837</ele>
        <time>2020-06-30T09:16:16.000Z</time>
      </trkpt>
      <trkpt lat="43.98303" lon="7.2872">
        <ele>835.59997558594</ele>
        <time>2020-06-30T09:16:18.000Z</time>
      </trkpt>
      <trkpt lat="43.983" lon="7.28724">
        <ele>834</ele>
        <time>2020-06-30T09:16:20.000Z</time>
      </trkpt>
      <trkpt lat="43.98298" lon="7.28725">
        <ele>833.20001220703</ele>
        <time>2020-06-30T09:16:21.000Z</time>
      </trkpt>
      <trkpt lat="43.98297" lon="7.28726">
        <ele>832.59997558594</ele>
        <time>2020-06-30T09:16:22.000Z</time>
      </trkpt>
      <trkpt lat="43.98296" lon="7.28727">
        <ele>831.40002441406</ele>
        <time>2020-06-30T09:16:24.000Z</time>
      </trkpt>
      <trkpt lat="43.98294" lon="7.28732">
        <ele>830.20001220703</ele>
        <time>2020-06-30T09:16:26.000Z</time>
      </trkpt>
      <trkpt lat="43.98293" lon="7.28735">
        <ele>829.59997558594</ele>
        <time>2020-06-30T09:16:27.000Z</time>
      </trkpt>
      <trkpt lat="43.98291" lon="7.28737">
        <ele>829</ele>
        <time>2020-06-30T09:16:28.000Z</time>
      </trkpt>
      <trkpt lat="43.98286" lon="7.28742">
        <ele>827.59997558594</ele>
        <time>2020-06-30T09:16:30.000Z</time>
      </trkpt>
      <trkpt lat="43.98285" lon="7.28743">
        <ele>827</ele>
        <time>2020-06-30T09:16:31.000Z</time>
      </trkpt>
      <trkpt lat="43.98283" lon="7.28745">
        <ele>826.59997558594</ele>
        <time>2020-06-30T09:16:32.000Z</time>
      </trkpt>
      <trkpt lat="43.98279" lon="7.28747">
        <ele>825.20001220703</ele>
        <time>2020-06-30T09:16:35.000Z</time>
      </trkpt>
      <trkpt lat="43.98279" lon="7.28747">
        <ele>824.79998779297</ele>
        <time>2020-06-30T09:16:36.000Z</time>
      </trkpt>
      <trkpt lat="43.98278" lon="7.28747">
        <ele>823.79998779297</ele>
        <time>2020-06-30T09:16:38.000Z</time>
      </trkpt>
      <trkpt lat="43.98278" lon="7.28749">
        <ele>823</ele>
        <time>2020-06-30T09:16:43.000Z</time>
      </trkpt>
      <trkpt lat="43.98277" lon="7.28753">
        <ele>822.79998779297</ele>
        <time>2020-06-30T09:16:50.000Z</time>
      </trkpt>
      <trkpt lat="43.98277" lon="7.28752">
        <ele>822.59997558594</ele>
        <time>2020-06-30T09:16:51.000Z</time>
      </trkpt>
      <trkpt lat="43.98275" lon="7.28757">
        <ele>821.79998779297</ele>
        <time>2020-06-30T09:16:59.000Z</time>
      </trkpt>
      <trkpt lat="43.98274" lon="7.28759">
        <ele>821.59997558594</ele>
        <time>2020-06-30T09:17:02.000Z</time>
      </trkpt>
      <trkpt lat="43.98272" lon="7.28762">
        <ele>821.40002441406</ele>
        <time>2020-06-30T09:17:04.000Z</time>
      </trkpt>
      <trkpt lat="43.98272" lon="7.28762">
        <ele>821.20001220703</ele>
        <time>2020-06-30T09:17:05.000Z</time>
      </trkpt>
      <trkpt lat="43.98271" lon="7.28764">
        <ele>820.79998779297</ele>
        <time>2020-06-30T09:17:08.000Z</time>
      </trkpt>
      <trkpt lat="43.9827" lon="7.28765">
        <ele>820.79998779297</ele>
        <time>2020-06-30T09:17:09.000Z</time>
      </trkpt>
      <trkpt lat="43.98267" lon="7.28771">
        <ele>820.59997558594</ele>
        <time>2020-06-30T09:17:11.000Z</time>
      </trkpt>
      <trkpt lat="43.98266" lon="7.28777">
        <ele>820.40002441406</ele>
        <time>2020-06-30T09:17:13.000Z</time>
      </trkpt>
      <trkpt lat="43.98259" lon="7.28793">
        <ele>819.40002441406</ele>
        <time>2020-06-30T09:17:18.000Z</time>
      </trkpt>
      <trkpt lat="43.98257" lon="7.28793">
        <ele>818.79998779297</ele>
        <time>2020-06-30T09:17:19.000Z</time>
      </trkpt>
      <trkpt lat="43.98255" lon="7.28793">
        <ele>818.40002441406</ele>
        <time>2020-06-30T09:17:20.000Z</time>
      </trkpt>
      <trkpt lat="43.98253" lon="7.2879">
        <ele>818</ele>
        <time>2020-06-30T09:17:21.000Z</time>
      </trkpt>
      <trkpt lat="43.98247" lon="7.28784">
        <ele>817.20001220703</ele>
        <time>2020-06-30T09:17:23.000Z</time>
      </trkpt>
      <trkpt lat="43.9824" lon="7.28781">
        <ele>816.59997558594</ele>
        <time>2020-06-30T09:17:25.000Z</time>
      </trkpt>
      <trkpt lat="43.98237" lon="7.28782">
        <ele>816</ele>
        <time>2020-06-30T09:17:26.000Z</time>
      </trkpt>
      <trkpt lat="43.98232" lon="7.28781">
        <ele>815.40002441406</ele>
        <time>2020-06-30T09:17:28.000Z</time>
      </trkpt>
      <trkpt lat="43.98226" lon="7.28782">
        <ele>815</ele>
        <time>2020-06-30T09:17:31.000Z</time>
      </trkpt>
      <trkpt lat="43.98224" lon="7.28782">
        <ele>814.59997558594</ele>
        <time>2020-06-30T09:17:32.000Z</time>
      </trkpt>
      <trkpt lat="43.98223" lon="7.28781">
        <ele>814</ele>
        <time>2020-06-30T09:17:33.000Z</time>
      </trkpt>
      <trkpt lat="43.98222" lon="7.28781">
        <ele>813.59997558594</ele>
        <time>2020-06-30T09:17:34.000Z</time>
      </trkpt>
      <trkpt lat="43.98222" lon="7.28781">
        <ele>812.59997558594</ele>
        <time>2020-06-30T09:17:37.000Z</time>
      </trkpt>
      <trkpt lat="43.9822" lon="7.28786">
        <ele>811.79998779297</ele>
        <time>2020-06-30T09:17:42.000Z</time>
      </trkpt>
      <trkpt lat="43.9822" lon="7.28786">
        <ele>811.20001220703</ele>
        <time>2020-06-30T09:17:43.000Z</time>
      </trkpt>
      <trkpt lat="43.9822" lon="7.28788">
        <ele>810.20001220703</ele>
        <time>2020-06-30T09:17:46.000Z</time>
      </trkpt>
      <trkpt lat="43.9822" lon="7.2879">
        <ele>810</ele>
        <time>2020-06-30T09:17:49.000Z</time>
      </trkpt>
      <trkpt lat="43.98219" lon="7.28794">
        <ele>809</ele>
        <time>2020-06-30T09:17:54.000Z</time>
      </trkpt>
      <trkpt lat="43.98218" lon="7.28795">
        <ele>808.59997558594</ele>
        <time>2020-06-30T09:17:56.000Z</time>
      </trkpt>
      <trkpt lat="43.98218" lon="7.28799">
        <ele>808.59997558594</ele>
        <time>2020-06-30T09:18:02.000Z</time>
      </trkpt>
      <trkpt lat="43.98218" lon="7.28801">
        <ele>808.79998779297</ele>
        <time>2020-06-30T09:18:09.000Z</time>
      </trkpt>
      <trkpt lat="43.98219" lon="7.28801">
        <ele>808.59997558594</ele>
        <time>2020-06-30T09:18:16.000Z</time>
      </trkpt>
      <trkpt lat="43.98221" lon="7.28807">
        <ele>809.40002441406</ele>
        <time>2020-06-30T09:18:22.000Z</time>
      </trkpt>
      <trkpt lat="43.98221" lon="7.28808">
        <ele>809.59997558594</ele>
        <time>2020-06-30T09:18:23.000Z</time>
      </trkpt>
      <trkpt lat="43.98223" lon="7.28821">
        <ele>809.20001220703</ele>
        <time>2020-06-30T09:18:27.000Z</time>
      </trkpt>
      <trkpt lat="43.98224" lon="7.28829">
        <ele>807.59997558594</ele>
        <time>2020-06-30T09:18:29.000Z</time>
      </trkpt>
      <trkpt lat="43.98225" lon="7.28836">
        <ele>806.20001220703</ele>
        <time>2020-06-30T09:18:31.000Z</time>
      </trkpt>
      <trkpt lat="43.98226" lon="7.28839">
        <ele>805.40002441406</ele>
        <time>2020-06-30T09:18:32.000Z</time>
      </trkpt>
      <trkpt lat="43.98226" lon="7.28843">
        <ele>804.79998779297</ele>
        <time>2020-06-30T09:18:33.000Z</time>
      </trkpt>
      <trkpt lat="43.98225" lon="7.28851">
        <ele>803</ele>
        <time>2020-06-30T09:18:35.000Z</time>
      </trkpt>
      <trkpt lat="43.9822" lon="7.28855">
        <ele>801.20001220703</ele>
        <time>2020-06-30T09:18:37.000Z</time>
      </trkpt>
      <trkpt lat="43.98213" lon="7.2886">
        <ele>800.79998779297</ele>
        <time>2020-06-30T09:18:42.000Z</time>
      </trkpt>
      <trkpt lat="43.98211" lon="7.28865">
        <ele>801.20001220703</ele>
        <time>2020-06-30T09:18:47.000Z</time>
      </trkpt>
      <trkpt lat="43.98212" lon="7.28868">
        <ele>801.20001220703</ele>
        <time>2020-06-30T09:18:48.000Z</time>
      </trkpt>
      <trkpt lat="43.98212" lon="7.2888">
        <ele>801</ele>
        <time>2020-06-30T09:18:51.000Z</time>
      </trkpt>
      <trkpt lat="43.98212" lon="7.28887">
        <ele>800</ele>
        <time>2020-06-30T09:18:53.000Z</time>
      </trkpt>
      <trkpt lat="43.98209" lon="7.28895">
        <ele>798.59997558594</ele>
        <time>2020-06-30T09:18:55.000Z</time>
      </trkpt>
      <trkpt lat="43.98208" lon="7.289">
        <ele>798.20001220703</ele>
        <time>2020-06-30T09:18:56.000Z</time>
      </trkpt>
      <trkpt lat="43.98209" lon="7.28906">
        <ele>797</ele>
        <time>2020-06-30T09:18:58.000Z</time>
      </trkpt>
      <trkpt lat="43.98209" lon="7.28914">
        <ele>795.79998779297</ele>
        <time>2020-06-30T09:19:00.000Z</time>
      </trkpt>
      <trkpt lat="43.98208" lon="7.28926">
        <ele>794</ele>
        <time>2020-06-30T09:19:02.000Z</time>
      </trkpt>
      <trkpt lat="43.98207" lon="7.28935">
        <ele>791.59997558594</ele>
        <time>2020-06-30T09:19:04.000Z</time>
      </trkpt>
      <trkpt lat="43.98204" lon="7.28941">
        <ele>790.40002441406</ele>
        <time>2020-06-30T09:19:05.000Z</time>
      </trkpt>
      <trkpt lat="43.98203" lon="7.28953">
        <ele>788.79998779297</ele>
        <time>2020-06-30T09:19:07.000Z</time>
      </trkpt>
      <trkpt lat="43.98204" lon="7.28959">
        <ele>787.79998779297</ele>
        <time>2020-06-30T09:19:08.000Z</time>
      </trkpt>
      <trkpt lat="43.98205" lon="7.2897">
        <ele>786.59997558594</ele>
        <time>2020-06-30T09:19:10.000Z</time>
      </trkpt>
      <trkpt lat="43.98205" lon="7.28974">
        <ele>785.59997558594</ele>
        <time>2020-06-30T09:19:11.000Z</time>
      </trkpt>
      <trkpt lat="43.98206" lon="7.28979">
        <ele>784.79998779297</ele>
        <time>2020-06-30T09:19:12.000Z</time>
      </trkpt>
      <trkpt lat="43.98208" lon="7.28984">
        <ele>783.79998779297</ele>
        <time>2020-06-30T09:19:13.000Z</time>
      </trkpt>
      <trkpt lat="43.98208" lon="7.28987">
        <ele>782.59997558594</ele>
        <time>2020-06-30T09:19:14.000Z</time>
      </trkpt>
      <trkpt lat="43.98207" lon="7.28989">
        <ele>781.79998779297</ele>
        <time>2020-06-30T09:19:15.000Z</time>
      </trkpt>
      <trkpt lat="43.98206" lon="7.28994">
        <ele>780.79998779297</ele>
        <time>2020-06-30T09:19:16.000Z</time>
      </trkpt>
      <trkpt lat="43.98208" lon="7.29007">
        <ele>779.40002441406</ele>
        <time>2020-06-30T09:19:18.000Z</time>
      </trkpt>
      <trkpt lat="43.98208" lon="7.29011">
        <ele>778.79998779297</ele>
        <time>2020-06-30T09:19:19.000Z</time>
      </trkpt>
      <trkpt lat="43.98209" lon="7.29013">
        <ele>778</ele>
        <time>2020-06-30T09:19:20.000Z</time>
      </trkpt>
      <trkpt lat="43.9821" lon="7.29021">
        <ele>776.59997558594</ele>
        <time>2020-06-30T09:19:22.000Z</time>
      </trkpt>
      <trkpt lat="43.98211" lon="7.29026">
        <ele>776</ele>
        <time>2020-06-30T09:19:23.000Z</time>
      </trkpt>
      <trkpt lat="43.9821" lon="7.29032">
        <ele>775.20001220703</ele>
        <time>2020-06-30T09:19:24.000Z</time>
      </trkpt>
      <trkpt lat="43.98209" lon="7.29045">
        <ele>773.40002441406</ele>
        <time>2020-06-30T09:19:26.000Z</time>
      </trkpt>
      <trkpt lat="43.98211" lon="7.29056">
        <ele>771.40002441406</ele>
        <time>2020-06-30T09:19:28.000Z</time>
      </trkpt>
      <trkpt lat="43.98211" lon="7.29063">
        <ele>770.40002441406</ele>
        <time>2020-06-30T09:19:29.000Z</time>
      </trkpt>
      <trkpt lat="43.9821" lon="7.2907">
        <ele>769.40002441406</ele>
        <time>2020-06-30T09:19:30.000Z</time>
      </trkpt>
      <trkpt lat="43.98209" lon="7.29075">
        <ele>768.20001220703</ele>
        <time>2020-06-30T09:19:31.000Z</time>
      </trkpt>
      <trkpt lat="43.98209" lon="7.29082">
        <ele>766.59997558594</ele>
        <time>2020-06-30T09:19:32.000Z</time>
      </trkpt>
      <trkpt lat="43.9821" lon="7.29089">
        <ele>765.79998779297</ele>
        <time>2020-06-30T09:19:33.000Z</time>
      </trkpt>
      <trkpt lat="43.9821" lon="7.29094">
        <ele>764.59997558594</ele>
        <time>2020-06-30T09:19:34.000Z</time>
      </trkpt>
      <trkpt lat="43.98208" lon="7.29098">
        <ele>763.40002441406</ele>
        <time>2020-06-30T09:19:35.000Z</time>
      </trkpt>
      <trkpt lat="43.98208" lon="7.29097">
        <ele>762.59997558594</ele>
        <time>2020-06-30T09:19:36.000Z</time>
      </trkpt>
      <trkpt lat="43.98208" lon="7.29097">
        <ele>761.79998779297</ele>
        <time>2020-06-30T09:19:37.000Z</time>
      </trkpt>
      <trkpt lat="43.98208" lon="7.29098">
        <ele>760.59997558594</ele>
        <time>2020-06-30T09:19:39.000Z</time>
      </trkpt>
      <trkpt lat="43.98205" lon="7.29102">
        <ele>759.79998779297</ele>
        <time>2020-06-30T09:19:46.000Z</time>
      </trkpt>
      <trkpt lat="43.982" lon="7.29108">
        <ele>759.40002441406</ele>
        <time>2020-06-30T09:19:49.000Z</time>
      </trkpt>
      <trkpt lat="43.98198" lon="7.29109">
        <ele>759.20001220703</ele>
        <time>2020-06-30T09:19:50.000Z</time>
      </trkpt>
      <trkpt lat="43.98199" lon="7.29111">
        <ele>758.20001220703</ele>
        <time>2020-06-30T09:19:52.000Z</time>
      </trkpt>
      <trkpt lat="43.982" lon="7.29111">
        <ele>757.79998779297</ele>
        <time>2020-06-30T09:19:53.000Z</time>
      </trkpt>
      <trkpt lat="43.98201" lon="7.29111">
        <ele>757.20001220703</ele>
        <time>2020-06-30T09:19:54.000Z</time>
      </trkpt>
      <trkpt lat="43.98208" lon="7.29112">
        <ele>756.20001220703</ele>
        <time>2020-06-30T09:19:57.000Z</time>
      </trkpt>
      <trkpt lat="43.98209" lon="7.29112">
        <ele>755.79998779297</ele>
        <time>2020-06-30T09:19:58.000Z</time>
      </trkpt>
      <trkpt lat="43.98211" lon="7.29111">
        <ele>755.40002441406</ele>
        <time>2020-06-30T09:19:59.000Z</time>
      </trkpt>
      <trkpt lat="43.98212" lon="7.2911">
        <ele>754.79998779297</ele>
        <time>2020-06-30T09:20:00.000Z</time>
      </trkpt>
      <trkpt lat="43.98214" lon="7.29111">
        <ele>753.79998779297</ele>
        <time>2020-06-30T09:20:02.000Z</time>
      </trkpt>
      <trkpt lat="43.98214" lon="7.29113">
        <ele>753.20001220703</ele>
        <time>2020-06-30T09:20:04.000Z</time>
      </trkpt>
      <trkpt lat="43.98212" lon="7.29117">
        <ele>752.59997558594</ele>
        <time>2020-06-30T09:20:06.000Z</time>
      </trkpt>
      <trkpt lat="43.98212" lon="7.2912">
        <ele>752.40002441406</ele>
        <time>2020-06-30T09:20:07.000Z</time>
      </trkpt>
      <trkpt lat="43.98214" lon="7.29121">
        <ele>751.59997558594</ele>
        <time>2020-06-30T09:20:09.000Z</time>
      </trkpt>
      <trkpt lat="43.98217" lon="7.29123">
        <ele>750.40002441406</ele>
        <time>2020-06-30T09:20:11.000Z</time>
      </trkpt>
      <trkpt lat="43.98217" lon="7.29127">
        <ele>750</ele>
        <time>2020-06-30T09:20:12.000Z</time>
      </trkpt>
      <trkpt lat="43.98217" lon="7.29129">
        <ele>749.20001220703</ele>
        <time>2020-06-30T09:20:13.000Z</time>
      </trkpt>
      <trkpt lat="43.98219" lon="7.29129">
        <ele>748.20001220703</ele>
        <time>2020-06-30T09:20:15.000Z</time>
      </trkpt>
      <trkpt lat="43.98219" lon="7.29128">
        <ele>746.79998779297</ele>
        <time>2020-06-30T09:20:17.000Z</time>
      </trkpt>
      <trkpt lat="43.9822" lon="7.29127">
        <ele>746.20001220703</ele>
        <time>2020-06-30T09:20:18.000Z</time>
      </trkpt>
      <trkpt lat="43.98223" lon="7.29123">
        <ele>745.59997558594</ele>
        <time>2020-06-30T09:20:20.000Z</time>
      </trkpt>
      <trkpt lat="43.98225" lon="7.29125">
        <ele>745.20001220703</ele>
        <time>2020-06-30T09:20:21.000Z</time>
      </trkpt>
      <trkpt lat="43.98224" lon="7.29131">
        <ele>744.40002441406</ele>
        <time>2020-06-30T09:20:24.000Z</time>
      </trkpt>
      <trkpt lat="43.98226" lon="7.29128">
        <ele>743.40002441406</ele>
        <time>2020-06-30T09:20:26.000Z</time>
      </trkpt>
      <trkpt lat="43.98228" lon="7.29126">
        <ele>743</ele>
        <time>2020-06-30T09:20:27.000Z</time>
      </trkpt>
      <trkpt lat="43.98231" lon="7.29126">
        <ele>742.20001220703</ele>
        <time>2020-06-30T09:20:29.000Z</time>
      </trkpt>
      <trkpt lat="43.98231" lon="7.2913">
        <ele>741.59997558594</ele>
        <time>2020-06-30T09:20:30.000Z</time>
      </trkpt>
      <trkpt lat="43.98233" lon="7.29143">
        <ele>740</ele>
        <time>2020-06-30T09:20:33.000Z</time>
      </trkpt>
      <trkpt lat="43.98232" lon="7.29147">
        <ele>739.20001220703</ele>
        <time>2020-06-30T09:20:34.000Z</time>
      </trkpt>
      <trkpt lat="43.98234" lon="7.29159">
        <ele>738.20001220703</ele>
        <time>2020-06-30T09:20:36.000Z</time>
      </trkpt>
      <trkpt lat="43.98236" lon="7.29162">
        <ele>737.40002441406</ele>
        <time>2020-06-30T09:20:37.000Z</time>
      </trkpt>
      <trkpt lat="43.98238" lon="7.29165">
        <ele>736.59997558594</ele>
        <time>2020-06-30T09:20:38.000Z</time>
      </trkpt>
      <trkpt lat="43.98239" lon="7.29168">
        <ele>735.59997558594</ele>
        <time>2020-06-30T09:20:39.000Z</time>
      </trkpt>
      <trkpt lat="43.98237" lon="7.29171">
        <ele>734.40002441406</ele>
        <time>2020-06-30T09:20:40.000Z</time>
      </trkpt>
      <trkpt lat="43.98235" lon="7.29173">
        <ele>733.59997558594</ele>
        <time>2020-06-30T09:20:41.000Z</time>
      </trkpt>
      <trkpt lat="43.98233" lon="7.29172">
        <ele>733</ele>
        <time>2020-06-30T09:20:42.000Z</time>
      </trkpt>
      <trkpt lat="43.9823" lon="7.29172">
        <ele>731.79998779297</ele>
        <time>2020-06-30T09:20:44.000Z</time>
      </trkpt>
      <trkpt lat="43.98229" lon="7.29174">
        <ele>731.20001220703</ele>
        <time>2020-06-30T09:20:45.000Z</time>
      </trkpt>
      <trkpt lat="43.98226" lon="7.29177">
        <ele>730.20001220703</ele>
        <time>2020-06-30T09:20:47.000Z</time>
      </trkpt>
      <trkpt lat="43.98224" lon="7.29181">
        <ele>729</ele>
        <time>2020-06-30T09:20:49.000Z</time>
      </trkpt>
      <trkpt lat="43.98223" lon="7.29184">
        <ele>728.40002441406</ele>
        <time>2020-06-30T09:20:50.000Z</time>
      </trkpt>
      <trkpt lat="43.98223" lon="7.29186">
        <ele>727.20001220703</ele>
        <time>2020-06-30T09:20:51.000Z</time>
      </trkpt>
      <trkpt lat="43.9822" lon="7.2919">
        <ele>725.59997558594</ele>
        <time>2020-06-30T09:20:53.000Z</time>
      </trkpt>
      <trkpt lat="43.98216" lon="7.29197">
        <ele>723.79998779297</ele>
        <time>2020-06-30T09:20:55.000Z</time>
      </trkpt>
      <trkpt lat="43.98213" lon="7.29199">
        <ele>722.79998779297</ele>
        <time>2020-06-30T09:20:56.000Z</time>
      </trkpt>
      <trkpt lat="43.98208" lon="7.29209">
        <ele>721.40002441406</ele>
        <time>2020-06-30T09:20:58.000Z</time>
      </trkpt>
      <trkpt lat="43.98206" lon="7.29212">
        <ele>720.40002441406</ele>
        <time>2020-06-30T09:20:59.000Z</time>
      </trkpt>
      <trkpt lat="43.98201" lon="7.29223">
        <ele>718.59997558594</ele>
        <time>2020-06-30T09:21:01.000Z</time>
      </trkpt>
      <trkpt lat="43.98196" lon="7.29228">
        <ele>716.79998779297</ele>
        <time>2020-06-30T09:21:03.000Z</time>
      </trkpt>
      <trkpt lat="43.98193" lon="7.29229">
        <ele>716</ele>
        <time>2020-06-30T09:21:04.000Z</time>
      </trkpt>
      <trkpt lat="43.98189" lon="7.2923">
        <ele>715.40002441406</ele>
        <time>2020-06-30T09:21:05.000Z</time>
      </trkpt>
      <trkpt lat="43.98183" lon="7.29228">
        <ele>714.20001220703</ele>
        <time>2020-06-30T09:21:07.000Z</time>
      </trkpt>
      <trkpt lat="43.98182" lon="7.2923">
        <ele>712.59997558594</ele>
        <time>2020-06-30T09:21:09.000Z</time>
      </trkpt>
      <trkpt lat="43.98181" lon="7.29233">
        <ele>712.20001220703</ele>
        <time>2020-06-30T09:21:10.000Z</time>
      </trkpt>
      <trkpt lat="43.98182" lon="7.29235">
        <ele>712</ele>
        <time>2020-06-30T09:21:11.000Z</time>
      </trkpt>
      <trkpt lat="43.98183" lon="7.29238">
        <ele>711.40002441406</ele>
        <time>2020-06-30T09:21:12.000Z</time>
      </trkpt>
      <trkpt lat="43.98181" lon="7.29243">
        <ele>710.40002441406</ele>
        <time>2020-06-30T09:21:14.000Z</time>
      </trkpt>
      <trkpt lat="43.98181" lon="7.29245">
        <ele>709.79998779297</ele>
        <time>2020-06-30T09:21:15.000Z</time>
      </trkpt>
      <trkpt lat="43.98181" lon="7.29247">
        <ele>709.20001220703</ele>
        <time>2020-06-30T09:21:16.000Z</time>
      </trkpt>
      <trkpt lat="43.98182" lon="7.29253">
        <ele>708.40002441406</ele>
        <time>2020-06-30T09:21:18.000Z</time>
      </trkpt>
      <trkpt lat="43.98182" lon="7.29253">
        <ele>708.40002441406</ele>
        <time>2020-06-30T09:21:19.000Z</time>
      </trkpt>
      <trkpt lat="43.98182" lon="7.29257">
        <ele>708.20001220703</ele>
        <time>2020-06-30T09:21:20.000Z</time>
      </trkpt>
      <trkpt lat="43.98177" lon="7.29268">
        <ele>708.79998779297</ele>
        <time>2020-06-30T09:21:23.000Z</time>
      </trkpt>
      <trkpt lat="43.98174" lon="7.29283">
        <ele>708.20001220703</ele>
        <time>2020-06-30T09:21:26.000Z</time>
      </trkpt>
      <trkpt lat="43.98169" lon="7.29288">
        <ele>707.79998779297</ele>
        <time>2020-06-30T09:21:28.000Z</time>
      </trkpt>
      <trkpt lat="43.98169" lon="7.29304">
        <ele>707.20001220703</ele>
        <time>2020-06-30T09:21:32.000Z</time>
      </trkpt>
      <trkpt lat="43.9817" lon="7.29309">
        <ele>707</ele>
        <time>2020-06-30T09:21:33.000Z</time>
      </trkpt>
      <trkpt lat="43.98175" lon="7.29324">
        <ele>706.40002441406</ele>
        <time>2020-06-30T09:21:36.000Z</time>
      </trkpt>
      <trkpt lat="43.98174" lon="7.29331">
        <ele>705.79998779297</ele>
        <time>2020-06-30T09:21:37.000Z</time>
      </trkpt>
      <trkpt lat="43.98172" lon="7.29341">
        <ele>704.40002441406</ele>
        <time>2020-06-30T09:21:39.000Z</time>
      </trkpt>
      <trkpt lat="43.9817" lon="7.29359">
        <ele>703</ele>
        <time>2020-06-30T09:21:42.000Z</time>
      </trkpt>
      <trkpt lat="43.98169" lon="7.29364">
        <ele>702.59997558594</ele>
        <time>2020-06-30T09:21:43.000Z</time>
      </trkpt>
      <trkpt lat="43.9817" lon="7.29366">
        <ele>701.59997558594</ele>
        <time>2020-06-30T09:21:44.000Z</time>
      </trkpt>
      <trkpt lat="43.98171" lon="7.29365">
        <ele>700.59997558594</ele>
        <time>2020-06-30T09:21:45.000Z</time>
      </trkpt>
      <trkpt lat="43.98173" lon="7.29363">
        <ele>699.79998779297</ele>
        <time>2020-06-30T09:21:46.000Z</time>
      </trkpt>
      <trkpt lat="43.98176" lon="7.29363">
        <ele>699.40002441406</ele>
        <time>2020-06-30T09:21:47.000Z</time>
      </trkpt>
      <trkpt lat="43.98179" lon="7.29363">
        <ele>698.20001220703</ele>
        <time>2020-06-30T09:21:49.000Z</time>
      </trkpt>
      <trkpt lat="43.98179" lon="7.29364">
        <ele>697.59997558594</ele>
        <time>2020-06-30T09:21:50.000Z</time>
      </trkpt>
      <trkpt lat="43.9818" lon="7.29366">
        <ele>697</ele>
        <time>2020-06-30T09:21:51.000Z</time>
      </trkpt>
      <trkpt lat="43.98181" lon="7.29368">
        <ele>696.59997558594</ele>
        <time>2020-06-30T09:21:52.000Z</time>
      </trkpt>
      <trkpt lat="43.98182" lon="7.29375">
        <ele>695.79998779297</ele>
        <time>2020-06-30T09:21:54.000Z</time>
      </trkpt>
      <trkpt lat="43.98181" lon="7.29386">
        <ele>694.20001220703</ele>
        <time>2020-06-30T09:21:57.000Z</time>
      </trkpt>
      <trkpt lat="43.98181" lon="7.2939">
        <ele>693.40002441406</ele>
        <time>2020-06-30T09:21:58.000Z</time>
      </trkpt>
      <trkpt lat="43.98181" lon="7.29392">
        <ele>692.59997558594</ele>
        <time>2020-06-30T09:21:59.000Z</time>
      </trkpt>
      <trkpt lat="43.98184" lon="7.29391">
        <ele>691.40002441406</ele>
        <time>2020-06-30T09:22:01.000Z</time>
      </trkpt>
      <trkpt lat="43.98189" lon="7.29388">
        <ele>690.20001220703</ele>
        <time>2020-06-30T09:22:03.000Z</time>
      </trkpt>
      <trkpt lat="43.98191" lon="7.29388">
        <ele>689.79998779297</ele>
        <time>2020-06-30T09:22:04.000Z</time>
      </trkpt>
      <trkpt lat="43.98194" lon="7.29386">
        <ele>689.40002441406</ele>
        <time>2020-06-30T09:22:05.000Z</time>
      </trkpt>
      <trkpt lat="43.98197" lon="7.29388">
        <ele>689</ele>
        <time>2020-06-30T09:22:06.000Z</time>
      </trkpt>
      <trkpt lat="43.98197" lon="7.29396">
        <ele>688</ele>
        <time>2020-06-30T09:22:08.000Z</time>
      </trkpt>
      <trkpt lat="43.98194" lon="7.29402">
        <ele>686.79998779297</ele>
        <time>2020-06-30T09:22:10.000Z</time>
      </trkpt>
      <trkpt lat="43.98195" lon="7.29405">
        <ele>685.59997558594</ele>
        <time>2020-06-30T09:22:12.000Z</time>
      </trkpt>
      <trkpt lat="43.98196" lon="7.2941">
        <ele>684.20001220703</ele>
        <time>2020-06-30T09:22:15.000Z</time>
      </trkpt>
      <trkpt lat="43.98197" lon="7.29411">
        <ele>683.79998779297</ele>
        <time>2020-06-30T09:22:16.000Z</time>
      </trkpt>
      <trkpt lat="43.98197" lon="7.29412">
        <ele>683.20001220703</ele>
        <time>2020-06-30T09:22:17.000Z</time>
      </trkpt>
      <trkpt lat="43.98203" lon="7.29414">
        <ele>681.79998779297</ele>
        <time>2020-06-30T09:22:20.000Z</time>
      </trkpt>
      <trkpt lat="43.98205" lon="7.29414">
        <ele>680.59997558594</ele>
        <time>2020-06-30T09:22:22.000Z</time>
      </trkpt>
      <trkpt lat="43.98209" lon="7.29413">
        <ele>679.79998779297</ele>
        <time>2020-06-30T09:22:24.000Z</time>
      </trkpt>
      <trkpt lat="43.98211" lon="7.29414">
        <ele>679.40002441406</ele>
        <time>2020-06-30T09:22:25.000Z</time>
      </trkpt>
      <trkpt lat="43.98213" lon="7.29415">
        <ele>678.40002441406</ele>
        <time>2020-06-30T09:22:27.000Z</time>
      </trkpt>
      <trkpt lat="43.98212" lon="7.29418">
        <ele>677.79998779297</ele>
        <time>2020-06-30T09:22:28.000Z</time>
      </trkpt>
      <trkpt lat="43.9821" lon="7.2942">
        <ele>677.20001220703</ele>
        <time>2020-06-30T09:22:29.000Z</time>
      </trkpt>
      <trkpt lat="43.98208" lon="7.29422">
        <ele>676.59997558594</ele>
        <time>2020-06-30T09:22:30.000Z</time>
      </trkpt>
      <trkpt lat="43.98207" lon="7.29424">
        <ele>676</ele>
        <time>2020-06-30T09:22:31.000Z</time>
      </trkpt>
      <trkpt lat="43.98204" lon="7.29427">
        <ele>676</ele>
        <time>2020-06-30T09:22:32.000Z</time>
      </trkpt>
      <trkpt lat="43.98198" lon="7.29428">
        <ele>675</ele>
        <time>2020-06-30T09:22:35.000Z</time>
      </trkpt>
      <trkpt lat="43.98197" lon="7.29427">
        <ele>674.59997558594</ele>
        <time>2020-06-30T09:22:36.000Z</time>
      </trkpt>
      <trkpt lat="43.98194" lon="7.29429">
        <ele>674</ele>
        <time>2020-06-30T09:22:38.000Z</time>
      </trkpt>
      <trkpt lat="43.9819" lon="7.29427">
        <ele>674.20001220703</ele>
        <time>2020-06-30T09:22:40.000Z</time>
      </trkpt>
      <trkpt lat="43.98183" lon="7.29425">
        <ele>674.40002441406</ele>
        <time>2020-06-30T09:22:43.000Z</time>
      </trkpt>
      <trkpt lat="43.98175" lon="7.29418">
        <ele>674.59997558594</ele>
        <time>2020-06-30T09:22:47.000Z</time>
      </trkpt>
      <trkpt lat="43.9817" lon="7.29412">
        <ele>675</ele>
        <time>2020-06-30T09:22:50.000Z</time>
      </trkpt>
      <trkpt lat="43.98167" lon="7.29409">
        <ele>675.59997558594</ele>
        <time>2020-06-30T09:22:52.000Z</time>
      </trkpt>
      <trkpt lat="43.98165" lon="7.29408">
        <ele>676</ele>
        <time>2020-06-30T09:22:53.000Z</time>
      </trkpt>
      <trkpt lat="43.98157" lon="7.29407">
        <ele>676.40002441406</ele>
        <time>2020-06-30T09:22:56.000Z</time>
      </trkpt>
      <trkpt lat="43.98146" lon="7.29418">
        <ele>676</ele>
        <time>2020-06-30T09:22:59.000Z</time>
      </trkpt>
      <trkpt lat="43.98132" lon="7.2943">
        <ele>675.20001220703</ele>
        <time>2020-06-30T09:23:02.000Z</time>
      </trkpt>
      <trkpt lat="43.9813" lon="7.29435">
        <ele>674.59997558594</ele>
        <time>2020-06-30T09:23:03.000Z</time>
      </trkpt>
      <trkpt lat="43.98121" lon="7.29441">
        <ele>673.59997558594</ele>
        <time>2020-06-30T09:23:06.000Z</time>
      </trkpt>
      <trkpt lat="43.98119" lon="7.29441">
        <ele>673.40002441406</ele>
        <time>2020-06-30T09:23:07.000Z</time>
      </trkpt>
      <trkpt lat="43.98119" lon="7.29443">
        <ele>673.59997558594</ele>
        <time>2020-06-30T09:23:08.000Z</time>
      </trkpt>
      <trkpt lat="43.98116" lon="7.29446">
        <ele>673.40002441406</ele>
        <time>2020-06-30T09:23:11.000Z</time>
      </trkpt>
      <trkpt lat="43.98113" lon="7.29448">
        <ele>672.40002441406</ele>
        <time>2020-06-30T09:23:14.000Z</time>
      </trkpt>
      <trkpt lat="43.9811" lon="7.29448">
        <ele>672.20001220703</ele>
        <time>2020-06-30T09:23:15.000Z</time>
      </trkpt>
      <trkpt lat="43.98104" lon="7.29447">
        <ele>671.20001220703</ele>
        <time>2020-06-30T09:23:17.000Z</time>
      </trkpt>
      <trkpt lat="43.98097" lon="7.29442">
        <ele>670.20001220703</ele>
        <time>2020-06-30T09:23:19.000Z</time>
      </trkpt>
      <trkpt lat="43.98095" lon="7.29441">
        <ele>669.59997558594</ele>
        <time>2020-06-30T09:23:20.000Z</time>
      </trkpt>
      <trkpt lat="43.98091" lon="7.29446">
        <ele>668.40002441406</ele>
        <time>2020-06-30T09:23:22.000Z</time>
      </trkpt>
      <trkpt lat="43.98084" lon="7.29459">
        <ele>667.59997558594</ele>
        <time>2020-06-30T09:23:26.000Z</time>
      </trkpt>
      <trkpt lat="43.98081" lon="7.29461">
        <ele>667.59997558594</ele>
        <time>2020-06-30T09:23:27.000Z</time>
      </trkpt>
      <trkpt lat="43.98069" lon="7.2947">
        <ele>667.79998779297</ele>
        <time>2020-06-30T09:23:31.000Z</time>
      </trkpt>
      <trkpt lat="43.98058" lon="7.29481">
        <ele>667.59997558594</ele>
        <time>2020-06-30T09:23:36.000Z</time>
      </trkpt>
      <trkpt lat="43.98046" lon="7.29483">
        <ele>667.79998779297</ele>
        <time>2020-06-30T09:23:40.000Z</time>
      </trkpt>
      <trkpt lat="43.98034" lon="7.29479">
        <ele>667.59997558594</ele>
        <time>2020-06-30T09:23:44.000Z</time>
      </trkpt>
      <trkpt lat="43.9803" lon="7.29479">
        <ele>667.40002441406</ele>
        <time>2020-06-30T09:23:45.000Z</time>
      </trkpt>
      <trkpt lat="43.98021" lon="7.29474">
        <ele>667.40002441406</ele>
        <time>2020-06-30T09:23:48.000Z</time>
      </trkpt>
      <trkpt lat="43.98014" lon="7.29474">
        <ele>667.40002441406</ele>
        <time>2020-06-30T09:23:50.000Z</time>
      </trkpt>
      <trkpt lat="43.98002" lon="7.29469">
        <ele>667</ele>
        <time>2020-06-30T09:23:54.000Z</time>
      </trkpt>
      <trkpt lat="43.97988" lon="7.29469">
        <ele>667.40002441406</ele>
        <time>2020-06-30T09:23:59.000Z</time>
      </trkpt>
      <trkpt lat="43.97981" lon="7.29477">
        <ele>667.40002441406</ele>
        <time>2020-06-30T09:24:02.000Z</time>
      </trkpt>
      <trkpt lat="43.97979" lon="7.2948">
        <ele>667.40002441406</ele>
        <time>2020-06-30T09:24:03.000Z</time>
      </trkpt>
      <trkpt lat="43.97966" lon="7.29484">
        <ele>667.40002441406</ele>
        <time>2020-06-30T09:24:07.000Z</time>
      </trkpt>
      <trkpt lat="43.97948" lon="7.29475">
        <ele>667.40002441406</ele>
        <time>2020-06-30T09:24:12.000Z</time>
      </trkpt>
      <trkpt lat="43.97936" lon="7.29464">
        <ele>667.40002441406</ele>
        <time>2020-06-30T09:24:17.000Z</time>
      </trkpt>
      <trkpt lat="43.97932" lon="7.29465">
        <ele>667.59997558594</ele>
        <time>2020-06-30T09:24:19.000Z</time>
      </trkpt>
      <trkpt lat="43.9793" lon="7.29468">
        <ele>667.59997558594</ele>
        <time>2020-06-30T09:24:20.000Z</time>
      </trkpt>
      <trkpt lat="43.97927" lon="7.29482">
        <ele>667</ele>
        <time>2020-06-30T09:24:24.000Z</time>
      </trkpt>
      <trkpt lat="43.97926" lon="7.29486">
        <ele>667</ele>
        <time>2020-06-30T09:24:25.000Z</time>
      </trkpt>
      <trkpt lat="43.9792" lon="7.29507">
        <ele>667</ele>
        <time>2020-06-30T09:24:30.000Z</time>
      </trkpt>
      <trkpt lat="43.97911" lon="7.29527">
        <ele>666.40002441406</ele>
        <time>2020-06-30T09:24:35.000Z</time>
      </trkpt>
      <trkpt lat="43.97907" lon="7.29535">
        <ele>666.40002441406</ele>
        <time>2020-06-30T09:24:37.000Z</time>
      </trkpt>
      <trkpt lat="43.97901" lon="7.29547">
        <ele>666</ele>
        <time>2020-06-30T09:24:41.000Z</time>
      </trkpt>
      <trkpt lat="43.97886" lon="7.29551">
        <ele>666</ele>
        <time>2020-06-30T09:24:46.000Z</time>
      </trkpt>
      <trkpt lat="43.97866" lon="7.29556">
        <ele>665</ele>
        <time>2020-06-30T09:24:51.000Z</time>
      </trkpt>
      <trkpt lat="43.97859" lon="7.29553">
        <ele>664.59997558594</ele>
        <time>2020-06-30T09:24:53.000Z</time>
      </trkpt>
      <trkpt lat="43.97856" lon="7.2955">
        <ele>664.40002441406</ele>
        <time>2020-06-30T09:24:54.000Z</time>
      </trkpt>
      <trkpt lat="43.97843" lon="7.29538">
        <ele>664</ele>
        <time>2020-06-30T09:24:59.000Z</time>
      </trkpt>
      <trkpt lat="43.97841" lon="7.29535">
        <ele>663.59997558594</ele>
        <time>2020-06-30T09:25:00.000Z</time>
      </trkpt>
      <trkpt lat="43.97839" lon="7.29519">
        <ele>663.79998779297</ele>
        <time>2020-06-30T09:25:04.000Z</time>
      </trkpt>
      <trkpt lat="43.97836" lon="7.29512">
        <ele>663.59997558594</ele>
        <time>2020-06-30T09:25:06.000Z</time>
      </trkpt>
      <trkpt lat="43.97834" lon="7.29508">
        <ele>663.40002441406</ele>
        <time>2020-06-30T09:25:08.000Z</time>
      </trkpt>
      <trkpt lat="43.97831" lon="7.29512">
        <ele>663.59997558594</ele>
        <time>2020-06-30T09:25:12.000Z</time>
      </trkpt>
      <trkpt lat="43.97832" lon="7.29528">
        <ele>663.20001220703</ele>
        <time>2020-06-30T09:25:16.000Z</time>
      </trkpt>
      <trkpt lat="43.97831" lon="7.29531">
        <ele>663.20001220703</ele>
        <time>2020-06-30T09:25:17.000Z</time>
      </trkpt>
      <trkpt lat="43.9783" lon="7.29544">
        <ele>662.79998779297</ele>
        <time>2020-06-30T09:25:20.000Z</time>
      </trkpt>
      <trkpt lat="43.9783" lon="7.29556">
        <ele>662.59997558594</ele>
        <time>2020-06-30T09:25:23.000Z</time>
      </trkpt>
      <trkpt lat="43.97833" lon="7.29585">
        <ele>662.40002441406</ele>
        <time>2020-06-30T09:25:30.000Z</time>
      </trkpt>
      <trkpt lat="43.97835" lon="7.29604">
        <ele>662.59997558594</ele>
        <time>2020-06-30T09:25:35.000Z</time>
      </trkpt>
      <trkpt lat="43.97836" lon="7.29608">
        <ele>662.59997558594</ele>
        <time>2020-06-30T09:25:36.000Z</time>
      </trkpt>
      <trkpt lat="43.97842" lon="7.29627">
        <ele>662.59997558594</ele>
        <time>2020-06-30T09:25:41.000Z</time>
      </trkpt>
      <trkpt lat="43.97839" lon="7.29647">
        <ele>662.40002441406</ele>
        <time>2020-06-30T09:25:46.000Z</time>
      </trkpt>
      <trkpt lat="43.97836" lon="7.29653">
        <ele>662.20001220703</ele>
        <time>2020-06-30T09:25:48.000Z</time>
      </trkpt>
      <trkpt lat="43.97831" lon="7.29656">
        <ele>662</ele>
        <time>2020-06-30T09:25:50.000Z</time>
      </trkpt>
      <trkpt lat="43.97819" lon="7.29648">
        <ele>662</ele>
        <time>2020-06-30T09:25:54.000Z</time>
      </trkpt>
      <trkpt lat="43.97807" lon="7.29639">
        <ele>661.59997558594</ele>
        <time>2020-06-30T09:25:57.000Z</time>
      </trkpt>
      <trkpt lat="43.97797" lon="7.29632">
        <ele>661</ele>
        <time>2020-06-30T09:25:59.000Z</time>
      </trkpt>
      <trkpt lat="43.97792" lon="7.29629">
        <ele>660.79998779297</ele>
        <time>2020-06-30T09:26:00.000Z</time>
      </trkpt>
      <trkpt lat="43.97787" lon="7.29628">
        <ele>660.20001220703</ele>
        <time>2020-06-30T09:26:01.000Z</time>
      </trkpt>
      <trkpt lat="43.9778" lon="7.29627">
        <ele>659.40002441406</ele>
        <time>2020-06-30T09:26:03.000Z</time>
      </trkpt>
      <trkpt lat="43.97777" lon="7.29626">
        <ele>659</ele>
        <time>2020-06-30T09:26:04.000Z</time>
      </trkpt>
      <trkpt lat="43.97771" lon="7.29628">
        <ele>658.59997558594</ele>
        <time>2020-06-30T09:26:06.000Z</time>
      </trkpt>
      <trkpt lat="43.97766" lon="7.2963">
        <ele>658</ele>
        <time>2020-06-30T09:26:08.000Z</time>
      </trkpt>
      <trkpt lat="43.97764" lon="7.29631">
        <ele>656.79998779297</ele>
        <time>2020-06-30T09:26:10.000Z</time>
      </trkpt>
      <trkpt lat="43.97764" lon="7.29633">
        <ele>656</ele>
        <time>2020-06-30T09:26:11.000Z</time>
      </trkpt>
      <trkpt lat="43.97764" lon="7.29636">
        <ele>655.20001220703</ele>
        <time>2020-06-30T09:26:12.000Z</time>
      </trkpt>
      <trkpt lat="43.97772" lon="7.29642">
        <ele>654.20001220703</ele>
        <time>2020-06-30T09:26:15.000Z</time>
      </trkpt>
      <trkpt lat="43.9778" lon="7.2966">
        <ele>653.40002441406</ele>
        <time>2020-06-30T09:26:19.000Z</time>
      </trkpt>
      <trkpt lat="43.9778" lon="7.29672">
        <ele>653</ele>
        <time>2020-06-30T09:26:21.000Z</time>
      </trkpt>
      <trkpt lat="43.97777" lon="7.29684">
        <ele>652.59997558594</ele>
        <time>2020-06-30T09:26:23.000Z</time>
      </trkpt>
      <trkpt lat="43.97775" lon="7.29698">
        <ele>652.40002441406</ele>
        <time>2020-06-30T09:26:26.000Z</time>
      </trkpt>
      <trkpt lat="43.97776" lon="7.29724">
        <ele>652.40002441406</ele>
        <time>2020-06-30T09:26:31.000Z</time>
      </trkpt>
      <trkpt lat="43.97773" lon="7.2974">
        <ele>652.20001220703</ele>
        <time>2020-06-30T09:26:34.000Z</time>
      </trkpt>
      <trkpt lat="43.97771" lon="7.29746">
        <ele>652</ele>
        <time>2020-06-30T09:26:35.000Z</time>
      </trkpt>
      <trkpt lat="43.97767" lon="7.29762">
        <ele>651.79998779297</ele>
        <time>2020-06-30T09:26:38.000Z</time>
      </trkpt>
      <trkpt lat="43.9776" lon="7.29781">
        <ele>651.79998779297</ele>
        <time>2020-06-30T09:26:42.000Z</time>
      </trkpt>
      <trkpt lat="43.97748" lon="7.29791">
        <ele>651.79998779297</ele>
        <time>2020-06-30T09:26:46.000Z</time>
      </trkpt>
      <trkpt lat="43.97745" lon="7.29805">
        <ele>651.59997558594</ele>
        <time>2020-06-30T09:26:49.000Z</time>
      </trkpt>
      <trkpt lat="43.97743" lon="7.29811">
        <ele>651.40002441406</ele>
        <time>2020-06-30T09:26:50.000Z</time>
      </trkpt>
      <trkpt lat="43.97738" lon="7.29817">
        <ele>651.40002441406</ele>
        <time>2020-06-30T09:26:52.000Z</time>
      </trkpt>
      <trkpt lat="43.97735" lon="7.29818">
        <ele>651.40002441406</ele>
        <time>2020-06-30T09:26:53.000Z</time>
      </trkpt>
      <trkpt lat="43.97721" lon="7.29822">
        <ele>651.20001220703</ele>
        <time>2020-06-30T09:26:57.000Z</time>
      </trkpt>
      <trkpt lat="43.97712" lon="7.29828">
        <ele>651</ele>
        <time>2020-06-30T09:27:00.000Z</time>
      </trkpt>
      <trkpt lat="43.97709" lon="7.29828">
        <ele>651.20001220703</ele>
        <time>2020-06-30T09:27:01.000Z</time>
      </trkpt>
      <trkpt lat="43.97701" lon="7.29833">
        <ele>651.40002441406</ele>
        <time>2020-06-30T09:27:05.000Z</time>
      </trkpt>
      <trkpt lat="43.97701" lon="7.29836">
        <ele>651.40002441406</ele>
        <time>2020-06-30T09:27:06.000Z</time>
      </trkpt>
      <trkpt lat="43.97697" lon="7.29851">
        <ele>651</ele>
        <time>2020-06-30T09:27:09.000Z</time>
      </trkpt>
      <trkpt lat="43.97695" lon="7.29857">
        <ele>650.79998779297</ele>
        <time>2020-06-30T09:27:10.000Z</time>
      </trkpt>
      <trkpt lat="43.97691" lon="7.29872">
        <ele>650.59997558594</ele>
        <time>2020-06-30T09:27:13.000Z</time>
      </trkpt>
      <trkpt lat="43.97689" lon="7.29885">
        <ele>650.59997558594</ele>
        <time>2020-06-30T09:27:15.000Z</time>
      </trkpt>
      <trkpt lat="43.97687" lon="7.29895">
        <ele>650.40002441406</ele>
        <time>2020-06-30T09:27:17.000Z</time>
      </trkpt>
      <trkpt lat="43.97684" lon="7.29906">
        <ele>650.20001220703</ele>
        <time>2020-06-30T09:27:19.000Z</time>
      </trkpt>
      <trkpt lat="43.97679" lon="7.29912">
        <ele>650.20001220703</ele>
        <time>2020-06-30T09:27:21.000Z</time>
      </trkpt>
      <trkpt lat="43.97674" lon="7.2993">
        <ele>650.20001220703</ele>
        <time>2020-06-30T09:27:25.000Z</time>
      </trkpt>
      <trkpt lat="43.97668" lon="7.29942">
        <ele>650.20001220703</ele>
        <time>2020-06-30T09:27:28.000Z</time>
      </trkpt>
      <trkpt lat="43.97664" lon="7.29957">
        <ele>649.79998779297</ele>
        <time>2020-06-30T09:27:32.000Z</time>
      </trkpt>
      <trkpt lat="43.97662" lon="7.29961">
        <ele>649.59997558594</ele>
        <time>2020-06-30T09:27:33.000Z</time>
      </trkpt>
      <trkpt lat="43.97652" lon="7.29975">
        <ele>649.40002441406</ele>
        <time>2020-06-30T09:27:37.000Z</time>
      </trkpt>
      <trkpt lat="43.97646" lon="7.29998">
        <ele>649</ele>
        <time>2020-06-30T09:27:42.000Z</time>
      </trkpt>
      <trkpt lat="43.97641" lon="7.3002">
        <ele>648.79998779297</ele>
        <time>2020-06-30T09:27:47.000Z</time>
      </trkpt>
      <trkpt lat="43.97635" lon="7.30027">
        <ele>648.79998779297</ele>
        <time>2020-06-30T09:27:49.000Z</time>
      </trkpt>
      <trkpt lat="43.97632" lon="7.30029">
        <ele>648.59997558594</ele>
        <time>2020-06-30T09:27:50.000Z</time>
      </trkpt>
      <trkpt lat="43.97621" lon="7.3004">
        <ele>648</ele>
        <time>2020-06-30T09:27:54.000Z</time>
      </trkpt>
      <trkpt lat="43.97609" lon="7.30045">
        <ele>648</ele>
        <time>2020-06-30T09:27:58.000Z</time>
      </trkpt>
      <trkpt lat="43.97608" lon="7.30048">
        <ele>648</ele>
        <time>2020-06-30T09:27:59.000Z</time>
      </trkpt>
      <trkpt lat="43.97606" lon="7.3006">
        <ele>647.79998779297</ele>
        <time>2020-06-30T09:28:02.000Z</time>
      </trkpt>
      <trkpt lat="43.97606" lon="7.30063">
        <ele>647.59997558594</ele>
        <time>2020-06-30T09:28:03.000Z</time>
      </trkpt>
      <trkpt lat="43.97612" lon="7.30074">
        <ele>647.20001220703</ele>
        <time>2020-06-30T09:28:06.000Z</time>
      </trkpt>
      <trkpt lat="43.97615" lon="7.3009">
        <ele>646.59997558594</ele>
        <time>2020-06-30T09:28:09.000Z</time>
      </trkpt>
      <trkpt lat="43.97614" lon="7.30097">
        <ele>646.40002441406</ele>
        <time>2020-06-30T09:28:10.000Z</time>
      </trkpt>
      <trkpt lat="43.97612" lon="7.30105">
        <ele>645.79998779297</ele>
        <time>2020-06-30T09:28:12.000Z</time>
      </trkpt>
      <trkpt lat="43.9761" lon="7.30111">
        <ele>645.59997558594</ele>
        <time>2020-06-30T09:28:14.000Z</time>
      </trkpt>
      <trkpt lat="43.97602" lon="7.30135">
        <ele>645</ele>
        <time>2020-06-30T09:28:19.000Z</time>
      </trkpt>
      <trkpt lat="43.97589" lon="7.30155">
        <ele>644.59997558594</ele>
        <time>2020-06-30T09:28:24.000Z</time>
      </trkpt>
      <trkpt lat="43.97585" lon="7.30158">
        <ele>644.40002441406</ele>
        <time>2020-06-30T09:28:25.000Z</time>
      </trkpt>
      <trkpt lat="43.9757" lon="7.3016">
        <ele>644.20001220703</ele>
        <time>2020-06-30T09:28:29.000Z</time>
      </trkpt>
      <trkpt lat="43.97566" lon="7.30156">
        <ele>644.20001220703</ele>
        <time>2020-06-30T09:28:30.000Z</time>
      </trkpt>
      <trkpt lat="43.9755" lon="7.3015">
        <ele>643.59997558594</ele>
        <time>2020-06-30T09:28:34.000Z</time>
      </trkpt>
      <trkpt lat="43.97546" lon="7.30148">
        <ele>643.40002441406</ele>
        <time>2020-06-30T09:28:35.000Z</time>
      </trkpt>
      <trkpt lat="43.97525" lon="7.30134">
        <ele>643.59997558594</ele>
        <time>2020-06-30T09:28:41.000Z</time>
      </trkpt>
      <trkpt lat="43.97513" lon="7.30131">
        <ele>643.40002441406</ele>
        <time>2020-06-30T09:28:45.000Z</time>
      </trkpt>
      <trkpt lat="43.97511" lon="7.30132">
        <ele>643.40002441406</ele>
        <time>2020-06-30T09:28:47.000Z</time>
      </trkpt>
      <trkpt lat="43.97511" lon="7.30136">
        <ele>643.20001220703</ele>
        <time>2020-06-30T09:28:49.000Z</time>
      </trkpt>
      <trkpt lat="43.97508" lon="7.30151">
        <ele>642.79998779297</ele>
        <time>2020-06-30T09:28:52.000Z</time>
      </trkpt>
      <trkpt lat="43.97505" lon="7.30158">
        <ele>642.40002441406</ele>
        <time>2020-06-30T09:28:54.000Z</time>
      </trkpt>
      <trkpt lat="43.97503" lon="7.3017">
        <ele>641.20001220703</ele>
        <time>2020-06-30T09:28:57.000Z</time>
      </trkpt>
      <trkpt lat="43.97503" lon="7.30194">
        <ele>640.40002441406</ele>
        <time>2020-06-30T09:29:01.000Z</time>
      </trkpt>
      <trkpt lat="43.97503" lon="7.30208">
        <ele>640.20001220703</ele>
        <time>2020-06-30T09:29:03.000Z</time>
      </trkpt>
      <trkpt lat="43.97502" lon="7.30214">
        <ele>639.79998779297</ele>
        <time>2020-06-30T09:29:04.000Z</time>
      </trkpt>
      <trkpt lat="43.97498" lon="7.3022">
        <ele>639.40002441406</ele>
        <time>2020-06-30T09:29:05.000Z</time>
      </trkpt>
      <trkpt lat="43.9749" lon="7.30228">
        <ele>639</ele>
        <time>2020-06-30T09:29:07.000Z</time>
      </trkpt>
      <trkpt lat="43.97486" lon="7.30228">
        <ele>638.79998779297</ele>
        <time>2020-06-30T09:29:08.000Z</time>
      </trkpt>
      <trkpt lat="43.97484" lon="7.30229">
        <ele>638.59997558594</ele>
        <time>2020-06-30T09:29:09.000Z</time>
      </trkpt>
      <trkpt lat="43.97482" lon="7.30234">
        <ele>638.40002441406</ele>
        <time>2020-06-30T09:29:10.000Z</time>
      </trkpt>
      <trkpt lat="43.97481" lon="7.30242">
        <ele>638.20001220703</ele>
        <time>2020-06-30T09:29:11.000Z</time>
      </trkpt>
      <trkpt lat="43.97481" lon="7.30254">
        <ele>638</ele>
        <time>2020-06-30T09:29:13.000Z</time>
      </trkpt>
      <trkpt lat="43.97481" lon="7.3026">
        <ele>637.79998779297</ele>
        <time>2020-06-30T09:29:14.000Z</time>
      </trkpt>
      <trkpt lat="43.97482" lon="7.30269">
        <ele>637.79998779297</ele>
        <time>2020-06-30T09:29:15.000Z</time>
      </trkpt>
      <trkpt lat="43.97481" lon="7.30285">
        <ele>636.59997558594</ele>
        <time>2020-06-30T09:29:17.000Z</time>
      </trkpt>
      <trkpt lat="43.97477" lon="7.30299">
        <ele>635</ele>
        <time>2020-06-30T09:29:19.000Z</time>
      </trkpt>
      <trkpt lat="43.97468" lon="7.30304">
        <ele>633.59997558594</ele>
        <time>2020-06-30T09:29:21.000Z</time>
      </trkpt>
      <trkpt lat="43.97464" lon="7.30308">
        <ele>633.20001220703</ele>
        <time>2020-06-30T09:29:22.000Z</time>
      </trkpt>
      <trkpt lat="43.97459" lon="7.3032">
        <ele>633.20001220703</ele>
        <time>2020-06-30T09:29:25.000Z</time>
      </trkpt>
      <trkpt lat="43.97456" lon="7.30326">
        <ele>633.59997558594</ele>
        <time>2020-06-30T09:29:26.000Z</time>
      </trkpt>
      <trkpt lat="43.97449" lon="7.30332">
        <ele>633.59997558594</ele>
        <time>2020-06-30T09:29:28.000Z</time>
      </trkpt>
      <trkpt lat="43.97435" lon="7.30347">
        <ele>633.20001220703</ele>
        <time>2020-06-30T09:29:32.000Z</time>
      </trkpt>
      <trkpt lat="43.97432" lon="7.30352">
        <ele>632.79998779297</ele>
        <time>2020-06-30T09:29:33.000Z</time>
      </trkpt>
      <trkpt lat="43.97426" lon="7.30362">
        <ele>632.40002441406</ele>
        <time>2020-06-30T09:29:35.000Z</time>
      </trkpt>
      <trkpt lat="43.97413" lon="7.30369">
        <ele>632</ele>
        <time>2020-06-30T09:29:38.000Z</time>
      </trkpt>
      <trkpt lat="43.97397" lon="7.30385">
        <ele>631.79998779297</ele>
        <time>2020-06-30T09:29:43.000Z</time>
      </trkpt>
      <trkpt lat="43.9739" lon="7.304">
        <ele>632.20001220703</ele>
        <time>2020-06-30T09:29:46.000Z</time>
      </trkpt>
      <trkpt lat="43.97385" lon="7.30412">
        <ele>632.40002441406</ele>
        <time>2020-06-30T09:29:49.000Z</time>
      </trkpt>
      <trkpt lat="43.97371" lon="7.30422">
        <ele>632.79998779297</ele>
        <time>2020-06-30T09:29:53.000Z</time>
      </trkpt>
      <trkpt lat="43.97366" lon="7.30421">
        <ele>633.20001220703</ele>
        <time>2020-06-30T09:29:55.000Z</time>
      </trkpt>
      <trkpt lat="43.97365" lon="7.3042">
        <ele>633.59997558594</ele>
        <time>2020-06-30T09:29:56.000Z</time>
      </trkpt>
      <trkpt lat="43.97365" lon="7.3042">
        <ele>634</ele>
        <time>2020-06-30T09:29:57.000Z</time>
      </trkpt>
      <trkpt lat="43.97365" lon="7.30421">
        <ele>634.59997558594</ele>
        <time>2020-06-30T09:30:00.000Z</time>
      </trkpt>
      <trkpt lat="43.97365" lon="7.30421">
        <ele>634.59997558594</ele>
        <time>2020-06-30T09:30:03.000Z</time>
      </trkpt>
      <trkpt lat="43.97362" lon="7.30424">
        <ele>634.59997558594</ele>
        <time>2020-06-30T09:30:16.000Z</time>
      </trkpt>
      <trkpt lat="43.9736" lon="7.30427">
        <ele>634.59997558594</ele>
        <time>2020-06-30T09:30:17.000Z</time>
      </trkpt>
      <trkpt lat="43.97352" lon="7.30448">
        <ele>633</ele>
        <time>2020-06-30T09:30:21.000Z</time>
      </trkpt>
      <trkpt lat="43.97352" lon="7.30455">
        <ele>632</ele>
        <time>2020-06-30T09:30:22.000Z</time>
      </trkpt>
      <trkpt lat="43.97351" lon="7.30461">
        <ele>630.79998779297</ele>
        <time>2020-06-30T09:30:23.000Z</time>
      </trkpt>
      <trkpt lat="43.9735" lon="7.30467">
        <ele>629.79998779297</ele>
        <time>2020-06-30T09:30:24.000Z</time>
      </trkpt>
      <trkpt lat="43.97348" lon="7.30473">
        <ele>628.59997558594</ele>
        <time>2020-06-30T09:30:25.000Z</time>
      </trkpt>
      <trkpt lat="43.97348" lon="7.30477">
        <ele>626.79998779297</ele>
        <time>2020-06-30T09:30:27.000Z</time>
      </trkpt>
      <trkpt lat="43.97346" lon="7.30479">
        <ele>626.20001220703</ele>
        <time>2020-06-30T09:30:28.000Z</time>
      </trkpt>
      <trkpt lat="43.97345" lon="7.30481">
        <ele>625.79998779297</ele>
        <time>2020-06-30T09:30:29.000Z</time>
      </trkpt>
      <trkpt lat="43.97344" lon="7.30485">
        <ele>625.20001220703</ele>
        <time>2020-06-30T09:30:31.000Z</time>
      </trkpt>
      <trkpt lat="43.97344" lon="7.30487">
        <ele>624.79998779297</ele>
        <time>2020-06-30T09:30:33.000Z</time>
      </trkpt>
      <trkpt lat="43.97346" lon="7.30489">
        <ele>624.59997558594</ele>
        <time>2020-06-30T09:30:34.000Z</time>
      </trkpt>
      <trkpt lat="43.9735" lon="7.30489">
        <ele>623.20001220703</ele>
        <time>2020-06-30T09:30:37.000Z</time>
      </trkpt>
      <trkpt lat="43.97351" lon="7.30495">
        <ele>621.79998779297</ele>
        <time>2020-06-30T09:30:40.000Z</time>
      </trkpt>
      <trkpt lat="43.97349" lon="7.30494">
        <ele>621.59997558594</ele>
        <time>2020-06-30T09:30:41.000Z</time>
      </trkpt>
      <trkpt lat="43.97339" lon="7.30489">
        <ele>621.79998779297</ele>
        <time>2020-06-30T09:30:46.000Z</time>
      </trkpt>
      <trkpt lat="43.97343" lon="7.30483">
        <ele>622.79998779297</ele>
        <time>2020-06-30T09:30:49.000Z</time>
      </trkpt>
      <trkpt lat="43.97344" lon="7.30482">
        <ele>623.20001220703</ele>
        <time>2020-06-30T09:30:50.000Z</time>
      </trkpt>
      <trkpt lat="43.97345" lon="7.3048">
        <ele>623.79998779297</ele>
        <time>2020-06-30T09:30:51.000Z</time>
      </trkpt>
      <trkpt lat="43.97346" lon="7.30479">
        <ele>624.59997558594</ele>
        <time>2020-06-30T09:30:53.000Z</time>
      </trkpt>
      <trkpt lat="43.97345" lon="7.30476">
        <ele>625.20001220703</ele>
        <time>2020-06-30T09:30:56.000Z</time>
      </trkpt>
      <trkpt lat="43.97345" lon="7.30475">
        <ele>625.59997558594</ele>
        <time>2020-06-30T09:30:58.000Z</time>
      </trkpt>
      <trkpt lat="43.97347" lon="7.30477">
        <ele>625.79998779297</ele>
        <time>2020-06-30T09:31:03.000Z</time>
      </trkpt>
      <trkpt lat="43.97348" lon="7.30479">
        <ele>625.79998779297</ele>
        <time>2020-06-30T09:31:04.000Z</time>
      </trkpt>
      <trkpt lat="43.97356" lon="7.3049">
        <ele>624.20001220703</ele>
        <time>2020-06-30T09:31:09.000Z</time>
      </trkpt>
      <trkpt lat="43.97359" lon="7.30489">
        <ele>623.20001220703</ele>
        <time>2020-06-30T09:31:10.000Z</time>
      </trkpt>
      <trkpt lat="43.97368" lon="7.30482">
        <ele>621.20001220703</ele>
        <time>2020-06-30T09:31:12.000Z</time>
      </trkpt>
      <trkpt lat="43.97375" lon="7.30482">
        <ele>620</ele>
        <time>2020-06-30T09:31:14.000Z</time>
      </trkpt>
      <trkpt lat="43.97377" lon="7.30487">
        <ele>619.79998779297</ele>
        <time>2020-06-30T09:31:15.000Z</time>
      </trkpt>
      <trkpt lat="43.9737" lon="7.30501">
        <ele>618.79998779297</ele>
        <time>2020-06-30T09:31:18.000Z</time>
      </trkpt>
      <trkpt lat="43.97363" lon="7.30507">
        <ele>617.79998779297</ele>
        <time>2020-06-30T09:31:20.000Z</time>
      </trkpt>
      <trkpt lat="43.97359" lon="7.30513">
        <ele>616.40002441406</ele>
        <time>2020-06-30T09:31:22.000Z</time>
      </trkpt>
      <trkpt lat="43.97357" lon="7.30521">
        <ele>615</ele>
        <time>2020-06-30T09:31:24.000Z</time>
      </trkpt>
      <trkpt lat="43.97354" lon="7.30532">
        <ele>613.79998779297</ele>
        <time>2020-06-30T09:31:26.000Z</time>
      </trkpt>
      <trkpt lat="43.97352" lon="7.30541">
        <ele>612.59997558594</ele>
        <time>2020-06-30T09:31:28.000Z</time>
      </trkpt>
      <trkpt lat="43.97353" lon="7.30542">
        <ele>612.40002441406</ele>
        <time>2020-06-30T09:31:29.000Z</time>
      </trkpt>
      <trkpt lat="43.97353" lon="7.30544">
        <ele>612</ele>
        <time>2020-06-30T09:31:30.000Z</time>
      </trkpt>
      <trkpt lat="43.97353" lon="7.3055">
        <ele>611.59997558594</ele>
        <time>2020-06-30T09:31:32.000Z</time>
      </trkpt>
      <trkpt lat="43.97354" lon="7.30552">
        <ele>611.59997558594</ele>
        <time>2020-06-30T09:31:33.000Z</time>
      </trkpt>
      <trkpt lat="43.97354" lon="7.30556">
        <ele>611</ele>
        <time>2020-06-30T09:31:35.000Z</time>
      </trkpt>
      <trkpt lat="43.97355" lon="7.30556">
        <ele>610.40002441406</ele>
        <time>2020-06-30T09:31:36.000Z</time>
      </trkpt>
      <trkpt lat="43.97356" lon="7.30557">
        <ele>609.20001220703</ele>
        <time>2020-06-30T09:31:38.000Z</time>
      </trkpt>
      <trkpt lat="43.97357" lon="7.30556">
        <ele>608.59997558594</ele>
        <time>2020-06-30T09:31:39.000Z</time>
      </trkpt>
      <trkpt lat="43.97359" lon="7.30556">
        <ele>607.79998779297</ele>
        <time>2020-06-30T09:31:40.000Z</time>
      </trkpt>
      <trkpt lat="43.97362" lon="7.30554">
        <ele>606.79998779297</ele>
        <time>2020-06-30T09:31:42.000Z</time>
      </trkpt>
      <trkpt lat="43.97365" lon="7.30555">
        <ele>606</ele>
        <time>2020-06-30T09:31:43.000Z</time>
      </trkpt>
      <trkpt lat="43.97366" lon="7.30556">
        <ele>605.40002441406</ele>
        <time>2020-06-30T09:31:44.000Z</time>
      </trkpt>
      <trkpt lat="43.97372" lon="7.30558">
        <ele>604.20001220703</ele>
        <time>2020-06-30T09:31:46.000Z</time>
      </trkpt>
      <trkpt lat="43.97374" lon="7.3056">
        <ele>603.20001220703</ele>
        <time>2020-06-30T09:31:47.000Z</time>
      </trkpt>
      <trkpt lat="43.97375" lon="7.30564">
        <ele>601.20001220703</ele>
        <time>2020-06-30T09:31:49.000Z</time>
      </trkpt>
      <trkpt lat="43.97374" lon="7.30571">
        <ele>599.59997558594</ele>
        <time>2020-06-30T09:31:51.000Z</time>
      </trkpt>
      <trkpt lat="43.97372" lon="7.30579">
        <ele>598.20001220703</ele>
        <time>2020-06-30T09:31:53.000Z</time>
      </trkpt>
      <trkpt lat="43.97369" lon="7.3059">
        <ele>597.59997558594</ele>
        <time>2020-06-30T09:31:55.000Z</time>
      </trkpt>
      <trkpt lat="43.97369" lon="7.30596">
        <ele>597</ele>
        <time>2020-06-30T09:31:56.000Z</time>
      </trkpt>
      <trkpt lat="43.9737" lon="7.30603">
        <ele>596.20001220703</ele>
        <time>2020-06-30T09:31:58.000Z</time>
      </trkpt>
      <trkpt lat="43.9737" lon="7.30606">
        <ele>595.79998779297</ele>
        <time>2020-06-30T09:31:59.000Z</time>
      </trkpt>
      <trkpt lat="43.9737" lon="7.30606">
        <ele>594.59997558594</ele>
        <time>2020-06-30T09:32:01.000Z</time>
      </trkpt>
      <trkpt lat="43.9737" lon="7.30607">
        <ele>594.20001220703</ele>
        <time>2020-06-30T09:32:02.000Z</time>
      </trkpt>
      <trkpt lat="43.9737" lon="7.30607">
        <ele>593.40002441406</ele>
        <time>2020-06-30T09:32:04.000Z</time>
      </trkpt>
      <trkpt lat="43.9737" lon="7.30616">
        <ele>593.20001220703</ele>
        <time>2020-06-30T09:32:07.000Z</time>
      </trkpt>
      <trkpt lat="43.97371" lon="7.30629">
        <ele>592.40002441406</ele>
        <time>2020-06-30T09:32:10.000Z</time>
      </trkpt>
      <trkpt lat="43.97371" lon="7.30633">
        <ele>592</ele>
        <time>2020-06-30T09:32:11.000Z</time>
      </trkpt>
      <trkpt lat="43.97372" lon="7.30643">
        <ele>590.79998779297</ele>
        <time>2020-06-30T09:32:13.000Z</time>
      </trkpt>
      <trkpt lat="43.97371" lon="7.30656">
        <ele>589.20001220703</ele>
        <time>2020-06-30T09:32:16.000Z</time>
      </trkpt>
      <trkpt lat="43.97372" lon="7.30662">
        <ele>588</ele>
        <time>2020-06-30T09:32:19.000Z</time>
      </trkpt>
      <trkpt lat="43.97372" lon="7.30667">
        <ele>587.40002441406</ele>
        <time>2020-06-30T09:32:21.000Z</time>
      </trkpt>
      <trkpt lat="43.97373" lon="7.30666">
        <ele>586.40002441406</ele>
        <time>2020-06-30T09:32:22.000Z</time>
      </trkpt>
      <trkpt lat="43.97373" lon="7.30667">
        <ele>585.79998779297</ele>
        <time>2020-06-30T09:32:23.000Z</time>
      </trkpt>
      <trkpt lat="43.97373" lon="7.30667">
        <ele>585.40002441406</ele>
        <time>2020-06-30T09:32:24.000Z</time>
      </trkpt>
      <trkpt lat="43.97374" lon="7.30674">
        <ele>584.59997558594</ele>
        <time>2020-06-30T09:32:31.000Z</time>
      </trkpt>
      <trkpt lat="43.97376" lon="7.30681">
        <ele>584.20001220703</ele>
        <time>2020-06-30T09:32:34.000Z</time>
      </trkpt>
      <trkpt lat="43.97379" lon="7.30687">
        <ele>582.79998779297</ele>
        <time>2020-06-30T09:32:36.000Z</time>
      </trkpt>
      <trkpt lat="43.97383" lon="7.30694">
        <ele>581.20001220703</ele>
        <time>2020-06-30T09:32:38.000Z</time>
      </trkpt>
      <trkpt lat="43.97385" lon="7.30697">
        <ele>580.20001220703</ele>
        <time>2020-06-30T09:32:39.000Z</time>
      </trkpt>
      <trkpt lat="43.97387" lon="7.30699">
        <ele>579</ele>
        <time>2020-06-30T09:32:40.000Z</time>
      </trkpt>
      <trkpt lat="43.97389" lon="7.30702">
        <ele>577.40002441406</ele>
        <time>2020-06-30T09:32:42.000Z</time>
      </trkpt>
      <trkpt lat="43.9739" lon="7.30705">
        <ele>576.20001220703</ele>
        <time>2020-06-30T09:32:43.000Z</time>
      </trkpt>
      <trkpt lat="43.97392" lon="7.3071">
        <ele>574.79998779297</ele>
        <time>2020-06-30T09:32:45.000Z</time>
      </trkpt>
      <trkpt lat="43.97396" lon="7.30715">
        <ele>573.40002441406</ele>
        <time>2020-06-30T09:32:49.000Z</time>
      </trkpt>
      <trkpt lat="43.97399" lon="7.30719">
        <ele>571.40002441406</ele>
        <time>2020-06-30T09:32:52.000Z</time>
      </trkpt>
      <trkpt lat="43.97399" lon="7.3072">
        <ele>571</ele>
        <time>2020-06-30T09:32:53.000Z</time>
      </trkpt>
      <trkpt lat="43.97398" lon="7.30722">
        <ele>570.40002441406</ele>
        <time>2020-06-30T09:32:54.000Z</time>
      </trkpt>
      <trkpt lat="43.97399" lon="7.30726">
        <ele>568.79998779297</ele>
        <time>2020-06-30T09:32:56.000Z</time>
      </trkpt>
      <trkpt lat="43.97401" lon="7.30732">
        <ele>567.59997558594</ele>
        <time>2020-06-30T09:32:58.000Z</time>
      </trkpt>
      <trkpt lat="43.97405" lon="7.3074">
        <ele>566</ele>
        <time>2020-06-30T09:33:01.000Z</time>
      </trkpt>
      <trkpt lat="43.97407" lon="7.30747">
        <ele>564.79998779297</ele>
        <time>2020-06-30T09:33:03.000Z</time>
      </trkpt>
      <trkpt lat="43.97408" lon="7.30748">
        <ele>562.79998779297</ele>
        <time>2020-06-30T09:33:05.000Z</time>
      </trkpt>
      <trkpt lat="43.97409" lon="7.30752">
        <ele>561</ele>
        <time>2020-06-30T09:33:07.000Z</time>
      </trkpt>
      <trkpt lat="43.9741" lon="7.3076">
        <ele>559.79998779297</ele>
        <time>2020-06-30T09:33:09.000Z</time>
      </trkpt>
      <trkpt lat="43.9741" lon="7.30763">
        <ele>559.20001220703</ele>
        <time>2020-06-30T09:33:10.000Z</time>
      </trkpt>
      <trkpt lat="43.9741" lon="7.30765">
        <ele>558.59997558594</ele>
        <time>2020-06-30T09:33:11.000Z</time>
      </trkpt>
      <trkpt lat="43.97408" lon="7.30768">
        <ele>557.20001220703</ele>
        <time>2020-06-30T09:33:13.000Z</time>
      </trkpt>
      <trkpt lat="43.97406" lon="7.30768">
        <ele>556.59997558594</ele>
        <time>2020-06-30T09:33:14.000Z</time>
      </trkpt>
      <trkpt lat="43.97404" lon="7.3077">
        <ele>555.79998779297</ele>
        <time>2020-06-30T09:33:15.000Z</time>
      </trkpt>
      <trkpt lat="43.97405" lon="7.30774">
        <ele>554.59997558594</ele>
        <time>2020-06-30T09:33:17.000Z</time>
      </trkpt>
      <trkpt lat="43.97405" lon="7.30777">
        <ele>553.79998779297</ele>
        <time>2020-06-30T09:33:18.000Z</time>
      </trkpt>
      <trkpt lat="43.97405" lon="7.30779">
        <ele>553.20001220703</ele>
        <time>2020-06-30T09:33:19.000Z</time>
      </trkpt>
      <trkpt lat="43.97405" lon="7.3078">
        <ele>552.59997558594</ele>
        <time>2020-06-30T09:33:20.000Z</time>
      </trkpt>
      <trkpt lat="43.97402" lon="7.30781">
        <ele>552</ele>
        <time>2020-06-30T09:33:21.000Z</time>
      </trkpt>
      <trkpt lat="43.974" lon="7.30781">
        <ele>551.40002441406</ele>
        <time>2020-06-30T09:33:22.000Z</time>
      </trkpt>
      <trkpt lat="43.97399" lon="7.30782">
        <ele>551</ele>
        <time>2020-06-30T09:33:23.000Z</time>
      </trkpt>
      <trkpt lat="43.97397" lon="7.30783">
        <ele>550.40002441406</ele>
        <time>2020-06-30T09:33:24.000Z</time>
      </trkpt>
      <trkpt lat="43.97393" lon="7.30784">
        <ele>549.59997558594</ele>
        <time>2020-06-30T09:33:26.000Z</time>
      </trkpt>
      <trkpt lat="43.97392" lon="7.30786">
        <ele>548.79998779297</ele>
        <time>2020-06-30T09:33:27.000Z</time>
      </trkpt>
      <trkpt lat="43.97391" lon="7.30788">
        <ele>548</ele>
        <time>2020-06-30T09:33:28.000Z</time>
      </trkpt>
      <trkpt lat="43.97392" lon="7.30791">
        <ele>546.79998779297</ele>
        <time>2020-06-30T09:33:30.000Z</time>
      </trkpt>
      <trkpt lat="43.97396" lon="7.30794">
        <ele>545.40002441406</ele>
        <time>2020-06-30T09:33:32.000Z</time>
      </trkpt>
      <trkpt lat="43.974" lon="7.30795">
        <ele>544</ele>
        <time>2020-06-30T09:33:34.000Z</time>
      </trkpt>
      <trkpt lat="43.97405" lon="7.30796">
        <ele>543.40002441406</ele>
        <time>2020-06-30T09:33:36.000Z</time>
      </trkpt>
      <trkpt lat="43.97407" lon="7.30797">
        <ele>542.59997558594</ele>
        <time>2020-06-30T09:33:37.000Z</time>
      </trkpt>
      <trkpt lat="43.97409" lon="7.30798">
        <ele>541.59997558594</ele>
        <time>2020-06-30T09:33:39.000Z</time>
      </trkpt>
      <trkpt lat="43.9741" lon="7.308">
        <ele>540.59997558594</ele>
        <time>2020-06-30T09:33:41.000Z</time>
      </trkpt>
      <trkpt lat="43.9741" lon="7.30802">
        <ele>540.59997558594</ele>
        <time>2020-06-30T09:33:42.000Z</time>
      </trkpt>
      <trkpt lat="43.97409" lon="7.30811">
        <ele>540</ele>
        <time>2020-06-30T09:33:45.000Z</time>
      </trkpt>
      <trkpt lat="43.97413" lon="7.30819">
        <ele>539.40002441406</ele>
        <time>2020-06-30T09:33:48.000Z</time>
      </trkpt>
      <trkpt lat="43.97415" lon="7.30821">
        <ele>539</ele>
        <time>2020-06-30T09:33:49.000Z</time>
      </trkpt>
      <trkpt lat="43.97419" lon="7.30822">
        <ele>538.20001220703</ele>
        <time>2020-06-30T09:33:51.000Z</time>
      </trkpt>
      <trkpt lat="43.97425" lon="7.3082">
        <ele>537.20001220703</ele>
        <time>2020-06-30T09:33:54.000Z</time>
      </trkpt>
      <trkpt lat="43.97428" lon="7.30826">
        <ele>536.40002441406</ele>
        <time>2020-06-30T09:33:57.000Z</time>
      </trkpt>
      <trkpt lat="43.97423" lon="7.30832">
        <ele>536</ele>
        <time>2020-06-30T09:34:00.000Z</time>
      </trkpt>
      <trkpt lat="43.9742" lon="7.30834">
        <ele>535.79998779297</ele>
        <time>2020-06-30T09:34:01.000Z</time>
      </trkpt>
      <trkpt lat="43.97413" lon="7.30841">
        <ele>535</ele>
        <time>2020-06-30T09:34:03.000Z</time>
      </trkpt>
      <trkpt lat="43.9741" lon="7.30852">
        <ele>534.20001220703</ele>
        <time>2020-06-30T09:34:05.000Z</time>
      </trkpt>
      <trkpt lat="43.97412" lon="7.30861">
        <ele>533.59997558594</ele>
        <time>2020-06-30T09:34:06.000Z</time>
      </trkpt>
      <trkpt lat="43.97413" lon="7.30869">
        <ele>533</ele>
        <time>2020-06-30T09:34:07.000Z</time>
      </trkpt>
      <trkpt lat="43.97415" lon="7.30876">
        <ele>532.20001220703</ele>
        <time>2020-06-30T09:34:08.000Z</time>
      </trkpt>
      <trkpt lat="43.97417" lon="7.30885">
        <ele>530</ele>
        <time>2020-06-30T09:34:10.000Z</time>
      </trkpt>
      <trkpt lat="43.97419" lon="7.30889">
        <ele>529.40002441406</ele>
        <time>2020-06-30T09:34:11.000Z</time>
      </trkpt>
      <trkpt lat="43.9742" lon="7.30893">
        <ele>528.40002441406</ele>
        <time>2020-06-30T09:34:12.000Z</time>
      </trkpt>
      <trkpt lat="43.97424" lon="7.30901">
        <ele>527.20001220703</ele>
        <time>2020-06-30T09:34:14.000Z</time>
      </trkpt>
      <trkpt lat="43.97423" lon="7.30907">
        <ele>526.59997558594</ele>
        <time>2020-06-30T09:34:15.000Z</time>
      </trkpt>
      <trkpt lat="43.97422" lon="7.30913">
        <ele>525.40002441406</ele>
        <time>2020-06-30T09:34:16.000Z</time>
      </trkpt>
      <trkpt lat="43.97421" lon="7.30926">
        <ele>524.40002441406</ele>
        <time>2020-06-30T09:34:18.000Z</time>
      </trkpt>
      <trkpt lat="43.9742" lon="7.30933">
        <ele>523.59997558594</ele>
        <time>2020-06-30T09:34:19.000Z</time>
      </trkpt>
      <trkpt lat="43.97419" lon="7.3094">
        <ele>523</ele>
        <time>2020-06-30T09:34:20.000Z</time>
      </trkpt>
      <trkpt lat="43.97415" lon="7.30958">
        <ele>521.79998779297</ele>
        <time>2020-06-30T09:34:23.000Z</time>
      </trkpt>
      <trkpt lat="43.97412" lon="7.30962">
        <ele>521.20001220703</ele>
        <time>2020-06-30T09:34:24.000Z</time>
      </trkpt>
      <trkpt lat="43.97409" lon="7.30965">
        <ele>520.59997558594</ele>
        <time>2020-06-30T09:34:25.000Z</time>
      </trkpt>
      <trkpt lat="43.97407" lon="7.30968">
        <ele>519.40002441406</ele>
        <time>2020-06-30T09:34:26.000Z</time>
      </trkpt>
      <trkpt lat="43.97399" lon="7.30977">
        <ele>518.59997558594</ele>
        <time>2020-06-30T09:34:29.000Z</time>
      </trkpt>
      <trkpt lat="43.97395" lon="7.30981">
        <ele>518.20001220703</ele>
        <time>2020-06-30T09:34:30.000Z</time>
      </trkpt>
      <trkpt lat="43.97388" lon="7.30988">
        <ele>517</ele>
        <time>2020-06-30T09:34:32.000Z</time>
      </trkpt>
      <trkpt lat="43.97382" lon="7.30993">
        <ele>516.20001220703</ele>
        <time>2020-06-30T09:34:34.000Z</time>
      </trkpt>
      <trkpt lat="43.97378" lon="7.30998">
        <ele>515.59997558594</ele>
        <time>2020-06-30T09:34:35.000Z</time>
      </trkpt>
      <trkpt lat="43.97369" lon="7.31007">
        <ele>514.40002441406</ele>
        <time>2020-06-30T09:34:38.000Z</time>
      </trkpt>
      <trkpt lat="43.97368" lon="7.31008">
        <ele>513.79998779297</ele>
        <time>2020-06-30T09:34:39.000Z</time>
      </trkpt>
      <trkpt lat="43.97365" lon="7.3101">
        <ele>513</ele>
        <time>2020-06-30T09:34:40.000Z</time>
      </trkpt>
      <trkpt lat="43.97361" lon="7.31021">
        <ele>511.60000610352</ele>
        <time>2020-06-30T09:34:42.000Z</time>
      </trkpt>
      <trkpt lat="43.9736" lon="7.31025">
        <ele>510.79998779297</ele>
        <time>2020-06-30T09:34:43.000Z</time>
      </trkpt>
      <trkpt lat="43.97357" lon="7.3103">
        <ele>509.79998779297</ele>
        <time>2020-06-30T09:34:44.000Z</time>
      </trkpt>
      <trkpt lat="43.97354" lon="7.31037">
        <ele>508.60000610352</ele>
        <time>2020-06-30T09:34:46.000Z</time>
      </trkpt>
      <trkpt lat="43.97354" lon="7.3104">
        <ele>508.39999389648</ele>
        <time>2020-06-30T09:34:47.000Z</time>
      </trkpt>
      <trkpt lat="43.97357" lon="7.31042">
        <ele>507.60000610352</ele>
        <time>2020-06-30T09:34:49.000Z</time>
      </trkpt>
      <trkpt lat="43.97359" lon="7.31041">
        <ele>507.20001220703</ele>
        <time>2020-06-30T09:34:50.000Z</time>
      </trkpt>
      <trkpt lat="43.97366" lon="7.31031">
        <ele>506</ele>
        <time>2020-06-30T09:34:53.000Z</time>
      </trkpt>
      <trkpt lat="43.97369" lon="7.31027">
        <ele>505.79998779297</ele>
        <time>2020-06-30T09:34:54.000Z</time>
      </trkpt>
      <trkpt lat="43.97377" lon="7.31022">
        <ele>504.79998779297</ele>
        <time>2020-06-30T09:34:56.000Z</time>
      </trkpt>
      <trkpt lat="43.97381" lon="7.31018">
        <ele>503.39999389648</ele>
        <time>2020-06-30T09:34:58.000Z</time>
      </trkpt>
      <trkpt lat="43.97383" lon="7.31019">
        <ele>503</ele>
        <time>2020-06-30T09:34:59.000Z</time>
      </trkpt>
      <trkpt lat="43.97383" lon="7.31023">
        <ele>502.39999389648</ele>
        <time>2020-06-30T09:35:00.000Z</time>
      </trkpt>
      <trkpt lat="43.97381" lon="7.31028">
        <ele>502</ele>
        <time>2020-06-30T09:35:01.000Z</time>
      </trkpt>
      <trkpt lat="43.97378" lon="7.31036">
        <ele>501.20001220703</ele>
        <time>2020-06-30T09:35:03.000Z</time>
      </trkpt>
      <trkpt lat="43.97376" lon="7.31041">
        <ele>500.20001220703</ele>
        <time>2020-06-30T09:35:05.000Z</time>
      </trkpt>
      <trkpt lat="43.97378" lon="7.31041">
        <ele>498.60000610352</ele>
        <time>2020-06-30T09:35:07.000Z</time>
      </trkpt>
      <trkpt lat="43.9738" lon="7.3104">
        <ele>498</ele>
        <time>2020-06-30T09:35:08.000Z</time>
      </trkpt>
      <trkpt lat="43.97384" lon="7.31037">
        <ele>497.60000610352</ele>
        <time>2020-06-30T09:35:09.000Z</time>
      </trkpt>
      <trkpt lat="43.97386" lon="7.31033">
        <ele>496.60000610352</ele>
        <time>2020-06-30T09:35:10.000Z</time>
      </trkpt>
      <trkpt lat="43.97393" lon="7.31028">
        <ele>495.20001220703</ele>
        <time>2020-06-30T09:35:12.000Z</time>
      </trkpt>
      <trkpt lat="43.97392" lon="7.31031">
        <ele>494</ele>
        <time>2020-06-30T09:35:14.000Z</time>
      </trkpt>
      <trkpt lat="43.97392" lon="7.31032">
        <ele>493.79998779297</ele>
        <time>2020-06-30T09:35:15.000Z</time>
      </trkpt>
      <trkpt lat="43.9739" lon="7.31037">
        <ele>493.39999389648</ele>
        <time>2020-06-30T09:35:16.000Z</time>
      </trkpt>
      <trkpt lat="43.97388" lon="7.3104">
        <ele>493</ele>
        <time>2020-06-30T09:35:17.000Z</time>
      </trkpt>
      <trkpt lat="43.97388" lon="7.31044">
        <ele>491.79998779297</ele>
        <time>2020-06-30T09:35:19.000Z</time>
      </trkpt>
      <trkpt lat="43.97388" lon="7.31045">
        <ele>490.60000610352</ele>
        <time>2020-06-30T09:35:22.000Z</time>
      </trkpt>
      <trkpt lat="43.9739" lon="7.31044">
        <ele>490</ele>
        <time>2020-06-30T09:35:23.000Z</time>
      </trkpt>
      <trkpt lat="43.97393" lon="7.3104">
        <ele>489.20001220703</ele>
        <time>2020-06-30T09:35:25.000Z</time>
      </trkpt>
      <trkpt lat="43.97397" lon="7.31036">
        <ele>488.60000610352</ele>
        <time>2020-06-30T09:35:27.000Z</time>
      </trkpt>
      <trkpt lat="43.97399" lon="7.31035">
        <ele>488.20001220703</ele>
        <time>2020-06-30T09:35:28.000Z</time>
      </trkpt>
      <trkpt lat="43.97399" lon="7.31039">
        <ele>487.20001220703</ele>
        <time>2020-06-30T09:35:30.000Z</time>
      </trkpt>
      <trkpt lat="43.97398" lon="7.31043">
        <ele>486.79998779297</ele>
        <time>2020-06-30T09:35:31.000Z</time>
      </trkpt>
      <trkpt lat="43.97395" lon="7.31055">
        <ele>485.79998779297</ele>
        <time>2020-06-30T09:35:33.000Z</time>
      </trkpt>
      <trkpt lat="43.97392" lon="7.31068">
        <ele>484.20001220703</ele>
        <time>2020-06-30T09:35:36.000Z</time>
      </trkpt>
      <trkpt lat="43.97393" lon="7.3107">
        <ele>483.20001220703</ele>
        <time>2020-06-30T09:35:37.000Z</time>
      </trkpt>
      <trkpt lat="43.97394" lon="7.3107">
        <ele>482.20001220703</ele>
        <time>2020-06-30T09:35:38.000Z</time>
      </trkpt>
      <trkpt lat="43.97397" lon="7.31063">
        <ele>480.39999389648</ele>
        <time>2020-06-30T09:35:40.000Z</time>
      </trkpt>
      <trkpt lat="43.97398" lon="7.31059">
        <ele>480</ele>
        <time>2020-06-30T09:35:41.000Z</time>
      </trkpt>
      <trkpt lat="43.97401" lon="7.31057">
        <ele>479.39999389648</ele>
        <time>2020-06-30T09:35:42.000Z</time>
      </trkpt>
      <trkpt lat="43.97402" lon="7.31061">
        <ele>479</ele>
        <time>2020-06-30T09:35:43.000Z</time>
      </trkpt>
      <trkpt lat="43.97401" lon="7.31065">
        <ele>478.79998779297</ele>
        <time>2020-06-30T09:35:44.000Z</time>
      </trkpt>
      <trkpt lat="43.97399" lon="7.31077">
        <ele>477.79998779297</ele>
        <time>2020-06-30T09:35:49.000Z</time>
      </trkpt>
      <trkpt lat="43.97399" lon="7.31078">
        <ele>477.79998779297</ele>
        <time>2020-06-30T09:35:50.000Z</time>
      </trkpt>
      <trkpt lat="43.97408" lon="7.31083">
        <ele>477.39999389648</ele>
        <time>2020-06-30T09:35:54.000Z</time>
      </trkpt>
      <trkpt lat="43.97413" lon="7.31085">
        <ele>477</ele>
        <time>2020-06-30T09:35:56.000Z</time>
      </trkpt>
      <trkpt lat="43.97416" lon="7.31085">
        <ele>476.60000610352</ele>
        <time>2020-06-30T09:35:58.000Z</time>
      </trkpt>
      <trkpt lat="43.97417" lon="7.31086">
        <ele>476.60000610352</ele>
        <time>2020-06-30T09:35:59.000Z</time>
      </trkpt>
      <trkpt lat="43.97416" lon="7.31085">
        <ele>476.79998779297</ele>
        <time>2020-06-30T09:36:04.000Z</time>
      </trkpt>
      <trkpt lat="43.97415" lon="7.31085">
        <ele>477</ele>
        <time>2020-06-30T09:36:12.000Z</time>
      </trkpt>
      <trkpt lat="43.97414" lon="7.31085">
        <ele>476.20001220703</ele>
        <time>2020-06-30T09:36:17.000Z</time>
      </trkpt>
      <trkpt lat="43.97412" lon="7.31083">
        <ele>476.39999389648</ele>
        <time>2020-06-30T09:36:29.000Z</time>
      </trkpt>
      <trkpt lat="43.9741" lon="7.31084">
        <ele>476.39999389648</ele>
        <time>2020-06-30T09:36:47.000Z</time>
      </trkpt>
      <trkpt lat="43.97407" lon="7.3108">
        <ele>476.20001220703</ele>
        <time>2020-06-30T09:37:11.000Z</time>
      </trkpt>
      <trkpt lat="43.97406" lon="7.31079">
        <ele>476</ele>
        <time>2020-06-30T09:37:28.000Z</time>
      </trkpt>
      <trkpt lat="43.97404" lon="7.3108">
        <ele>476.20001220703</ele>
        <time>2020-06-30T09:37:44.000Z</time>
      </trkpt>
      <trkpt lat="43.97403" lon="7.31078">
        <ele>476.39999389648</ele>
        <time>2020-06-30T09:37:52.000Z</time>
      </trkpt>
      <trkpt lat="43.97402" lon="7.31075">
        <ele>476.20001220703</ele>
        <time>2020-06-30T09:37:59.000Z</time>
      </trkpt>
      <trkpt lat="43.97401" lon="7.31075">
        <ele>476.20001220703</ele>
        <time>2020-06-30T09:38:12.000Z</time>
      </trkpt>
      <trkpt lat="43.97401" lon="7.31071">
        <ele>476</ele>
        <time>2020-06-30T09:38:20.000Z</time>
      </trkpt>
      <trkpt lat="43.97401" lon="7.31066">
        <ele>476</ele>
        <time>2020-06-30T09:38:35.000Z</time>
      </trkpt>
      <trkpt lat="43.97403" lon="7.3107">
        <ele>476</ele>
        <time>2020-06-30T09:38:42.000Z</time>
      </trkpt>
      <trkpt lat="43.97404" lon="7.31071">
        <ele>475.60000610352</ele>
        <time>2020-06-30T09:38:45.000Z</time>
      </trkpt>
      <trkpt lat="43.97405" lon="7.31073">
        <ele>476.20001220703</ele>
        <time>2020-06-30T09:38:52.000Z</time>
      </trkpt>
      <trkpt lat="43.97405" lon="7.31075">
        <ele>476.39999389648</ele>
        <time>2020-06-30T09:39:10.000Z</time>
      </trkpt>
      <trkpt lat="43.97407" lon="7.31077">
        <ele>476.39999389648</ele>
        <time>2020-06-30T09:39:30.000Z</time>
      </trkpt>
      <trkpt lat="43.97411" lon="7.31078">
        <ele>476</ele>
        <time>2020-06-30T09:39:39.000Z</time>
      </trkpt>
      <trkpt lat="43.97413" lon="7.31078">
        <ele>475.79998779297</ele>
        <time>2020-06-30T09:39:47.000Z</time>
      </trkpt>
      <trkpt lat="43.97413" lon="7.31078">
        <ele>476.20001220703</ele>
        <time>2020-06-30T09:39:55.000Z</time>
      </trkpt>
      <trkpt lat="43.97413" lon="7.31077">
        <ele>475.79998779297</ele>
        <time>2020-06-30T09:40:01.000Z</time>
      </trkpt>
      <trkpt lat="43.97409" lon="7.31077">
        <ele>475.60000610352</ele>
        <time>2020-06-30T09:40:10.000Z</time>
      </trkpt>
      <trkpt lat="43.97395" lon="7.31085">
        <ele>475.79998779297</ele>
        <time>2020-06-30T09:40:17.000Z</time>
      </trkpt>
      <trkpt lat="43.97384" lon="7.31105">
        <ele>475.60000610352</ele>
        <time>2020-06-30T09:40:23.000Z</time>
      </trkpt>
      <trkpt lat="43.97372" lon="7.31137">
        <ele>475.60000610352</ele>
        <time>2020-06-30T09:40:30.000Z</time>
      </trkpt>
      <trkpt lat="43.97359" lon="7.3117">
        <ele>475.60000610352</ele>
        <time>2020-06-30T09:40:37.000Z</time>
      </trkpt>
      <trkpt lat="43.97356" lon="7.31174">
        <ele>475.60000610352</ele>
        <time>2020-06-30T09:40:38.000Z</time>
      </trkpt>
      <trkpt lat="43.97344" lon="7.31183">
        <ele>475</ele>
        <time>2020-06-30T09:40:41.000Z</time>
      </trkpt>
      <trkpt lat="43.97339" lon="7.31184">
        <ele>474.79998779297</ele>
        <time>2020-06-30T09:40:42.000Z</time>
      </trkpt>
      <trkpt lat="43.97334" lon="7.31185">
        <ele>474.20001220703</ele>
        <time>2020-06-30T09:40:43.000Z</time>
      </trkpt>
      <trkpt lat="43.9732" lon="7.3118">
        <ele>473</ele>
        <time>2020-06-30T09:40:46.000Z</time>
      </trkpt>
      <trkpt lat="43.97313" lon="7.31173">
        <ele>472.79998779297</ele>
        <time>2020-06-30T09:40:48.000Z</time>
      </trkpt>
      <trkpt lat="43.97305" lon="7.31167">
        <ele>472.79998779297</ele>
        <time>2020-06-30T09:40:50.000Z</time>
      </trkpt>
      <trkpt lat="43.973" lon="7.31166">
        <ele>472.60000610352</ele>
        <time>2020-06-30T09:40:51.000Z</time>
      </trkpt>
      <trkpt lat="43.97292" lon="7.31163">
        <ele>472.60000610352</ele>
        <time>2020-06-30T09:40:53.000Z</time>
      </trkpt>
      <trkpt lat="43.97282" lon="7.31163">
        <ele>472.39999389648</ele>
        <time>2020-06-30T09:40:55.000Z</time>
      </trkpt>
      <trkpt lat="43.97267" lon="7.31167">
        <ele>472</ele>
        <time>2020-06-30T09:40:57.000Z</time>
      </trkpt>
      <trkpt lat="43.9726" lon="7.31167">
        <ele>471.60000610352</ele>
        <time>2020-06-30T09:40:58.000Z</time>
      </trkpt>
      <trkpt lat="43.97243" lon="7.31171">
        <ele>470.60000610352</ele>
        <time>2020-06-30T09:41:00.000Z</time>
      </trkpt>
      <trkpt lat="43.97227" lon="7.31172">
        <ele>469.60000610352</ele>
        <time>2020-06-30T09:41:02.000Z</time>
      </trkpt>
      <trkpt lat="43.97211" lon="7.31171">
        <ele>469.20001220703</ele>
        <time>2020-06-30T09:41:04.000Z</time>
      </trkpt>
      <trkpt lat="43.97205" lon="7.31169">
        <ele>468.79998779297</ele>
        <time>2020-06-30T09:41:05.000Z</time>
      </trkpt>
      <trkpt lat="43.97198" lon="7.31167">
        <ele>468.39999389648</ele>
        <time>2020-06-30T09:41:06.000Z</time>
      </trkpt>
      <trkpt lat="43.97183" lon="7.31162">
        <ele>467.20001220703</ele>
        <time>2020-06-30T09:41:08.000Z</time>
      </trkpt>
      <trkpt lat="43.97176" lon="7.31159">
        <ele>466.39999389648</ele>
        <time>2020-06-30T09:41:09.000Z</time>
      </trkpt>
      <trkpt lat="43.97169" lon="7.31156">
        <ele>465.60000610352</ele>
        <time>2020-06-30T09:41:10.000Z</time>
      </trkpt>
      <trkpt lat="43.97149" lon="7.31138">
        <ele>465.20001220703</ele>
        <time>2020-06-30T09:41:13.000Z</time>
      </trkpt>
      <trkpt lat="43.97125" lon="7.31113">
        <ele>464.60000610352</ele>
        <time>2020-06-30T09:41:17.000Z</time>
      </trkpt>
      <trkpt lat="43.97113" lon="7.31099">
        <ele>463.20001220703</ele>
        <time>2020-06-30T09:41:19.000Z</time>
      </trkpt>
      <trkpt lat="43.97101" lon="7.31085">
        <ele>462.60000610352</ele>
        <time>2020-06-30T09:41:21.000Z</time>
      </trkpt>
      <trkpt lat="43.9709" lon="7.31071">
        <ele>461.79998779297</ele>
        <time>2020-06-30T09:41:23.000Z</time>
      </trkpt>
      <trkpt lat="43.97073" lon="7.31047">
        <ele>460.39999389648</ele>
        <time>2020-06-30T09:41:26.000Z</time>
      </trkpt>
      <trkpt lat="43.97053" lon="7.31028">
        <ele>459.60000610352</ele>
        <time>2020-06-30T09:41:29.000Z</time>
      </trkpt>
      <trkpt lat="43.97046" lon="7.3102">
        <ele>459.39999389648</ele>
        <time>2020-06-30T09:41:30.000Z</time>
      </trkpt>
      <trkpt lat="43.97035" lon="7.31004">
        <ele>458.39999389648</ele>
        <time>2020-06-30T09:41:32.000Z</time>
      </trkpt>
      <trkpt lat="43.9703" lon="7.30995">
        <ele>457.79998779297</ele>
        <time>2020-06-30T09:41:33.000Z</time>
      </trkpt>
      <trkpt lat="43.97025" lon="7.30986">
        <ele>457.39999389648</ele>
        <time>2020-06-30T09:41:34.000Z</time>
      </trkpt>
      <trkpt lat="43.97021" lon="7.30975">
        <ele>457</ele>
        <time>2020-06-30T09:41:35.000Z</time>
      </trkpt>
      <trkpt lat="43.97019" lon="7.30964">
        <ele>456.39999389648</ele>
        <time>2020-06-30T09:41:36.000Z</time>
      </trkpt>
      <trkpt lat="43.97016" lon="7.30941">
        <ele>455.20001220703</ele>
        <time>2020-06-30T09:41:38.000Z</time>
      </trkpt>
      <trkpt lat="43.97015" lon="7.30916">
        <ele>454.20001220703</ele>
        <time>2020-06-30T09:41:40.000Z</time>
      </trkpt>
      <trkpt lat="43.97012" lon="7.30869">
        <ele>452.79998779297</ele>
        <time>2020-06-30T09:41:44.000Z</time>
      </trkpt>
      <trkpt lat="43.97008" lon="7.30821">
        <ele>451.20001220703</ele>
        <time>2020-06-30T09:41:48.000Z</time>
      </trkpt>
      <trkpt lat="43.97006" lon="7.30797">
        <ele>450.20001220703</ele>
        <time>2020-06-30T09:41:50.000Z</time>
      </trkpt>
      <trkpt lat="43.97005" lon="7.30785">
        <ele>449.60000610352</ele>
        <time>2020-06-30T09:41:51.000Z</time>
      </trkpt>
      <trkpt lat="43.97002" lon="7.30762">
        <ele>449</ele>
        <time>2020-06-30T09:41:53.000Z</time>
      </trkpt>
      <trkpt lat="43.96999" lon="7.30752">
        <ele>448.60000610352</ele>
        <time>2020-06-30T09:41:54.000Z</time>
      </trkpt>
      <trkpt lat="43.96995" lon="7.30741">
        <ele>448</ele>
        <time>2020-06-30T09:41:55.000Z</time>
      </trkpt>
      <trkpt lat="43.9699" lon="7.3073">
        <ele>447.60000610352</ele>
        <time>2020-06-30T09:41:56.000Z</time>
      </trkpt>
      <trkpt lat="43.96974" lon="7.30703">
        <ele>446.20001220703</ele>
        <time>2020-06-30T09:41:59.000Z</time>
      </trkpt>
      <trkpt lat="43.96957" lon="7.30674">
        <ele>444.60000610352</ele>
        <time>2020-06-30T09:42:02.000Z</time>
      </trkpt>
      <trkpt lat="43.96941" lon="7.30646">
        <ele>443.39999389648</ele>
        <time>2020-06-30T09:42:05.000Z</time>
      </trkpt>
      <trkpt lat="43.96935" lon="7.30636">
        <ele>443</ele>
        <time>2020-06-30T09:42:06.000Z</time>
      </trkpt>
      <trkpt lat="43.96919" lon="7.30609">
        <ele>441.79998779297</ele>
        <time>2020-06-30T09:42:09.000Z</time>
      </trkpt>
      <trkpt lat="43.96902" lon="7.30583">
        <ele>440.39999389648</ele>
        <time>2020-06-30T09:42:12.000Z</time>
      </trkpt>
      <trkpt lat="43.96897" lon="7.30574">
        <ele>440.20001220703</ele>
        <time>2020-06-30T09:42:13.000Z</time>
      </trkpt>
      <trkpt lat="43.96873" lon="7.30536">
        <ele>439.20001220703</ele>
        <time>2020-06-30T09:42:18.000Z</time>
      </trkpt>
      <trkpt lat="43.96867" lon="7.3053">
        <ele>439</ele>
        <time>2020-06-30T09:42:19.000Z</time>
      </trkpt>
      <trkpt lat="43.96861" lon="7.30523">
        <ele>438.60000610352</ele>
        <time>2020-06-30T09:42:20.000Z</time>
      </trkpt>
      <trkpt lat="43.96846" lon="7.30516">
        <ele>438</ele>
        <time>2020-06-30T09:42:22.000Z</time>
      </trkpt>
      <trkpt lat="43.96822" lon="7.30513">
        <ele>436.39999389648</ele>
        <time>2020-06-30T09:42:25.000Z</time>
      </trkpt>
      <trkpt lat="43.96813" lon="7.30512">
        <ele>436</ele>
        <time>2020-06-30T09:42:26.000Z</time>
      </trkpt>
      <trkpt lat="43.96797" lon="7.30507">
        <ele>435</ele>
        <time>2020-06-30T09:42:28.000Z</time>
      </trkpt>
      <trkpt lat="43.96781" lon="7.30499">
        <ele>434.60000610352</ele>
        <time>2020-06-30T09:42:30.000Z</time>
      </trkpt>
      <trkpt lat="43.96766" lon="7.30486">
        <ele>434</ele>
        <time>2020-06-30T09:42:32.000Z</time>
      </trkpt>
      <trkpt lat="43.96752" lon="7.30473">
        <ele>433</ele>
        <time>2020-06-30T09:42:34.000Z</time>
      </trkpt>
      <trkpt lat="43.96745" lon="7.30466">
        <ele>432.39999389648</ele>
        <time>2020-06-30T09:42:35.000Z</time>
      </trkpt>
      <trkpt lat="43.96738" lon="7.30458">
        <ele>431.79998779297</ele>
        <time>2020-06-30T09:42:36.000Z</time>
      </trkpt>
      <trkpt lat="43.96725" lon="7.30444">
        <ele>430.79998779297</ele>
        <time>2020-06-30T09:42:38.000Z</time>
      </trkpt>
      <trkpt lat="43.96718" lon="7.3044">
        <ele>430.39999389648</ele>
        <time>2020-06-30T09:42:39.000Z</time>
      </trkpt>
      <trkpt lat="43.96709" lon="7.30437">
        <ele>430.20001220703</ele>
        <time>2020-06-30T09:42:40.000Z</time>
      </trkpt>
      <trkpt lat="43.96686" lon="7.30434">
        <ele>429.20001220703</ele>
        <time>2020-06-30T09:42:43.000Z</time>
      </trkpt>
      <trkpt lat="43.96679" lon="7.30432">
        <ele>429</ele>
        <time>2020-06-30T09:42:44.000Z</time>
      </trkpt>
      <trkpt lat="43.96657" lon="7.30424">
        <ele>428.20001220703</ele>
        <time>2020-06-30T09:42:47.000Z</time>
      </trkpt>
      <trkpt lat="43.9665" lon="7.3042">
        <ele>428.20001220703</ele>
        <time>2020-06-30T09:42:48.000Z</time>
      </trkpt>
      <trkpt lat="43.96644" lon="7.30414">
        <ele>428</ele>
        <time>2020-06-30T09:42:49.000Z</time>
      </trkpt>
      <trkpt lat="43.96601" lon="7.30381">
        <ele>427.20001220703</ele>
        <time>2020-06-30T09:42:56.000Z</time>
      </trkpt>
      <trkpt lat="43.9656" lon="7.30341">
        <ele>427</ele>
        <time>2020-06-30T09:43:03.000Z</time>
      </trkpt>
      <trkpt lat="43.96546" lon="7.30308">
        <ele>426</ele>
        <time>2020-06-30T09:43:07.000Z</time>
      </trkpt>
      <trkpt lat="43.96542" lon="7.30302">
        <ele>425.79998779297</ele>
        <time>2020-06-30T09:43:08.000Z</time>
      </trkpt>
      <trkpt lat="43.96527" lon="7.30284">
        <ele>425.60000610352</ele>
        <time>2020-06-30T09:43:11.000Z</time>
      </trkpt>
      <trkpt lat="43.96484" lon="7.30243">
        <ele>425.20001220703</ele>
        <time>2020-06-30T09:43:19.000Z</time>
      </trkpt>
      <trkpt lat="43.96465" lon="7.30233">
        <ele>425</ele>
        <time>2020-06-30T09:43:22.000Z</time>
      </trkpt>
      <trkpt lat="43.96447" lon="7.30223">
        <ele>424.60000610352</ele>
        <time>2020-06-30T09:43:25.000Z</time>
      </trkpt>
      <trkpt lat="43.96423" lon="7.3021">
        <ele>423.79998779297</ele>
        <time>2020-06-30T09:43:29.000Z</time>
      </trkpt>
      <trkpt lat="43.96404" lon="7.30203">
        <ele>423.60000610352</ele>
        <time>2020-06-30T09:43:32.000Z</time>
      </trkpt>
      <trkpt lat="43.96397" lon="7.30203">
        <ele>423.79998779297</ele>
        <time>2020-06-30T09:43:33.000Z</time>
      </trkpt>
      <trkpt lat="43.96372" lon="7.30211">
        <ele>423.39999389648</ele>
        <time>2020-06-30T09:43:37.000Z</time>
      </trkpt>
      <trkpt lat="43.96329" lon="7.30234">
        <ele>423.20001220703</ele>
        <time>2020-06-30T09:43:44.000Z</time>
      </trkpt>
      <trkpt lat="43.96291" lon="7.30269">
        <ele>422.79998779297</ele>
        <time>2020-06-30T09:43:51.000Z</time>
      </trkpt>
      <trkpt lat="43.96286" lon="7.30274">
        <ele>422.79998779297</ele>
        <time>2020-06-30T09:43:52.000Z</time>
      </trkpt>
      <trkpt lat="43.96261" lon="7.303">
        <ele>423.20001220703</ele>
        <time>2020-06-30T09:43:58.000Z</time>
      </trkpt>
      <trkpt lat="43.96257" lon="7.30302">
        <ele>423.39999389648</ele>
        <time>2020-06-30T09:43:59.000Z</time>
      </trkpt>
      <trkpt lat="43.96244" lon="7.30308">
        <ele>423.60000610352</ele>
        <time>2020-06-30T09:44:02.000Z</time>
      </trkpt>
      <trkpt lat="43.96235" lon="7.30308">
        <ele>424</ele>
        <time>2020-06-30T09:44:04.000Z</time>
      </trkpt>
      <trkpt lat="43.96231" lon="7.30307">
        <ele>424.20001220703</ele>
        <time>2020-06-30T09:44:05.000Z</time>
      </trkpt>
      <trkpt lat="43.96223" lon="7.30307">
        <ele>424.20001220703</ele>
        <time>2020-06-30T09:44:07.000Z</time>
      </trkpt>
      <trkpt lat="43.96207" lon="7.30312">
        <ele>424</ele>
        <time>2020-06-30T09:44:11.000Z</time>
      </trkpt>
      <trkpt lat="43.962" lon="7.3031">
        <ele>424.20001220703</ele>
        <time>2020-06-30T09:44:13.000Z</time>
      </trkpt>
      <trkpt lat="43.96186" lon="7.30311">
        <ele>424.79998779297</ele>
        <time>2020-06-30T09:44:16.000Z</time>
      </trkpt>
      <trkpt lat="43.96179" lon="7.30308">
        <ele>424.79998779297</ele>
        <time>2020-06-30T09:44:18.000Z</time>
      </trkpt>
      <trkpt lat="43.96171" lon="7.30309">
        <ele>424.60000610352</ele>
        <time>2020-06-30T09:44:20.000Z</time>
      </trkpt>
      <trkpt lat="43.96152" lon="7.30307">
        <ele>423.79998779297</ele>
        <time>2020-06-30T09:44:23.000Z</time>
      </trkpt>
      <trkpt lat="43.96139" lon="7.30307">
        <ele>424</ele>
        <time>2020-06-30T09:44:25.000Z</time>
      </trkpt>
      <trkpt lat="43.96109" lon="7.30298">
        <ele>425</ele>
        <time>2020-06-30T09:44:30.000Z</time>
      </trkpt>
      <trkpt lat="43.96066" lon="7.30281">
        <ele>425.79998779297</ele>
        <time>2020-06-30T09:44:38.000Z</time>
      </trkpt>
      <trkpt lat="43.96061" lon="7.30278">
        <ele>426</ele>
        <time>2020-06-30T09:44:39.000Z</time>
      </trkpt>
      <trkpt lat="43.96035" lon="7.30269">
        <ele>426.79998779297</ele>
        <time>2020-06-30T09:44:44.000Z</time>
      </trkpt>
      <trkpt lat="43.96024" lon="7.30268">
        <ele>427</ele>
        <time>2020-06-30T09:44:46.000Z</time>
      </trkpt>
      <trkpt lat="43.96014" lon="7.30267">
        <ele>427.20001220703</ele>
        <time>2020-06-30T09:44:48.000Z</time>
      </trkpt>
      <trkpt lat="43.95984" lon="7.30267">
        <ele>427.60000610352</ele>
        <time>2020-06-30T09:44:54.000Z</time>
      </trkpt>
      <trkpt lat="43.95947" lon="7.30275">
        <ele>427.60000610352</ele>
        <time>2020-06-30T09:45:01.000Z</time>
      </trkpt>
      <trkpt lat="43.95932" lon="7.30278">
        <ele>428.39999389648</ele>
        <time>2020-06-30T09:45:04.000Z</time>
      </trkpt>
      <trkpt lat="43.95927" lon="7.30278">
        <ele>428.39999389648</ele>
        <time>2020-06-30T09:45:05.000Z</time>
      </trkpt>
      <trkpt lat="43.95911" lon="7.30271">
        <ele>428.39999389648</ele>
        <time>2020-06-30T09:45:08.000Z</time>
      </trkpt>
      <trkpt lat="43.95898" lon="7.30247">
        <ele>428</ele>
        <time>2020-06-30T09:45:12.000Z</time>
      </trkpt>
      <trkpt lat="43.95895" lon="7.30226">
        <ele>428.60000610352</ele>
        <time>2020-06-30T09:45:15.000Z</time>
      </trkpt>
      <trkpt lat="43.95893" lon="7.30213">
        <ele>428.79998779297</ele>
        <time>2020-06-30T09:45:17.000Z</time>
      </trkpt>
      <trkpt lat="43.95888" lon="7.30177">
        <ele>429.39999389648</ele>
        <time>2020-06-30T09:45:22.000Z</time>
      </trkpt>
      <trkpt lat="43.95882" lon="7.30141">
        <ele>430</ele>
        <time>2020-06-30T09:45:27.000Z</time>
      </trkpt>
      <trkpt lat="43.95877" lon="7.30104">
        <ele>430.60000610352</ele>
        <time>2020-06-30T09:45:32.000Z</time>
      </trkpt>
      <trkpt lat="43.95867" lon="7.30061">
        <ele>430.79998779297</ele>
        <time>2020-06-30T09:45:38.000Z</time>
      </trkpt>
      <trkpt lat="43.95849" lon="7.30016">
        <ele>431.39999389648</ele>
        <time>2020-06-30T09:45:45.000Z</time>
      </trkpt>
      <trkpt lat="43.95847" lon="7.30009">
        <ele>431.60000610352</ele>
        <time>2020-06-30T09:45:46.000Z</time>
      </trkpt>
      <trkpt lat="43.95824" lon="7.2995">
        <ele>432.20001220703</ele>
        <time>2020-06-30T09:45:55.000Z</time>
      </trkpt>
      <trkpt lat="43.95821" lon="7.29945">
        <ele>432.20001220703</ele>
        <time>2020-06-30T09:45:56.000Z</time>
      </trkpt>
      <trkpt lat="43.95807" lon="7.29931">
        <ele>432.79998779297</ele>
        <time>2020-06-30T09:45:59.000Z</time>
      </trkpt>
      <trkpt lat="43.9578" lon="7.29921">
        <ele>433.39999389648</ele>
        <time>2020-06-30T09:46:04.000Z</time>
      </trkpt>
      <trkpt lat="43.95764" lon="7.29922">
        <ele>433.79998779297</ele>
        <time>2020-06-30T09:46:07.000Z</time>
      </trkpt>
      <trkpt lat="43.95747" lon="7.29922">
        <ele>434.20001220703</ele>
        <time>2020-06-30T09:46:10.000Z</time>
      </trkpt>
      <trkpt lat="43.95736" lon="7.29918">
        <ele>434</ele>
        <time>2020-06-30T09:46:12.000Z</time>
      </trkpt>
      <trkpt lat="43.95721" lon="7.29907">
        <ele>434.20001220703</ele>
        <time>2020-06-30T09:46:15.000Z</time>
      </trkpt>
      <trkpt lat="43.95708" lon="7.29891">
        <ele>434.60000610352</ele>
        <time>2020-06-30T09:46:18.000Z</time>
      </trkpt>
      <trkpt lat="43.957" lon="7.2988">
        <ele>434.39999389648</ele>
        <time>2020-06-30T09:46:20.000Z</time>
      </trkpt>
      <trkpt lat="43.95661" lon="7.29825">
        <ele>433.60000610352</ele>
        <time>2020-06-30T09:46:29.000Z</time>
      </trkpt>
      <trkpt lat="43.95645" lon="7.29808">
        <ele>432.79998779297</ele>
        <time>2020-06-30T09:46:32.000Z</time>
      </trkpt>
      <trkpt lat="43.95639" lon="7.29804">
        <ele>432.60000610352</ele>
        <time>2020-06-30T09:46:33.000Z</time>
      </trkpt>
      <trkpt lat="43.95633" lon="7.29799">
        <ele>432.39999389648</ele>
        <time>2020-06-30T09:46:34.000Z</time>
      </trkpt>
      <trkpt lat="43.95612" lon="7.29786">
        <ele>431.60000610352</ele>
        <time>2020-06-30T09:46:37.000Z</time>
      </trkpt>
      <trkpt lat="43.95589" lon="7.29775">
        <ele>431</ele>
        <time>2020-06-30T09:46:40.000Z</time>
      </trkpt>
      <trkpt lat="43.95574" lon="7.29767">
        <ele>430.20001220703</ele>
        <time>2020-06-30T09:46:42.000Z</time>
      </trkpt>
      <trkpt lat="43.95559" lon="7.29762">
        <ele>428.39999389648</ele>
        <time>2020-06-30T09:46:44.000Z</time>
      </trkpt>
      <trkpt lat="43.95543" lon="7.29759">
        <ele>427.39999389648</ele>
        <time>2020-06-30T09:46:46.000Z</time>
      </trkpt>
      <trkpt lat="43.95513" lon="7.29763">
        <ele>426</ele>
        <time>2020-06-30T09:46:50.000Z</time>
      </trkpt>
      <trkpt lat="43.95506" lon="7.29764">
        <ele>425.20001220703</ele>
        <time>2020-06-30T09:46:51.000Z</time>
      </trkpt>
      <trkpt lat="43.95498" lon="7.29764">
        <ele>424.79998779297</ele>
        <time>2020-06-30T09:46:52.000Z</time>
      </trkpt>
      <trkpt lat="43.95491" lon="7.29764">
        <ele>424.39999389648</ele>
        <time>2020-06-30T09:46:53.000Z</time>
      </trkpt>
      <trkpt lat="43.95475" lon="7.29756">
        <ele>423.60000610352</ele>
        <time>2020-06-30T09:46:55.000Z</time>
      </trkpt>
      <trkpt lat="43.95463" lon="7.2974">
        <ele>422.20001220703</ele>
        <time>2020-06-30T09:46:57.000Z</time>
      </trkpt>
      <trkpt lat="43.95458" lon="7.29732">
        <ele>421.39999389648</ele>
        <time>2020-06-30T09:46:58.000Z</time>
      </trkpt>
      <trkpt lat="43.95454" lon="7.29723">
        <ele>420.79998779297</ele>
        <time>2020-06-30T09:46:59.000Z</time>
      </trkpt>
      <trkpt lat="43.95449" lon="7.29713">
        <ele>420.39999389648</ele>
        <time>2020-06-30T09:47:00.000Z</time>
      </trkpt>
      <trkpt lat="43.95439" lon="7.29695">
        <ele>419.79998779297</ele>
        <time>2020-06-30T09:47:02.000Z</time>
      </trkpt>
      <trkpt lat="43.95425" lon="7.29667">
        <ele>419.20001220703</ele>
        <time>2020-06-30T09:47:05.000Z</time>
      </trkpt>
      <trkpt lat="43.95414" lon="7.29648">
        <ele>418.39999389648</ele>
        <time>2020-06-30T09:47:07.000Z</time>
      </trkpt>
      <trkpt lat="43.95398" lon="7.2962">
        <ele>417</ele>
        <time>2020-06-30T09:47:10.000Z</time>
      </trkpt>
      <trkpt lat="43.95378" lon="7.29597">
        <ele>416</ele>
        <time>2020-06-30T09:47:13.000Z</time>
      </trkpt>
      <trkpt lat="43.95371" lon="7.29592">
        <ele>415.60000610352</ele>
        <time>2020-06-30T09:47:14.000Z</time>
      </trkpt>
      <trkpt lat="43.95354" lon="7.29584">
        <ele>414.79998779297</ele>
        <time>2020-06-30T09:47:16.000Z</time>
      </trkpt>
      <trkpt lat="43.95345" lon="7.29581">
        <ele>414.39999389648</ele>
        <time>2020-06-30T09:47:17.000Z</time>
      </trkpt>
      <trkpt lat="43.95335" lon="7.29578">
        <ele>413.79998779297</ele>
        <time>2020-06-30T09:47:18.000Z</time>
      </trkpt>
      <trkpt lat="43.95327" lon="7.29574">
        <ele>413.39999389648</ele>
        <time>2020-06-30T09:47:19.000Z</time>
      </trkpt>
      <trkpt lat="43.95318" lon="7.29568">
        <ele>412.60000610352</ele>
        <time>2020-06-30T09:47:20.000Z</time>
      </trkpt>
      <trkpt lat="43.9531" lon="7.29561">
        <ele>412</ele>
        <time>2020-06-30T09:47:21.000Z</time>
      </trkpt>
      <trkpt lat="43.95293" lon="7.29551">
        <ele>410.39999389648</ele>
        <time>2020-06-30T09:47:23.000Z</time>
      </trkpt>
      <trkpt lat="43.95285" lon="7.29548">
        <ele>409.79998779297</ele>
        <time>2020-06-30T09:47:24.000Z</time>
      </trkpt>
      <trkpt lat="43.95276" lon="7.29545">
        <ele>409.20001220703</ele>
        <time>2020-06-30T09:47:25.000Z</time>
      </trkpt>
      <trkpt lat="43.9524" lon="7.29533">
        <ele>408.20001220703</ele>
        <time>2020-06-30T09:47:29.000Z</time>
      </trkpt>
      <trkpt lat="43.95218" lon="7.29504">
        <ele>406.39999389648</ele>
        <time>2020-06-30T09:47:32.000Z</time>
      </trkpt>
      <trkpt lat="43.95209" lon="7.29481">
        <ele>405</ele>
        <time>2020-06-30T09:47:34.000Z</time>
      </trkpt>
      <trkpt lat="43.95196" lon="7.29459">
        <ele>404</ele>
        <time>2020-06-30T09:47:36.000Z</time>
      </trkpt>
      <trkpt lat="43.95171" lon="7.29438">
        <ele>402.79998779297</ele>
        <time>2020-06-30T09:47:39.000Z</time>
      </trkpt>
      <trkpt lat="43.95155" lon="7.29423">
        <ele>401.79998779297</ele>
        <time>2020-06-30T09:47:41.000Z</time>
      </trkpt>
      <trkpt lat="43.95143" lon="7.29402">
        <ele>400.39999389648</ele>
        <time>2020-06-30T09:47:43.000Z</time>
      </trkpt>
      <trkpt lat="43.95136" lon="7.29376">
        <ele>399</ele>
        <time>2020-06-30T09:47:45.000Z</time>
      </trkpt>
      <trkpt lat="43.95133" lon="7.29364">
        <ele>398.79998779297</ele>
        <time>2020-06-30T09:47:46.000Z</time>
      </trkpt>
      <trkpt lat="43.95123" lon="7.29327">
        <ele>397.79998779297</ele>
        <time>2020-06-30T09:47:49.000Z</time>
      </trkpt>
      <trkpt lat="43.95113" lon="7.29287">
        <ele>396.39999389648</ele>
        <time>2020-06-30T09:47:52.000Z</time>
      </trkpt>
      <trkpt lat="43.95109" lon="7.29275">
        <ele>396</ele>
        <time>2020-06-30T09:47:53.000Z</time>
      </trkpt>
      <trkpt lat="43.95104" lon="7.29264">
        <ele>395.60000610352</ele>
        <time>2020-06-30T09:47:54.000Z</time>
      </trkpt>
      <trkpt lat="43.95097" lon="7.29254">
        <ele>395</ele>
        <time>2020-06-30T09:47:55.000Z</time>
      </trkpt>
      <trkpt lat="43.9509" lon="7.29246">
        <ele>394.60000610352</ele>
        <time>2020-06-30T09:47:56.000Z</time>
      </trkpt>
      <trkpt lat="43.95075" lon="7.2923">
        <ele>393.60000610352</ele>
        <time>2020-06-30T09:47:58.000Z</time>
      </trkpt>
      <trkpt lat="43.95053" lon="7.29205">
        <ele>392.20001220703</ele>
        <time>2020-06-30T09:48:01.000Z</time>
      </trkpt>
      <trkpt lat="43.95043" lon="7.29192">
        <ele>391.20001220703</ele>
        <time>2020-06-30T09:48:03.000Z</time>
      </trkpt>
      <trkpt lat="43.94955" lon="7.29026">
        <ele>380</ele>
        <time>2020-06-30T09:48:19.000Z</time>
      </trkpt>
      <trkpt lat="43.94952" lon="7.29013">
        <ele>379.79998779297</ele>
        <time>2020-06-30T09:48:20.000Z</time>
      </trkpt>
      <trkpt lat="43.94944" lon="7.28975">
        <ele>379</ele>
        <time>2020-06-30T09:48:23.000Z</time>
      </trkpt>
      <trkpt lat="43.94938" lon="7.28947">
        <ele>377.79998779297</ele>
        <time>2020-06-30T09:48:25.000Z</time>
      </trkpt>
      <trkpt lat="43.94933" lon="7.28921">
        <ele>376.39999389648</ele>
        <time>2020-06-30T09:48:27.000Z</time>
      </trkpt>
      <trkpt lat="43.94927" lon="7.28897">
        <ele>375.39999389648</ele>
        <time>2020-06-30T09:48:29.000Z</time>
      </trkpt>
      <trkpt lat="43.94924" lon="7.28884">
        <ele>374.20001220703</ele>
        <time>2020-06-30T09:48:30.000Z</time>
      </trkpt>
      <trkpt lat="43.9492" lon="7.28859">
        <ele>373</ele>
        <time>2020-06-30T09:48:32.000Z</time>
      </trkpt>
      <trkpt lat="43.94918" lon="7.28847">
        <ele>372.79998779297</ele>
        <time>2020-06-30T09:48:33.000Z</time>
      </trkpt>
      <trkpt lat="43.94907" lon="7.28813">
        <ele>372.20001220703</ele>
        <time>2020-06-30T09:48:36.000Z</time>
      </trkpt>
      <trkpt lat="43.94902" lon="7.28804">
        <ele>372.20001220703</ele>
        <time>2020-06-30T09:48:37.000Z</time>
      </trkpt>
      <trkpt lat="43.94896" lon="7.28796">
        <ele>371.79998779297</ele>
        <time>2020-06-30T09:48:38.000Z</time>
      </trkpt>
      <trkpt lat="43.94877" lon="7.28772">
        <ele>370.79998779297</ele>
        <time>2020-06-30T09:48:41.000Z</time>
      </trkpt>
      <trkpt lat="43.9487" lon="7.28764">
        <ele>370.39999389648</ele>
        <time>2020-06-30T09:48:42.000Z</time>
      </trkpt>
      <trkpt lat="43.94851" lon="7.28741">
        <ele>369</ele>
        <time>2020-06-30T09:48:45.000Z</time>
      </trkpt>
      <trkpt lat="43.94838" lon="7.28731">
        <ele>368.39999389648</ele>
        <time>2020-06-30T09:48:47.000Z</time>
      </trkpt>
      <trkpt lat="43.94816" lon="7.2872">
        <ele>367.79998779297</ele>
        <time>2020-06-30T09:48:50.000Z</time>
      </trkpt>
      <trkpt lat="43.94809" lon="7.28714">
        <ele>367.60000610352</ele>
        <time>2020-06-30T09:48:51.000Z</time>
      </trkpt>
      <trkpt lat="43.94796" lon="7.28702">
        <ele>366.60000610352</ele>
        <time>2020-06-30T09:48:53.000Z</time>
      </trkpt>
      <trkpt lat="43.94789" lon="7.28694">
        <ele>366</ele>
        <time>2020-06-30T09:48:54.000Z</time>
      </trkpt>
      <trkpt lat="43.94784" lon="7.28685">
        <ele>365.39999389648</ele>
        <time>2020-06-30T09:48:55.000Z</time>
      </trkpt>
      <trkpt lat="43.94775" lon="7.28667">
        <ele>364.20001220703</ele>
        <time>2020-06-30T09:48:57.000Z</time>
      </trkpt>
      <trkpt lat="43.94767" lon="7.28646">
        <ele>363.20001220703</ele>
        <time>2020-06-30T09:48:59.000Z</time>
      </trkpt>
      <trkpt lat="43.94764" lon="7.28636">
        <ele>362.79998779297</ele>
        <time>2020-06-30T09:49:00.000Z</time>
      </trkpt>
      <trkpt lat="43.94754" lon="7.28605">
        <ele>361.60000610352</ele>
        <time>2020-06-30T09:49:03.000Z</time>
      </trkpt>
      <trkpt lat="43.94747" lon="7.28585">
        <ele>360.60000610352</ele>
        <time>2020-06-30T09:49:05.000Z</time>
      </trkpt>
      <trkpt lat="43.94741" lon="7.28565">
        <ele>359.60000610352</ele>
        <time>2020-06-30T09:49:07.000Z</time>
      </trkpt>
      <trkpt lat="43.94738" lon="7.28555">
        <ele>359</ele>
        <time>2020-06-30T09:49:08.000Z</time>
      </trkpt>
      <trkpt lat="43.94729" lon="7.28524">
        <ele>357.79998779297</ele>
        <time>2020-06-30T09:49:11.000Z</time>
      </trkpt>
      <trkpt lat="43.94725" lon="7.28514">
        <ele>357.79998779297</ele>
        <time>2020-06-30T09:49:12.000Z</time>
      </trkpt>
      <trkpt lat="43.94708" lon="7.28476">
        <ele>356.79998779297</ele>
        <time>2020-06-30T09:49:16.000Z</time>
      </trkpt>
      <trkpt lat="43.94703" lon="7.28469">
        <ele>356.20001220703</ele>
        <time>2020-06-30T09:49:17.000Z</time>
      </trkpt>
      <trkpt lat="43.94697" lon="7.2846">
        <ele>355.60000610352</ele>
        <time>2020-06-30T09:49:18.000Z</time>
      </trkpt>
      <trkpt lat="43.94684" lon="7.28445">
        <ele>354.79998779297</ele>
        <time>2020-06-30T09:49:20.000Z</time>
      </trkpt>
      <trkpt lat="43.94677" lon="7.28439">
        <ele>354.60000610352</ele>
        <time>2020-06-30T09:49:21.000Z</time>
      </trkpt>
      <trkpt lat="43.9467" lon="7.28434">
        <ele>354.39999389648</ele>
        <time>2020-06-30T09:49:22.000Z</time>
      </trkpt>
      <trkpt lat="43.9464" lon="7.28418">
        <ele>354.60000610352</ele>
        <time>2020-06-30T09:49:26.000Z</time>
      </trkpt>
      <trkpt lat="43.94619" lon="7.28409">
        <ele>353.39999389648</ele>
        <time>2020-06-30T09:49:29.000Z</time>
      </trkpt>
      <trkpt lat="43.94597" lon="7.284">
        <ele>352.20001220703</ele>
        <time>2020-06-30T09:49:32.000Z</time>
      </trkpt>
      <trkpt lat="43.9456" lon="7.28384">
        <ele>351.20001220703</ele>
        <time>2020-06-30T09:49:38.000Z</time>
      </trkpt>
      <trkpt lat="43.94555" lon="7.28381">
        <ele>351</ele>
        <time>2020-06-30T09:49:39.000Z</time>
      </trkpt>
      <trkpt lat="43.9453" lon="7.2837">
        <ele>351</ele>
        <time>2020-06-30T09:49:43.000Z</time>
      </trkpt>
      <trkpt lat="43.94511" lon="7.28361">
        <ele>350</ele>
        <time>2020-06-30T09:49:46.000Z</time>
      </trkpt>
      <trkpt lat="43.94457" lon="7.28339">
        <ele>349.60000610352</ele>
        <time>2020-06-30T09:49:54.000Z</time>
      </trkpt>
      <trkpt lat="43.94444" lon="7.28333">
        <ele>348.79998779297</ele>
        <time>2020-06-30T09:49:56.000Z</time>
      </trkpt>
      <trkpt lat="43.94397" lon="7.28311">
        <ele>348.20001220703</ele>
        <time>2020-06-30T09:50:03.000Z</time>
      </trkpt>
      <trkpt lat="43.94384" lon="7.28304">
        <ele>347.79998779297</ele>
        <time>2020-06-30T09:50:05.000Z</time>
      </trkpt>
      <trkpt lat="43.94358" lon="7.28292">
        <ele>347.60000610352</ele>
        <time>2020-06-30T09:50:09.000Z</time>
      </trkpt>
      <trkpt lat="43.94316" lon="7.28276">
        <ele>346.79998779297</ele>
        <time>2020-06-30T09:50:16.000Z</time>
      </trkpt>
      <trkpt lat="43.9431" lon="7.28275">
        <ele>346.79998779297</ele>
        <time>2020-06-30T09:50:18.000Z</time>
      </trkpt>
      <trkpt lat="43.94308" lon="7.28279">
        <ele>346.79998779297</ele>
        <time>2020-06-30T09:50:19.000Z</time>
      </trkpt>
      <trkpt lat="43.94305" lon="7.28282">
        <ele>346.60000610352</ele>
        <time>2020-06-30T09:50:20.000Z</time>
      </trkpt>
      <trkpt lat="43.94301" lon="7.28286">
        <ele>346.60000610352</ele>
        <time>2020-06-30T09:50:22.000Z</time>
      </trkpt>
      <trkpt lat="43.94297" lon="7.28287">
        <ele>346.20001220703</ele>
        <time>2020-06-30T09:50:24.000Z</time>
      </trkpt>
      <trkpt lat="43.94297" lon="7.28287">
        <ele>346.39999389648</ele>
        <time>2020-06-30T09:50:28.000Z</time>
      </trkpt>
      <trkpt lat="43.94296" lon="7.28288">
        <ele>346.79998779297</ele>
        <time>2020-06-30T09:50:32.000Z</time>
      </trkpt>
    </trkseg>
  </trk>
</gpx>